# Wetter Temperatur Luftdruck Luftfeuchtigkeit Sichtweite Windgeschwindigkeit Windrichtung Zeit
1 Clouds 17 1031 58 6437 3.1 350 18:40 11.12.2019
2 Clouds 17 1031 58 6437 3.1 350 18:20 11.12.2019
3 Haze 16 1032 50 4828 2.6 170 17:57 11.12.2019
4 Haze 16 1032 50 4828 2.6 170 17:38 11.12.2019
5 Haze 16 1032 50 4828 2.6 170 17:18 11.12.2019
6 Clouds 14 1031 62 6437 1.32 4 16:56 11.12.2019
7 Clouds 13 1031 71 6437 2.1 180 16:37 11.12.2019
8 Clouds 13 1031 71 6437 2.1 180 16:37 11.12.2019
9 Clouds 13 1031 71 6437 2.1 180 16:19 11.12.2019
10 Clouds 11 1030 76 6437 1.32 4 15:57 11.12.2019
11 Clouds 11 1030 76 6437 1.32 4 15:37 11.12.2019
12 Clouds 11 1030 76 6437 1.32 4 15:19 11.12.2019
13 Clouds 9 1029 81 8047 3.1 60 14:55 11.12.2019
14 Clouds 9 1029 81 8047 3.1 60 14:36 11.12.2019
15 Clouds 9 1029 81 8047 3.1 60 14:18 11.12.2019
16 Clouds 7 1029 87 8047 1.5 90 13:43 11.12.2019
17 Clouds 7 1029 87 8047 1.5 90 13:23 11.12.2019
18 Clouds 8 1029 81 8047 3.1 60 12:58 11.12.2019
19 Clouds 8 1029 81 8047 3.1 60 12:39 11.12.2019
20 Clouds 8 1029 81 8047 3.1 60 12:21 11.12.2019
21 Clouds 8 1028 81 8047 2.6 60 11:58 11.12.2019
22 Clouds 8 1028 81 8047 2.6 60 11:39 11.12.2019
23 Clouds 8 1028 81 8047 2.6 60 11:19 11.12.2019
24 Clouds 8 1028 81 8047 2.6 60 11:19 11.12.2019
25 Clear 9 1028 76 8047 1.5 280 10:59 11.12.2019
26 Clear 9 1028 76 8047 1.5 280 10:39 11.12.2019
27 Clear 8 1028 76 8047 1.5 280 10:21 11.12.2019
28 Clear 10 1029 71 9656 2.6 280 09:55 11.12.2019
29 Clear 10 1029 71 9656 2.6 280 09:37 11.12.2019
30 Clear 10 1029 71 9656 2.6 280 09:19 11.12.2019
31 Clear 10 1028 71 9656 4.1 300 08:55 11.12.2019
32 Clear 10 1028 71 9656 4.1 300 08:36 11.12.2019
33 Clear 10 1028 71 9656 4.1 300 08:18 11.12.2019
34 Clear 11 1028 67 9656 5.1 300 07:42 11.12.2019
35 Clear 11 1028 67 9656 5.1 300 07:42 11.12.2019
36 Clear 12 1028 67 9656 5.1 300 07:22 11.12.2019
37 Clear 12 1028 58 9656 5.1 280 06:45 11.12.2019
38 Clear 12 1028 58 9656 5.1 280 06:24 11.12.2019
39 Clear 12 1028 54 9656 3.1 280 05:52 11.12.2019
40 Clear 13 1028 39 11265 1.5 110 05:28 11.12.2019
41 Clear 13 1027 44 12874 3.1 90 04:48 11.12.2019
42 Clear 16 1026 29 12874 3.1 120 03:18 11.12.2019
43 Clouds 21 1024 30 11265 6.7 150 01:56 11.12.2019
44 Clouds 21 1024 30 11265 6.7 150 01:21 11.12.2019
45 Clouds 23 1023 23 11265 3.1 290 00:37 11.12.2019
46 Clouds 23 1023 23 11265 3.1 290 00:18 11.12.2019
47 Clouds 24 1023 19 11265 4 150 23:43 10.12.2019
48 Clouds 24 1023 19 11265 0.08 222 23:22 10.12.2019
49 Clouds 25 1023 10 11265 2.1 70 22:42 10.12.2019
50 Clouds 25 1023 10 11265 2.1 70 22:24 10.12.2019
51 Clouds 24 1024 17 9656 2.6 100 21:58 10.12.2019
52 Clouds 24 1024 17 9656 2.6 100 21:40 10.12.2019
53 Clouds 24 1024 17 9656 2.6 100 21:21 10.12.2019
54 Clear 24 1026 23 9656 2.1 150 20:59 10.12.2019
55 Clear 23 1026 23 9656 2.1 150 20:59 10.12.2019
56 Clear 23 1026 23 9656 2.1 150 20:38 10.12.2019
57 Clear 23 1026 23 9656 2.1 150 20:38 10.12.2019
58 Clear 23 1026 23 9656 2.1 150 20:38 10.12.2019
59 Clear 23 1026 23 9656 2.1 150 20:38 10.12.2019
60 Clear 23 1026 23 9656 2.1 150 20:38 10.12.2019
61 Clear 23 1026 23 9656 2.1 150 20:20 10.12.2019
62 Clear 22 1026 23 9656 2.1 150 19:58 10.12.2019
63 Clouds 21 1027 32 8047 1.5 180 19:40 10.12.2019
64 Clouds 21 1027 32 8047 1.5 180 19:22 10.12.2019
65 Clear 19 1028 34 8047 2.1 170 18:56 10.12.2019
66 Clear 20 1028 34 8047 2.1 170 18:38 10.12.2019
67 Clear 20 1028 34 8047 2.1 170 18:18 10.12.2019
68 Clouds 17 1028 39 8047 1.5 70 17:54 10.12.2019
69 Clouds 17 1028 39 8047 1.5 70 17:36 10.12.2019
70 Clouds 16 1028 39 8047 1.5 70 17:18 10.12.2019
71 Clear 13 1029 50 8047 1.5 100 16:41 10.12.2019
72 Clear 13 1029 50 8047 1.5 100 16:19 10.12.2019
73 Clouds 11 1028 62 11265 2.1 70 15:40 10.12.2019
74 Clouds 11 1028 62 11265 2.1 70 15:19 10.12.2019
75 Fog 10 1029 93 805 2.1 80 14:57 10.12.2019
76 Mist 10 1027 70 9656 1.5 80 14:38 10.12.2019
77 Mist 10 1027 70 9656 1.5 80 14:20 10.12.2019
78 Clear 8 1026 66 9656 2.1 90 13:58 10.12.2019
79 Clear 8 1026 66 9656 2.1 90 13:40 10.12.2019
80 Clear 8 1026 66 9656 2.1 90 13:20 10.12.2019
81 Clear 8 1026 66 9656 2.1 90 13:20 10.12.2019
82 Fog 8 1028 93 805 1.26 110 12:49 10.12.2019
83 Clear 7 1026 66 9656 2.1 80 12:28 10.12.2019
84 Clear 8 1026 66 11265 2.1 50 11:58 10.12.2019
85 Clear 8 1026 66 11265 2.1 50 11:40 10.12.2019
86 Clear 8 1026 66 11265 2.1 50 11:21 10.12.2019
87 Clear 8 1026 66 11265 2.1 40 10:43 10.12.2019
88 Clear 8 1026 66 11265 2.1 40 10:24 10.12.2019
89 Clear 10 1026 54 11265 1.5 240 09:57 10.12.2019
90 Clear 10 1026 54 11265 1.5 240 09:57 10.12.2019
91 Clear 10 1026 54 11265 1.5 240 09:39 10.12.2019
92 Clear 10 1026 54 11265 1.5 240 09:20 10.12.2019
93 Clear 11 1026 58 11265 1.7 133 08:58 10.12.2019
94 Clear 11 1026 47 12874 1.7 133 08:39 10.12.2019
95 Clear 12 1026 47 12874 2.24 140 08:20 10.12.2019
96 Clouds 12 1026 44 12874 1.5 110 07:45 10.12.2019
97 Clouds 12 1026 44 12874 1.5 110 07:27 10.12.2019
98 Clouds 13 1026 48 12874 3.1 130 06:50 10.12.2019
99 Clouds 13 1026 48 12874 3.1 130 06:25 10.12.2019
100 Clear 14 1026 48 12874 4.1 80 05:57 10.12.2019
101 Clear 14 1026 48 12874 4.1 80 05:38 10.12.2019
102 Clear 14 1025 45 16093 1.5 130 04:23 10.12.2019
103 Clear 18 1024 45 14484 6.7 140 03:24 10.12.2019
104 Clear 20 1023 34 12874 5.1 140 01:56 10.12.2019
105 Clear 20 1023 34 12874 5.1 140 01:28 10.12.2019
106 Clear 20 1023 34 12874 5.1 140 01:28 10.12.2019
107 Clear 22 1023 30 12874 5.1 130 00:58 10.12.2019
108 Haze 23 1022 28 11265 6.7 120 00:26 10.12.2019
109 Clear 24 1022 23 11265 6.2 120 23:58 09.12.2019
110 Clear 24 1022 23 11265 6.2 120 23:39 09.12.2019
111 Clear 24 1022 23 11265 6.2 120 23:20 09.12.2019
112 Clear 25 1023 16 11265 2.1 210 22:55 09.12.2019
113 Clear 25 1023 16 11265 2.1 210 22:37 09.12.2019
114 Clear 25 1023 16 11265 2.1 210 22:18 09.12.2019
115 Clear 24 1024 16 11265 3.6 110 21:55 09.12.2019
116 Clear 24 1024 16 11265 3.6 110 21:37 09.12.2019
117 Clear 24 1024 16 11265 3.6 110 21:18 09.12.2019
118 Clear 24 1025 16 9656 1.08 169 20:55 09.12.2019
119 Clear 24 1025 16 9656 1.08 169 20:37 09.12.2019
120 Clear 24 1025 16 9656 0.69 202 20:18 09.12.2019
121 Clear 22 1025 18 9656 2.1 130 19:54 09.12.2019
122 Clear 21 1026 21 9656 0.69 202 19:36 09.12.2019
123 Clear 21 1026 21 9656 0.69 202 19:18 09.12.2019
124 Clear 20 1027 30 8047 2.6 140 18:40 09.12.2019
125 Clear 18 1027 29 8047 0.69 202 18:20 09.12.2019
126 Clear 18 1027 29 8047 0.69 202 17:59 09.12.2019
127 Clear 17 1028 41 11265 1.5 50 17:41 09.12.2019
128 Clear 16 1028 41 11265 1.5 50 17:21 09.12.2019
129 Clear 14 1028 47 12874 2.1 100 16:58 09.12.2019
130 -273 0 0 0 0 0 16:40 09.12.2019
131 Clear 14 1028 47 12874 2.1 100 16:21 09.12.2019
132 Clear 10 1030 80 8047 1.5 90 15:57 09.12.2019
133 Clear 10 1030 80 8047 1.5 90 15:57 09.12.2019
134 Clear 8 1028 57 14484 2.1 70 15:38 09.12.2019
135 Clear 8 1028 57 14484 2.1 70 15:38 09.12.2019
136 Clear 8 1028 57 14484 2.1 70 15:19 09.12.2019
137 Clear 7 1027 61 12874 2.6 70 14:59 09.12.2019
138 Clear 7 1027 61 12874 2.6 70 14:41 09.12.2019
139 Clear 7 1027 61 12874 2.6 70 14:41 09.12.2019
140 Clear 7 1027 61 12874 2.6 70 14:18 09.12.2019
141 Clear 5 1027 65 12874 2.6 70 13:56 09.12.2019
142 Clear 5 1027 65 12874 2.6 70 13:37 09.12.2019
143 Clear 5 1027 65 12874 2.6 70 13:19 09.12.2019
144 Clear 6 1026 61 11265 0.94 120 12:55 09.12.2019
145 Clear 6 1026 61 11265 0.94 120 12:36 09.12.2019
146 Clear 6 1026 61 11265 0.94 120 12:18 09.12.2019
147 Clear 6 1026 57 11265 1 50 11:40 09.12.2019
148 Clear 6 1026 57 11265 1 50 11:22 09.12.2019
149 Clear 6 1027 57 11265 0.97 92 10:59 09.12.2019
150 Clear 6 1027 57 11265 0.97 92 10:39 09.12.2019
151 Clear 6 1027 57 11265 0.97 92 10:39 09.12.2019
152 Clear 6 1027 57 11265 0.97 92 10:19 09.12.2019
153 Clear 9 1027 41 12874 1 60 09:45 09.12.2019
154 Clear 9 1027 41 12874 1 60 09:25 09.12.2019
155 Clear 10 1027 33 16093 1.5 280 08:57 09.12.2019
156 Clear 10 1027 33 16093 1.5 280 08:39 09.12.2019
157 Clear 10 1027 33 16093 1.5 280 08:20 09.12.2019
158 Clear 11 1027 30 16093 4.1 310 07:52 09.12.2019
159 Clear 11 1027 30 16093 4.1 310 07:33 09.12.2019
160 Clear 13 1028 26 16093 2.6 280 06:58 09.12.2019
161 Clear 13 1028 26 16093 2.6 280 06:30 09.12.2019
162 Clear 14 1028 23 16093 3.6 280 05:42 09.12.2019
163 Clear 14 1028 23 16093 3.6 280 05:20 09.12.2019
164 Clear 15 1028 20 17702 2.1 340 04:27 09.12.2019
165 Clear 15 1028 20 17702 2.1 340 04:27 09.12.2019
166 Clear 18 1026 30 14484 3.6 110 02:29 09.12.2019
167 Clear 21 1025 14 12874 2.1 340 01:46 09.12.2019
168 Clear 23 1025 16 11265 3.1 90 00:58 09.12.2019
169 Clear 23 1025 16 11265 3.1 90 00:33 09.12.2019
170 Clear 24 1025 19 9656 2.1 50 23:55 08.12.2019
171 Clear 24 1025 19 9656 2.1 50 23:37 08.12.2019
172 Clear 24 1025 19 9656 2.1 50 23:19 08.12.2019
173 Clear 24 1025 16 9656 2.1 140 22:56 08.12.2019
174 Clear 24 1025 16 9656 2.1 140 22:38 08.12.2019
175 Clear 24 1025 16 9656 2.1 140 22:18 08.12.2019
176 Clear 23 1026 16 8047 2.35 357 21:56 08.12.2019
177 Clear 23 1026 16 8047 2.35 357 21:37 08.12.2019
178 Clear 23 1026 16 8047 2.35 357 21:19 08.12.2019
179 Clear 23 1026 16 8047 2.35 357 21:19 08.12.2019
180 Clear 23 1027 16 8047 1.5 310 20:55 08.12.2019
181 Clear 22 1028 30 8047 3.1 320 20:37 08.12.2019
182 Clear 21 1029 37 8047 2.1 70 20:19 08.12.2019
183 Clear 21 1029 37 8047 2.1 70 19:55 08.12.2019
184 Clear 21 1029 37 8047 2.1 70 19:36 08.12.2019
185 Clear 21 1029 37 8047 2.1 70 19:18 08.12.2019
186 Clear 21 1029 37 8047 2.1 70 19:18 08.12.2019
187 Clear 21 1029 37 8047 2.1 70 19:18 08.12.2019
188 Clear 19 1029 39 8047 1.21 334 18:54 08.12.2019
189 Clear 19 1030 45 8047 1.21 334 18:36 08.12.2019
190 Clear 18 1030 45 8047 1.21 334 18:18 08.12.2019
191 Clear 16 1031 51 8047 1.5 160 17:54 08.12.2019
192 Clear 15 1031 58 8047 1.21 334 17:36 08.12.2019
193 Clear 15 1031 58 8047 0.16 131 17:18 08.12.2019
194 Clear 12 1031 66 8047 3.1 100 16:42 08.12.2019
195 Clear 12 1031 66 8047 3.1 100 16:24 08.12.2019
196 Clear 8 1030 75 8047 2.1 70 15:59 08.12.2019
197 Clear 8 1030 75 8047 2.1 70 15:37 08.12.2019
198 Clear 7 1030 75 8047 2.1 70 15:18 08.12.2019
199 Clear 7 1030 75 8047 2.1 70 15:18 08.12.2019
200 Mist 6 1029 87 6437 2.6 60 14:57 08.12.2019
201 Mist 6 1029 87 6437 2.6 60 14:37 08.12.2019
202 Mist 6 1029 87 6437 2.6 60 14:19 08.12.2019
203 Clear 5 1029 81 6437 2.1 70 13:41 08.12.2019
204 Clear 5 1029 81 6437 2.1 70 13:22 08.12.2019
205 Clear 4 1029 87 6437 2.1 30 12:59 08.12.2019
206 Clear 4 1029 87 6437 2.1 30 12:40 08.12.2019
207 Clear 4 1029 87 6437 2.1 30 12:19 08.12.2019
208 Clear 4 1029 87 6437 2.1 30 12:19 08.12.2019
209 Clear 4 1029 87 8047 2.6 60 11:58 08.12.2019
210 Clear 4 1029 87 8047 2.6 60 11:37 08.12.2019
211 Clear 6 1029 87 8047 2.6 60 11:19 08.12.2019
212 Clear 6 1030 87 8047 1.5 40 10:55 08.12.2019
213 Clear 6 1030 87 8047 1.5 40 10:37 08.12.2019
214 Clear 7 1030 87 8047 1.5 40 10:19 08.12.2019
215 Clear 8 1030 81 9656 2.1 90 09:55 08.12.2019
216 Clear 8 1030 81 9656 2.1 90 09:36 08.12.2019
217 Clear 8 1030 81 9656 2.1 90 09:18 08.12.2019
218 Clear 8 1030 81 9656 2.1 90 09:18 08.12.2019
219 Clear 8 1030 81 9656 2.6 100 08:41 08.12.2019
220 Clear 9 1030 66 11265 2.6 80 08:23 08.12.2019
221 Clear 10 1031 58 12874 2.4 5 07:55 08.12.2019
222 Clear 10 1031 58 12874 2.4 5 07:36 08.12.2019
223 Clear 10 1031 58 12874 2.4 5 07:18 08.12.2019
224 Clear 12 1031 54 12874 3.6 310 06:40 08.12.2019
225 Clear 12 1031 54 12874 3.6 310 06:20 08.12.2019
226 Clear 13 1031 44 12874 3.6 310 05:23 08.12.2019
227 Clear 14 1030 48 11265 2.1 10 04:46 08.12.2019
228 Clear 15 1030 39 11265 3.1 80 03:39 08.12.2019
229 Clear 17 1029 34 9656 5.1 130 02:43 08.12.2019
230 Clear 17 1029 34 9656 5.1 130 02:20 08.12.2019
231 Clear 19 1029 34 9656 5.1 120 01:40 08.12.2019
232 Clear 22 1028 19 9656 2.1 80 00:54 08.12.2019
233 Clear 23 1028 17 9656 1.21 326 00:24 08.12.2019
234 Clear 23 1028 17 9656 2.1 40 23:59 07.12.2019
235 Clear 23 1028 17 9656 2.1 40 23:38 07.12.2019
236 Clear 23 1029 16 9656 2.1 40 23:20 07.12.2019
237 Clear 23 1029 16 9656 2.1 40 22:55 07.12.2019
238 Clear 22 1029 16 9656 2.1 40 22:37 07.12.2019
239 Clear 22 1029 16 9656 2.1 40 22:37 07.12.2019
240 Clear 22 1029 16 9656 2.1 40 22:37 07.12.2019
241 Clear 22 1029 16 9656 2.1 40 22:19 07.12.2019
242 Clear 22 1029 19 9656 2.06 318 21:55 07.12.2019
243 Clear 22 1029 19 9656 2.06 318 21:55 07.12.2019
244 Clear 22 1030 24 9656 1.5 270 21:37 07.12.2019
245 Clear 21 1030 24 9656 1.5 270 21:18 07.12.2019
246 Clear 20 1031 25 9656 2.1 40 20:38 07.12.2019
247 Clear 20 1031 25 9656 2.1 40 20:20 07.12.2019
248 Clear 19 1031 25 9656 2.6 50 19:58 07.12.2019
249 Clear 19 1031 25 9656 2.6 50 19:58 07.12.2019
250 Clear 18 1033 26 9656 1.65 336 19:39 07.12.2019
251 Clear 18 1033 26 9656 1.65 336 19:21 07.12.2019
252 Clear 17 1033 38 9656 2.1 70 18:58 07.12.2019
253 Clear 17 1033 38 9656 2.1 70 18:40 07.12.2019
254 Clear 17 1033 38 9656 2.1 70 18:40 07.12.2019
255 Clear 17 1033 38 9656 2.1 70 18:18 07.12.2019
256 Clear 15 1034 44 9656 2.1 20 17:56 07.12.2019
257 Clear 14 1034 54 9656 2.6 90 17:37 07.12.2019
258 Clear 14 1034 54 9656 2.6 90 17:19 07.12.2019
259 Clear 11 1034 61 11265 2.1 50 16:56 07.12.2019
260 Clear 11 1034 61 11265 2.1 50 16:36 07.12.2019
261 Clear 11 1034 61 11265 2.1 50 16:36 07.12.2019
262 Clear 11 1034 61 11265 2.1 50 16:18 07.12.2019
263 Clear 11 1034 61 11265 2.1 50 16:18 07.12.2019
264 Clear 5 1034 75 12874 2.1 60 15:41 07.12.2019
265 Clear 8 1034 75 12874 2.1 60 15:23 07.12.2019
266 Clear 8 1034 75 12874 2.1 60 15:23 07.12.2019
267 Clear 6 1033 86 11265 3.6 60 14:56 07.12.2019
268 Clear 6 1033 86 11265 3.6 60 14:38 07.12.2019
269 Clear 6 1033 86 11265 3.6 60 14:18 07.12.2019
270 Clear 4 1033 81 12874 2.6 60 13:40 07.12.2019
271 Clear 4 1033 81 12874 2.6 60 13:20 07.12.2019
272 Clear 5 1033 75 14484 2.1 50 12:55 07.12.2019
273 Clear 5 1033 75 14484 2.1 50 12:37 07.12.2019
274 Clear 5 1033 75 14484 2.1 50 12:18 07.12.2019
275 Clear 6 1032 65 14484 1.5 50 11:42 07.12.2019
276 Clear 6 1032 65 14484 1.5 50 11:23 07.12.2019
277 Clear 7 1032 57 16093 4.1 320 10:58 07.12.2019
278 Clear 8 1032 57 16093 4.1 320 10:37 07.12.2019
279 Clear 8 1032 57 16093 4.1 320 10:18 07.12.2019
280 Clear 8 1033 50 16093 3.1 300 09:40 07.12.2019
281 Clear 9 1032 46 16093 4.1 300 09:21 07.12.2019
282 Clear 9 1032 46 16093 4.1 300 09:21 07.12.2019
283 Clear 9 1032 46 16093 4.1 300 08:46 07.12.2019
284 Clear 9 1032 46 16093 4.1 300 08:25 07.12.2019
285 Clear 9 1032 46 16093 5.1 290 07:54 07.12.2019
286 Clear 9 1032 46 16093 5.1 290 07:30 07.12.2019
287 Clear 10 1032 46 16093 5.1 280 06:53 07.12.2019
288 Clear 12 1032 47 16093 5.1 300 06:28 07.12.2019
289 Clear 14 1031 38 16093 3.6 320 05:50 07.12.2019
290 Clear 14 1031 38 16093 3.6 320 04:49 07.12.2019
291 Clear 16 1029 18 19312 5.1 20 03:53 07.12.2019
292 Clear 18 1029 18 19312 5.1 20 02:50 07.12.2019
293 Clear 19 1028 14 19312 6.2 30 02:19 07.12.2019
294 Clear 21 1027 11 19312 7.2 360 01:30 07.12.2019
295 Clear 23 1026 9 16093 7.7 30 00:43 07.12.2019
296 Clear 23 1026 9 16093 7.7 30 00:18 07.12.2019
297 Clear 24 1026 7 16093 7.2 20 23:45 06.12.2019
298 Clear 25 1026 7 16093 7.2 20 23:23 06.12.2019
299 Clear 25 1026 10 16093 7.2 350 22:58 06.12.2019
300 Clear 25 1026 10 16093 7.2 350 22:58 06.12.2019
301 Clear 25 1026 10 16093 7.2 350 22:36 06.12.2019
302 Clear 25 1026 10 16093 7.2 350 22:18 06.12.2019
303 Clear 24 1027 12 16093 6.2 350 21:41 06.12.2019
304 Clear 24 1027 12 16093 6.2 350 21:21 06.12.2019
305 Clear 24 1028 14 16093 4.6 30 20:59 06.12.2019
306 Clear 23 1028 14 16093 4.6 30 20:41 06.12.2019
307 Clear 23 1028 14 16093 4.6 30 20:41 06.12.2019
308 Clear 23 1028 14 16093 4.6 30 20:21 06.12.2019
309 Clear 22 1029 14 16093 3.6 360 19:54 06.12.2019
310 Clear 22 1030 20 9656 3.1 310 19:36 06.12.2019
311 Clear 21 1030 18 8047 2.77 349 19:18 06.12.2019
312 Clear 19 1031 33 9656 1.5 110 18:44 06.12.2019
313 Clear 19 1031 33 9656 1.5 110 18:22 06.12.2019
314 Clear 17 1031 36 9656 2.1 80 17:58 06.12.2019
315 Clear 16 1031 41 9656 2.1 80 17:40 06.12.2019
316 Clear 16 1031 41 9656 2.1 80 17:40 06.12.2019
317 Clear 16 1031 41 9656 2.1 80 17:22 06.12.2019
318 Clear 13 1031 41 12874 3.1 90 16:58 06.12.2019
319 Clear 13 1031 46 12874 2.6 80 16:39 06.12.2019
320 Clear 12 1031 46 12874 2.6 80 16:20 06.12.2019
321 Clear 10 1031 50 16093 2.1 70 15:41 06.12.2019
322 Clear 10 1030 41 16093 2.1 90 15:23 06.12.2019
323 Mist 9 1032 93 1609 1.37 6 14:58 06.12.2019
324 Clear 9 1030 57 16093 2.1 20 14:40 06.12.2019
325 Clear 9 1030 57 16093 2.1 20 14:20 06.12.2019
326 Clear 6 1029 65 16093 2.1 50 13:55 06.12.2019
327 Clear 6 1029 65 16093 2.1 50 13:37 06.12.2019
328 Clear 6 1029 65 16093 2.1 50 13:19 06.12.2019
329 Clear 7 1029 65 16093 1.07 35 12:39 06.12.2019
330 Clear 7 1029 65 16093 1.07 35 12:21 06.12.2019
331 Clear 8 1029 57 16093 2.1 80 11:43 06.12.2019
332 Clear 8 1029 57 16093 2.1 80 11:23 06.12.2019
333 Clear 8 1028 49 16093 2.1 50 10:58 06.12.2019
334 Clear 9 1028 49 16093 2.1 50 10:40 06.12.2019
335 Clear 9 1028 49 16093 2.1 50 10:20 06.12.2019
336 Clear 9 1028 49 16093 1.5 70 09:56 06.12.2019
337 Clear 10 1029 46 19312 1.5 60 09:37 06.12.2019
338 Clear 9 1029 46 19312 1.5 60 09:19 06.12.2019
339 Clear 11 1029 43 19312 1.5 60 08:43 06.12.2019
340 Clear 10 1029 43 19312 1.5 60 08:25 06.12.2019
341 Clear 13 1029 38 16093 4.1 290 07:43 06.12.2019
342 Clear 13 1029 38 16093 4.1 290 07:23 06.12.2019
343 Clear 13 1029 38 16093 4.1 290 07:23 06.12.2019
344 Clear 13 1029 38 16093 4.1 290 07:23 06.12.2019
345 Clear 14 1029 29 16093 3.6 310 06:53 06.12.2019
346 Clear 14 1029 29 16093 3.6 310 06:26 06.12.2019
347 Clear 15 1029 27 16093 2.6 330 05:51 06.12.2019
348 Clear 16 1027 24 16093 3.1 10 03:57 06.12.2019
349 Clear 21 1025 19 11265 2.6 280 01:48 06.12.2019
350 Clear 21 1025 19 11265 2.6 280 01:48 06.12.2019
351 Clear 24 1025 20 9656 2.1 280 00:57 06.12.2019
352 Clear 24 1025 20 9656 2.1 280 00:37 06.12.2019
353 Clear 24 1025 20 9656 2.1 280 00:19 06.12.2019
354 Clouds 24 1026 26 11265 2.11 342 23:21 05.12.2019
355 Clear 22 1025 16 9656 3.1 360 22:59 05.12.2019
356 Clear 22 1025 16 9656 3.1 360 22:39 05.12.2019
357 Clear 22 1026 16 9656 2.1 360 22:20 05.12.2019
358 Clear 22 1026 16 9656 2.1 360 22:20 05.12.2019
359 Clear 22 1025 16 9656 3.1 360 22:20 05.12.2019
360 Clear 22 1026 16 9656 2.1 360 21:58 05.12.2019
361 Clear 22 1026 16 9656 2.1 360 21:40 05.12.2019
362 Clear 22 1026 16 9656 2.1 360 21:22 05.12.2019
363 Clear 22 1027 26 9656 2.6 70 20:58 05.12.2019
364 Clear 22 1027 26 9656 2.6 70 20:40 05.12.2019
365 Clear 22 1027 26 9656 2.6 70 20:19 05.12.2019
366 Clear 22 1027 26 9656 2.6 70 20:19 05.12.2019
367 Clear 21 1028 28 9656 1.5 90 19:43 05.12.2019
368 Clear 21 1028 28 9656 1.5 90 19:25 05.12.2019
369 Clouds 19 1022 36 12874 1.76 344 18:59 05.12.2019
370 Clear 19 1030 34 8047 1.5 30 18:39 05.12.2019
371 Clear 19 1030 34 8047 1.5 30 18:39 05.12.2019
372 Clear 19 1030 34 8047 1.5 30 18:21 05.12.2019
373 Clear 17 1030 44 9656 2.1 60 17:59 05.12.2019
374 Clear 17 1030 44 9656 2.1 60 17:38 05.12.2019
375 Clear 16 1030 44 9656 2.1 60 17:19 05.12.2019
376 Clear 14 1030 44 9656 2.1 100 16:55 05.12.2019
377 Clear 14 1030 44 9656 2.1 100 16:37 05.12.2019
378 Clear 13 1030 50 11265 2.6 80 16:18 05.12.2019
379 Clear 10 1029 57 16093 3.1 80 15:55 05.12.2019
380 Clear 10 1029 57 16093 3.1 80 15:36 05.12.2019
381 Clear 10 1029 57 16093 3.1 80 15:18 05.12.2019
382 Clear 9 1028 53 16093 1.5 60 14:54 05.12.2019
383 Clear 9 1028 53 16093 1.5 60 14:36 05.12.2019
384 Clear 10 1028 53 16093 1.5 60 14:18 05.12.2019
385 Mist 6 1029 93 3219 1.13 46 13:54 05.12.2019
386 Mist 6 1029 93 3219 1.13 46 13:36 05.12.2019
387 Clear 6 1028 65 14484 2.1 70 13:18 05.12.2019
388 Clear 7 1027 65 14484 2.1 70 12:41 05.12.2019
389 Clear 7 1027 65 14484 2.1 70 12:23 05.12.2019
390 Clear 7 1027 53 16093 1 70 11:56 05.12.2019
391 Clear 7 1027 53 16093 1 70 11:37 05.12.2019
392 Clear 8 1027 53 16093 1 70 11:18 05.12.2019
393 Clear 9 1027 57 16093 2.1 60 10:54 05.12.2019
394 Clear 9 1027 57 16093 2.1 60 10:54 05.12.2019
395 Clear 9 1027 57 16093 2.1 60 10:36 05.12.2019
396 Clear 9 1027 57 16093 2.1 60 10:18 05.12.2019
397 Clear 10 1028 46 16093 2.1 50 09:42 05.12.2019
398 Clear 10 1028 46 16093 2.1 50 09:20 05.12.2019
399 Clear 11 1028 44 14484 2.6 300 08:57 05.12.2019
400 Clear 11 1028 44 14484 2.6 300 08:37 05.12.2019
401 Clear 12 1028 44 14484 2.6 300 08:19 05.12.2019
402 Clear 12 1028 38 12874 2.6 300 07:49 05.12.2019
403 Clear 12 1028 38 12874 2.6 300 07:31 05.12.2019
404 Clear 13 1028 57 12874 2.6 290 06:56 05.12.2019
405 Clear 13 1028 57 12874 2.6 290 06:37 05.12.2019
406 Clear 13 1028 57 12874 2.6 290 06:18 05.12.2019
407 Clear 14 1028 57 12874 3.1 10 05:44 05.12.2019
408 Clear 14 1028 43 12874 3.1 10 05:19 05.12.2019
409 Clear 15 1026 25 12874 4.1 50 03:52 05.12.2019
410 Clear 19 1025 21 12874 3.1 10 02:42 05.12.2019
411 Clear 19 1025 21 12874 3.1 10 02:23 05.12.2019
412 Clouds 21 1025 21 12874 2.1 340 01:51 05.12.2019
413 Clouds 21 1025 21 12874 2.1 340 01:24 05.12.2019
414 Clouds 24 1024 18 12874 1.5 160 00:47 05.12.2019
415 Clouds 24 1024 18 12874 1.5 160 00:22 05.12.2019
416 Clouds 24 1024 17 12874 2.6 270 23:56 04.12.2019
417 Clouds 24 1024 17 12874 2.6 270 23:37 04.12.2019
418 Clouds 24 1024 17 12874 2.6 270 23:19 04.12.2019
419 Clouds 24 1025 18 12874 4.1 40 22:39 04.12.2019
420 Clouds 24 1025 18 12874 4.1 40 22:20 04.12.2019
421 Clear 23 1025 18 16093 3.1 50 21:58 04.12.2019
422 Clear 23 1025 18 16093 3.1 50 21:39 04.12.2019
423 Clear 23 1025 18 16093 3.1 50 21:20 04.12.2019
424 Clear 22 1027 17 16093 2.1 40 20:58 04.12.2019
425 Clear 22 1027 17 16093 2.1 40 20:40 04.12.2019
426 Clear 22 1027 22 16093 2.1 40 20:21 04.12.2019
427 Clear 21 1028 28 16093 4.1 40 19:58 04.12.2019
428 Clear 21 1028 28 16093 4.1 40 19:38 04.12.2019
429 Clear 21 1028 28 16093 4.1 40 19:20 04.12.2019
430 Clear 20 1029 32 9656 1.5 120 18:42 04.12.2019
431 Clear 20 1029 32 9656 1.5 120 18:24 04.12.2019
432 Clear 18 1029 37 9656 2.3 358 18:00 04.12.2019
433 Clear 18 1029 37 9656 2.3 358 17:40 04.12.2019
434 Clear 17 1029 42 12874 1.5 190 17:21 04.12.2019
435 Clear 15 1029 47 12874 0.73 4 16:57 04.12.2019
436 Clear 15 1029 47 12874 0.73 4 16:39 04.12.2019
437 Clear 14 1029 54 14484 2.1 100 16:19 04.12.2019
438 Clear 11 1029 57 14484 2.1 80 15:55 04.12.2019
439 Clear 11 1029 57 14484 2.1 80 15:55 04.12.2019
440 Clear 11 1029 57 14484 2.1 80 15:37 04.12.2019
441 Clear 11 1029 57 14484 2.1 80 15:19 04.12.2019
442 Clear 11 1029 57 14484 2.1 80 15:19 04.12.2019
443 Clear 9 1028 66 12874 2.1 60 14:44 04.12.2019
444 Clear 9 1028 66 12874 2.1 60 14:23 04.12.2019
445 Clear 7 1027 61 11265 2.6 70 13:58 04.12.2019
446 Clear 7 1027 61 11265 2.6 70 13:38 04.12.2019
447 Clear 7 1027 61 11265 2.6 70 13:19 04.12.2019
448 Clear 7 1027 61 11265 1.01 60 12:44 04.12.2019
449 Clear 7 1027 61 11265 1.01 60 12:24 04.12.2019
450 Clear 7 1027 57 11265 3.1 60 11:56 04.12.2019
451 Clear 7 1027 57 11265 3.1 60 11:37 04.12.2019
452 Clear 8 1027 57 11265 3.1 60 11:19 04.12.2019
453 Clear 7 1027 53 12874 1.5 110 10:43 04.12.2019
454 Clear 9 1027 53 12874 1.5 110 10:23 04.12.2019
455 Clear 10 1027 50 12874 2.1 80 09:55 04.12.2019
456 Clear 10 1027 50 12874 2.1 80 09:55 04.12.2019
457 Clear 10 1027 50 12874 2.1 80 09:37 04.12.2019
458 Clear 10 1027 50 12874 2.1 80 09:18 04.12.2019
459 Clear 10 1028 50 12874 2.1 60 08:39 04.12.2019
460 Clear 12 1028 44 16093 2.1 60 08:20 04.12.2019
461 Clear 11 1028 41 16093 2.1 70 07:48 04.12.2019
462 Clear 13 1028 44 16093 1.5 280 07:30 04.12.2019
463 Clear 13 1028 44 16093 1.5 280 07:30 04.12.2019
464 Clear 14 1028 33 16093 0.76 22 06:34 04.12.2019
465 Clear 14 1028 31 16093 2.6 10 05:48 04.12.2019
466 Clear 16 1027 31 16093 2.1 20 04:58 04.12.2019
467 Clear 16 1027 30 16093 3.6 70 04:25 04.12.2019
468 Clear 20 1025 24 16093 3.6 360 02:47 04.12.2019
469 Clear 23 1025 25 16093 4.1 40 00:52 04.12.2019
470 Clear 22 1025 25 16093 4.1 40 00:25 04.12.2019
471 Clear 23 1024 20 16093 3.1 20 23:58 03.12.2019
472 Clear 23 1024 20 16093 3.1 20 23:40 03.12.2019
473 Clear 23 1024 20 16093 3.1 20 23:19 03.12.2019
474 Clear 24 1025 16 16093 3.1 240 22:40 03.12.2019
475 Clear 23 1025 16 16093 3.1 240 22:19 03.12.2019
476 Clear 23 1026 16 16093 1.5 20 21:58 03.12.2019
477 Clear 23 1026 16 16093 1.5 20 21:38 03.12.2019
478 Clear 23 1026 16 16093 1.5 20 21:19 03.12.2019
479 Clear 21 1027 26 9656 4.1 40 20:58 03.12.2019
480 Clear 21 1027 26 9656 4.1 40 20:39 03.12.2019
481 Clear 21 1027 26 9656 4.1 40 20:18 03.12.2019
482 Clear 21 1028 34 9656 3.6 20 19:55 03.12.2019
483 Clear 21 1028 34 9656 3.6 20 19:37 03.12.2019
484 Clear 21 1028 34 9656 3.6 20 19:18 03.12.2019
485 Clear 19 1029 42 9656 2.1 210 18:56 03.12.2019
486 Clear 19 1029 42 9656 2.1 210 18:37 03.12.2019
487 Clear 19 1029 42 9656 2.1 210 18:19 03.12.2019
488 Clear 19 1029 45 8047 1.5 120 17:54 03.12.2019
489 Clear 18 1029 45 8047 1.5 120 17:36 03.12.2019
490 Clear 19 1029 45 8047 1.5 120 17:36 03.12.2019
491 Clear 17 1030 55 8047 2.1 140 17:18 03.12.2019
492 Clear 15 1030 62 8047 2.6 90 16:40 03.12.2019
493 Clear 15 1030 71 9656 1 100 16:22 03.12.2019
494 Clear 14 1030 71 9656 1 100 15:59 03.12.2019
495 Clear 12 1030 76 9656 1.5 80 15:40 03.12.2019
496 Clear 11 1029 87 9656 2.6 70 15:20 03.12.2019
497 Haze 10 1029 87 8047 2.6 80 14:58 03.12.2019
498 Haze 10 1029 87 8047 2.6 80 14:40 03.12.2019
499 Haze 8 1029 87 8047 2.6 80 14:19 03.12.2019
500 Clear 8 1029 87 9656 2.1 60 13:39 03.12.2019
501 Clear 8 1029 87 9656 2.1 60 13:20 03.12.2019
502 Clear 8 1028 87 9656 2.1 70 12:59 03.12.2019
503 Clear 8 1028 87 9656 2.1 70 12:38 03.12.2019
504 Clear 8 1028 87 9656 2.1 70 12:18 03.12.2019
505 Clouds 7 1030 87 8047 2.1 60 11:58 03.12.2019
506 Clouds 9 1030 87 8047 2.1 60 11:38 03.12.2019
507 Clouds 10 1030 87 8047 2.1 60 11:19 03.12.2019
508 Clouds 10 1030 87 8047 2.1 60 11:19 03.12.2019
509 Clear 9 1028 76 9656 1.5 60 10:56 03.12.2019
510 Clear 9 1028 76 9656 1.5 60 10:38 03.12.2019
511 Clear 9 1028 76 9656 1.5 60 10:19 03.12.2019
512 Clear 10 1029 71 9656 2.6 70 09:45 03.12.2019
513 Clear 10 1029 71 9656 2.6 70 09:24 03.12.2019
514 Clear 11 1029 62 11265 2.6 70 08:57 03.12.2019
515 Clear 11 1029 62 11265 2.6 70 08:38 03.12.2019
516 Clear 12 1029 62 11265 2.6 70 08:20 03.12.2019
517 Clouds 12 1029 58 11265 3.1 300 07:51 03.12.2019
518 Clouds 12 1029 58 11265 3.1 300 07:51 03.12.2019
519 Clouds 13 1029 58 11265 3.1 300 07:28 03.12.2019
520 Clouds 12 1030 63 11265 2.6 360 06:42 03.12.2019
521 Clouds 12 1030 63 11265 2.6 360 06:20 03.12.2019
522 Clear 15 1029 52 12874 3.1 180 04:59 03.12.2019
523 Clear 15 1028 48 11265 3.1 180 03:42 03.12.2019
524 Clear 15 1028 48 11265 3.1 180 03:21 03.12.2019
525 Clear 18 1027 45 11265 4.1 130 02:52 03.12.2019
526 Clear 18 1027 45 11265 4.1 130 02:32 03.12.2019
527 Clouds 21 1027 43 9656 5.1 140 01:57 03.12.2019
528 Clouds 21 1027 43 9656 5.1 140 01:38 03.12.2019
529 Clouds 21 1027 43 9656 5.1 140 01:18 03.12.2019
530 Clouds 23 1026 30 9656 1.5 90 00:41 03.12.2019
531 Clouds 23 1026 30 9656 1.5 90 00:23 03.12.2019
532 Clouds 24 1026 30 9656 2.1 130 23:44 02.12.2019
533 Clouds 23 1026 30 9656 2.1 130 23:21 02.12.2019
534 Clear 23 1027 35 9656 1.5 40 22:56 02.12.2019
535 Clear 23 1027 35 9656 1.5 40 22:56 02.12.2019
536 Clear 23 1027 35 9656 1.5 40 22:37 02.12.2019
537 Clear 23 1027 35 9656 1.5 40 22:19 02.12.2019
538 Clear 22 1028 37 9656 2.1 290 21:39 02.12.2019
539 Clear 22 1028 37 9656 2.1 290 21:20 02.12.2019
540 Clear 21 1029 42 9656 2.6 210 20:57 02.12.2019
541 Clear 21 1029 42 9656 2.6 210 20:57 02.12.2019
542 Clear 21 1029 42 9656 2.6 210 20:39 02.12.2019
543 Clear 21 1029 42 9656 2.6 210 20:20 02.12.2019
544 Clouds 20 1031 48 11265 2.6 320 19:56 02.12.2019
545 -273 0 0 0 0 0 19:38 02.12.2019
546 Clouds 20 1031 48 11265 2.6 320 19:20 02.12.2019
547 Clouds 18 1031 55 11265 2.6 360 18:48 02.12.2019
548 Clouds 17 1032 58 9656 2.48 2 18:24 02.12.2019
549 Mist 16 1033 93 4828 2.6 340 17:59 02.12.2019
550 Mist 16 1033 93 4828 2.6 340 17:41 02.12.2019
551 Clouds 15 1033 71 6437 1.5 120 17:20 02.12.2019
552 Mist 13 1032 81 4828 3.6 70 16:57 02.12.2019
553 Mist 13 1032 81 4828 3.6 70 16:39 02.12.2019
554 Mist 12 1032 81 4828 3.6 70 16:18 02.12.2019
555 Mist 9 1031 87 4828 2.6 60 15:56 02.12.2019
556 Mist 11 1031 87 4828 2.6 60 15:38 02.12.2019
557 Mist 11 1031 87 4828 2.6 60 15:19 02.12.2019
558 Mist 11 1031 87 6437 2.1 100 14:40 02.12.2019
559 Mist 9 1031 87 6437 2.1 100 14:20 02.12.2019
560 Clouds 8 1030 87 6437 2.1 50 13:58 02.12.2019
561 Clouds 8 1030 87 6437 2.1 50 13:40 02.12.2019
562 Clouds 8 1030 87 6437 2.1 50 13:20 02.12.2019
563 Clear 8 1030 87 8047 2.6 80 12:59 02.12.2019
564 Clear 8 1030 87 8047 2.6 80 12:40 02.12.2019
565 Clear 8 1030 87 8047 2.6 80 12:20 02.12.2019
566 Fog 9 1031 93 402 2.22 22 11:56 02.12.2019
567 Fog 9 1031 93 402 2.22 22 11:37 02.12.2019
568 Clear 9 1030 81 9656 2.1 80 11:18 02.12.2019
569 Clear 9 1030 76 9656 2.1 70 10:55 02.12.2019
570 Clear 9 1030 76 9656 2.1 70 10:37 02.12.2019
571 Clouds 11 1030 76 9656 2.6 280 10:19 02.12.2019
572 Clouds 11 1030 71 9656 3.1 300 09:41 02.12.2019
573 Clouds 11 1030 71 9656 3.1 300 09:19 02.12.2019
574 Clear 11 1030 67 9656 2.6 270 08:57 02.12.2019
575 Clear 11 1030 67 9656 2.6 270 08:38 02.12.2019
576 Clear 12 1030 67 9656 2.6 270 08:20 02.12.2019
577 Clear 13 1030 62 11265 3.6 300 07:44 02.12.2019
578 Clear 13 1030 62 11265 3.6 300 07:21 02.12.2019
579 Clear 13 1030 58 12874 3.6 270 06:56 02.12.2019
580 Clear 13 1030 58 12874 3.6 270 06:38 02.12.2019
581 Clouds 13 1030 55 12874 3.6 300 05:34 02.12.2019
582 Clear 15 1029 51 16093 3.1 320 04:26 02.12.2019
583 Clouds 19 1026 45 16093 6.2 360 02:53 02.12.2019
584 Clouds 18 1026 45 16093 6.2 360 02:27 02.12.2019
585 Clouds 22 1025 40 16093 7.7 30 01:26 02.12.2019
586 Clouds 24 1024 27 16093 9.8 30 00:58 02.12.2019
587 Clouds 25 1024 27 16093 9.8 30 00:25 02.12.2019
588 Clouds 26 1023 20 16093 6.2 360 23:55 01.12.2019
589 Clouds 26 1023 20 16093 6.2 360 23:37 01.12.2019
590 Clouds 26 1023 20 16093 6.2 360 23:19 01.12.2019
591 Clouds 25 1024 20 16093 4.6 20 22:55 01.12.2019
592 Clouds 25 1024 20 16093 4.6 20 22:36 01.12.2019
593 Clouds 25 1024 20 16093 4.6 20 22:18 01.12.2019
594 Clouds 25 1024 20 16093 4.6 360 21:54 01.12.2019
595 Clouds 25 1024 20 16093 4.6 360 21:54 01.12.2019
596 Clouds 25 1024 20 16093 4.6 360 21:36 01.12.2019
597 Clouds 25 1024 20 16093 4.6 360 21:18 01.12.2019
598 Clouds 25 1024 20 16093 4.6 360 21:18 01.12.2019
599 Clouds 25 1026 25 16093 5.7 330 20:42 01.12.2019
600 Clouds 25 1026 25 16093 5.7 330 20:42 01.12.2019
601 Clouds 25 1026 25 16093 5.7 330 20:24 01.12.2019
602 Clouds 24 1027 27 16093 5.7 350 19:59 01.12.2019
603 Clouds 23 1027 27 16093 5.7 350 19:40 01.12.2019
604 Clouds 23 1027 27 16093 5.7 350 19:22 01.12.2019
605 Clouds 23 1028 28 16093 4.1 10 18:58 01.12.2019
606 Clouds 23 1028 28 16093 4.1 10 18:58 01.12.2019
607 Clouds 22 1028 28 16093 4.1 10 18:39 01.12.2019
608 Clouds 22 1028 28 16093 4.1 10 18:20 01.12.2019
609 Clouds 19 1028 32 16093 2.1 340 18:00 01.12.2019
610 Clouds 19 1028 32 16093 2.1 340 17:41 01.12.2019
611 Clouds 19 1028 42 14484 1.33 347 17:23 01.12.2019
612 Clouds 18 1028 42 14484 4.5 26 17:23 01.12.2019
613 Clouds 19 1028 42 14484 1.33 347 17:23 01.12.2019
614 Clouds 17 1028 51 14484 2.1 100 16:56 01.12.2019
615 Clouds 16 1028 51 14484 2.1 100 16:38 01.12.2019
616 Clouds 16 1028 58 16093 1 40 16:20 01.12.2019
617 Clouds 12 1028 62 16093 4.1 70 15:49 01.12.2019
618 Clouds 12 1028 62 16093 4.1 70 15:31 01.12.2019
619 Clouds 12 1028 62 16093 4.1 70 15:31 01.12.2019
620 Mist 11 1029 86 3219 1.33 347 14:44 01.12.2019
621 Clouds 10 1027 71 14484 3.1 70 14:20 01.12.2019
622 Clear 8 1026 71 11265 1 60 13:59 01.12.2019
623 Clear 8 1026 71 11265 1 60 13:39 01.12.2019
624 Clear 8 1026 71 11265 1 60 13:19 01.12.2019
625 Clear 9 1026 66 11265 1 50 12:44 01.12.2019
626 Clear 9 1026 66 11265 1.5 50 11:58 01.12.2019
627 Clear 9 1026 66 11265 1.5 50 11:39 01.12.2019
628 Clear 10 1026 66 11265 1.5 50 11:21 01.12.2019
629 Clear 11 1026 58 11265 1 100 10:43 01.12.2019
630 Clear 12 1026 58 11265 1 100 10:21 01.12.2019
631 Clear 13 1026 51 11265 3.6 310 09:57 01.12.2019
632 Clear 13 1026 51 11265 3.6 310 09:38 01.12.2019
633 Clear 13 1026 51 11265 3.6 310 09:20 01.12.2019
634 Clear 13 1026 51 11265 3.6 310 09:20 01.12.2019
635 Clear 14 1026 48 11265 4.1 300 08:44 01.12.2019
636 Clear 14 1026 48 11265 4.1 300 08:19 01.12.2019
637 Clear 15 1027 45 11265 3.6 300 07:50 01.12.2019
638 Clear 15 1027 45 11265 3.6 300 07:50 01.12.2019
639 Clear 15 1027 45 11265 3.6 300 07:30 01.12.2019
640 Clear 15 1027 42 12874 3.1 330 06:56 01.12.2019
641 Clear 15 1027 42 12874 3.1 330 06:25 01.12.2019
642 Clear 15 1026 42 12874 3.1 350 05:46 01.12.2019
643 Clear 18 1026 42 16093 4.6 50 04:34 01.12.2019
644 Clouds 21 1024 23 16093 3.1 330 02:47 01.12.2019
645 Clouds 21 1024 23 16093 3.1 330 02:29 01.12.2019
646 Clouds 23 1024 30 14484 3.1 340 01:56 01.12.2019
647 Clouds 23 1024 32 14484 3.1 340 01:38 01.12.2019
648 Clouds 23 1024 20 12874 3.6 310 00:59 01.12.2019
649 Clouds 23 1024 20 12874 3.6 310 00:39 01.12.2019
650 Clouds 23 1024 20 12874 3.6 310 00:20 01.12.2019
651 Clouds 23 1023 25 11265 5.1 30 23:41 30.11.2019
652 Clouds 25 1023 25 11265 5.1 30 23:22 30.11.2019
653 Clouds 25 1024 27 11265 3.6 360 22:49 30.11.2019
654 Clouds 25 1024 27 11265 3.6 360 22:29 30.11.2019
655 Clouds 23 1025 29 12874 5.1 60 21:57 30.11.2019
656 Clouds 23 1025 29 12874 5.1 60 21:39 30.11.2019
657 Clouds 23 1025 29 12874 5.1 60 21:19 30.11.2019
658 Clouds 23 1026 35 12874 3.1 330 20:55 30.11.2019
659 Clouds 23 1026 35 12874 3.1 330 20:36 30.11.2019
660 Clouds 23 1026 35 12874 3.1 330 20:18 30.11.2019
661 Clouds 22 1027 40 11265 3.1 290 19:55 30.11.2019
662 Clouds 22 1027 40 11265 3.1 290 19:36 30.11.2019
663 Clouds 22 1027 40 11265 3.1 290 19:18 30.11.2019
664 Clouds 20 1029 43 11265 2.1 320 18:54 30.11.2019
665 Clouds 20 1029 43 11265 2.1 320 18:36 30.11.2019
666 Clouds 20 1029 43 11265 2.1 320 18:18 30.11.2019
667 Clouds 21 1029 49 9656 2.87 1 17:55 30.11.2019
668 Clouds 21 1029 49 9656 2.87 1 17:36 30.11.2019
669 Clouds 21 1029 49 9656 2.87 1 17:36 30.11.2019
670 Clouds 17 1029 55 8047 1.22 1 17:18 30.11.2019
671 Clouds 15 1029 67 8047 1.5 100 16:42 30.11.2019
672 Clouds 14 1029 71 8047 2.1 70 16:22 30.11.2019
673 Clouds 12 1029 76 8047 1.5 60 15:55 30.11.2019
674 Clouds 12 1029 76 8047 1.5 60 15:37 30.11.2019
675 Clouds 12 1029 76 8047 1.5 60 15:18 30.11.2019
676 Clouds 11 1028 81 8047 2.6 70 14:55 30.11.2019
677 Clouds 11 1028 81 8047 2.6 70 14:37 30.11.2019
678 Clouds 11 1028 81 8047 2.6 70 14:18 30.11.2019
679 Clouds 9 1028 81 8047 2.1 60 13:45 30.11.2019
680 Clouds 9 1028 81 8047 2.1 60 13:26 30.11.2019
681 Clouds 10 1027 76 9656 1.5 70 12:58 30.11.2019
682 Clouds 11 1027 76 9656 1.5 70 12:40 30.11.2019
683 Clouds 11 1027 76 9656 1.5 70 12:21 30.11.2019
684 Clouds 11 1027 76 9656 1.5 60 11:42 30.11.2019
685 Clouds 12 1027 76 9656 1.5 60 11:19 30.11.2019
686 Clouds 12 1027 76 9656 2.1 60 10:56 30.11.2019
687 Clouds 12 1027 76 9656 2.1 60 10:37 30.11.2019
688 Clouds 12 1027 76 9656 2.1 60 10:19 30.11.2019
689 Clouds 12 1028 72 9656 1.13 74 09:46 30.11.2019
690 Clouds 12 1028 72 9656 1.13 74 09:24 30.11.2019
691 Clouds 13 1028 63 9656 1.5 110 08:44 30.11.2019
692 Clouds 13 1028 63 9656 1.5 110 08:44 30.11.2019
693 Clouds 14 1028 63 9656 1.5 110 08:22 30.11.2019
694 Clouds 14 1029 63 9656 2.1 120 07:58 30.11.2019
695 Clouds 14 1029 63 9656 2.1 120 07:39 30.11.2019
696 Clouds 14 1029 67 9656 3.1 70 06:56 30.11.2019
697 Clouds 15 1029 59 9656 4.1 60 06:29 30.11.2019
698 Clouds 16 1029 55 12874 2.6 190 05:50 30.11.2019
699 Clouds 17 1028 49 14484 2.6 180 03:48 30.11.2019
700 Clouds 20 1027 46 12874 4.6 140 02:39 30.11.2019
701 Clouds 20 1027 46 12874 4.6 140 02:21 30.11.2019
702 Clouds 22 1026 43 11265 4.6 120 01:25 30.11.2019
703 Clouds 22 1026 43 11265 4.6 120 01:25 30.11.2019
704 Clouds 22 1026 43 11265 4.6 120 01:25 30.11.2019
705 Clouds 22 1026 43 11265 4.6 120 01:25 30.11.2019
706 Clouds 24 1026 40 11265 3.1 150 00:50 30.11.2019
707 Clouds 24 1026 40 11265 3.1 150 00:31 30.11.2019
708 Clouds 24 1019 42 16093 1.17 94 23:59 29.11.2019
709 Clouds 25 1026 33 9656 2.6 30 23:40 29.11.2019
710 Clouds 25 1026 33 9656 2.6 30 23:21 29.11.2019
711 Clouds 23 1026 33 9656 2.6 170 22:44 29.11.2019
712 Clouds 23 1026 33 9656 2.6 170 22:25 29.11.2019
713 Clouds 23 1026 33 9656 2.6 170 22:25 29.11.2019
714 Haze 25 1027 31 9656 4.1 120 21:44 29.11.2019
715 Haze 25 1027 31 9656 4.1 120 21:24 29.11.2019
716 Haze 24 1028 35 8047 3.1 80 20:57 29.11.2019
717 Haze 24 1028 35 8047 3.1 80 20:38 29.11.2019
718 Haze 24 1028 35 8047 3.1 80 20:19 29.11.2019
719 Haze 23 1030 43 6437 2.1 60 19:57 29.11.2019
720 Haze 23 1030 43 6437 2.1 60 19:38 29.11.2019
721 Haze 21 1030 43 6437 2.1 60 19:19 29.11.2019
722 Haze 19 1030 46 6437 2.6 100 18:55 29.11.2019
723 Haze 19 1030 46 6437 2.6 100 18:36 29.11.2019
724 Haze 20 1031 52 4828 2.1 80 18:18 29.11.2019
725 Clouds 19 1033 51 8047 1 330 17:41 29.11.2019
726 Haze 18 1031 63 6437 1.5 80 17:22 29.11.2019
727 Haze 16 1031 67 6437 4.1 70 16:44 29.11.2019
728 Haze 16 1031 67 6437 4.1 70 16:21 29.11.2019
729 Clear 13 1031 76 8047 3.1 120 15:59 29.11.2019
730 Clear 13 1031 76 8047 3.1 120 15:59 29.11.2019
731 Clear 13 1031 76 8047 3.1 120 15:39 29.11.2019
732 Clear 13 1031 76 8047 3.1 120 15:21 29.11.2019
733 Clear 11 1031 71 8047 3.6 100 14:41 29.11.2019
734 Clear 11 1031 71 8047 3.6 100 14:22 29.11.2019
735 Clear 8 1030 81 8047 3.1 70 13:58 29.11.2019
736 Clear 8 1030 81 8047 3.1 70 13:38 29.11.2019
737 Clear 8 1030 81 8047 3.1 70 13:20 29.11.2019
738 Clear 10 1030 82 8047 1.5 20 12:44 29.11.2019
739 Clear 10 1030 82 8047 1.5 20 12:25 29.11.2019
740 Clear 10 1030 87 8047 2.6 60 11:57 29.11.2019
741 Clear 10 1030 87 8047 2.6 60 11:38 29.11.2019
742 Clear 9 1030 87 8047 2.6 60 11:19 29.11.2019
743 Clear 9 1031 87 9656 2.1 60 10:58 29.11.2019
744 Clear 9 1031 87 9656 2.1 60 10:39 29.11.2019
745 Clear 9 1031 87 9656 2.1 60 10:21 29.11.2019
746 Clear 10 1031 71 9656 2.6 90 09:59 29.11.2019
747 Clear 11 1031 71 9656 2.6 90 09:39 29.11.2019
748 Clear 12 1031 71 9656 2.6 90 09:20 29.11.2019
749 Clear 12 1031 67 11265 1.5 60 08:55 29.11.2019
750 Clear 12 1031 67 11265 1.5 60 08:37 29.11.2019
751 Clear 12 1031 67 11265 1.5 60 08:18 29.11.2019
752 Clear 12 1031 67 11265 2.6 90 07:42 29.11.2019
753 Clear 13 1030 59 11265 3.1 300 07:23 29.11.2019
754 Clear 14 1030 52 12874 3.6 290 06:49 29.11.2019
755 Clear 14 1030 52 12874 3.6 290 06:28 29.11.2019
756 Clear 15 1030 48 12874 1 230 05:32 29.11.2019
757 Clear 15 1030 48 12874 1 230 05:32 29.11.2019
758 Clear 15 1030 48 12874 1 230 05:32 29.11.2019
759 Clear 15 1030 48 12874 1 230 05:32 29.11.2019
760 Clear 17 1029 40 16093 2.6 210 04:57 29.11.2019
761 Clear 17 1029 37 16093 3.6 140 03:41 29.11.2019
762 Clear 17 1029 37 16093 3.6 140 03:41 29.11.2019
763 Clear 17 1029 37 16093 3.6 140 03:18 29.11.2019
764 Clear 20 1028 33 16093 5.1 140 02:24 29.11.2019
765 Clear 22 1027 28 12874 3.6 160 01:45 29.11.2019
766 Clear 22 1027 28 12874 3.6 160 01:20 29.11.2019
767 Clear 22 1027 28 12874 3.6 160 01:20 29.11.2019
768 Clear 24 1026 27 12874 5.1 120 00:40 29.11.2019
769 Clear 24 1026 27 12874 5.1 120 00:18 29.11.2019
770 Clouds 26 1026 15 12874 4.6 210 23:41 28.11.2019
771 Clouds 26 1026 15 12874 4.6 210 23:21 28.11.2019
772 Clouds 26 1026 19 12874 2.6 190 22:56 28.11.2019
773 Clouds 26 1026 19 12874 2.6 190 22:37 28.11.2019
774 Clouds 26 1026 19 12874 2.6 190 22:19 28.11.2019
775 Clear 26 1027 14 11265 4.1 120 21:54 28.11.2019
776 Clear 26 1027 14 11265 4.1 120 21:36 28.11.2019
777 Clear 26 1027 14 11265 4.1 120 21:18 28.11.2019
778 Clear 25 1028 20 11265 5.1 110 20:42 28.11.2019
779 Clear 25 1028 23 9656 2.1 40 20:22 28.11.2019
780 Clear 23 1029 33 11265 1.5 100 19:57 28.11.2019
781 Clear 23 1029 33 11265 1.5 100 19:57 28.11.2019
782 Clear 23 1029 33 11265 1.5 100 19:38 28.11.2019
783 Clear 22 1029 33 11265 1.5 100 19:19 28.11.2019
784 Clear 21 1031 42 9656 2.6 50 18:58 28.11.2019
785 Clear 21 1031 42 9656 2.6 50 18:39 28.11.2019
786 Clear 21 1031 42 9656 2.6 50 18:18 28.11.2019
787 Clear 19 1032 45 8047 1.5 110 17:58 28.11.2019
788 Clear 19 1032 45 8047 1.5 110 17:58 28.11.2019
789 Clear 19 1032 45 8047 1.5 110 17:58 28.11.2019
790 Clear 19 1032 45 8047 1.5 110 17:40 28.11.2019
791 Clear 18 1032 55 8047 1.83 7 17:20 28.11.2019
792 Clear 18 1032 55 8047 1.83 7 17:20 28.11.2019
793 Clear 16 1033 58 8047 2.1 100 16:41 28.11.2019
794 Clear 15 1032 66 9656 2.1 80 16:19 28.11.2019
795 Clear 12 1031 71 11265 3.6 80 15:58 28.11.2019
796 Clear 11 1031 71 11265 3.6 80 15:40 28.11.2019
797 Clear 11 1031 71 11265 3.6 80 15:20 28.11.2019
798 Clear 11 1031 71 11265 3.6 80 15:20 28.11.2019
799 Clouds 10 1031 76 11265 2.1 60 14:58 28.11.2019
800 Clouds 10 1031 76 11265 2.1 60 14:39 28.11.2019
801 Clouds 10 1031 76 11265 2.1 60 14:20 28.11.2019
802 Clear 7 1030 76 12874 2.1 60 13:44 28.11.2019
803 Clear 7 1030 76 12874 2.1 60 13:24 28.11.2019
804 Clear 8 1030 76 12874 2.1 80 12:57 28.11.2019
805 Clear 8 1030 76 12874 2.1 80 12:38 28.11.2019
806 Clear 7 1030 76 12874 2.1 80 12:20 28.11.2019
807 Clear 9 1029 66 16093 1.65 15 11:56 28.11.2019
808 Clear 9 1029 66 16093 1.65 15 11:37 28.11.2019
809 Clear 9 1029 66 16093 1.54 30 11:19 28.11.2019
810 Clear 10 1029 62 16093 2.1 80 10:42 28.11.2019
811 Clear 10 1029 62 16093 2.1 80 10:22 28.11.2019
812 Clear 11 1029 54 12874 1.5 80 09:58 28.11.2019
813 Clear 11 1029 54 12874 1.5 80 09:40 28.11.2019
814 Clear 12 1029 54 12874 1.5 80 09:20 28.11.2019
815 Clear 12 1029 51 16093 2.1 90 08:44 28.11.2019
816 Clear 12 1029 51 16093 2.1 90 08:22 28.11.2019
817 Clear 13 1029 51 16093 1.5 50 07:58 28.11.2019
818 Clear 13 1029 51 16093 1.5 50 07:39 28.11.2019
819 Clouds 14 1029 42 16093 2.1 300 07:21 28.11.2019
820 Clear 15 1029 39 16093 5.1 300 06:41 28.11.2019
821 Clear 16 1028 32 16093 4.1 260 05:56 28.11.2019
822 Clear 16 1028 32 16093 4.1 260 05:38 28.11.2019
823 Clear 16 1027 32 16093 3.6 320 04:51 28.11.2019
824 Clouds 21 1025 43 16093 3.1 10 02:32 28.11.2019
825 Clouds 23 1025 38 12874 1.5 140 01:25 28.11.2019
826 Clouds 25 1024 20 12874 1.5 60 00:39 28.11.2019
827 Clouds 25 1024 20 12874 1.5 60 00:18 28.11.2019
828 Clouds 26 1024 19 12874 2.1 20 23:39 27.11.2019
829 Clouds 26 1024 19 12874 2.1 20 23:20 27.11.2019
830 Clouds 26 1024 24 11265 2.1 360 22:56 27.11.2019
831 Clouds 26 1024 24 11265 2.1 360 22:38 27.11.2019
832 Clouds 26 1024 24 11265 2.1 360 22:18 27.11.2019
833 Clear 25 1025 25 11265 2.1 280 21:55 27.11.2019
834 Clear 25 1025 25 11265 2.1 280 21:36 27.11.2019
835 Clear 25 1025 25 11265 2.1 280 21:18 27.11.2019
836 Clear 24 1026 33 9656 1.5 220 20:56 27.11.2019
837 Clear 24 1026 33 9656 1.5 220 20:56 27.11.2019
838 Clear 24 1026 33 9656 1.5 220 20:37 27.11.2019
839 Clear 24 1026 33 9656 1.5 220 20:18 27.11.2019
840 Clear 22 1027 40 9656 2.6 80 19:55 27.11.2019
841 Clear 22 1027 40 9656 2.6 80 19:37 27.11.2019
842 Clear 22 1027 40 9656 2.6 80 19:18 27.11.2019
843 -273 0 0 0 0 0 18:54 27.11.2019
844 Clouds 19 1028 45 9656 4.1 60 18:36 27.11.2019
845 Clouds 19 1028 45 9656 4.1 60 18:18 27.11.2019
846 Clouds 18 1029 49 9656 3.1 10 17:41 27.11.2019
847 Clouds 18 1029 59 8047 2.1 310 17:23 27.11.2019
848 -273 0 0 0 0 0 17:23 27.11.2019
849 Clouds 16 1028 63 8047 2.6 60 16:58 27.11.2019
850 Clouds 15 1028 63 8047 2.6 60 16:58 27.11.2019
851 Clouds 15 1028 63 8047 2.6 60 16:40 27.11.2019
852 Clouds 15 1028 63 8047 2.6 60 16:40 27.11.2019
853 Clouds 15 1028 63 8047 2.6 60 16:21 27.11.2019
854 Clouds 15 1028 63 8047 2.6 60 16:21 27.11.2019
855 Clouds 14 1028 71 8047 0.88 6 15:58 27.11.2019
856 Clouds 13 1028 71 8047 0.88 6 15:58 27.11.2019
857 Clouds 13 1028 71 8047 0.88 6 15:40 27.11.2019
858 Clouds 13 1028 71 8047 0.88 6 15:21 27.11.2019
859 Clouds 12 1027 81 8047 1.5 360 14:59 27.11.2019
860 Clouds 12 1027 81 8047 1.5 360 14:41 27.11.2019
861 Clouds 11 1027 81 8047 1.5 360 14:23 27.11.2019
862 Clear 10 1026 81 8047 2.6 70 13:58 27.11.2019
863 Clear 9 1026 81 8047 2.6 70 13:39 27.11.2019
864 Clear 9 1026 81 8047 2.6 70 13:19 27.11.2019
865 Clear 9 1026 81 8047 3.6 70 12:57 27.11.2019
866 Clear 9 1026 81 8047 3.6 70 12:39 27.11.2019
867 Clear 9 1026 81 8047 3.6 70 12:19 27.11.2019
868 Clear 10 1026 82 8047 0.91 66 11:39 27.11.2019
869 Clear 10 1026 82 8047 0.91 66 11:39 27.11.2019
870 Clear 10 1026 82 8047 0.77 80 11:19 27.11.2019
871 Clouds 11 1026 76 8047 1 50 10:59 27.11.2019
872 Clouds 11 1026 76 8047 1 50 10:41 27.11.2019
873 Clouds 11 1026 76 8047 1 50 10:23 27.11.2019
874 Clouds 11 1026 76 9656 1 80 09:45 27.11.2019
875 Clouds 12 1026 76 9656 1 80 09:26 27.11.2019
876 Clouds 13 1027 67 8047 1 250 08:58 27.11.2019
877 Clouds 13 1027 67 8047 1 250 08:40 27.11.2019
878 Clouds 13 1027 67 8047 1 250 08:21 27.11.2019
879 Clouds 14 1027 63 9656 1 160 07:46 27.11.2019
880 Clouds 14 1027 63 9656 1 160 07:28 27.11.2019
881 Clouds 14 1027 63 9656 2.1 90 06:48 27.11.2019
882 Clouds 14 1027 63 9656 2.1 90 06:29 27.11.2019
883 Clouds 15 1026 63 11265 3.1 100 05:43 27.11.2019
884 Clouds 15 1026 63 11265 3.1 100 05:19 27.11.2019
885 Clouds 16 1025 63 16093 3.1 90 04:41 27.11.2019
886 Clouds 16 1024 59 16093 1.5 100 03:55 27.11.2019
887 Clouds 16 1024 59 16093 1.5 100 03:23 27.11.2019
888 Clouds 19 1023 52 12874 4.6 140 02:54 27.11.2019
889 Clouds 21 1023 42 12874 2.6 160 01:39 27.11.2019
890 Clouds 23 1021 27 12874 3.6 130 00:45 27.11.2019
891 Clouds 23 1021 27 12874 3.6 130 00:26 27.11.2019
892 Clouds 24 1021 23 12874 6.2 160 23:49 26.11.2019
893 Clouds 24 1021 23 12874 6.2 160 23:27 26.11.2019
894 Clouds 24 1021 33 11265 7.7 100 22:59 26.11.2019
895 Clouds 24 1021 33 11265 7.7 100 22:38 26.11.2019
896 Clouds 24 1021 33 11265 7.7 100 22:19 26.11.2019
897 Clouds 24 1021 33 11265 4.6 110 21:58 26.11.2019
898 Clouds 24 1021 33 11265 4.6 110 21:58 26.11.2019
899 Clouds 24 1021 33 11265 4.6 110 21:38 26.11.2019
900 Clouds 24 1021 33 11265 4.6 110 21:19 26.11.2019
901 Clouds 23 1023 38 9656 3.6 80 20:55 26.11.2019
902 Clouds 23 1023 38 9656 3.6 80 20:37 26.11.2019
903 Clouds 23 1023 38 9656 3.6 80 20:18 26.11.2019
904 Clouds 22 1024 40 8047 4.6 130 19:55 26.11.2019
905 Clouds 22 1024 40 8047 4.6 130 19:37 26.11.2019
906 Clouds 22 1024 40 8047 4.6 130 19:18 26.11.2019
907 Clouds 20 1024 46 8047 2.6 80 18:56 26.11.2019
908 Clouds 20 1024 46 8047 2.6 80 18:38 26.11.2019
909 Clouds 20 1024 46 8047 2.6 80 18:20 26.11.2019
910 Clouds 18 1025 55 8047 1.5 170 17:54 26.11.2019
911 Clouds 18 1025 55 8047 1.5 170 17:36 26.11.2019
912 Clouds 18 1025 55 8047 1.5 170 17:18 26.11.2019
913 Clouds 16 1025 67 8047 1.5 70 16:54 26.11.2019
914 Clouds 16 1025 67 8047 1.5 70 16:36 26.11.2019
915 Clouds 16 1025 67 8047 1.5 70 16:18 26.11.2019
916 Clouds 15 1024 72 8047 1 110 15:56 26.11.2019
917 Clouds 15 1024 72 8047 1 110 15:56 26.11.2019
918 Clouds 15 1024 72 8047 1 110 15:37 26.11.2019
919 Clouds 14 1024 82 8047 3.6 80 15:18 26.11.2019
920 Clouds 13 1023 76 9656 1.44 154 14:43 26.11.2019
921 Clouds 13 1023 76 9656 1.44 154 14:24 26.11.2019
922 Fog 12 1025 87 805 1.5 60 13:43 26.11.2019
923 Clear 12 1022 87 8047 2.1 240 13:24 26.11.2019
924 Clouds 13 1022 87 8047 2.1 280 12:57 26.11.2019
925 Clouds 13 1022 87 8047 2.1 280 12:36 26.11.2019
926 Clouds 13 1022 82 8047 1.85 140 12:18 26.11.2019
927 Clouds 14 1022 82 8047 1.85 140 11:55 26.11.2019
928 Clouds 14 1022 82 8047 1.85 140 11:36 26.11.2019
929 Clouds 14 1022 82 8047 1.95 145 11:18 26.11.2019
930 Clouds 14 1022 72 8047 2.1 140 10:55 26.11.2019
931 Clouds 14 1022 72 8047 2.1 140 10:37 26.11.2019
932 Clouds 14 1022 72 8047 2.1 140 10:18 26.11.2019
933 Clouds 14 1023 72 9656 2.6 110 09:42 26.11.2019
934 Clouds 15 1023 72 9656 2.6 110 09:23 26.11.2019
935 Clouds 15 1023 67 9656 2.6 130 08:47 26.11.2019
936 Clouds 15 1023 67 9656 2.6 130 08:28 26.11.2019
937 Clouds 16 1023 55 9656 1.5 160 07:57 26.11.2019
938 Clouds 16 1023 55 9656 1.5 160 07:38 26.11.2019
939 Clouds 16 1023 55 9656 1.5 160 07:19 26.11.2019
940 Clouds 16 1024 55 9656 2.1 210 06:46 26.11.2019
941 Clouds 17 1023 55 9656 3.6 130 05:59 26.11.2019
942 Clouds 17 1023 55 9656 3.6 130 05:19 26.11.2019
943 Clouds 19 1022 52 11265 2.6 140 03:21 26.11.2019
944 Clouds 20 1021 52 9656 5.7 130 01:37 26.11.2019
945 Clouds 21 1020 43 9656 6.7 120 01:19 26.11.2019
946 Clouds 23 1020 25 9656 4.1 110 00:41 26.11.2019
947 Clouds 25 1020 23 9656 2.6 90 23:59 25.11.2019
948 Clouds 25 1020 23 9656 2.6 90 23:38 25.11.2019
949 Clouds 25 1020 23 9656 2.6 90 23:19 25.11.2019
950 Clouds 25 1020 23 9656 2.1 190 22:40 25.11.2019
951 Clouds 25 1020 23 9656 2.1 190 22:19 25.11.2019
952 Clouds 24 1021 25 9656 2.6 360 21:59 25.11.2019
953 Clouds 24 1021 25 9656 2.6 360 21:41 25.11.2019
954 Clouds 25 1021 25 9656 2.6 360 21:23 25.11.2019
955 Clouds 24 1023 31 9656 3.1 110 20:58 25.11.2019
956 Clouds 23 1023 31 9656 3.1 110 20:40 25.11.2019
957 Clouds 23 1023 31 9656 3.1 110 20:20 25.11.2019
958 Clouds 22 1024 35 9656 1.13 320 19:57 25.11.2019
959 Clouds 22 1024 35 9656 1.13 320 19:39 25.11.2019
960 Clouds 22 1024 35 9656 1.13 320 19:20 25.11.2019
961 Clouds 21 1025 35 9656 2.1 350 18:58 25.11.2019
962 Clouds 21 1025 35 9656 2.1 350 18:58 25.11.2019
963 Clouds 21 1025 35 9656 2.1 350 18:58 25.11.2019
964 Clouds 20 1025 35 9656 2.1 350 18:40 25.11.2019
965 Clouds 19 1026 45 9656 2.1 90 18:22 25.11.2019
966 Clouds 17 1026 45 9656 1.13 320 17:58 25.11.2019
967 Clouds 17 1026 45 9656 1.13 320 17:40 25.11.2019
968 Clouds 17 1026 45 9656 0.55 167 17:22 25.11.2019
969 Clear 16 1026 62 11265 0.55 167 16:59 25.11.2019
970 Clear 16 1026 62 11265 0.55 167 16:59 25.11.2019
971 Clear 15 1026 62 11265 0.55 167 16:41 25.11.2019
972 Clear 15 1026 62 11265 0.55 167 16:22 25.11.2019
973 Clear 13 1026 71 11265 2.1 90 15:56 25.11.2019
974 Clear 12 1026 71 11265 2.1 90 15:37 25.11.2019
975 Clear 12 1026 71 11265 2.1 90 15:19 25.11.2019
976 Clear 12 1026 71 11265 2.1 90 15:19 25.11.2019
977 Clear 11 1025 71 9656 2.6 80 14:44 25.11.2019
978 Clear 9 1025 71 9656 2.6 80 14:26 25.11.2019
979 Clear 10 1025 71 9656 2.1 60 13:58 25.11.2019
980 Clear 10 1025 71 9656 2.1 60 13:38 25.11.2019
981 Clear 10 1025 71 9656 2.1 60 13:38 25.11.2019
982 Clear 10 1025 71 9656 2.1 60 13:20 25.11.2019
983 Clear 10 1024 71 9656 1 70 12:58 25.11.2019
984 Clear 10 1024 71 9656 1 70 12:39 25.11.2019
985 Clear 10 1024 71 9656 1 70 12:19 25.11.2019
986 Clear 9 1024 71 11265 2.1 80 11:40 25.11.2019
987 Clear 9 1024 71 11265 2.1 80 11:21 25.11.2019
988 Clear 11 1025 67 11265 1 110 10:59 25.11.2019
989 Clear 11 1025 67 11265 1 110 10:41 25.11.2019
990 Clear 11 1025 67 11265 1 110 10:41 25.11.2019
991 Clear 11 1025 67 11265 1 110 10:19 25.11.2019
992 Clouds 12 1025 62 11265 1 80 09:44 25.11.2019
993 Clouds 12 1025 62 11265 1 80 09:26 25.11.2019
994 Clouds 13 1026 63 11265 1 240 08:57 25.11.2019
995 Clouds 13 1026 63 11265 1 240 08:38 25.11.2019
996 Clouds 13 1026 63 11265 1 240 08:18 25.11.2019
997 Clouds 14 1026 59 11265 2.1 240 07:39 25.11.2019
998 Clouds 14 1026 59 11265 2.1 240 07:18 25.11.2019
999 Clouds 15 1026 55 11265 2.6 240 06:39 25.11.2019
1000 Clouds 15 1026 55 11265 2.6 240 06:19 25.11.2019
1001 Clouds 15 1026 45 11265 3.6 260 05:33 25.11.2019
1002 Clouds 16 1026 42 14484 3.1 310 04:50 25.11.2019
1003 Clouds 18 1025 52 12874 2.6 90 02:45 25.11.2019
1004 Clouds 19 1024 46 12874 4.1 110 01:56 25.11.2019
1005 Clouds 20 1024 46 12874 4.1 110 01:36 25.11.2019
1006 Clouds 20 1024 46 12874 4.1 110 01:18 25.11.2019
1007 Clouds 21 1024 23 11265 3.1 360 00:21 25.11.2019
1008 Clouds 23 1024 22 9656 2.6 50 23:45 24.11.2019
1009 Clouds 23 1024 22 9656 2.6 50 23:45 24.11.2019
1010 Clouds 23 1024 22 9656 2.6 50 23:21 24.11.2019
1011 Clouds 24 1024 23 9656 3.6 80 22:58 24.11.2019
1012 Clouds 24 1024 23 9656 3.6 80 22:39 24.11.2019
1013 Clouds 24 1024 23 9656 3.6 80 22:19 24.11.2019
1014 Smoke 23 1025 25 9656 1.5 330 21:57 24.11.2019
1015 Smoke 23 1025 25 9656 1.5 330 21:39 24.11.2019
1016 Clear 23 1025 23 9656 2.6 290 21:20 24.11.2019
1017 Clear 23 1025 27 9656 2.1 230 20:58 24.11.2019
1018 Clear 23 1025 27 9656 2.1 230 20:38 24.11.2019
1019 Clear 23 1026 40 9656 3.1 110 20:18 24.11.2019
1020 Clear 22 1027 46 6437 1.5 70 19:56 24.11.2019
1021 Clear 21 1027 46 6437 1.5 70 19:38 24.11.2019
1022 Haze 21 1027 52 4828 2.1 200 19:20 24.11.2019
1023 Haze 20 1028 52 4828 2.1 160 18:57 24.11.2019
1024 Haze 19 1028 63 4828 2.6 60 18:37 24.11.2019
1025 Haze 18 1028 63 4828 2.6 60 18:19 24.11.2019
1026 Haze 18 1028 63 4828 2.6 60 18:19 24.11.2019
1027 Haze 18 1029 63 4828 3.1 60 17:55 24.11.2019
1028 Clear 17 1029 67 6437 2.6 100 17:37 24.11.2019
1029 Clear 17 1029 67 6437 2.6 100 17:19 24.11.2019
1030 Clear 17 1029 67 6437 2.6 100 17:19 24.11.2019
1031 Clear 15 1029 67 6437 2.1 120 16:57 24.11.2019
1032 Clear 15 1029 67 6437 2.1 120 16:38 24.11.2019
1033 Clear 14 1029 76 6437 2.6 80 16:19 24.11.2019
1034 Haze 12 1028 81 4828 3.1 90 15:43 24.11.2019
1035 Haze 12 1028 81 4828 3.1 90 15:25 24.11.2019
1036 Mist 10 1028 93 3219 2.6 70 14:57 24.11.2019
1037 Mist 11 1028 93 3219 2.6 70 14:57 24.11.2019
1038 Mist 10 1028 93 3219 2.6 70 14:38 24.11.2019
1039 Mist 10 1028 93 3219 2.6 70 14:38 24.11.2019
1040 Mist 10 1028 93 3219 2.6 70 14:18 24.11.2019
1041 Mist 8 1028 93 3219 3.6 80 13:41 24.11.2019
1042 Smoke 9 1027 93 4828 2.6 70 13:22 24.11.2019
1043 Clouds 9 1027 87 6437 2.6 80 12:59 24.11.2019
1044 Clouds 9 1027 87 6437 2.6 80 12:41 24.11.2019
1045 Clouds 9 1027 87 6437 2.6 80 12:18 24.11.2019
1046 Clouds 9 1027 81 8047 2.1 80 11:56 24.11.2019
1047 Clouds 9 1027 81 8047 2.1 80 11:37 24.11.2019
1048 Clouds 9 1027 81 8047 2.1 80 11:18 24.11.2019
1049 Clouds 10 1027 71 8047 2.6 70 10:46 24.11.2019
1050 Clouds 11 1027 62 8047 1.5 260 10:28 24.11.2019
1051 Clouds 11 1027 62 8047 1.5 260 10:28 24.11.2019
1052 Clouds 12 1027 67 9656 2.1 280 09:56 24.11.2019
1053 Clouds 13 1027 67 9656 2.1 280 09:37 24.11.2019
1054 Clouds 13 1027 67 9656 2.1 280 09:18 24.11.2019
1055 Clouds 13 1027 55 12874 2.6 290 08:44 24.11.2019
1056 Clouds 13 1027 55 12874 2.6 290 08:22 24.11.2019
1057 Clouds 13 1028 44 16093 2.31 7 07:57 24.11.2019
1058 Clouds 13 1028 44 16093 2.31 7 07:57 24.11.2019
1059 Clouds 13 1028 44 16093 2.31 7 07:37 24.11.2019
1060 Clouds 13 1028 44 16093 2.31 7 07:18 24.11.2019
1061 Clouds 14 1028 39 16093 2.6 100 06:19 24.11.2019
1062 Clouds 14 1028 39 16093 2.6 100 06:19 24.11.2019
1063 Clouds 14 1028 39 16093 2.6 100 06:19 24.11.2019
1064 Clouds 17 1027 32 16093 2.6 60 04:48 24.11.2019
1065 Clouds 17 1026 30 16093 3.1 40 03:33 24.11.2019
1066 Clouds 22 1025 24 16093 7.7 40 01:59 24.11.2019
1067 Clouds 22 1025 24 16093 7.7 40 01:39 24.11.2019
1068 Clouds 22 1024 25 12874 3.1 330 01:20 24.11.2019
1069 Clouds 23 1024 22 12874 2.6 350 00:47 24.11.2019
1070 Clouds 23 1024 22 12874 2.6 350 00:23 24.11.2019
1071 Clear 24 1024 22 12874 3.1 100 23:45 23.11.2019
1072 Clear 24 1024 22 12874 3.1 100 23:22 23.11.2019
1073 Clear 24 1024 22 12874 2.6 30 22:59 23.11.2019
1074 Clear 24 1024 22 12874 2.6 30 22:59 23.11.2019
1075 Clear 24 1024 22 12874 2.6 30 22:40 23.11.2019
1076 Clear 24 1024 22 12874 2.6 30 22:22 23.11.2019
1077 Clear 24 1025 28 9656 4.1 40 21:58 23.11.2019
1078 Clear 24 1025 28 9656 4.1 40 21:40 23.11.2019
1079 Clear 23 1025 28 9656 4.1 40 21:21 23.11.2019
1080 Clear 23 1026 28 9656 2.6 20 20:55 23.11.2019
1081 Clear 23 1026 28 9656 2.6 20 20:36 23.11.2019
1082 Clear 23 1026 28 9656 2.6 20 20:18 23.11.2019
1083 Clear 21 1028 35 8047 1.5 60 19:54 23.11.2019
1084 Clear 21 1028 35 8047 1.5 60 19:36 23.11.2019
1085 Clear 21 1028 35 8047 1.5 60 19:18 23.11.2019
1086 Clear 20 1029 42 8047 2.1 20 18:39 23.11.2019
1087 Clear 20 1029 42 8047 2.1 20 18:20 23.11.2019
1088 Clear 20 1029 42 8047 2.1 20 18:20 23.11.2019
1089 Clear 18 1029 42 8047 2.6 50 17:54 23.11.2019
1090 Clear 18 1029 45 9656 2.1 90 17:36 23.11.2019
1091 Clear 18 1029 45 9656 2.1 90 17:36 23.11.2019
1092 Clear 17 1029 45 9656 2.1 90 17:18 23.11.2019
1093 Clouds 15 1028 51 11265 2.1 90 16:55 23.11.2019
1094 Clouds 15 1028 51 11265 2.1 90 16:36 23.11.2019
1095 Clouds 15 1028 51 11265 2.1 90 16:36 23.11.2019
1096 Clouds 15 1028 51 11265 2.1 90 16:18 23.11.2019
1097 Mist 14 1030 87 3219 1.02 17 15:54 23.11.2019
1098 Mist 14 1030 87 3219 1.02 17 15:54 23.11.2019
1099 Mist 14 1030 87 3219 1.02 17 15:36 23.11.2019
1100 Clouds 14 1028 50 12874 2.1 30 15:18 23.11.2019
1101 Clouds 12 1028 58 12874 1 70 14:42 23.11.2019
1102 Clouds 12 1027 61 12874 3.1 70 14:21 23.11.2019
1103 Clouds 11 1027 61 12874 3.1 70 14:21 23.11.2019
1104 Clouds 9 1027 57 11265 2.1 80 13:57 23.11.2019
1105 Clouds 9 1027 57 11265 2.1 80 13:38 23.11.2019
1106 Clouds 9 1027 57 11265 2.1 80 13:18 23.11.2019
1107 Clouds 9 1026 62 11265 2.6 80 12:43 23.11.2019
1108 Clouds 9 1026 62 11265 2.6 80 12:24 23.11.2019
1109 Clouds 8 1026 66 11265 2.6 80 11:45 23.11.2019
1110 Clouds 9 1026 66 11265 2.6 80 11:24 23.11.2019
1111 Clouds 10 1028 81 8047 1.02 39 10:57 23.11.2019
1112 Clouds 11 1028 81 8047 1.02 39 10:39 23.11.2019
1113 Clouds 11 1028 81 8047 1.02 39 10:18 23.11.2019
1114 Clouds 13 1027 47 11265 1.5 50 09:41 23.11.2019
1115 Clouds 13 1027 47 11265 1.5 50 09:18 23.11.2019
1116 Clouds 13 1027 51 16093 2.1 70 08:41 23.11.2019
1117 Clouds 13 1027 51 16093 2.1 70 08:41 23.11.2019
1118 Clouds 13 1027 51 16093 2.1 70 08:19 23.11.2019
1119 Clear 14 1027 67 16093 3.6 90 07:42 23.11.2019
1120 Clear 15 1027 31 16093 2.1 360 07:00 23.11.2019
1121 Clear 15 1027 31 16093 2.1 360 06:40 23.11.2019
1122 Clear 15 1027 31 16093 2.1 360 06:19 23.11.2019
1123 Clear 16 1027 32 11265 3.1 350 05:41 23.11.2019
1124 Clear 16 1027 32 11265 3.1 350 05:22 23.11.2019
1125 Clouds 17 1026 37 12874 3.1 60 04:34 23.11.2019
1126 Clouds 19 1025 52 12874 2.6 80 03:32 23.11.2019
1127 Clouds 19 1024 56 14484 5.1 110 02:39 23.11.2019
1128 Clouds 19 1024 56 14484 5.1 110 02:39 23.11.2019
1129 Clouds 21 1024 23 14484 3.1 320 01:40 23.11.2019
1130 Clouds 23 1023 22 12874 4.1 310 00:49 23.11.2019
1131 Clouds 23 1023 22 12874 4.1 310 00:21 23.11.2019
1132 Clouds 23 1023 20 12874 2.6 280 23:56 22.11.2019
1133 Clouds 23 1023 20 12874 2.6 280 23:37 22.11.2019
1134 Clouds 24 1023 20 12874 2.6 280 23:18 22.11.2019
1135 Clouds 24 1023 23 12874 3.1 30 22:55 22.11.2019
1136 Clouds 24 1023 23 12874 3.1 30 22:37 22.11.2019
1137 Clouds 24 1023 23 12874 3.1 30 22:18 22.11.2019
1138 Clouds 24 1023 23 12874 3.1 30 22:18 22.11.2019
1139 Clear 24 1025 23 16093 3.6 60 21:41 22.11.2019
1140 Clear 25 1025 23 16093 3.6 60 21:21 22.11.2019
1141 Clear 24 1026 23 9656 3.6 20 20:55 22.11.2019
1142 Clear 24 1026 23 9656 3.6 20 20:37 22.11.2019
1143 Clear 24 1026 23 9656 3.6 20 20:19 22.11.2019
1144 Clear 22 1027 37 9656 2.44 359 19:39 22.11.2019
1145 Clear 22 1027 37 9656 2.44 359 19:20 22.11.2019
1146 Clear 21 1028 45 9656 2.1 70 18:59 22.11.2019
1147 Clear 21 1028 45 9656 2.1 70 18:38 22.11.2019
1148 Clear 21 1028 45 9656 2.1 70 18:20 22.11.2019
1149 Clear 20 1029 49 9656 1.5 140 17:42 22.11.2019
1150 Clear 18 1029 55 8047 1.06 16 17:22 22.11.2019
1151 Clear 16 1029 55 9656 1.5 90 16:48 22.11.2019
1152 Clear 15 1029 58 9656 1.5 60 16:30 22.11.2019
1153 Clear 13 1028 66 12874 2.6 90 15:58 22.11.2019
1154 Clear 12 1028 66 12874 2.6 90 15:38 22.11.2019
1155 Clear 12 1028 66 12874 2.6 90 15:20 22.11.2019
1156 Clear 11 1028 66 11265 1.06 16 14:54 22.11.2019
1157 Clear 11 1028 66 11265 1.06 16 14:36 22.11.2019
1158 Clear 11 1028 66 11265 1.33 28 14:18 22.11.2019
1159 Clear 9 1027 71 9656 2.1 70 13:39 22.11.2019
1160 Clear 9 1027 71 9656 2.1 70 13:19 22.11.2019
1161 Clear 8 1026 71 9656 1.5 80 12:58 22.11.2019
1162 Clear 8 1026 71 9656 1.5 80 12:58 22.11.2019
1163 Clear 8 1026 71 9656 1.5 80 12:40 22.11.2019
1164 Clear 8 1026 71 9656 1.5 80 12:19 22.11.2019
1165 Clear 9 1026 71 11265 1.5 80 11:57 22.11.2019
1166 Clear 9 1026 71 11265 1.5 80 11:37 22.11.2019
1167 Clear 10 1026 71 11265 1.5 80 11:18 22.11.2019
1168 Clear 10 1026 66 12874 3.1 60 10:55 22.11.2019
1169 Clear 10 1026 66 12874 3.1 60 10:37 22.11.2019
1170 Clear 10 1026 66 12874 3.1 60 10:18 22.11.2019
1171 Clear 9 1027 66 12874 2.6 60 09:41 22.11.2019
1172 Clear 12 1027 62 12874 2.1 70 09:21 22.11.2019
1173 Clouds 12 1027 58 16093 3.1 60 08:58 22.11.2019
1174 Clouds 13 1027 58 16093 3.1 60 08:38 22.11.2019
1175 Clouds 13 1027 58 16093 3.1 60 08:38 22.11.2019
1176 Clouds 13 1027 58 16093 3.1 60 08:38 22.11.2019
1177 Clouds 13 1027 58 16093 3.1 60 08:20 22.11.2019
1178 Clouds 14 1028 52 16093 3.1 290 07:42 22.11.2019
1179 Clouds 15 1028 52 16093 3.1 290 07:20 22.11.2019
1180 Clouds 15 1028 48 16093 2.1 310 06:47 22.11.2019
1181 Clouds 15 1028 48 16093 2.1 310 06:27 22.11.2019
1182 Clouds 16 1028 45 16093 2.6 350 05:33 22.11.2019
1183 Clouds 18 1026 40 16093 5.1 40 03:26 22.11.2019
1184 Clouds 20 1025 35 16093 2.1 360 02:43 22.11.2019
1185 Clouds 20 1025 35 16093 2.1 360 02:23 22.11.2019
1186 Clouds 22 1025 33 12874 3.6 340 01:43 22.11.2019
1187 Clouds 22 1025 33 12874 3.6 340 01:18 22.11.2019
1188 Clouds 23 1024 31 12874 2.1 310 00:43 22.11.2019
1189 Clouds 23 1024 31 12874 2.1 310 00:22 22.11.2019
1190 Clouds 23 1024 31 12874 3.6 350 23:43 21.11.2019
1191 Clouds 23 1024 31 12874 3.6 350 23:24 21.11.2019
1192 Clouds 24 1025 33 12874 2.24 9 22:56 21.11.2019
1193 Clouds 24 1025 33 12874 2.24 9 22:38 21.11.2019
1194 Clouds 24 1025 33 12874 2.24 9 22:19 21.11.2019
1195 Clouds 24 1025 33 12874 2.6 330 21:55 21.11.2019
1196 Clouds 24 1025 33 12874 2.6 330 21:36 21.11.2019
1197 Clouds 24 1025 33 12874 2.6 330 21:18 21.11.2019
1198 Clouds 22 1026 40 8047 2.6 350 20:57 21.11.2019
1199 Clouds 22 1026 40 8047 2.6 350 20:37 21.11.2019
1200 Clouds 21 1026 40 8047 2.6 350 20:18 21.11.2019
1201 Clouds 19 1028 46 8047 2.6 340 19:56 21.11.2019
1202 Clouds 19 1028 46 8047 2.6 340 19:37 21.11.2019
1203 Clouds 21 1028 46 8047 2.6 340 19:19 21.11.2019
1204 Clouds 20 1028 46 8047 2.1 330 18:42 21.11.2019
1205 Clouds 19 1029 52 8047 3.6 40 18:21 21.11.2019
1206 Clouds 18 1029 55 6437 1.5 110 17:58 21.11.2019
1207 Clouds 18 1029 55 6437 1.5 110 17:39 21.11.2019
1208 Clouds 17 1029 63 8047 2.6 100 17:21 21.11.2019
1209 Clouds 15 1029 72 8047 2.6 90 16:58 21.11.2019
1210 Clouds 15 1029 72 8047 2.6 90 16:40 21.11.2019
1211 Clouds 15 1029 72 8047 2.6 90 16:20 21.11.2019
1212 Fog 13 1030 93 402 0.42 334 15:55 21.11.2019
1213 Fog 13 1030 93 402 0.42 334 15:37 21.11.2019
1214 Clouds 13 1028 71 8047 2.6 70 15:18 21.11.2019
1215 Fog 12 1030 93 402 0.42 334 14:39 21.11.2019
1216 Mist 11 1028 76 8047 1.5 70 14:20 21.11.2019
1217 Clouds 10 1027 76 8047 2.1 70 13:59 21.11.2019
1218 Clouds 10 1027 76 8047 2.1 70 13:37 21.11.2019
1219 Clouds 10 1027 76 8047 2.1 70 13:19 21.11.2019
1220 Mist 11 1029 93 1609 0.69 88 12:43 21.11.2019
1221 Clouds 11 1027 71 9656 1.5 70 12:24 21.11.2019
1222 Clouds 11 1027 71 9656 3.1 80 11:56 21.11.2019
1223 Clouds 11 1027 71 9656 3.1 80 11:38 21.11.2019
1224 Clouds 11 1027 71 9656 3.1 80 11:20 21.11.2019
1225 Clouds 11 1027 71 9656 3.1 80 11:20 21.11.2019
1226 Mist 12 1027 67 8047 1.5 240 10:43 21.11.2019
1227 Mist 13 1027 67 8047 1.5 240 10:25 21.11.2019
1228 Mist 11 1027 76 8047 2.6 60 09:59 21.11.2019
1229 Mist 12 1027 76 8047 2.6 60 09:41 21.11.2019
1230 Mist 12 1027 76 8047 2.6 60 09:23 21.11.2019
1231 Clouds 13 1028 67 9656 1.5 60 08:55 21.11.2019
1232 Clouds 13 1028 67 9656 1.5 60 08:37 21.11.2019
1233 Clouds 13 1028 67 9656 1.5 60 08:18 21.11.2019
1234 Clouds 15 1028 59 9656 3.1 120 07:39 21.11.2019
1235 Clouds 15 1028 59 9656 3.1 120 07:18 21.11.2019
1236 Clear 15 1028 63 9656 2.1 60 06:45 21.11.2019
1237 Clear 15 1028 63 9656 2.1 60 06:24 21.11.2019
1238 Clouds 16 1028 59 9656 1 80 05:27 21.11.2019
1239 Clouds 17 1026 59 14484 3.6 90 03:31 21.11.2019
1240 Clouds 19 1025 52 12874 3.6 120 02:40 21.11.2019
1241 Clouds 20 1024 33 11265 2.6 100 01:52 21.11.2019
1242 Clouds 20 1024 33 11265 2.6 100 01:23 21.11.2019
1243 Clouds 22 1024 28 11265 2.6 340 00:47 21.11.2019
1244 Clouds 22 1024 28 11265 2.6 340 00:20 21.11.2019
1245 Clouds 22 1024 31 11265 1.5 70 23:51 20.11.2019
1246 Clouds 22 1024 31 11265 1.5 70 23:23 20.11.2019
1247 Clouds 22 1024 35 9656 4.6 90 22:59 20.11.2019
1248 Clouds 22 1024 35 9656 4.6 90 22:41 20.11.2019
1249 Clouds 22 1024 35 9656 4.6 90 22:20 20.11.2019
1250 Clouds 22 1024 35 9656 4.6 80 21:59 20.11.2019
1251 Clouds 22 1024 35 9656 4.6 80 21:59 20.11.2019
1252 Clouds 22 1024 35 9656 4.6 80 21:40 20.11.2019
1253 Clouds 23 1025 36 8047 2.6 80 21:22 20.11.2019
1254 Clouds 22 1026 38 8047 2.49 7 20:58 20.11.2019
1255 Clouds 22 1026 38 8047 2.49 7 20:40 20.11.2019
1256 Clouds 22 1026 38 8047 1.67 340 20:22 20.11.2019
1257 Clouds 21 1027 40 9656 1.5 350 19:58 20.11.2019
1258 Clouds 21 1027 40 9656 1.5 350 19:58 20.11.2019
1259 Clouds 21 1027 40 9656 1.5 350 19:37 20.11.2019
1260 Clouds 21 1027 40 9656 1.5 350 19:19 20.11.2019
1261 Clouds 20 1027 46 9656 3.1 100 18:59 20.11.2019
1262 Clouds 19 1027 46 9656 3.1 100 18:40 20.11.2019
1263 Clouds 19 1028 52 9656 3.1 50 18:21 20.11.2019
1264 Clouds 18 1028 55 9656 2.6 80 17:58 20.11.2019
1265 Clouds 17 1028 55 9656 2.6 80 17:39 20.11.2019
1266 Clouds 17 1028 55 9656 2.6 80 17:20 20.11.2019
1267 Clouds 16 1029 55 9656 0.54 1 16:57 20.11.2019
1268 Clouds 16 1029 55 9656 0.54 1 16:39 20.11.2019
1269 Clouds 15 1028 63 9656 1.5 340 16:19 20.11.2019
1270 Clouds 14 1028 67 11265 1.5 30 15:56 20.11.2019
1271 Clouds 14 1028 67 11265 1.5 30 15:56 20.11.2019
1272 Clouds 14 1028 67 11265 1.5 30 15:38 20.11.2019
1273 Clouds 14 1028 67 11265 1.5 30 15:18 20.11.2019
1274 Clouds 13 1027 76 9656 2.1 90 14:40 20.11.2019
1275 Clouds 11 1027 76 9656 2.1 90 14:22 20.11.2019
1276 Clouds 11 1027 76 9656 2.1 90 14:22 20.11.2019
1277 Clouds 11 1027 76 9656 2.1 90 14:22 20.11.2019
1278 Clouds 11 1027 76 9656 2.1 90 14:22 20.11.2019
1279 Clouds 11 1027 76 9656 2.1 90 14:22 20.11.2019
1280 Clouds 12 1027 76 12874 2.1 80 13:58 20.11.2019
1281 Clouds 12 1027 76 12874 2.1 80 13:58 20.11.2019
1282 Clouds 12 1027 76 12874 2.1 80 13:39 20.11.2019
1283 Clouds 11 1027 76 12874 2.1 80 13:20 20.11.2019
1284 Clouds 12 1026 76 12874 2.1 70 12:57 20.11.2019
1285 Clouds 12 1026 76 12874 2.1 70 12:37 20.11.2019
1286 Clouds 12 1026 76 12874 2.1 70 12:19 20.11.2019
1287 Clouds 13 1026 67 12874 1.09 53 11:45 20.11.2019
1288 Clouds 13 1026 67 12874 1.12 14 11:22 20.11.2019
1289 Clouds 13 1026 62 12874 1.5 270 10:56 20.11.2019
1290 Clouds 13 1026 62 12874 1.5 270 10:38 20.11.2019
1291 Clouds 13 1026 62 12874 1.5 270 10:20 20.11.2019
1292 Clouds 14 1026 59 16093 1.5 290 09:55 20.11.2019
1293 Clouds 14 1026 59 16093 1.5 290 09:37 20.11.2019
1294 Clouds 14 1026 59 16093 1.5 290 09:18 20.11.2019
1295 Clouds 15 1026 55 16093 2.1 300 08:39 20.11.2019
1296 Clouds 15 1026 55 16093 2.1 300 08:21 20.11.2019
1297 Clouds 15 1027 59 12874 1.5 10 07:48 20.11.2019
1298 Clouds 15 1027 59 12874 1.5 10 07:28 20.11.2019
1299 Clouds 15 1027 63 11265 2.6 30 06:50 20.11.2019
1300 Clouds 15 1027 63 11265 2.6 30 06:22 20.11.2019
1301 Clouds 16 1026 63 11265 2.1 40 05:51 20.11.2019
1302 Clouds 18 1025 56 12874 4.1 100 03:52 20.11.2019
1303 Clouds 20 1025 49 12874 2.6 100 02:22 20.11.2019
1304 Clouds 21 1023 37 11265 2.6 350 01:33 20.11.2019
1305 Clouds 22 1023 37 8047 2.6 50 00:43 20.11.2019
1306 Clouds 23 1023 37 8047 2.6 20 23:59 19.11.2019
1307 Clouds 23 1023 37 8047 2.6 20 23:36 19.11.2019
1308 Clouds 22 1023 37 8047 2.6 20 23:18 19.11.2019
1309 Clouds 24 1023 38 6437 1.5 160 22:42 19.11.2019
1310 Clouds 24 1023 38 6437 1.5 160 22:19 19.11.2019
1311 Clouds 23 1024 40 6437 2.6 90 21:57 19.11.2019
1312 Clouds 22 1024 40 6437 2.6 90 21:38 19.11.2019
1313 Clouds 22 1024 40 6437 2.6 90 21:20 19.11.2019
1314 Clouds 22 1025 40 8047 3.6 60 20:57 19.11.2019
1315 Clouds 22 1025 40 8047 3.6 60 20:39 19.11.2019
1316 Clouds 22 1025 40 8047 3.6 60 20:20 19.11.2019
1317 Clouds 22 1026 49 6437 2.1 180 19:57 19.11.2019
1318 Clouds 22 1026 49 6437 2.1 180 19:57 19.11.2019
1319 Clouds 22 1026 49 6437 2.1 180 19:39 19.11.2019
1320 Clouds 22 1026 49 6437 2.1 180 19:19 19.11.2019
1321 Clouds 21 1027 59 6437 1.5 290 18:55 19.11.2019
1322 Clouds 20 1027 59 6437 1.5 290 18:36 19.11.2019
1323 Clouds 20 1027 59 6437 1.5 290 18:18 19.11.2019
1324 Clouds 19 1028 68 6437 1.54 331 17:55 19.11.2019
1325 Clouds 19 1028 68 6437 1.54 331 17:37 19.11.2019
1326 Clouds 19 1028 68 6437 1.54 331 17:37 19.11.2019
1327 Clouds 19 1028 68 6437 0.54 358 17:18 19.11.2019
1328 Clouds 16 1027 72 6437 2.1 100 16:43 19.11.2019
1329 Clouds 16 1027 72 6437 2.1 100 16:24 19.11.2019
1330 Clouds 14 1027 82 6437 2.1 110 15:57 19.11.2019
1331 Clouds 14 1027 82 6437 2.1 110 15:39 19.11.2019
1332 Clouds 14 1027 82 6437 2.1 110 15:20 19.11.2019
1333 Clouds 12 1026 87 6437 3.1 90 14:55 19.11.2019
1334 Clouds 12 1026 87 6437 3.1 90 14:37 19.11.2019
1335 Clouds 12 1026 87 6437 3.1 90 14:37 19.11.2019
1336 Clouds 12 1026 87 6437 3.1 90 14:19 19.11.2019
1337 Clouds 11 1026 87 8047 1.5 80 13:40 19.11.2019
1338 Clouds 11 1026 87 8047 1.5 80 13:19 19.11.2019
1339 Clouds 11 1025 82 8047 1.5 180 12:41 19.11.2019
1340 Clouds 12 1025 82 8047 1.5 180 12:22 19.11.2019
1341 Mist 11 1025 87 9656 1.5 260 11:58 19.11.2019
1342 Mist 11 1025 87 9656 1.5 260 11:38 19.11.2019
1343 Mist 11 1025 87 9656 1.5 260 11:19 19.11.2019
1344 Clouds 12 1025 82 9656 1.23 359 10:48 19.11.2019
1345 Clouds 12 1025 82 9656 1.23 359 10:23 19.11.2019
1346 Clouds 13 1026 77 11265 1.5 220 09:58 19.11.2019
1347 Clouds 13 1026 77 11265 1.5 220 09:40 19.11.2019
1348 Clouds 13 1026 77 11265 1.5 220 09:19 19.11.2019
1349 Clouds 14 1026 72 11265 2.1 300 08:41 19.11.2019
1350 Clouds 14 1026 72 11265 2.1 300 08:23 19.11.2019
1351 Clouds 13 1026 77 11265 2.1 220 07:57 19.11.2019
1352 Clouds 13 1026 77 11265 2.1 220 07:39 19.11.2019
1353 Clouds 13 1026 77 11265 2.1 220 07:20 19.11.2019
1354 Clouds 14 1026 77 9656 2.6 230 06:50 19.11.2019
1355 Clouds 14 1026 77 9656 2.6 230 06:30 19.11.2019
1356 Clouds 14 1026 82 11265 1.5 170 05:28 19.11.2019
1357 Clouds 16 1025 59 11265 2.6 160 03:50 19.11.2019
1358 Clouds 16 1025 59 11265 2.6 160 03:31 19.11.2019
1359 Clouds 18 1024 55 11265 2.6 70 02:55 19.11.2019
1360 Clouds 19 1023 55 11265 2.6 350 01:59 19.11.2019
1361 Rain 20 1023 55 11265 3.6 330 01:27 19.11.2019
1362 Clouds 22 1022 35 11265 3.1 80 00:21 19.11.2019
1363 Clouds 23 1022 33 11265 2.6 290 23:56 18.11.2019
1364 Clouds 23 1022 33 11265 2.6 290 23:37 18.11.2019
1365 Clouds 23 1022 33 11265 2.6 290 23:18 18.11.2019
1366 Clouds 23 1022 33 9656 2.6 240 22:42 18.11.2019
1367 Clouds 23 1022 33 9656 2.6 240 22:23 18.11.2019
1368 Clouds 23 1023 35 9656 2.6 210 21:55 18.11.2019
1369 Clouds 23 1023 35 9656 2.6 210 21:36 18.11.2019
1370 Clouds 23 1023 35 9656 2.6 210 21:18 18.11.2019
1371 Clouds 22 1024 35 11265 1.5 10 20:42 18.11.2019
1372 Clouds 22 1024 35 11265 1.5 10 20:20 18.11.2019
1373 Clouds 21 1025 37 11265 1 200 19:58 18.11.2019
1374 Clouds 21 1025 37 11265 1 200 19:39 18.11.2019
1375 Clouds 21 1026 37 12874 0.73 324 19:21 18.11.2019
1376 Clouds 20 1026 42 12874 2.6 60 18:57 18.11.2019
1377 Clouds 20 1026 42 12874 2.6 60 18:38 18.11.2019
1378 Clouds 19 1027 45 14484 1.5 110 18:20 18.11.2019
1379 Clouds 19 1027 45 14484 1.5 110 18:20 18.11.2019
1380 Clouds 17 1028 44 14484 0.73 324 17:59 18.11.2019
1381 Clouds 17 1028 44 14484 0.73 324 17:38 18.11.2019
1382 Clouds 17 1028 44 14484 1.27 356 17:19 18.11.2019
1383 Clouds 17 1028 44 14484 1.27 356 17:19 18.11.2019
1384 Clouds 15 1028 50 16093 2.6 50 16:43 18.11.2019
1385 Clouds 15 1028 50 16093 2.6 50 16:25 18.11.2019
1386 Clouds 15 1028 50 16093 2.6 50 16:25 18.11.2019
1387 Clouds 14 1021 64 19312 1 80 15:59 18.11.2019
1388 Clouds 13 1027 54 16093 1 180 15:41 18.11.2019
1389 Clouds 13 1027 54 16093 1 180 15:41 18.11.2019
1390 Clouds 13 1027 54 16093 1 180 15:22 18.11.2019
1391 Clouds 11 1027 62 24140 3.1 70 14:59 18.11.2019
1392 Clouds 11 1027 62 24140 3.1 70 14:41 18.11.2019
1393 Clouds 11 1027 62 24140 3.1 70 14:22 18.11.2019
1394 Clouds 9 1026 57 16093 2.6 90 13:45 18.11.2019
1395 Clouds 9 1026 57 16093 2.6 90 13:27 18.11.2019
1396 Clouds 9 1026 57 16093 2.6 90 13:27 18.11.2019
1397 Clouds 10 1026 54 16093 1.5 70 12:57 18.11.2019
1398 Clouds 10 1026 54 16093 1.5 70 12:37 18.11.2019
1399 Clouds 10 1026 54 16093 1.5 70 12:18 18.11.2019
1400 Clouds 10 1026 50 16093 2.1 80 11:43 18.11.2019
1401 Clouds 10 1026 50 16093 2.1 80 11:25 18.11.2019
1402 Clouds 11 1026 50 19312 3.6 290 10:46 18.11.2019
1403 Clouds 12 1026 50 19312 3.6 290 10:27 18.11.2019
1404 Clouds 12 1026 50 19312 3.1 280 09:59 18.11.2019
1405 Clouds 12 1026 50 19312 3.1 280 09:39 18.11.2019
1406 Clouds 12 1026 50 19312 3.1 280 09:21 18.11.2019
1407 Clouds 12 1026 47 19312 3.6 280 08:59 18.11.2019
1408 Clouds 12 1026 47 19312 3.6 280 08:41 18.11.2019
1409 Clouds 13 1026 47 19312 3.6 280 08:19 18.11.2019
1410 Clouds 13 1027 41 19312 2.1 320 07:47 18.11.2019
1411 Clouds 13 1027 41 19312 2.1 320 07:47 18.11.2019
1412 Clouds 13 1027 41 19312 2.1 320 07:27 18.11.2019
1413 Clouds 15 1027 39 19312 2.6 10 06:49 18.11.2019
1414 Clouds 15 1027 39 19312 2.6 10 06:29 18.11.2019
1415 Clouds 15 1027 39 19312 2.1 310 05:46 18.11.2019
1416 Clouds 16 1026 39 12874 4.6 350 04:35 18.11.2019
1417 Clouds 19 1024 42 12874 5.1 60 01:49 18.11.2019
1418 Clouds 20 1023 35 12874 3.1 350 01:30 18.11.2019
1419 Clouds 21 1023 30 12874 3.1 310 00:21 18.11.2019
1420 Rain 22 1025 55 8047 5.1 170 23:43 17.11.2019
1421 Clouds 22 1023 30 11265 1.5 320 23:24 17.11.2019
1422 Clouds 22 1023 30 11265 2.4 351 22:58 17.11.2019
1423 Clouds 22 1023 30 11265 2.4 351 22:39 17.11.2019
1424 Clouds 22 1023 30 11265 2.4 351 22:21 17.11.2019
1425 Clouds 23 1024 31 11265 2.4 351 21:57 17.11.2019
1426 Clouds 23 1024 31 11265 2.4 351 21:39 17.11.2019
1427 Clouds 23 1024 31 11265 2.4 351 21:19 17.11.2019
1428 Clouds 22 1025 33 11265 2.4 351 20:55 17.11.2019
1429 Clouds 22 1025 33 11265 2.4 351 20:55 17.11.2019
1430 Clouds 22 1025 33 11265 2.4 351 20:37 17.11.2019
1431 Clouds 22 1025 33 11265 2.19 345 20:19 17.11.2019
1432 Clouds 21 1026 40 11265 2.6 20 19:56 17.11.2019
1433 Clouds 21 1026 40 11265 2.6 20 19:37 17.11.2019
1434 Clouds 21 1026 40 11265 2.6 20 19:19 17.11.2019
1435 Clouds 19 1027 39 11265 2.6 280 18:54 17.11.2019
1436 Clouds 19 1027 39 11265 2.6 280 18:36 17.11.2019
1437 Clouds 19 1027 39 11265 2.6 280 18:36 17.11.2019
1438 Clouds 19 1027 39 11265 2.6 280 18:18 17.11.2019
1439 Clear 17 1028 45 11265 2.19 345 17:57 17.11.2019
1440 Clear 17 1028 45 11265 2.19 345 17:38 17.11.2019
1441 Clear 16 1028 51 11265 2.6 80 17:19 17.11.2019
1442 Clear 14 1028 62 11265 2.1 90 16:55 17.11.2019
1443 Clear 14 1028 62 11265 2.1 90 16:37 17.11.2019
1444 Clear 14 1028 62 11265 2.1 90 16:19 17.11.2019
1445 Clear 12 1027 76 12874 2.6 90 15:54 17.11.2019
1446 Clear 11 1027 76 12874 2.6 90 15:36 17.11.2019
1447 Clear 11 1027 76 12874 2.6 90 15:18 17.11.2019
1448 Clear 11 1027 76 12874 2.6 90 15:18 17.11.2019
1449 Clear 9 1026 81 11265 3.1 70 14:54 17.11.2019
1450 Clear 9 1026 81 11265 3.1 70 14:36 17.11.2019
1451 Clear 7 1026 81 11265 3.1 70 14:18 17.11.2019
1452 Clear 8 1026 71 11265 1 80 13:40 17.11.2019
1453 Clear 8 1026 71 11265 1 80 13:20 17.11.2019
1454 Clear 9 1026 66 11265 1.5 50 12:55 17.11.2019
1455 Clear 9 1026 66 11265 1.5 50 12:36 17.11.2019
1456 Clear 9 1026 66 11265 1.5 50 12:18 17.11.2019
1457 Clear 9 1026 66 11265 1.5 50 12:18 17.11.2019
1458 Fog 10 1027 93 805 0.93 31 11:54 17.11.2019
1459 Fog 10 1027 93 805 0.93 31 11:36 17.11.2019
1460 Clear 10 1026 62 11265 2.1 40 11:18 17.11.2019
1461 Clouds 11 1026 54 11265 1 250 10:41 17.11.2019
1462 Clouds 11 1026 54 11265 1 250 10:21 17.11.2019
1463 Clouds 12 1026 54 11265 2.6 310 09:42 17.11.2019
1464 Clouds 12 1026 54 11265 2.6 310 09:24 17.11.2019
1465 Clouds 12 1026 54 11265 3.1 280 08:47 17.11.2019
1466 Clouds 13 1026 54 11265 3.1 280 08:27 17.11.2019
1467 Clouds 13 1027 48 11265 2.6 310 07:59 17.11.2019
1468 Clouds 13 1027 48 11265 2.6 310 07:40 17.11.2019
1469 Clouds 13 1027 48 11265 2.6 310 07:20 17.11.2019
1470 Clouds 14 1027 51 11265 3.1 340 06:54 17.11.2019
1471 Clouds 14 1027 51 11265 3.1 340 06:29 17.11.2019
1472 Clouds 15 1027 48 11265 3.1 320 05:24 17.11.2019
1473 Clouds 16 1027 42 12874 3.1 10 04:18 17.11.2019
1474 Clouds 15 1026 42 9656 2.1 330 03:39 17.11.2019
1475 Clouds 17 1026 42 9656 2.1 330 03:20 17.11.2019
1476 Clouds 19 1024 40 9656 4.6 310 01:59 17.11.2019
1477 Clouds 19 1024 40 9656 4.6 310 01:21 17.11.2019
1478 Clouds 20 1024 40 9656 5.1 300 00:41 17.11.2019
1479 Clouds 20 1024 40 9656 5.1 300 00:21 17.11.2019
1480 Clouds 20 1024 37 6437 2.6 320 23:42 16.11.2019
1481 Clouds 20 1024 37 6437 2.6 320 23:42 16.11.2019
1482 Clouds 20 1024 37 6437 2.6 320 23:19 16.11.2019
1483 Clouds 20 1024 37 8047 2.6 350 22:42 16.11.2019
1484 Clouds 20 1024 37 8047 2.6 350 22:20 16.11.2019
1485 Clouds 20 1025 37 9656 1.5 20 21:59 16.11.2019
1486 Clouds 20 1025 37 9656 1.5 20 21:40 16.11.2019
1487 Clouds 20 1025 37 9656 1.5 20 21:21 16.11.2019
1488 Clouds 21 1027 40 9656 3.4 349 20:58 16.11.2019
1489 Clouds 21 1027 40 9656 3.4 349 20:39 16.11.2019
1490 Clouds 21 1027 40 9656 2.3 345 20:19 16.11.2019
1491 Clouds 21 1027 42 11265 1.5 80 19:41 16.11.2019
1492 Clouds 20 1027 45 11265 2.3 345 19:22 16.11.2019
1493 Clouds 19 1028 48 8047 1.5 10 18:59 16.11.2019
1494 Clouds 19 1028 48 8047 1.5 10 18:39 16.11.2019
1495 Clouds 17 1029 59 6437 2.6 40 18:20 16.11.2019
1496 Clouds 17 1029 59 6437 2.3 345 17:55 16.11.2019
1497 Clouds 17 1029 59 6437 2.3 345 17:36 16.11.2019
1498 Haze 16 1029 67 4828 1.5 70 17:18 16.11.2019
1499 Haze 15 1029 71 4828 3.1 70 16:44 16.11.2019
1500 Mist 14 1029 81 4828 3.6 80 16:26 16.11.2019
1501 Mist 12 1029 81 3219 2.6 70 15:56 16.11.2019
1502 Mist 12 1029 81 3219 2.6 70 15:37 16.11.2019
1503 Mist 12 1029 81 3219 2.6 70 15:18 16.11.2019
1504 Mist 10 1028 87 3219 2.6 80 14:40 16.11.2019
1505 Mist 11 1028 81 4828 2.6 70 14:21 16.11.2019
1506 Clouds 10 1028 87 6437 3.6 80 13:56 16.11.2019
1507 Clouds 10 1028 87 6437 3.6 80 13:38 16.11.2019
1508 Clouds 9 1028 87 6437 3.6 80 13:19 16.11.2019
1509 Clouds 10 1027 81 8047 3.6 90 12:58 16.11.2019
1510 Clouds 10 1027 81 8047 3.6 90 12:40 16.11.2019
1511 Clouds 10 1027 81 8047 3.6 90 12:20 16.11.2019
1512 Clouds 10 1027 81 8047 3.1 70 11:45 16.11.2019
1513 Clouds 10 1027 81 8047 3.1 70 11:26 16.11.2019
1514 Clouds 10 1028 81 8047 3.1 90 10:57 16.11.2019
1515 Clouds 10 1028 81 8047 3.1 90 10:39 16.11.2019
1516 Clouds 10 1028 81 8047 3.1 90 10:20 16.11.2019
1517 Clouds 10 1028 81 9656 4.6 80 09:43 16.11.2019
1518 Clouds 11 1028 71 9656 4.1 80 09:21 16.11.2019
1519 Clouds 12 1028 66 9656 3.1 80 08:58 16.11.2019
1520 Clouds 12 1028 66 9656 3.1 80 08:38 16.11.2019
1521 Clouds 12 1028 66 9656 3.1 80 08:18 16.11.2019
1522 Clouds 13 1029 62 11265 2.45 353 07:41 16.11.2019
1523 Clouds 13 1029 62 11265 2.45 353 07:41 16.11.2019
1524 Clouds 13 1029 62 11265 2.45 353 07:20 16.11.2019
1525 Clouds 13 1029 58 11265 4.1 300 06:45 16.11.2019
1526 Clouds 13 1029 58 11265 4.1 300 06:26 16.11.2019
1527 Clouds 14 1029 55 9656 2.6 300 05:28 16.11.2019
1528 Clouds 14 1028 52 9656 2.6 300 03:42 16.11.2019
1529 Clouds 17 1028 52 9656 2.6 300 03:23 16.11.2019
1530 Clouds 18 1026 42 9656 3.1 340 01:44 16.11.2019
1531 Clouds 19 1026 42 9656 3.1 340 01:19 16.11.2019
1532 Clouds 19 1029 81 6437 4.1 80 00:41 16.11.2019
1533 Clouds 19 1026 40 9656 3.9 356 00:20 16.11.2019
1534 Thunderstorm 20 1028 76 6437 3.6 100 23:39 15.11.2019
1535 Clouds 21 1026 40 9656 2.6 90 23:20 15.11.2019
1536 Clouds 22 1026 43 9656 4.1 120 22:55 15.11.2019
1537 Clouds 22 1026 43 9656 4.1 120 22:36 15.11.2019
1538 Clouds 22 1026 43 9656 4.1 120 22:18 15.11.2019
1539 Clouds 22 1027 45 9656 3.1 60 21:41 15.11.2019
1540 Clouds 22 1027 45 9656 3.1 60 21:40 15.11.2019
1541 Clouds 22 1027 45 9656 3.1 60 21:20 15.11.2019
1542 Clouds 21 1028 40 9656 1.5 50 20:58 15.11.2019
1543 Clouds 21 1028 40 9656 1.5 50 20:39 15.11.2019
1544 Clouds 21 1028 40 9656 1.5 50 20:39 15.11.2019
1545 Clouds 22 1028 40 9656 1.5 50 20:21 15.11.2019
1546 Clouds 21 1029 45 9656 1.5 250 19:58 15.11.2019
1547 Clouds 20 1029 45 9656 1.5 250 19:39 15.11.2019
1548 Clouds 19 1029 51 9656 3.1 280 19:20 15.11.2019
1549 Clouds 19 1030 52 9656 2.1 220 18:58 15.11.2019
1550 Clouds 19 1030 52 9656 2.1 220 18:39 15.11.2019
1551 Clouds 18 1031 59 9656 1.5 220 18:21 15.11.2019
1552 Clouds 17 1031 62 9656 2.1 110 17:42 15.11.2019
1553 Clouds 17 1031 62 9656 2.1 110 17:24 15.11.2019
1554 Clouds 15 1031 62 11265 3.1 10 16:56 15.11.2019
1555 Clouds 15 1031 62 11265 3.1 10 16:37 15.11.2019
1556 Clouds 15 1031 62 11265 3.1 10 16:19 15.11.2019
1557 Clouds 13 1030 66 11265 2.6 290 15:38 15.11.2019
1558 Clouds 13 1030 66 11265 2.6 290 15:20 15.11.2019
1559 Clouds 13 1029 66 8047 2.6 260 14:57 15.11.2019
1560 Clouds 13 1029 66 8047 2.6 260 14:38 15.11.2019
1561 Clouds 13 1029 66 8047 2.6 260 14:19 15.11.2019
1562 Clouds 11 1029 66 9656 3.6 270 13:58 15.11.2019
1563 Clouds 12 1029 66 9656 3.6 270 13:39 15.11.2019
1564 Clouds 12 1029 66 9656 3.6 270 13:20 15.11.2019
1565 Clouds 11 1029 66 9656 2.6 360 12:58 15.11.2019
1566 Clouds 11 1029 66 9656 2.6 360 12:39 15.11.2019
1567 Clouds 12 1029 66 9656 2.6 360 12:20 15.11.2019
1568 Clouds 11 1029 66 9656 2.6 30 11:57 15.11.2019
1569 Clouds 11 1029 66 9656 2.6 30 11:38 15.11.2019
1570 Mist 12 1029 87 6437 3.12 349 11:20 15.11.2019
1571 Clouds 12 1029 67 9656 2.6 360 10:56 15.11.2019
1572 Clouds 12 1029 67 9656 2.6 360 10:38 15.11.2019
1573 Clouds 12 1029 67 9656 2.6 360 10:18 15.11.2019
1574 Clouds 13 1029 67 9656 2.6 30 09:40 15.11.2019
1575 Clouds 13 1029 67 9656 2.6 30 09:19 15.11.2019
1576 Clouds 13 1029 67 9656 3.6 20 08:44 15.11.2019
1577 Clouds 13 1029 67 9656 3.6 20 08:23 15.11.2019
1578 Clouds 13 1030 67 9656 4.6 20 07:48 15.11.2019
1579 Clouds 13 1030 67 9656 4.6 20 07:28 15.11.2019
1580 Clouds 14 1029 63 9656 5.1 350 06:44 15.11.2019
1581 Clouds 14 1029 63 9656 5.1 350 06:25 15.11.2019
1582 Clouds 14 1029 63 11265 3.6 10 05:40 15.11.2019
1583 Clouds 14 1029 63 11265 3.6 10 05:22 15.11.2019
1584 Clouds 16 1027 55 16093 3.1 50 03:50 15.11.2019
1585 Clouds 16 1027 55 16093 3.1 50 03:22 15.11.2019
1586 Clouds 18 1028 71 11265 3.1 130 02:18 15.11.2019
1587 Clouds 19 1025 52 19312 5.7 110 01:33 15.11.2019
1588 Clouds 19 1025 52 19312 5.7 110 01:33 15.11.2019
1589 Clouds 21 1024 46 19312 6.2 120 00:49 15.11.2019
1590 Clouds 21 1024 46 19312 6.2 120 00:31 15.11.2019
1591 Clouds 22 1024 33 17702 3.6 70 23:50 14.11.2019
1592 Clouds 22 1024 33 17702 3.6 70 23:28 14.11.2019
1593 Clouds 22 1024 33 17702 4.1 150 22:58 14.11.2019
1594 Clouds 22 1024 33 17702 4.1 150 22:39 14.11.2019
1595 Clouds 22 1024 33 17702 4.1 150 22:21 14.11.2019
1596 Clouds 22 1025 30 19312 2.1 220 21:55 14.11.2019
1597 Clouds 22 1025 30 19312 2.1 220 21:37 14.11.2019
1598 Clouds 22 1025 30 19312 2.1 220 21:18 14.11.2019
1599 Clouds 23 1026 31 19312 3.6 220 20:42 14.11.2019
1600 Clouds 23 1026 31 19312 3.6 220 20:23 14.11.2019
1601 Clouds 22 1027 35 16093 2.6 220 19:59 14.11.2019
1602 Clouds 22 1027 35 16093 2.6 220 19:40 14.11.2019
1603 Clouds 22 1027 35 16093 2.6 220 19:18 14.11.2019
1604 Clouds 20 1028 37 16093 3.6 210 18:55 14.11.2019
1605 Clouds 21 1027 37 0 3.58 210 18:36 14.11.2019
1606 Clouds 18 1028 45 16093 2.1 300 18:18 14.11.2019
1607 Clouds 18 1028 45 16093 2.1 300 17:39 14.11.2019
1608 Clouds 18 1028 45 16093 2.1 300 17:20 14.11.2019
1609 Clouds 16 1028 59 19312 2.1 20 16:58 14.11.2019
1610 Clouds 16 1028 59 19312 2.1 20 16:39 14.11.2019
1611 Clouds 16 1028 59 19312 2.1 20 16:21 14.11.2019
1612 Clouds 14 1027 67 19312 2.1 90 15:59 14.11.2019
1613 Clouds 14 1027 67 19312 2.1 90 15:41 14.11.2019
1614 Clouds 14 1027 67 19312 2.1 90 15:22 14.11.2019
1615 Clouds 12 1026 71 24140 1.58 173 14:58 14.11.2019
1616 Clouds 12 1026 71 24140 1.58 173 14:40 14.11.2019
1617 Clouds 12 1026 71 24140 2.05 158 14:22 14.11.2019
1618 Clouds 11 1026 66 24140 2.05 158 13:55 14.11.2019
1619 Clouds 11 1026 66 24140 2.05 158 13:36 14.11.2019
1620 Clouds 11 1026 66 24140 2.08 160 13:18 14.11.2019
1621 Clouds 11 1026 62 24140 2.1 280 12:44 14.11.2019
1622 Clouds 11 1026 62 24140 2.1 280 12:24 14.11.2019
1623 Clouds 11 1026 62 24140 2.08 160 11:56 14.11.2019
1624 Clouds 11 1026 62 24140 2.08 160 11:37 14.11.2019
1625 Clouds 11 1026 62 24140 2.66 161 11:19 14.11.2019
1626 Clouds 11 1026 62 24140 2.66 161 10:57 14.11.2019
1627 Clouds 11 1026 62 24140 2.66 161 10:37 14.11.2019
1628 Clouds 12 1026 62 24140 2.66 161 10:19 14.11.2019
1629 Clouds 12 1027 58 24140 3.1 140 09:42 14.11.2019
1630 Clouds 14 1018 55 0 2.66 161 09:24 14.11.2019
1631 Clouds 11 1026 51 24140 4.1 150 08:59 14.11.2019
1632 Clouds 12 1026 51 24140 4.1 150 08:40 14.11.2019
1633 Clouds 12 1026 51 24140 4.1 150 08:22 14.11.2019
1634 Clouds 12 1026 51 24140 4.1 180 07:42 14.11.2019
1635 Clouds 12 1026 51 24140 4.1 180 07:24 14.11.2019
1636 Clouds 13 1026 48 19312 6.2 150 06:46 14.11.2019
1637 Clouds 13 1026 48 19312 6.2 150 06:21 14.11.2019
1638 Clouds 13 1027 51 19312 6.2 160 05:38 14.11.2019
1639 Clouds 16 1019 48 0 3.58 172 04:38 14.11.2019
1640 Clouds 14 1026 48 16093 3.1 170 03:27 14.11.2019
1641 Clouds 17 1025 45 16093 3.1 170 02:35 14.11.2019
1642 Clouds 18 1025 39 16093 3.1 170 01:40 14.11.2019
1643 Clouds 20 1024 37 19312 6.2 170 00:57 14.11.2019
1644 Clouds 20 1024 37 19312 6.2 170 00:37 14.11.2019
1645 Clouds 20 1024 37 19312 6.2 170 00:18 14.11.2019
1646 Clouds 20 1024 37 19312 6.2 170 23:38 13.11.2019
1647 Clouds 20 1024 37 19312 6.2 170 23:19 13.11.2019
1648 Clouds 21 1024 34 19312 8.2 190 22:42 13.11.2019
1649 Clouds 21 1024 34 19312 8.2 190 22:23 13.11.2019
1650 Clouds 21 1024 34 19312 8.2 190 22:23 13.11.2019
1651 Clouds 21 1025 35 19312 8.2 210 21:57 13.11.2019
1652 Clouds 21 1025 35 19312 8.2 210 21:39 13.11.2019
1653 Clouds 21 1025 35 19312 8.2 210 21:21 13.11.2019
1654 Clouds 21 1025 35 19312 6.7 180 20:58 13.11.2019
1655 Clouds 21 1025 35 19312 6.7 180 20:58 13.11.2019
1656 Clouds 21 1025 35 19312 6.7 180 20:38 13.11.2019
1657 Clouds 21 1025 35 19312 6.7 180 20:38 13.11.2019
1658 Clouds 20 1026 42 19312 3.1 190 20:20 13.11.2019
1659 Clear 19 1026 42 0 2.68 190 19:59 13.11.2019
1660 Clear 19 1027 42 0 4.92 140 19:40 13.11.2019
1661 Clouds 19 1027 42 19312 5.1 140 19:18 13.11.2019
1662 Clouds 19 1027 42 19312 5.1 140 18:56 13.11.2019
1663 Clouds 19 1027 42 19312 5.1 140 18:37 13.11.2019
1664 Clouds 19 1027 42 19312 5.1 140 18:18 13.11.2019
1665 Clouds 19 1028 45 19312 3.1 180 17:56 13.11.2019
1666 Clouds 18 1028 45 19312 3.1 180 17:38 13.11.2019
1667 Clouds 17 1028 51 19312 1.5 180 17:19 13.11.2019
1668 Clouds 15 1028 54 16093 3.1 140 16:56 13.11.2019
1669 Clouds 15 1028 54 16093 3.1 140 16:37 13.11.2019
1670 Clouds 15 1028 54 16093 3.1 140 16:19 13.11.2019
1671 Clouds 14 1028 71 16093 3.1 110 15:57 13.11.2019
1672 Clouds 14 1028 71 16093 3.1 110 15:37 13.11.2019
1673 Clouds 13 1028 71 16093 3.1 110 15:18 13.11.2019
1674 Clouds 12 1028 81 11265 3.1 80 14:41 13.11.2019
1675 Clouds 12 1028 81 11265 3.1 80 14:21 13.11.2019
1676 Clouds 11 1027 81 9656 2.1 80 13:39 13.11.2019
1677 Clouds 11 1027 81 9656 2.1 80 13:39 13.11.2019
1678 Clouds 11 1027 81 9656 2.1 80 13:20 13.11.2019
1679 Clouds 11 1027 81 9656 1 20 12:59 13.11.2019
1680 Clouds 11 1027 81 9656 1 20 12:41 13.11.2019
1681 Clouds 11 1027 81 9656 1 20 12:23 13.11.2019
1682 Clouds 10 1028 71 11265 6.2 160 11:55 13.11.2019
1683 Clouds 10 1028 71 11265 6.2 160 11:37 13.11.2019
1684 Clouds 10 1027 81 9656 2.1 60 11:18 13.11.2019
1685 Clouds 11 1027 81 9656 3.1 80 10:55 13.11.2019
1686 Clouds 11 1027 81 9656 3.1 80 10:37 13.11.2019
1687 Clouds 11 1027 81 9656 3.1 80 10:18 13.11.2019
1688 Clouds 11 1027 76 9656 2.1 80 09:41 13.11.2019
1689 Clouds 11 1027 76 9656 2.1 80 09:20 13.11.2019
1690 Clouds 12 1027 71 11265 2.6 100 08:41 13.11.2019
1691 Clouds 14 1027 71 11265 2.6 100 08:23 13.11.2019
1692 Clouds 15 1027 67 12874 2.1 100 07:58 13.11.2019
1693 Clouds 15 1027 67 12874 2.1 100 07:39 13.11.2019
1694 Clouds 15 1027 67 12874 2.1 100 07:18 13.11.2019
1695 Clouds 15 1028 67 12874 1 60 06:41 13.11.2019
1696 Clouds 15 1028 67 12874 1 60 06:18 13.11.2019
1697 Clouds 16 1027 62 12874 3.6 300 05:47 13.11.2019
1698 Clouds 16 1027 62 12874 3.6 280 04:59 13.11.2019
1699 Clouds 19 1026 52 14484 4.1 300 03:51 13.11.2019
1700 Clouds 20 1024 37 11265 3.1 170 01:50 13.11.2019
1701 Clouds 20 1024 37 11265 3.1 170 01:25 13.11.2019
1702 Clouds 21 1023 33 11265 3.1 130 00:42 13.11.2019
1703 Clouds 23 1023 30 11265 2.97 339 23:56 12.11.2019
1704 Clouds 23 1023 30 11265 2.97 339 23:37 12.11.2019
1705 Clouds 23 1023 30 11265 2.47 3 23:18 12.11.2019
1706 Clouds 23 1024 33 12874 2.1 340 22:40 12.11.2019
1707 Clouds 23 1024 33 12874 2.1 340 22:18 12.11.2019
1708 Clouds 22 1025 35 12874 2.47 3 21:54 12.11.2019
1709 Clouds 22 1025 35 12874 2.47 3 21:36 12.11.2019
1710 Clouds 22 1025 35 12874 2.47 3 21:18 12.11.2019
1711 Clouds 21 1026 40 12874 2.6 340 20:54 12.11.2019
1712 Clouds 21 1026 40 12874 2.6 340 20:36 12.11.2019
1713 Clouds 21 1026 40 12874 2.6 340 20:18 12.11.2019
1714 Clouds 20 1028 42 12874 2.6 340 19:54 12.11.2019
1715 Clouds 20 1028 42 12874 2.6 340 19:36 12.11.2019
1716 Clouds 20 1028 42 12874 2.6 340 19:18 12.11.2019
1717 Clouds 18 1029 48 16093 2.61 50 18:41 12.11.2019
1718 Clouds 17 1029 48 16093 2.61 50 18:23 12.11.2019
1719 Clouds 17 1030 51 14484 3.1 100 17:58 12.11.2019
1720 Clouds 17 1030 51 14484 3.1 100 17:58 12.11.2019
1721 Clouds 17 1030 51 14484 3.1 100 17:40 12.11.2019
1722 Clouds 17 1030 51 14484 3.1 100 17:21 12.11.2019
1723 Clouds 15 1030 51 14484 2.6 60 16:59 12.11.2019
1724 Clouds 15 1030 51 14484 2.6 60 16:40 12.11.2019
1725 Clouds 15 1030 51 14484 2.6 60 16:22 12.11.2019
1726 Mist 15 1030 76 4828 3.6 130 15:42 12.11.2019
1727 Clouds 14 1029 62 14484 2.6 290 15:23 12.11.2019
1728 Clouds 11 1029 66 16093 3.1 20 14:57 12.11.2019
1729 Clouds 11 1029 66 16093 3.1 20 14:39 12.11.2019
1730 Clouds 11 1029 66 16093 3.1 20 14:19 12.11.2019
1731 Clouds 10 1028 66 19312 3.6 350 13:57 12.11.2019
1732 Clouds 10 1028 66 19312 3.6 350 13:57 12.11.2019
1733 Clouds 10 1028 66 19312 3.6 350 13:38 12.11.2019
1734 Clouds 11 1028 66 19312 3.6 350 13:19 12.11.2019
1735 Clouds 11 1027 62 24140 4.6 360 12:43 12.11.2019
1736 Clouds 12 1027 62 24140 4.6 360 12:20 12.11.2019
1737 Clouds 11 1027 58 24140 2.6 320 11:59 12.11.2019
1738 Clouds 12 1027 58 24140 2.6 320 11:41 12.11.2019
1739 Clouds 12 1027 58 24140 2.6 320 11:22 12.11.2019
1740 Clouds 12 1027 62 19312 2.1 30 10:57 12.11.2019
1741 Clouds 12 1027 62 19312 2.1 30 10:38 12.11.2019
1742 Clouds 12 1027 62 19312 2.1 30 10:20 12.11.2019
1743 Clouds 12 1027 62 19312 2.55 15 09:56 12.11.2019
1744 Clouds 12 1027 62 19312 2.51 9 09:38 12.11.2019
1745 Clouds 13 1027 51 19312 1.5 280 09:38 12.11.2019
1746 Clouds 14 1027 51 19312 1.5 280 09:18 12.11.2019
1747 Clouds 13 1027 55 19312 2.1 320 08:41 12.11.2019
1748 Clouds 13 1027 55 19312 2.1 320 08:41 12.11.2019
1749 Clear 17 1027 55 0 1.79 320 08:22 12.11.2019
1750 Clouds 14 1028 55 19312 2.6 310 07:41 12.11.2019
1751 Clouds 14 1028 55 19312 2.6 310 07:23 12.11.2019
1752 Clouds 15 1028 52 19312 5.1 320 06:45 12.11.2019
1753 Clouds 15 1028 52 19312 5.1 320 06:23 12.11.2019
1754 Clouds 15 1028 52 19312 5.7 300 05:46 12.11.2019
1755 Clouds 17 1027 40 16093 3.6 360 04:50 12.11.2019
1756 Clouds 17 1027 42 12874 4.6 60 03:49 12.11.2019
1757 Rain 20 1025 40 9656 2.6 310 01:49 12.11.2019
1758 Rain 19 1025 40 9656 4.1 110 01:22 12.11.2019
1759 Rain 19 1025 40 9656 4.1 110 01:22 12.11.2019
1760 Rain 20 1025 42 9656 6.2 120 00:48 12.11.2019
1761 Clouds 21 1024 43 12874 5.1 120 00:29 12.11.2019
1762 Clouds 23 1024 31 12874 4.6 40 23:47 11.11.2019
1763 Clouds 23 1024 31 12874 4.6 40 23:24 11.11.2019
1764 Clouds 24 1024 29 12874 4.1 320 22:58 11.11.2019
1765 Clouds 24 1024 29 12874 4.1 320 22:37 11.11.2019
1766 Clouds 24 1024 29 12874 4.1 320 22:18 11.11.2019
1767 Clouds 24 1025 31 11265 2.1 300 21:57 11.11.2019
1768 Clouds 24 1025 31 11265 2.1 300 21:38 11.11.2019
1769 Clouds 24 1025 31 11265 2.1 300 21:19 11.11.2019
1770 Clouds 23 1026 38 11265 4.6 30 20:43 11.11.2019
1771 Clouds 23 1026 38 11265 4.6 30 20:20 11.11.2019
1772 Clouds 22 1027 40 11265 4.1 40 19:59 11.11.2019
1773 Clouds 22 1027 40 11265 4.1 40 19:41 11.11.2019
1774 Clouds 22 1027 40 11265 4.1 40 19:19 11.11.2019
1775 Clouds 21 1028 43 9656 4.1 40 18:56 11.11.2019
1776 Clouds 21 1028 43 9656 4.1 40 18:37 11.11.2019
1777 Clouds 21 1028 52 9656 2.6 50 18:19 11.11.2019
1778 Clouds 19 1029 55 9656 1.5 70 17:42 11.11.2019
1779 Clouds 19 1029 55 9656 1.5 70 17:24 11.11.2019
1780 Haze 18 1031 76 4828 2.6 350 16:43 11.11.2019
1781 Clouds 17 1029 59 11265 1.24 359 16:24 11.11.2019
1782 Clouds 16 1029 59 11265 1.24 359 15:59 11.11.2019
1783 Clouds 15 1028 63 12874 2.1 60 15:40 11.11.2019
1784 Clouds 15 1028 71 12874 3.6 80 15:19 11.11.2019
1785 Clouds 15 1028 71 12874 3.6 80 15:19 11.11.2019
1786 Mist 13 1030 87 4828 1.24 359 14:44 11.11.2019
1787 Clouds 11 1027 76 11265 3.1 70 14:25 11.11.2019
1788 Clouds 11 1027 76 11265 3.1 70 13:58 11.11.2019
1789 Clouds 11 1027 71 11265 3.6 80 13:38 11.11.2019
1790 Clouds 12 1027 71 11265 3.6 80 13:19 11.11.2019
1791 Clouds 12 1027 67 11265 1.5 70 12:57 11.11.2019
1792 Clouds 13 1027 67 11265 1.5 70 12:39 11.11.2019
1793 Clouds 13 1027 67 11265 1.5 70 12:39 11.11.2019
1794 Clouds 13 1027 67 11265 1.5 70 12:39 11.11.2019
1795 Clouds 13 1027 67 11265 1.5 70 12:21 11.11.2019
1796 Clouds 13 1027 67 9656 2.1 80 11:42 11.11.2019
1797 Clouds 13 1027 67 9656 2.1 80 11:22 11.11.2019
1798 Clouds 13 1027 67 9656 3.1 70 10:57 11.11.2019
1799 Clouds 13 1027 67 9656 3.1 70 10:38 11.11.2019
1800 Clouds 13 1027 67 9656 3.1 70 10:18 11.11.2019
1801 Clouds 14 1027 72 11265 1 60 09:54 11.11.2019
1802 Clouds 14 1027 72 11265 1 60 09:36 11.11.2019
1803 Clouds 14 1027 72 11265 1 60 09:18 11.11.2019
1804 Clouds 14 1027 67 11265 3.6 80 08:37 11.11.2019
1805 Clouds 14 1027 67 11265 3.6 80 08:19 11.11.2019
1806 -273 0 0 0 0 0 07:54 11.11.2019
1807 Clouds 15 1028 63 11265 2.6 360 07:36 11.11.2019
1808 Clouds 15 1028 63 11265 2.6 360 07:36 11.11.2019
1809 Clouds 15 1028 63 11265 2.6 360 07:18 11.11.2019
1810 Clouds 16 1028 59 11265 1.42 6 06:41 11.11.2019
1811 Clouds 16 1028 59 11265 1.42 6 06:20 11.11.2019
1812 Clouds 16 1028 55 11265 3.6 50 05:49 11.11.2019
1813 Clouds 17 1027 48 12874 3.1 140 03:56 11.11.2019
1814 Clouds 19 1027 48 12874 3.1 140 03:20 11.11.2019
1815 Clouds 20 1026 49 11265 6.7 90 02:19 11.11.2019
1816 Thunderstorm 22 1029 77 9656 1.5 70 01:51 11.11.2019
1817 Clouds 22 1025 31 12874 3.1 10 01:31 11.11.2019
1818 Clouds 23 1024 31 12874 2.6 360 00:41 11.11.2019
1819 Clouds 23 1024 31 12874 2.6 360 23:58 10.11.2019
1820 Clouds 24 1024 33 12874 3.1 20 23:38 10.11.2019
1821 Clouds 24 1024 33 12874 3.1 20 23:19 10.11.2019
1822 Thunderstorm 24 1027 42 9656 4.1 90 22:57 10.11.2019
1823 Thunderstorm 24 1027 42 9656 4.1 90 22:38 10.11.2019
1824 Clouds 24 1025 31 11265 2.6 90 22:20 10.11.2019
1825 Clouds 24 1026 33 11265 3.6 30 21:56 10.11.2019
1826 Clouds 24 1026 33 11265 3.6 30 21:38 10.11.2019
1827 Clouds 24 1026 33 11265 3.6 30 21:20 10.11.2019
1828 Clouds 22 1028 43 9656 2.5 8 20:41 10.11.2019
1829 Clouds 22 1028 43 9656 1.92 341 20:22 10.11.2019
1830 Clouds 22 1029 49 8047 2.1 100 19:56 10.11.2019
1831 Clouds 22 1029 49 8047 2.1 100 19:38 10.11.2019
1832 Clouds 22 1029 49 8047 2.1 100 19:19 10.11.2019
1833 Clear 21 1029 52 8047 3.1 80 18:58 10.11.2019
1834 Clear 21 1029 52 8047 3.1 80 18:58 10.11.2019
1835 Clear 21 1029 52 8047 3.1 80 18:40 10.11.2019
1836 Clear 21 1029 52 8047 3.1 80 18:40 10.11.2019
1837 Clear 21 1029 52 8047 3.1 80 18:40 10.11.2019
1838 Clear 20 1030 63 6437 2.1 90 18:19 10.11.2019
1839 Clear 18 1031 67 6437 2.6 80 17:57 10.11.2019
1840 Clear 18 1031 67 6437 2.6 80 17:38 10.11.2019
1841 Clear 17 1031 77 6437 1.44 352 17:20 10.11.2019
1842 Mist 15 1031 93 4828 1.5 60 16:58 10.11.2019
1843 Mist 15 1031 93 4828 1.5 60 16:39 10.11.2019
1844 Mist 15 1031 93 2414 2.1 70 16:21 10.11.2019
1845 Fog 12 1031 100 0 1.5 50 15:56 10.11.2019
1846 Fog 12 1031 100 0 1.5 50 15:36 10.11.2019
1847 Fog 12 1031 100 0 1.5 50 15:18 10.11.2019
1848 Fog 11 1030 93 201 2.1 60 14:55 10.11.2019
1849 Fog 11 1030 93 201 2.1 60 14:36 10.11.2019
1850 Fog 8 1030 93 402 1.5 90 14:18 10.11.2019
1851 Fog 9 1030 87 402 3.1 80 13:41 10.11.2019
1852 Fog 9 1030 93 805 1.5 80 13:20 10.11.2019
1853 Clouds 11 1029 87 16093 1.21 18 12:54 10.11.2019
1854 Clouds 11 1029 87 16093 1.21 18 12:36 10.11.2019
1855 Clouds 11 1029 87 16093 1.21 18 12:18 10.11.2019
1856 Clouds 10 1029 81 16093 1.5 60 11:54 10.11.2019
1857 Clouds 10 1029 81 16093 1.5 60 11:36 10.11.2019
1858 Clouds 11 1029 81 16093 1.5 60 11:18 10.11.2019
1859 Clouds 12 1029 82 16093 2.6 80 10:41 10.11.2019
1860 Clouds 12 1029 82 16093 2.6 80 10:20 10.11.2019
1861 Clouds 12 1029 76 16093 2.6 260 09:44 10.11.2019
1862 Clouds 12 1029 76 16093 2.6 260 09:26 10.11.2019
1863 Clouds 12 1029 76 16093 2.6 260 08:59 10.11.2019
1864 Clouds 13 1030 72 19312 3.6 280 08:37 10.11.2019
1865 Clouds 13 1030 72 19312 3.6 280 08:18 10.11.2019
1866 Clouds 14 1030 67 19312 3.1 280 07:42 10.11.2019
1867 Clouds 14 1030 67 19312 3.1 280 07:24 10.11.2019
1868 Clouds 14 1030 63 19312 4.1 310 06:33 10.11.2019
1869 Clouds 15 1030 59 19312 4.6 300 05:33 10.11.2019
1870 Clouds 17 1028 48 17702 6.2 40 03:22 10.11.2019
1871 Clouds 21 1026 40 17702 5.1 20 01:53 10.11.2019
1872 Clouds 21 1026 40 17702 5.1 20 01:19 10.11.2019
1873 Clouds 23 1026 33 16093 3.6 10 00:41 10.11.2019
1874 Clouds 23 1026 33 16093 3.6 10 00:41 10.11.2019
1875 Clouds 24 1026 33 16093 2.1 220 23:56 09.11.2019
1876 Clouds 24 1026 33 16093 2.1 220 23:37 09.11.2019
1877 Clouds 24 1026 33 16093 2.1 220 23:18 09.11.2019
1878 Clouds 24 1026 33 16093 3.1 240 22:41 09.11.2019
1879 Clouds 23 1026 33 16093 3.1 240 22:21 09.11.2019
1880 Clouds 23 1027 33 14484 2.6 30 21:56 09.11.2019
1881 Clouds 23 1027 33 14484 2.6 30 21:37 09.11.2019
1882 Clouds 23 1027 33 14484 2.6 30 21:19 09.11.2019
1883 Clouds 23 1027 33 14484 2.6 30 21:19 09.11.2019
1884 Clouds 23 1028 37 14484 2.6 300 20:42 09.11.2019
1885 Clouds 22 1028 37 14484 2.6 300 20:22 09.11.2019
1886 Clouds 22 1030 40 14484 5.1 360 19:58 09.11.2019
1887 Clouds 22 1030 40 14484 5.1 360 19:39 09.11.2019
1888 Clouds 22 1030 40 14484 5.1 360 19:21 09.11.2019
1889 Clouds 21 1031 52 14484 2.6 300 18:55 09.11.2019
1890 Clouds 20 1031 52 14484 2.6 300 18:36 09.11.2019
1891 Clouds 20 1031 52 14484 2.6 300 18:18 09.11.2019
1892 Clouds 18 1031 59 14484 1.5 300 17:41 09.11.2019
1893 Clouds 18 1031 59 14484 1.5 300 17:22 09.11.2019
1894 Clouds 16 1031 67 14484 4.1 50 16:44 09.11.2019
1895 Clouds 16 1031 67 14484 4.1 50 16:23 09.11.2019
1896 Clouds 15 1031 67 14484 4.1 50 15:59 09.11.2019
1897 Clouds 15 1031 62 14484 2.1 20 15:41 09.11.2019
1898 Clouds 15 1031 62 14484 2.1 20 15:23 09.11.2019
1899 Clouds 13 1030 67 14484 3.1 360 14:44 09.11.2019
1900 Clouds 13 1030 67 14484 3.1 360 14:22 09.11.2019
1901 Clouds 13 1030 67 14484 3.1 360 13:58 09.11.2019
1902 Clouds 12 1030 71 16093 3.1 20 13:39 09.11.2019
1903 Clouds 12 1030 71 16093 3.1 20 13:19 09.11.2019
1904 Clouds 13 1030 71 16093 3.1 360 12:56 09.11.2019
1905 Clouds 13 1030 71 16093 3.1 360 12:56 09.11.2019
1906 Clouds 13 1030 71 16093 3.1 360 12:38 09.11.2019
1907 Clouds 13 1030 71 16093 3.1 360 12:20 09.11.2019
1908 Clouds 12 1030 71 16093 4.1 20 11:47 09.11.2019
1909 Clouds 12 1030 71 16093 4.1 20 11:21 09.11.2019
1910 Clouds 12 1030 71 16093 2.6 40 10:56 09.11.2019
1911 Clouds 12 1030 71 16093 2.6 40 10:38 09.11.2019
1912 Clouds 12 1030 71 16093 2.6 40 10:18 09.11.2019
1913 Clouds 12 1030 71 14484 4.1 20 09:43 09.11.2019
1914 Clouds 12 1030 71 14484 4.1 20 09:21 09.11.2019
1915 Clouds 13 1031 67 12874 4.1 20 08:52 09.11.2019
1916 Clouds 13 1031 67 12874 4.1 20 08:26 09.11.2019
1917 Clouds 13 1031 67 12874 5.1 300 07:57 09.11.2019
1918 Clouds 13 1031 67 12874 5.1 300 07:38 09.11.2019
1919 Clouds 16 1031 67 12874 5.1 300 07:19 09.11.2019
1920 Clouds 16 1031 67 16093 4.1 20 06:45 09.11.2019
1921 Clouds 16 1031 67 16093 4.1 20 06:27 09.11.2019
1922 Clouds 14 1030 63 16093 3.6 20 05:40 09.11.2019
1923 Clouds 15 1030 59 16093 4.1 20 04:30 09.11.2019
1924 Clouds 19 1027 49 16093 6.2 30 02:52 09.11.2019
1925 Clouds 19 1027 49 16093 6.2 30 02:34 09.11.2019
1926 Clouds 21 1026 46 14484 4.1 10 01:18 09.11.2019
1927 Clouds 23 1025 43 14484 6.7 40 00:41 09.11.2019
1928 Clouds 23 1025 43 14484 6.7 40 00:22 09.11.2019
1929 Clouds 24 1025 35 14484 5.7 280 23:41 08.11.2019
1930 Clouds 24 1025 35 14484 5.7 280 23:22 08.11.2019
1931 Clouds 24 1026 33 14484 3.6 280 22:59 08.11.2019
1932 Clouds 24 1026 33 14484 3.6 280 22:39 08.11.2019
1933 Clouds 23 1026 33 14484 3.6 280 22:21 08.11.2019
1934 Clouds 23 1026 35 16093 2.6 60 21:42 08.11.2019
1935 Clouds 23 1026 35 16093 2.6 60 21:23 08.11.2019
1936 Clouds 23 1027 37 16093 3.1 10 20:58 08.11.2019
1937 Clouds 23 1027 37 16093 3.1 10 20:40 08.11.2019
1938 Clouds 23 1027 37 16093 3.1 10 20:20 08.11.2019
1939 Clouds 22 1029 45 16093 4.1 310 19:55 08.11.2019
1940 Clouds 21 1029 45 16093 4.1 310 19:36 08.11.2019
1941 Clouds 21 1029 45 16093 4.1 310 19:18 08.11.2019
1942 Clouds 20 1030 52 16093 2.1 280 18:54 08.11.2019
1943 Clouds 20 1030 52 16093 2.1 280 18:36 08.11.2019
1944 Clouds 19 1030 55 16093 3.6 10 18:18 08.11.2019
1945 Clouds 19 1030 55 16093 3.6 10 18:18 08.11.2019
1946 Clouds 18 1031 55 16093 2.6 360 17:54 08.11.2019
1947 Clouds 18 1031 55 16093 2.6 360 17:36 08.11.2019
1948 Clouds 18 1031 55 16093 2.6 360 17:18 08.11.2019
1949 Clear 17 1031 62 8047 2.1 40 16:57 08.11.2019
1950 Clear 17 1031 62 8047 2.1 40 16:57 08.11.2019
1951 Clear 17 1031 62 8047 2.1 40 16:38 08.11.2019
1952 Clouds 16 1031 63 12874 3.6 30 16:18 08.11.2019
1953 Clouds 14 1030 71 11265 2.6 20 15:41 08.11.2019
1954 Clouds 14 1030 71 11265 2.6 20 15:23 08.11.2019
1955 Clouds 13 1030 76 11265 3.1 300 14:57 08.11.2019
1956 Clouds 13 1030 76 11265 3.1 300 14:38 08.11.2019
1957 Clouds 13 1030 76 11265 3.1 300 14:20 08.11.2019
1958 Clouds 9 1029 87 11265 3.1 340 13:59 08.11.2019
1959 Clouds 9 1029 87 11265 3.1 340 13:39 08.11.2019
1960 Clouds 9 1029 87 11265 3.1 340 13:21 08.11.2019
1961 Clouds 10 1028 87 12874 2.65 20 12:48 08.11.2019
1962 Clouds 10 1028 87 12874 2.65 20 12:29 08.11.2019
1963 Clouds 11 1028 82 12874 2.1 320 11:58 08.11.2019
1964 Clouds 11 1028 82 12874 2.1 320 11:40 08.11.2019
1965 Clouds 11 1028 82 12874 2.1 320 11:21 08.11.2019
1966 Clouds 11 1028 76 12874 3.6 300 10:58 08.11.2019
1967 Clouds 11 1028 76 12874 3.6 300 10:40 08.11.2019
1968 Clouds 10 1028 76 12874 3.6 300 10:21 08.11.2019
1969 Clouds 10 1028 71 16093 3.6 290 09:58 08.11.2019
1970 Clouds 10 1028 71 16093 3.6 290 09:37 08.11.2019
1971 Clouds 10 1028 71 16093 3.6 290 09:19 08.11.2019
1972 Clear 12 1029 67 16093 2.6 300 08:45 08.11.2019
1973 Clear 12 1029 67 16093 2.6 300 08:21 08.11.2019
1974 Clear 12 1029 63 16093 2.6 320 07:44 08.11.2019
1975 Clear 12 1029 63 16093 2.6 320 07:23 08.11.2019
1976 Clear 13 1029 51 19312 3.1 300 06:56 08.11.2019
1977 Clear 13 1029 51 19312 3.1 300 06:37 08.11.2019
1978 Clear 13 1029 51 19312 3.1 300 06:19 08.11.2019
1979 Clear 14 1028 48 19312 2.6 10 05:25 08.11.2019
1980 Clear 16 1028 42 16093 3.1 350 04:28 08.11.2019
1981 Clear 16 1027 34 16093 4.6 20 03:42 08.11.2019
1982 Clear 16 1027 34 16093 4.6 20 03:42 08.11.2019
1983 Clear 20 1026 64 16093 7.2 10 02:55 08.11.2019
1984 Clear 21 1026 24 16093 7.2 10 01:53 08.11.2019
1985 Clear 22 1025 22 14484 5.7 360 01:33 08.11.2019
1986 Clouds 24 1025 22 14484 2.1 340 00:40 08.11.2019
1987 Clouds 24 1025 22 14484 2.1 340 00:20 08.11.2019
1988 Clouds 24 1025 22 14484 2.6 280 23:46 07.11.2019
1989 Clouds 24 1025 22 14484 2.6 280 23:27 07.11.2019
1990 Clouds 25 1025 29 12874 1.5 70 22:57 07.11.2019
1991 Clouds 25 1025 29 12874 1.5 70 22:37 07.11.2019
1992 Clouds 25 1025 29 12874 1.5 70 22:19 07.11.2019
1993 Clouds 24 1027 31 12874 4.6 10 21:39 07.11.2019
1994 Clouds 24 1027 31 12874 4.6 10 21:21 07.11.2019
1995 Clouds 23 1028 30 11265 3.1 360 20:59 07.11.2019
1996 Clouds 23 1028 30 11265 3.1 360 20:40 07.11.2019
1997 Clouds 23 1028 30 11265 3.1 360 20:21 07.11.2019
1998 Clouds 23 1028 30 11265 3.1 360 20:21 07.11.2019
1999 Clouds 22 1029 46 8047 4.6 30 19:58 07.11.2019
2000 Clouds 22 1029 46 8047 4.6 30 19:39 07.11.2019
2001 Clouds 22 1029 46 8047 4.6 30 19:20 07.11.2019
2002 Clouds 22 1029 46 8047 4.6 30 19:20 07.11.2019
2003 Clear 20 1030 59 8047 2.25 352 18:57 07.11.2019
2004 Clear 20 1030 59 8047 2.25 352 18:38 07.11.2019
2005 Clear 20 1030 59 8047 2.25 352 18:19 07.11.2019
2006 Clear 17 1031 67 8047 1.5 110 17:55 07.11.2019
2007 Clear 17 1031 67 8047 1.5 110 17:37 07.11.2019
2008 Clear 17 1031 67 8047 1.5 110 17:19 07.11.2019
2009 Clear 16 1031 77 8047 2.6 80 16:54 07.11.2019
2010 Clear 16 1031 77 8047 2.6 80 16:36 07.11.2019
2011 Clear 16 1031 77 8047 2.6 80 16:18 07.11.2019
2012 Clouds 14 1030 87 8047 3.1 80 15:40 07.11.2019
2013 Clouds 13 1030 87 8047 3.1 80 15:20 07.11.2019
2014 Clouds 12 1029 93 8047 2.1 80 14:57 07.11.2019
2015 Clouds 12 1029 93 8047 2.1 80 14:37 07.11.2019
2016 Clouds 12 1029 93 8047 2.1 80 14:19 07.11.2019
2017 Clouds 10 1029 87 11265 2.6 80 13:55 07.11.2019
2018 Clouds 10 1029 87 11265 2.6 80 13:36 07.11.2019
2019 Clouds 10 1029 87 11265 2.6 80 13:18 07.11.2019
2020 Clouds 11 1028 82 12874 3.1 90 12:55 07.11.2019
2021 Clouds 11 1028 82 12874 3.1 90 12:37 07.11.2019
2022 Clouds 11 1028 82 12874 3.1 90 12:18 07.11.2019
2023 Clouds 11 1028 82 12874 3.1 90 12:18 07.11.2019
2024 Clouds 12 1028 76 12874 1.5 160 11:41 07.11.2019
2025 Clouds 12 1028 76 12874 1.5 160 11:22 07.11.2019
2026 Clouds 12 1028 76 12874 2.1 70 10:42 07.11.2019
2027 Clouds 12 1028 76 12874 2.1 70 10:42 07.11.2019
2028 Clouds 12 1028 76 12874 2.1 70 10:19 07.11.2019
2029 Clouds 12 1028 76 12874 2.1 70 10:19 07.11.2019
2030 Clouds 12 1028 71 16093 2.6 300 09:55 07.11.2019
2031 Clouds 12 1028 71 16093 2.6 300 09:36 07.11.2019
2032 Clouds 12 1028 71 16093 2.6 300 09:18 07.11.2019
2033 Clouds 12 1029 76 16093 3.6 290 08:41 07.11.2019
2034 Clouds 12 1029 76 16093 3.6 290 08:22 07.11.2019
2035 -273 0 0 0 0 0 07:57 07.11.2019
2036 Clouds 13 1029 72 16093 3.6 300 07:56 07.11.2019
2037 Clouds 13 1029 72 16093 3.6 300 07:37 07.11.2019
2038 Clouds 13 1029 72 16093 3.6 300 07:19 07.11.2019
2039 Clouds 14 1029 72 16093 4.1 290 06:42 07.11.2019
2040 Clouds 14 1029 72 16093 4.1 290 06:23 07.11.2019
2041 Clouds 14 1029 72 16093 4.1 290 06:22 07.11.2019
2042 Clouds 14 1029 63 16093 4.1 290 05:48 07.11.2019
2043 -273 0 0 0 0 0 05:29 07.11.2019
2044 Clouds 14 1029 63 16093 4.1 290 05:29 07.11.2019
2045 Clouds 15 1028 59 17702 4.1 280 04:42 07.11.2019
2046 -273 0 0 0 0 0 03:01 07.11.2019
2047 Clouds 22 1026 38 11265 1.5 290 00:58 07.11.2019
2048 Clouds 22 1026 38 11265 1.5 290 00:22 07.11.2019
2049 Clouds 22 1026 38 11265 1.5 290 00:22 07.11.2019
2050 -273 0 0 0 0 0 00:22 07.11.2019
2051 Clouds 23 1025 38 11265 2.1 280 23:48 06.11.2019
2052 Clouds 23 1025 38 11265 2.1 280 23:22 06.11.2019
2053 Clouds 23 1026 40 11265 2.1 240 22:57 06.11.2019
2054 Clouds 23 1026 40 11265 2.1 240 22:38 06.11.2019
2055 Clouds 23 1026 40 11265 2.1 240 22:19 06.11.2019
2056 Clouds 22 1027 46 11265 3.1 340 21:56 06.11.2019
2057 Clouds 22 1027 46 11265 3.1 340 21:38 06.11.2019
2058 Clouds 22 1027 46 11265 3.1 340 21:18 06.11.2019
2059 Clouds 22 1028 45 11265 2.1 250 20:41 06.11.2019
2060 Clouds 21 1028 45 11265 2.1 250 20:23 06.11.2019
2061 Clouds 21 1030 52 11265 1.5 290 19:59 06.11.2019
2062 Clouds 21 1030 52 11265 1.5 290 19:40 06.11.2019
2063 Clouds 21 1030 52 11265 1.5 290 19:21 06.11.2019
2064 Clouds 21 1030 52 11265 1.5 290 19:21 06.11.2019
2065 Clouds 21 1030 52 11265 1.5 290 19:21 06.11.2019
2066 Clouds 20 1031 55 11265 2.6 310 18:59 06.11.2019
2067 Clouds 20 1031 55 11265 2.6 310 18:39 06.11.2019
2068 Clouds 20 1031 55 11265 2.6 310 18:19 06.11.2019
2069 Clouds 18 1031 63 11265 3.6 50 17:58 06.11.2019
2070 Clouds 18 1031 63 11265 3.6 50 17:40 06.11.2019
2071 Clouds 17 1031 63 11265 3.6 50 17:21 06.11.2019
2072 Clouds 16 1031 76 11265 2.1 80 16:55 06.11.2019
2073 Clouds 16 1031 76 11265 2.1 80 16:37 06.11.2019
2074 Clouds 16 1031 76 11265 2.1 80 16:18 06.11.2019
2075 Clouds 13 1031 81 11265 2.6 110 15:56 06.11.2019
2076 Clouds 13 1031 81 11265 2.6 110 15:37 06.11.2019
2077 Clouds 13 1031 81 11265 2.6 110 15:18 06.11.2019
2078 Clouds 12 1030 76 11265 3.6 310 14:56 06.11.2019
2079 Clouds 12 1030 76 11265 3.6 310 14:38 06.11.2019
2080 Clouds 11 1030 76 11265 3.6 310 14:20 06.11.2019
2081 Clouds 10 1029 81 19312 2.6 320 13:41 06.11.2019
2082 Clouds 10 1029 81 19312 2.6 320 13:22 06.11.2019
2083 Clouds 10 1029 81 19312 3.1 310 12:58 06.11.2019
2084 Clouds 10 1029 81 19312 3.1 310 12:39 06.11.2019
2085 Clouds 10 1029 81 19312 3.1 310 12:21 06.11.2019
2086 Clouds 11 1029 76 19312 3.1 300 11:58 06.11.2019
2087 Clouds 11 1029 76 19312 3.1 300 11:38 06.11.2019
2088 Clouds 11 1029 76 19312 3.1 300 11:18 06.11.2019
2089 Clouds 11 1029 76 19312 4.6 290 10:56 06.11.2019
2090 Clouds 11 1029 76 19312 4.6 290 10:38 06.11.2019
2091 Clouds 12 1029 76 19312 4.6 290 10:20 06.11.2019
2092 Clouds 12 1029 71 19312 2.6 300 09:56 06.11.2019
2093 Clouds 13 1029 71 19312 2.6 300 09:36 06.11.2019
2094 Clouds 13 1029 71 19312 2.6 300 09:18 06.11.2019
2095 Clouds 12 1029 71 19312 2.1 270 08:54 06.11.2019
2096 Clouds 13 1029 71 19312 2.1 270 08:36 06.11.2019
2097 Clouds 13 1029 71 19312 2.1 270 08:18 06.11.2019
2098 Clouds 14 1029 67 16093 1.5 290 07:40 06.11.2019
2099 Clouds 14 1029 67 16093 1.5 290 07:21 06.11.2019
2100 Clouds 14 1029 67 16093 1.5 290 07:21 06.11.2019
2101 Clouds 14 1030 67 16093 4.6 340 06:45 06.11.2019
2102 Clouds 14 1030 67 16093 4.6 340 06:25 06.11.2019
2103 Clouds 14 1030 63 14484 5.1 310 04:52 06.11.2019
2104 Rain 17 1028 77 12874 3.1 220 02:22 06.11.2019
2105 Clouds 17 1026 82 9656 5.1 280 01:37 06.11.2019
2106 Rain 17 1026 82 4828 5.1 320 00:39 06.11.2019
2107 Thunderstorm 19 1025 87 4023 7.7 230 23:58 05.11.2019
2108 Thunderstorm 19 1025 87 4023 7.7 230 23:38 05.11.2019
2109 Thunderstorm 19 1025 82 1609 5.1 280 23:20 05.11.2019
2110 Thunderstorm 21 1024 63 9656 5.1 110 22:43 05.11.2019
2111 Clouds 24 1024 38 12874 7.2 340 22:20 05.11.2019
2112 Clouds 24 1025 38 11265 4.6 310 21:59 05.11.2019
2113 Clouds 24 1025 38 11265 4.6 310 21:59 05.11.2019
2114 Clouds 24 1025 38 11265 4.6 310 21:41 05.11.2019
2115 Clouds 24 1025 38 11265 4.6 310 21:21 05.11.2019
2116 Clouds 23 1027 43 9656 4.1 30 20:57 05.11.2019
2117 Clouds 23 1027 43 9656 4.1 30 20:38 05.11.2019
2118 Clouds 23 1027 43 9656 4.1 30 20:20 05.11.2019
2119 Clouds 22 1028 49 8047 3.1 90 19:56 05.11.2019
2120 Clouds 22 1028 49 8047 3.1 90 19:38 05.11.2019
2121 Clouds 22 1028 49 8047 3.1 90 19:38 05.11.2019
2122 Clouds 22 1028 49 8047 3.1 90 19:20 05.11.2019
2123 Clouds 21 1029 55 8047 2.6 320 18:56 05.11.2019
2124 Clouds 21 1029 55 8047 2.6 320 18:56 05.11.2019
2125 Clouds 20 1029 55 8047 2.6 320 18:38 05.11.2019
2126 Clouds 20 1029 55 8047 2.6 320 18:19 05.11.2019
2127 Mist 19 1031 59 4828 3.05 347 17:56 05.11.2019
2128 Clouds 19 1029 59 8047 1.5 60 17:37 05.11.2019
2129 Clouds 19 1029 59 8047 1.5 60 17:18 05.11.2019
2130 Clouds 18 1029 63 8047 1.5 330 16:42 05.11.2019
2131 Clouds 16 1029 67 9656 2.49 353 16:21 05.11.2019
2132 Clouds 15 1029 72 9656 1 130 15:59 05.11.2019
2133 Clouds 15 1029 72 9656 1 130 15:37 05.11.2019
2134 Clouds 14 1029 82 9656 1.5 60 15:18 05.11.2019
2135 Clouds 12 1028 87 9656 2.49 353 14:55 05.11.2019
2136 Clouds 12 1028 87 9656 2.49 353 14:55 05.11.2019
2137 Clouds 12 1028 87 9656 2.49 353 14:55 05.11.2019
2138 Clouds 12 1028 87 9656 2.49 353 14:36 05.11.2019
2139 Clouds 10 1028 87 9656 1.61 24 14:18 05.11.2019
2140 Clouds 11 1028 87 12874 2.1 80 13:43 05.11.2019
2141 Clouds 11 1028 87 12874 2.1 80 13:24 05.11.2019
2142 Clouds 10 1027 87 12874 2.1 40 12:42 05.11.2019
2143 Clouds 11 1027 87 12874 2.1 40 12:23 05.11.2019
2144 Clouds 11 1027 87 12874 2.1 40 12:23 05.11.2019
2145 Clouds 10 1027 81 12874 2.6 60 11:59 05.11.2019
2146 Clouds 10 1027 81 12874 2.6 60 11:40 05.11.2019
2147 Clouds 10 1027 81 12874 2.6 60 11:21 05.11.2019
2148 Clouds 10 1027 82 16093 1.5 70 10:58 05.11.2019
2149 Clouds 11 1027 82 16093 1.5 70 10:40 05.11.2019
2150 Clouds 11 1027 82 16093 1.5 70 10:21 05.11.2019
2151 Clouds 12 1027 76 16093 2.6 90 09:55 05.11.2019
2152 Clouds 12 1027 76 16093 2.6 90 09:37 05.11.2019
2153 Clouds 12 1027 76 16093 2.6 90 09:18 05.11.2019
2154 Clouds 13 1027 72 16093 2.1 70 08:39 05.11.2019
2155 Clouds 13 1027 72 16093 2.1 70 08:20 05.11.2019
2156 Clouds 13 1027 72 16093 2.1 70 08:20 05.11.2019
2157 Clouds 14 1028 63 16093 2.6 290 07:57 05.11.2019
2158 Clouds 14 1028 63 16093 2.6 290 07:38 05.11.2019
2159 Clouds 14 1028 63 16093 2.6 290 07:19 05.11.2019
2160 Clouds 14 1028 63 16093 2.6 290 07:19 05.11.2019
2161 Clouds 14 1027 63 16093 2.6 310 06:46 05.11.2019
2162 Clouds 16 1027 52 16093 2.6 10 05:51 05.11.2019
2163 Clouds 16 1027 52 16093 2.6 10 05:22 05.11.2019
2164 Clouds 17 1027 52 14484 3.1 360 04:25 05.11.2019
2165 Clouds 17 1026 55 12874 2.6 20 03:49 05.11.2019
2166 Clouds 19 1025 55 12874 3.1 70 02:44 05.11.2019
2167 Clouds 20 1024 52 9656 4.1 60 01:59 05.11.2019
2168 Clouds 21 1024 45 9656 7.2 70 00:50 05.11.2019
2169 Clouds 22 1024 40 9656 3.1 80 00:29 05.11.2019
2170 Clouds 22 1024 40 9656 4.1 60 23:55 04.11.2019
2171 Clouds 22 1024 40 9656 4.1 60 23:36 04.11.2019
2172 Clouds 22 1024 40 9656 4.1 60 23:18 04.11.2019
2173 Clouds 22 1024 40 9656 4.1 60 23:18 04.11.2019
2174 Clouds 22 1024 40 9656 2.1 110 22:41 04.11.2019
2175 Clouds 22 1024 40 9656 2.1 110 22:22 04.11.2019
2176 Clouds 23 1025 46 8047 2.93 10 21:56 04.11.2019
2177 Clouds 23 1025 46 8047 2.93 10 21:37 04.11.2019
2178 Clouds 23 1025 46 8047 2.93 10 21:19 04.11.2019
2179 Clouds 21 1026 52 6437 1.5 40 20:58 04.11.2019
2180 Clouds 21 1026 52 6437 1.5 40 20:39 04.11.2019
2181 Clouds 21 1026 52 6437 1.5 40 20:21 04.11.2019
2182 Haze 20 1028 63 6437 2.6 20 19:58 04.11.2019
2183 Haze 20 1028 63 6437 2.6 20 19:40 04.11.2019
2184 Haze 20 1028 63 6437 2.6 20 19:21 04.11.2019
2185 Clouds 18 1029 68 6437 1.5 20 18:56 04.11.2019
2186 Clouds 18 1029 68 6437 1.5 20 18:56 04.11.2019
2187 Clouds 18 1029 68 6437 1.5 20 18:37 04.11.2019
2188 Clouds 18 1029 68 6437 1.5 20 18:19 04.11.2019
2189 Clouds 17 1029 72 8047 2.69 352 17:39 04.11.2019
2190 Clouds 17 1029 72 8047 0.86 357 17:21 04.11.2019
2191 Clouds 16 1028 82 8047 0.86 357 16:57 04.11.2019
2192 Clouds 15 1028 82 8047 0.86 357 16:39 04.11.2019
2193 Clouds 15 1028 82 8047 0.86 357 16:20 04.11.2019
2194 Clouds 15 1028 82 8047 2.1 100 15:54 04.11.2019
2195 Clouds 15 1028 82 8047 2.1 100 15:36 04.11.2019
2196 Clouds 15 1028 82 8047 2.1 100 15:18 04.11.2019
2197 Clouds 13 1028 87 8047 1.5 240 14:41 04.11.2019
2198 Clouds 12 1028 87 8047 1.5 240 14:21 04.11.2019
2199 Clouds 11 1027 93 8047 2.1 40 13:58 04.11.2019
2200 Clouds 11 1027 93 8047 2.1 40 13:40 04.11.2019
2201 Clouds 11 1027 93 8047 2.1 40 13:21 04.11.2019
2202 Clouds 11 1027 93 8047 2.1 40 13:21 04.11.2019
2203 Clouds 11 1027 93 8047 1.09 19 12:58 04.11.2019
2204 Clouds 11 1027 93 8047 1.09 19 12:39 04.11.2019
2205 Clouds 11 1027 93 8047 1.09 19 12:21 04.11.2019
2206 Clouds 11 1026 93 8047 1.09 19 11:55 04.11.2019
2207 Clouds 12 1026 93 8047 1.09 19 11:37 04.11.2019
2208 Clouds 12 1026 93 8047 1.47 23 11:19 04.11.2019
2209 Clouds 12 1026 87 8047 1.47 23 10:42 04.11.2019
2210 Clouds 12 1026 87 8047 1.47 23 10:42 04.11.2019
2211 Clouds 12 1026 87 8047 1.47 23 10:24 04.11.2019
2212 Clouds 13 1026 82 9656 2.1 170 09:46 04.11.2019
2213 Clouds 13 1026 82 9656 2.1 170 09:28 04.11.2019
2214 Clouds 13 1026 82 9656 2.1 170 09:28 04.11.2019
2215 Clouds 13 1027 82 9656 1.47 23 08:59 04.11.2019
2216 Clouds 13 1027 82 9656 1.47 23 08:38 04.11.2019
2217 Clouds 13 1027 82 9656 1.47 23 08:38 04.11.2019
2218 Clouds 13 1027 82 9656 1.85 3 08:20 04.11.2019
2219 Clouds 13 1027 77 9656 1.85 3 07:44 04.11.2019
2220 Clouds 13 1027 77 9656 1.85 3 07:24 04.11.2019
2221 Clouds 12 1028 82 9656 1.85 3 06:57 04.11.2019
2222 Clouds 13 1028 82 9656 1.85 3 06:34 04.11.2019
2223 Clouds 13 1028 82 8047 2.1 190 05:49 04.11.2019
2224 Thunderstorm 13 1028 93 9656 2.1 120 04:44 04.11.2019
2225 Thunderstorm 13 1028 93 9656 2.1 120 04:21 04.11.2019
2226 Thunderstorm 13 1028 93 9656 2.1 120 04:21 04.11.2019
2227 Rain 17 1026 55 9656 3.1 280 02:32 04.11.2019
2228 Clouds 18 1025 48 9656 3.1 260 01:22 04.11.2019
2229 Clouds 20 1025 49 9656 3.02 3 00:41 04.11.2019
2230 Clouds 20 1025 49 9656 3.02 3 00:20 04.11.2019
2231 Clouds 19 1025 52 9656 3.1 90 23:43 03.11.2019
2232 Clouds 19 1025 52 9656 3.1 90 23:21 03.11.2019
2233 Clouds 20 1025 49 9656 2.46 0 22:59 03.11.2019
2234 Clouds 20 1025 49 9656 2.46 0 22:41 03.11.2019
2235 Clouds 20 1025 49 9656 2.46 0 22:20 03.11.2019
2236 Thunderstorm 21 1027 48 11265 4.1 100 21:57 03.11.2019
2237 Thunderstorm 21 1027 48 11265 4.1 100 21:57 03.11.2019
2238 Thunderstorm 21 1027 48 11265 4.1 100 21:38 03.11.2019
2239 Clouds 21 1026 52 11265 2.6 10 21:20 03.11.2019
2240 Clouds 20 1028 52 11265 2.6 230 20:55 03.11.2019
2241 Clouds 20 1028 52 11265 2.6 230 20:36 03.11.2019
2242 Clouds 20 1028 52 11265 2.6 230 20:18 03.11.2019
2243 Clouds 20 1029 55 12874 3.1 30 19:55 03.11.2019
2244 Clouds 20 1029 55 12874 3.1 30 19:37 03.11.2019
2245 Clouds 20 1029 55 12874 3.1 30 19:18 03.11.2019
2246 Clouds 19 1030 63 14484 3.1 340 18:38 03.11.2019
2247 Clouds 19 1030 63 14484 3.1 340 18:38 03.11.2019
2248 Clouds 18 1030 71 14484 2.6 10 18:18 03.11.2019
2249 Clouds 17 1030 71 12874 2.6 310 17:58 03.11.2019
2250 Clouds 17 1030 71 12874 2.6 310 17:39 03.11.2019
2251 Clouds 17 1030 71 12874 2.6 310 17:18 03.11.2019
2252 Clouds 16 1030 76 11265 2.45 360 16:54 03.11.2019
2253 Clouds 16 1030 76 11265 2.45 360 16:54 03.11.2019
2254 Clouds 16 1030 76 11265 2.45 360 16:54 03.11.2019
2255 Clouds 16 1030 76 11265 2.45 360 16:36 03.11.2019
2256 Clouds 16 1030 76 11265 2.45 360 16:18 03.11.2019
2257 Clouds 14 1030 76 11265 2.1 340 15:45 03.11.2019
2258 Clouds 14 1030 76 11265 2.1 340 15:25 03.11.2019
2259 Clouds 13 1030 81 12874 3.1 310 14:58 03.11.2019
2260 Clouds 12 1030 81 12874 3.1 310 14:39 03.11.2019
2261 Clouds 12 1030 81 12874 3.1 310 14:18 03.11.2019
2262 Clouds 11 1030 81 12874 3.1 300 13:54 03.11.2019
2263 Clouds 11 1030 81 12874 3.1 300 13:54 03.11.2019
2264 Clouds 11 1030 81 12874 3.1 300 13:36 03.11.2019
2265 Clouds 11 1030 81 12874 3.1 300 13:18 03.11.2019
2266 Clouds 12 1030 87 12874 2.6 320 12:38 03.11.2019
2267 Clouds 11 1030 87 12874 2.6 320 12:19 03.11.2019
2268 Clouds 12 1030 81 16093 2.6 290 11:55 03.11.2019
2269 Clouds 12 1030 81 16093 2.6 290 11:37 03.11.2019
2270 Clouds 12 1030 81 16093 2.6 290 11:19 03.11.2019
2271 Rain 12 1030 76 16093 2.6 310 10:40 03.11.2019
2272 Clouds 12 1030 76 16093 4.1 290 10:22 03.11.2019
2273 Clouds 12 1030 76 16093 4.1 290 10:22 03.11.2019
2274 Clouds 12 1030 76 16093 4.1 290 10:22 03.11.2019
2275 Clouds 12 1030 76 16093 4.1 290 10:22 03.11.2019
2276 Clouds 12 1030 76 16093 3.1 310 09:57 03.11.2019
2277 Clouds 12 1030 76 16093 3.1 310 09:39 03.11.2019
2278 Clouds 12 1030 76 16093 3.1 310 09:39 03.11.2019
2279 Clouds 12 1030 76 16093 3.1 310 09:21 03.11.2019
2280 Clouds 12 1030 71 19312 3.1 290 08:42 03.11.2019
2281 Clouds 12 1030 71 19312 3.1 290 08:24 03.11.2019
2282 Clouds 12 1031 71 19312 5.1 290 07:46 03.11.2019
2283 Clouds 12 1031 71 19312 5.1 290 07:28 03.11.2019
2284 Clouds 12 1031 76 19312 3.1 270 06:52 03.11.2019
2285 Clouds 12 1031 76 19312 3.1 270 06:33 03.11.2019
2286 Clouds 13 1030 67 19312 2.6 350 05:40 03.11.2019
2287 Clouds 13 1030 67 19312 5.1 350 04:58 03.11.2019
2288 Clouds 13 1030 67 19312 5.1 350 04:37 03.11.2019
2289 Clouds 14 1029 62 19312 3.6 30 03:35 03.11.2019
2290 Clouds 17 1028 63 19312 7.2 30 02:42 03.11.2019
2291 Clouds 17 1028 63 19312 7.2 30 02:20 03.11.2019
2292 Clouds 17 1028 63 19312 7.2 30 02:20 03.11.2019
2293 Clouds 16 1028 59 11265 3.6 350 01:39 03.11.2019
2294 Clouds 16 1028 59 11265 3.6 350 01:20 03.11.2019
2295 Clouds 18 1027 77 12874 4.6 290 00:45 03.11.2019
2296 Clouds 18 1027 77 12874 4.6 290 00:26 03.11.2019
2297 Clouds 18 1027 77 12874 4.6 290 23:58 02.11.2019
2298 Clouds 18 1027 77 12874 4.6 290 23:38 02.11.2019
2299 Clouds 18 1027 77 12874 4.6 290 23:19 02.11.2019
2300 Clouds 18 1027 77 12874 4.6 290 23:19 02.11.2019
2301 Clouds 18 1028 82 9656 4.1 300 22:55 02.11.2019
2302 Clouds 18 1028 82 9656 4.1 300 22:37 02.11.2019
2303 Clouds 18 1028 82 9656 4.1 300 22:18 02.11.2019
2304 Clouds 18 1028 82 9656 5.1 340 21:56 02.11.2019
2305 Clouds 18 1028 82 9656 5.1 340 21:37 02.11.2019
2306 Clouds 19 1028 82 9656 5.1 340 21:18 02.11.2019
2307 Clouds 19 1028 82 9656 5.1 340 21:18 02.11.2019
2308 Rain 19 1028 82 4828 5.7 10 20:58 02.11.2019
2309 Rain 19 1028 82 4828 5.7 10 20:39 02.11.2019
2310 Clouds 20 1028 59 8047 1 10 20:19 02.11.2019
2311 Clouds 20 1028 59 8047 1 10 20:19 02.11.2019
2312 Clouds 19 1029 59 6437 2.6 320 19:41 02.11.2019
2313 Clouds 20 1029 59 6437 2.6 320 19:23 02.11.2019
2314 Clouds 20 1030 63 6437 2.6 280 18:57 02.11.2019
2315 Clouds 20 1030 63 6437 2.6 280 18:38 02.11.2019
2316 Clouds 20 1030 63 6437 2.6 280 18:38 02.11.2019
2317 Clouds 20 1030 63 6437 2.6 280 18:20 02.11.2019
2318 Clouds 20 1030 63 6437 2.6 280 18:20 02.11.2019
2319 Clouds 18 1031 67 6437 2.1 10 17:57 02.11.2019
2320 Clouds 18 1031 67 6437 2.1 10 17:38 02.11.2019
2321 Clouds 18 1031 67 6437 2.1 10 17:20 02.11.2019
2322 Clouds 16 1030 77 6437 1.99 350 16:57 02.11.2019
2323 Clouds 16 1030 77 6437 1.99 350 16:36 02.11.2019
2324 Clouds 16 1030 77 6437 1.99 350 16:18 02.11.2019
2325 Clouds 16 1030 77 6437 1.99 350 16:18 02.11.2019
2326 Clouds 15 1030 82 8047 1 40 15:41 02.11.2019
2327 Clouds 15 1030 82 8047 1 40 15:20 02.11.2019
2328 Haze 13 1031 87 6437 2.1 330 14:43 02.11.2019
2329 Clouds 12 1029 82 8047 1.5 240 14:23 02.11.2019
2330 Mist 12 1031 87 3219 1.68 3 13:58 02.11.2019
2331 Mist 12 1031 87 3219 1.68 3 13:38 02.11.2019
2332 Clouds 12 1029 87 9656 1.5 70 13:19 02.11.2019
2333 Clouds 12 1029 87 11265 2.6 70 12:41 02.11.2019
2334 Clouds 12 1029 87 11265 2.6 70 12:23 02.11.2019
2335 Clouds 13 1029 82 11265 2.1 80 11:58 02.11.2019
2336 Clouds 13 1029 82 11265 2.1 80 11:39 02.11.2019
2337 Clouds 13 1029 82 11265 2.1 80 11:21 02.11.2019
2338 Clouds 13 1029 82 12874 2.1 80 10:50 02.11.2019
2339 Clouds 12 1029 82 12874 2.1 80 10:28 02.11.2019
2340 Clouds 13 1029 82 12874 2.1 70 09:58 02.11.2019
2341 Clouds 13 1029 82 12874 2.1 70 09:39 02.11.2019
2342 Clouds 13 1029 82 12874 2.1 70 09:19 02.11.2019
2343 Clouds 14 1029 67 16093 1.5 300 08:45 02.11.2019
2344 Clouds 14 1029 67 16093 1.5 300 08:22 02.11.2019
2345 Clouds 14 1030 72 16093 1.5 280 07:49 02.11.2019
2346 Clouds 14 1030 72 16093 1.5 280 07:29 02.11.2019
2347 Clouds 15 1030 67 16093 3.1 270 06:55 02.11.2019
2348 Clouds 15 1030 67 16093 3.1 270 06:37 02.11.2019
2349 Clouds 15 1030 72 16093 1.5 280 05:56 02.11.2019
2350 Clouds 15 1030 72 16093 1.5 280 05:20 02.11.2019
2351 Clouds 16 1029 63 16093 3.1 360 04:21 02.11.2019
2352 Rain 16 1032 82 3219 4.6 130 03:49 02.11.2019
2353 Clouds 19 1028 63 12874 3.6 50 02:42 02.11.2019
2354 Clouds 18 1028 68 12874 5.7 40 01:44 02.11.2019
2355 Clouds 19 1027 56 12874 5.1 110 01:23 02.11.2019
2356 Clouds 20 1027 56 12874 5.7 130 00:51 02.11.2019
2357 Clouds 21 1026 43 12874 3.1 80 00:26 02.11.2019
2358 Clouds 22 1026 43 12874 2.6 110 23:48 01.11.2019
2359 Clouds 22 1026 43 12874 2.6 110 23:22 01.11.2019
2360 Clouds 22 1027 43 9656 1.5 60 22:58 01.11.2019
2361 Clouds 22 1027 43 9656 1.5 60 22:39 01.11.2019
2362 Clouds 22 1027 43 9656 1.5 60 22:20 01.11.2019
2363 Clouds 23 1027 43 9656 2.6 340 21:41 01.11.2019
2364 Clouds 22 1027 43 9656 2.6 340 21:23 01.11.2019
2365 Clouds 21 1028 48 8047 1.65 348 20:57 01.11.2019
2366 Clouds 21 1028 48 8047 1.65 348 20:39 01.11.2019
2367 Clouds 21 1028 48 8047 1.79 342 20:19 01.11.2019
2368 Clouds 21 1029 48 6437 1.5 160 19:55 01.11.2019
2369 Clouds 21 1029 48 6437 1.5 160 19:37 01.11.2019
2370 Clouds 20 1030 59 8047 2.1 90 19:18 01.11.2019
2371 Clouds 18 1031 63 8047 1 330 18:39 01.11.2019
2372 Clouds 18 1031 63 8047 1 330 18:20 01.11.2019
2373 Clouds 17 1031 67 8047 1.5 90 17:55 01.11.2019
2374 Clouds 17 1031 67 8047 1.5 90 17:37 01.11.2019
2375 Clouds 16 1032 76 8047 2.1 90 17:18 01.11.2019
2376 Clouds 14 1032 87 8047 3.6 60 16:38 01.11.2019
2377 Clouds 14 1032 87 8047 3.6 60 16:19 01.11.2019
2378 Clouds 12 1031 87 8047 3.6 90 15:41 01.11.2019
2379 Clouds 12 1031 87 8047 3.6 90 15:23 01.11.2019
2380 Clouds 11 1031 87 8047 3.1 70 14:58 01.11.2019
2381 Clouds 11 1031 87 8047 3.1 70 14:40 01.11.2019
2382 Clouds 11 1031 87 8047 3.1 70 14:22 01.11.2019
2383 Clouds 10 1031 87 8047 3.6 60 13:56 01.11.2019
2384 Clouds 10 1031 87 8047 3.6 60 13:37 01.11.2019
2385 Clouds 10 1031 87 8047 3.6 60 13:19 01.11.2019
2386 Clouds 11 1030 76 8047 2.44 10 12:43 01.11.2019
2387 Clouds 11 1030 76 8047 2.44 10 12:25 01.11.2019
2388 Clouds 11 1030 76 8047 2.44 10 11:44 01.11.2019
2389 Clouds 11 1030 76 8047 2.03 8 11:25 01.11.2019
2390 Clouds 11 1030 76 8047 2.6 50 10:59 01.11.2019
2391 Clouds 11 1030 76 8047 2.6 50 10:40 01.11.2019
2392 Clouds 11 1030 76 8047 2.6 50 10:21 01.11.2019
2393 Clouds 11 1030 81 9656 2.6 70 09:56 01.11.2019
2394 Clouds 11 1030 81 9656 2.6 70 09:56 01.11.2019
2395 Clouds 11 1030 81 9656 2.6 70 09:36 01.11.2019
2396 Clouds 11 1030 81 9656 2.6 70 09:36 01.11.2019
2397 Clouds 11 1030 81 9656 2.6 70 09:18 01.11.2019
2398 Clouds 11 1030 81 11265 2.1 310 08:42 01.11.2019
2399 Clouds 11 1030 81 11265 2.1 310 08:21 01.11.2019
2400 Clouds 11 1030 76 14484 4.1 310 07:53 01.11.2019
2401 Clouds 12 1030 76 14484 4.1 310 07:26 01.11.2019
2402 Clouds 12 1031 76 16093 4.1 290 06:56 01.11.2019
2403 Clouds 12 1031 76 16093 4.1 290 06:37 01.11.2019
2404 Clouds 12 1031 76 16093 4.1 290 06:18 01.11.2019
2405 Clouds 13 1030 71 16093 4.1 290 05:43 01.11.2019
2406 Clouds 14 1030 62 16093 5.1 300 03:33 01.11.2019
2407 Clouds 17 1028 59 16093 4.6 320 01:52 01.11.2019
2408 Clouds 18 1027 55 16093 5.7 340 01:28 01.11.2019
2409 Clouds 20 1026 52 19312 5.1 360 00:21 01.11.2019
2410 Clouds 21 1026 49 19312 5.1 30 23:56 31.10.2019
2411 Clouds 21 1026 49 19312 5.1 30 23:38 31.10.2019
2412 Clouds 21 1026 49 19312 5.1 30 23:19 31.10.2019
2413 Clouds 22 1026 52 19312 3.6 330 22:42 31.10.2019
2414 Clouds 22 1026 52 19312 3.6 330 22:24 31.10.2019
2415 Clouds 21 1027 52 16093 4.6 340 21:58 31.10.2019
2416 Clouds 21 1027 52 16093 4.6 340 21:40 31.10.2019
2417 Clouds 21 1027 52 16093 4.6 340 21:19 31.10.2019
2418 Clouds 20 1027 52 12874 7.7 360 20:41 31.10.2019
2419 Clouds 20 1027 52 12874 7.7 360 20:23 31.10.2019
2420 Clouds 20 1028 48 12874 5.1 20 19:59 31.10.2019
2421 Clouds 20 1028 48 12874 5.1 20 19:38 31.10.2019
2422 Clouds 20 1028 48 12874 5.1 20 19:38 31.10.2019
2423 Clouds 20 1028 48 12874 5.1 20 19:20 31.10.2019
2424 Clouds 19 1029 55 12874 3.1 50 18:44 31.10.2019
2425 Clouds 19 1029 55 12874 3.1 50 18:26 31.10.2019
2426 Clouds 19 1030 63 9656 3.6 300 17:59 31.10.2019
2427 Clouds 18 1030 63 9656 3.6 300 17:40 31.10.2019
2428 Rain 18 1030 72 9656 2.6 350 17:20 31.10.2019
2429 Rain 17 1030 77 9656 2.1 360 16:54 31.10.2019
2430 Rain 17 1030 77 9656 2.1 360 16:36 31.10.2019
2431 Clouds 16 1030 77 8047 4.1 30 16:18 31.10.2019
2432 Rain 15 1030 77 8047 2.6 350 15:40 31.10.2019
2433 Clouds 15 1030 77 8047 1.5 310 15:21 31.10.2019
2434 Clouds 15 1029 72 8047 2.6 10 14:58 31.10.2019
2435 Clouds 15 1029 72 8047 2.6 10 14:40 31.10.2019
2436 Clouds 13 1029 72 8047 2.6 10 14:22 31.10.2019
2437 Clouds 13 1029 72 8047 2.6 10 14:22 31.10.2019
2438 Clouds 13 1027 87 11265 3.1 290 13:59 31.10.2019
2439 Clouds 13 1027 87 11265 3.1 290 13:38 31.10.2019
2440 Clouds 13 1027 87 11265 3.1 290 13:19 31.10.2019
2441 Clouds 13 1027 87 11265 3.1 290 13:19 31.10.2019
2442 Clouds 13 1027 82 12874 2.6 320 12:55 31.10.2019
2443 Clouds 13 1027 82 12874 2.6 320 12:37 31.10.2019
2444 Clouds 13 1027 82 12874 2.6 320 12:18 31.10.2019
2445 Clouds 14 1027 82 12874 2.6 360 11:45 31.10.2019
2446 Clouds 14 1027 82 12874 2.6 360 11:20 31.10.2019
2447 Clouds 14 1027 82 12874 2.6 300 10:58 31.10.2019
2448 Clouds 14 1027 82 12874 2.6 300 10:39 31.10.2019
2449 Clouds 14 1027 82 12874 2.6 300 10:20 31.10.2019
2450 Clouds 14 1027 82 12874 3.3 11 09:45 31.10.2019
2451 Clouds 14 1027 82 12874 3.3 11 09:20 31.10.2019
2452 Clouds 15 1029 87 8047 3.3 11 08:57 31.10.2019
2453 Clouds 15 1029 87 8047 3.3 11 08:39 31.10.2019
2454 Clouds 14 1027 82 12874 2.1 270 08:20 31.10.2019
2455 Clouds 15 1027 72 12874 3.1 280 07:45 31.10.2019
2456 Clouds 15 1027 72 12874 3.1 280 07:24 31.10.2019
2457 Clouds 16 1027 77 12874 2.6 250 06:50 31.10.2019
2458 Thunderstorm 15 1027 77 12874 2.6 270 06:30 31.10.2019
2459 Thunderstorm 15 1027 82 9656 3.1 320 05:18 31.10.2019
2460 Rain 18 1025 77 6437 2.6 290 02:47 31.10.2019
2461 Thunderstorm 18 1024 88 6437 2.6 120 02:22 31.10.2019
2462 Thunderstorm 20 1023 55 4828 14.4 50 00:48 31.10.2019
2463 Clouds 20 1022 56 6437 3.1 150 00:25 31.10.2019
2464 Clouds 21 1022 56 6437 5.1 150 23:41 30.10.2019
2465 Clouds 21 1022 56 6437 5.1 150 23:22 30.10.2019
2466 Clouds 22 1022 43 6437 4.1 110 22:41 30.10.2019
2467 Clouds 22 1022 43 6437 6.2 90 22:19 30.10.2019
2468 Clouds 23 1023 41 6437 3.1 120 21:54 30.10.2019
2469 Clouds 23 1023 41 6437 3.1 120 21:36 30.10.2019
2470 Clouds 23 1023 41 6437 3.1 120 21:36 30.10.2019
2471 Clouds 23 1023 41 6437 3.1 120 21:18 30.10.2019
2472 Clouds 23 1023 41 6437 3.1 120 21:18 30.10.2019
2473 Rain 23 1025 52 6437 3.28 14 20:57 30.10.2019
2474 Rain 23 1025 52 6437 3.28 14 20:37 30.10.2019
2475 Clouds 23 1024 49 6437 1.5 170 20:18 30.10.2019
2476 Clouds 21 1025 56 6437 2.6 100 19:42 30.10.2019
2477 Clouds 21 1025 56 6437 2.6 100 19:23 30.10.2019
2478 Clouds 21 1025 53 6437 2.1 90 18:59 30.10.2019
2479 Clouds 21 1025 53 6437 2.1 90 18:38 30.10.2019
2480 Clouds 21 1026 60 6437 1.5 340 18:19 30.10.2019
2481 Clouds 20 1026 64 6437 2.37 6 17:55 30.10.2019
2482 Clouds 20 1026 64 6437 2.37 6 17:55 30.10.2019
2483 Clouds 20 1026 64 6437 2.37 6 17:37 30.10.2019
2484 Clouds 20 1026 64 6437 0.54 53 17:18 30.10.2019
2485 Clouds 18 1026 72 8047 2.1 80 16:42 30.10.2019
2486 Clouds 18 1026 72 8047 2.1 80 16:23 30.10.2019
2487 Clouds 17 1026 77 6437 0.54 53 15:59 30.10.2019
2488 Clouds 16 1026 77 6437 0.54 53 15:38 30.10.2019
2489 Clouds 16 1026 77 6437 0.54 53 15:19 30.10.2019
2490 Clouds 15 1025 82 6437 0.54 53 14:57 30.10.2019
2491 Clouds 15 1025 82 6437 0.54 53 14:39 30.10.2019
2492 Clouds 15 1025 82 6437 1.67 111 14:21 30.10.2019
2493 Clouds 14 1025 82 8047 1.67 111 13:54 30.10.2019
2494 Clouds 14 1025 82 8047 1.67 111 13:36 30.10.2019
2495 Clouds 14 1025 82 8047 1.72 127 13:18 30.10.2019
2496 Clouds 15 1024 82 9656 1.5 200 12:43 30.10.2019
2497 Clouds 15 1024 82 9656 1.5 200 12:43 30.10.2019
2498 Clouds 15 1024 82 9656 1.5 200 12:25 30.10.2019
2499 Clouds 15 1024 72 9656 1.72 127 11:57 30.10.2019
2500 Clouds 15 1024 72 9656 1.72 127 11:57 30.10.2019
2501 Clouds 15 1024 72 9656 1.72 127 11:38 30.10.2019
2502 Clouds 16 1024 72 9656 1.97 170 11:18 30.10.2019
2503 Clouds 15 1025 82 9656 1.97 170 10:42 30.10.2019
2504 Clouds 15 1025 82 9656 1.97 170 10:23 30.10.2019
2505 Clouds 15 1025 77 9656 1.97 170 09:42 30.10.2019
2506 Clouds 15 1025 77 9656 1.97 170 09:42 30.10.2019
2507 Clouds 16 1025 77 9656 1.97 170 09:23 30.10.2019
2508 Clouds 15 1025 77 11265 3.6 280 08:57 30.10.2019
2509 Clouds 15 1025 77 11265 3.6 280 08:39 30.10.2019
2510 Clouds 16 1025 77 11265 3.6 280 08:19 30.10.2019
2511 Clouds 15 1025 77 11265 3.1 290 07:43 30.10.2019
2512 Clouds 16 1025 63 12874 2.1 130 06:59 30.10.2019
2513 Clouds 16 1025 63 12874 2.1 130 06:41 30.10.2019
2514 Clouds 17 1025 63 12874 2.1 130 06:18 30.10.2019
2515 Clouds 17 1025 68 16093 3.6 140 05:41 30.10.2019
2516 Clouds 17 1024 68 16093 5.1 110 04:42 30.10.2019
2517 Clouds 18 1023 59 14484 2.6 150 03:43 30.10.2019
2518 Clouds 19 1022 56 14484 2.6 140 02:50 30.10.2019
2519 Clouds 20 1021 52 12874 5.7 120 01:51 30.10.2019
2520 Clouds 20 1021 49 11265 4.1 140 00:55 30.10.2019
2521 Clouds 22 1021 49 11265 4.1 140 00:28 30.10.2019
2522 Clouds 23 1021 43 11265 7.2 130 23:42 29.10.2019
2523 Clouds 23 1021 43 11265 7.2 130 23:22 29.10.2019
2524 Clouds 23 1021 41 11265 4.6 110 22:46 29.10.2019
2525 Clouds 23 1021 41 11265 4.6 110 22:20 29.10.2019
2526 Clouds 23 1022 43 11265 4.6 100 21:56 29.10.2019
2527 Clouds 23 1022 43 11265 4.6 100 21:38 29.10.2019
2528 Clouds 23 1022 43 11265 4.6 100 21:20 29.10.2019
2529 Clouds 23 1023 43 11265 3.1 110 20:54 29.10.2019
2530 Clouds 23 1023 43 11265 3.1 110 20:36 29.10.2019
2531 Clouds 23 1023 43 11265 3.1 110 20:18 29.10.2019
2532 Clouds 22 1024 46 9656 2.6 70 19:55 29.10.2019
2533 Clouds 22 1024 46 9656 2.6 70 19:36 29.10.2019
2534 Clouds 22 1024 46 9656 2.6 70 19:18 29.10.2019
2535 Clouds 21 1025 49 8047 4.6 110 18:54 29.10.2019
2536 Clouds 21 1025 49 8047 4.6 110 18:36 29.10.2019
2537 Clouds 21 1025 49 8047 4.6 110 18:18 29.10.2019
2538 Clouds 20 1026 60 8047 3.6 130 17:40 29.10.2019
2539 Clouds 20 1026 60 8047 3.6 130 17:21 29.10.2019
2540 Clouds 18 1025 72 6437 2.1 70 16:58 29.10.2019
2541 Clouds 18 1025 72 6437 2.1 70 16:38 29.10.2019
2542 Clouds 18 1025 72 6437 2.1 70 16:19 29.10.2019
2543 Clouds 16 1025 77 6437 2.6 60 15:54 29.10.2019
2544 Clouds 16 1025 77 6437 2.6 60 15:36 29.10.2019
2545 Clouds 16 1025 77 6437 2.6 60 15:18 29.10.2019
2546 Mist 15 1026 87 3219 1 30 14:42 29.10.2019
2547 Clouds 14 1024 82 6437 2.1 270 14:23 29.10.2019
2548 Mist 15 1026 87 4828 1.11 108 13:58 29.10.2019
2549 Mist 15 1026 87 4828 1.11 108 13:39 29.10.2019
2550 Clouds 15 1024 82 6437 1 240 13:21 29.10.2019
2551 Clouds 14 1024 82 6437 2.6 110 12:43 29.10.2019
2552 Clouds 14 1024 82 6437 2.6 110 12:43 29.10.2019
2553 Clouds 14 1024 82 6437 2.6 110 12:25 29.10.2019
2554 Clouds 14 1024 82 8047 3.1 130 11:55 29.10.2019
2555 Clouds 14 1024 82 8047 3.1 130 11:37 29.10.2019
2556 Clouds 14 1024 82 8047 3.1 130 11:18 29.10.2019
2557 Clouds 15 1024 77 6437 2.1 140 10:57 29.10.2019
2558 Clouds 15 1024 77 6437 2.1 140 10:38 29.10.2019
2559 Clouds 15 1024 77 6437 2.1 140 10:19 29.10.2019
2560 Clouds 15 1024 77 6437 2.1 210 09:42 29.10.2019
2561 Clouds 15 1024 77 6437 2.1 210 09:23 29.10.2019
2562 Clouds 15 1024 77 6437 2.1 190 08:57 29.10.2019
2563 Clouds 15 1024 77 6437 2.1 190 08:39 29.10.2019
2564 Clouds 15 1024 77 6437 2.1 190 08:20 29.10.2019
2565 Rain 16 1027 87 4828 1.23 190 07:48 29.10.2019
2566 Clouds 16 1025 72 6437 2.6 130 07:21 29.10.2019
2567 Mist 16 1027 87 4828 1.23 190 06:54 29.10.2019
2568 Clouds 16 1025 72 8047 1.23 190 06:31 29.10.2019
2569 Clouds 16 1025 72 8047 1.5 190 05:56 29.10.2019
2570 Clouds 16 1025 72 8047 1.5 190 05:38 29.10.2019
2571 Clouds 17 1025 68 9656 2.6 110 04:41 29.10.2019
2572 Clouds 18 1024 63 9656 1.5 140 02:39 29.10.2019
2573 Clouds 20 1022 56 8047 3.6 240 01:56 29.10.2019
2574 Clouds 20 1022 56 8047 3.6 240 01:35 29.10.2019
2575 Clouds 21 1021 49 8047 3.1 140 00:52 29.10.2019
2576 Clouds 21 1021 49 8047 3.1 140 00:24 29.10.2019
2577 Clouds 22 1021 46 8047 5.1 130 23:38 28.10.2019
2578 Clouds 22 1021 46 8047 5.1 130 23:20 28.10.2019
2579 Clouds 22 1021 46 8047 5.1 130 23:20 28.10.2019
2580 Clouds 24 1021 36 6437 2.63 59 22:39 28.10.2019
2581 Clouds 24 1021 36 6437 2.63 59 22:20 28.10.2019
2582 Clouds 24 1023 43 6437 3.1 30 21:58 28.10.2019
2583 Clouds 23 1023 43 6437 3.1 30 21:39 28.10.2019
2584 Clouds 23 1023 43 6437 3.1 30 21:21 28.10.2019
2585 Haze 23 1024 49 6437 2.63 59 20:59 28.10.2019
2586 Haze 23 1024 49 6437 2.63 59 20:40 28.10.2019
2587 Haze 23 1024 49 6437 0.15 99 20:20 28.10.2019
2588 Haze 22 1025 52 4828 0.15 99 19:54 28.10.2019
2589 Haze 22 1025 52 4828 0.15 99 19:36 28.10.2019
2590 Haze 22 1025 52 4828 0.15 99 19:36 28.10.2019
2591 Haze 22 1025 52 4828 0.15 99 19:18 28.10.2019
2592 Haze 22 1025 52 4828 0.15 99 19:18 28.10.2019
2593 Mist 20 1026 63 4828 0.15 99 18:56 28.10.2019
2594 Mist 20 1026 63 4828 0.15 99 18:56 28.10.2019
2595 Mist 20 1026 63 4828 0.15 99 18:38 28.10.2019
2596 Mist 20 1026 63 4828 0.15 99 18:20 28.10.2019
2597 Mist 18 1026 68 4828 2.1 120 17:55 28.10.2019
2598 Mist 18 1026 68 4828 2.1 120 17:55 28.10.2019
2599 Mist 18 1026 68 4828 2.1 120 17:36 28.10.2019
2600 Mist 17 1027 72 3219 2.6 110 17:18 28.10.2019
2601 Mist 16 1027 77 4023 3.1 90 16:54 28.10.2019
2602 Mist 16 1027 77 4023 3.1 90 16:36 28.10.2019
2603 Mist 16 1026 77 4023 2.1 50 16:18 28.10.2019
2604 Mist 15 1026 87 3219 1.5 70 15:42 28.10.2019
2605 Mist 15 1026 87 3219 1.5 70 15:24 28.10.2019
2606 Fog 14 1027 93 402 0.45 124 14:59 28.10.2019
2607 Fog 14 1027 93 402 0.45 124 14:40 28.10.2019
2608 Mist 12 1025 87 2414 3.6 70 14:19 28.10.2019
2609 Mist 11 1025 100 4828 3.1 40 13:58 28.10.2019
2610 Mist 11 1025 100 4828 3.1 40 13:40 28.10.2019
2611 Mist 11 1025 93 3219 3.6 60 13:18 28.10.2019
2612 Fog 12 1026 93 805 1.35 76 12:43 28.10.2019
2613 Clouds 11 1024 87 6437 1.35 76 12:21 28.10.2019
2614 Clouds 12 1024 93 6437 1.35 76 11:58 28.10.2019
2615 Clouds 12 1024 93 6437 1.35 76 11:37 28.10.2019
2616 Clouds 12 1024 93 6437 0.93 51 11:19 28.10.2019
2617 Clouds 12 1025 93 6437 2.1 270 10:41 28.10.2019
2618 Clouds 12 1025 93 6437 2.1 270 10:22 28.10.2019
2619 Clouds 12 1025 93 6437 0.93 51 09:58 28.10.2019
2620 Clouds 12 1025 93 6437 0.93 51 09:39 28.10.2019
2621 Clouds 12 1025 93 6437 0.93 51 09:19 28.10.2019
2622 Clouds 13 1026 93 8047 0.93 51 08:57 28.10.2019
2623 Clouds 13 1026 93 8047 0.93 51 08:57 28.10.2019
2624 Clouds 13 1026 93 8047 0.93 51 08:38 28.10.2019
2625 Clouds 13 1026 93 8047 1.3 62 08:19 28.10.2019
2626 Mist 13 1027 87 3219 1.3 62 07:56 28.10.2019
2627 Mist 13 1027 87 3219 1.3 62 07:56 28.10.2019
2628 Mist 13 1027 87 3219 1.3 62 07:36 28.10.2019
2629 Clouds 13 1026 87 9656 2.1 230 07:18 28.10.2019
2630 Clouds 14 1026 82 9656 2.1 340 06:39 28.10.2019
2631 Clouds 14 1027 82 9656 2.1 190 05:40 28.10.2019
2632 Rain 14 1026 87 9656 3.1 260 03:45 28.10.2019
2633 Thunderstorm 16 1025 87 8047 6.2 250 02:46 28.10.2019
2634 Thunderstorm 17 1024 87 3219 3.1 250 01:55 28.10.2019
2635 Thunderstorm 18 1023 87 3219 3.1 240 00:56 28.10.2019
2636 Thunderstorm 18 1023 72 1609 4.66 52 00:33 28.10.2019
2637 Thunderstorm 20 1022 68 6437 5.1 20 23:47 27.10.2019
2638 Haze 21 1022 43 4828 3.1 50 23:23 27.10.2019
2639 Haze 21 1022 43 4828 3.1 50 23:23 27.10.2019
2640 Clouds 23 1022 46 6437 2.1 110 22:58 27.10.2019
2641 Clouds 23 1022 46 6437 2.1 110 22:58 27.10.2019
2642 Clouds 22 1022 46 6437 2.1 110 22:39 27.10.2019
2643 Clouds 22 1022 46 6437 2.1 110 22:21 27.10.2019
2644 Clouds 22 1022 46 6437 2.1 110 22:21 27.10.2019
2645 Clouds 23 1023 46 8047 2.1 70 21:57 27.10.2019
2646 Clouds 23 1023 46 8047 2.1 70 21:39 27.10.2019
2647 Clouds 23 1023 46 8047 2.1 70 21:21 27.10.2019
2648 Clouds 23 1024 46 8047 3.1 80 20:56 27.10.2019
2649 Clouds 23 1024 46 8047 3.1 80 20:38 27.10.2019
2650 Clouds 23 1024 46 8047 3.1 80 20:20 27.10.2019
2651 Clouds 21 1025 52 8047 3.1 10 19:54 27.10.2019
2652 Clouds 21 1025 52 8047 3.1 10 19:36 27.10.2019
2653 Clouds 21 1025 52 8047 3.1 10 19:18 27.10.2019
2654 Clouds 20 1026 56 8047 1.5 80 18:54 27.10.2019
2655 Clouds 20 1026 56 8047 1.5 80 18:36 27.10.2019
2656 Clouds 20 1026 56 8047 1.5 80 18:18 27.10.2019
2657 Clouds 19 1026 68 6437 1.5 200 17:40 27.10.2019
2658 Clouds 19 1026 68 6437 1.5 200 17:19 27.10.2019
2659 Clouds 17 1026 77 6437 0.87 4 16:57 27.10.2019
2660 Clouds 17 1026 77 6437 0.87 4 16:39 27.10.2019
2661 Clouds 17 1026 77 6437 0.87 4 16:20 27.10.2019
2662 Mist 15 1027 82 4828 2.1 340 15:56 27.10.2019
2663 Mist 15 1027 82 4828 2.1 340 15:37 27.10.2019
2664 Clouds 15 1026 77 8047 1.5 260 15:19 27.10.2019
2665 Clouds 14 1025 82 9656 2.1 320 14:42 27.10.2019
2666 Clouds 14 1025 82 9656 2.1 320 14:42 27.10.2019
2667 Clouds 14 1025 82 9656 2.1 320 14:20 27.10.2019
2668 Clouds 14 1025 82 9656 1.5 300 13:58 27.10.2019
2669 Clouds 14 1025 82 9656 1.5 300 13:38 27.10.2019
2670 Clouds 14 1025 82 9656 1.5 300 13:20 27.10.2019
2671 Clouds 14 1024 82 9656 0.77 105 12:46 27.10.2019
2672 Clouds 14 1024 82 9656 0.77 105 12:24 27.10.2019
2673 Clouds 13 1024 82 8047 0.77 105 11:59 27.10.2019
2674 Clouds 14 1024 82 8047 0.77 105 11:41 27.10.2019
2675 Clouds 14 1024 82 8047 1.54 113 11:21 27.10.2019
2676 Clouds 14 1024 82 8047 2.1 320 10:44 27.10.2019
2677 Clouds 14 1024 82 8047 2.1 320 10:25 27.10.2019
2678 Clouds 14 1024 82 6437 2.1 310 09:57 27.10.2019
2679 Clouds 14 1024 82 6437 2.1 310 09:39 27.10.2019
2680 Clouds 14 1024 82 6437 2.1 310 09:18 27.10.2019
2681 Clouds 14 1025 82 6437 1.54 113 08:42 27.10.2019
2682 Clouds 14 1025 82 6437 1.86 158 08:22 27.10.2019
2683 Clouds 14 1025 77 8047 1.86 158 07:59 27.10.2019
2684 Clouds 14 1025 77 8047 1.86 158 07:41 27.10.2019
2685 Clouds 14 1025 77 8047 1.86 158 07:20 27.10.2019
2686 Clouds 14 1025 77 8047 1.5 110 06:47 27.10.2019
2687 Clouds 14 1025 77 8047 1.5 110 06:26 27.10.2019
2688 Clouds 14 1026 77 9656 1.5 60 05:39 27.10.2019
2689 Clouds 14 1025 77 9656 2.1 140 04:51 27.10.2019
2690 Rain 17 1024 67 9656 4.6 310 02:54 27.10.2019
2691 Thunderstorm 19 1025 87 3219 5.1 350 01:49 27.10.2019
2692 Clouds 20 1022 56 9656 4.1 110 01:20 27.10.2019
2693 Clouds 21 1022 59 8047 2.1 110 00:43 27.10.2019
2694 Clouds 21 1022 59 8047 2.1 110 00:18 27.10.2019
2695 Rain 21 1022 68 6437 3.1 220 23:41 26.10.2019
2696 Rain 21 1022 68 6437 3.1 220 23:22 26.10.2019
2697 Clouds 22 1022 49 6437 2.1 40 22:59 26.10.2019
2698 Clouds 22 1022 49 6437 2.1 40 22:40 26.10.2019
2699 Clouds 22 1022 49 6437 2.1 40 22:20 26.10.2019
2700 Clouds 21 1023 52 8047 2.6 90 21:59 26.10.2019
2701 Clouds 21 1023 52 8047 2.6 90 21:41 26.10.2019
2702 Clouds 21 1023 52 8047 2.6 90 21:20 26.10.2019
2703 Clouds 21 1025 52 8047 1 190 20:45 26.10.2019
2704 Clouds 21 1025 52 8047 1 190 20:20 26.10.2019
2705 Clouds 20 1025 56 8047 2.1 40 19:57 26.10.2019
2706 Clouds 20 1025 56 8047 2.1 40 19:38 26.10.2019
2707 Clouds 19 1025 68 8047 1.5 80 19:19 26.10.2019
2708 Clouds 17 1026 77 8047 1.5 100 18:56 26.10.2019
2709 Clouds 17 1026 77 8047 1.5 100 18:37 26.10.2019
2710 Clouds 17 1026 77 8047 1.5 100 18:18 26.10.2019
2711 Clouds 17 1026 77 8047 1.5 100 17:39 26.10.2019
2712 Clouds 17 1026 77 8047 1.5 100 17:39 26.10.2019
2713 Clouds 16 1026 87 8047 3.1 90 17:21 26.10.2019
2714 Clouds 15 1025 87 8047 3.1 70 16:59 26.10.2019
2715 Clouds 15 1025 87 8047 3.1 70 16:59 26.10.2019
2716 Clouds 15 1025 87 8047 3.1 70 16:41 26.10.2019
2717 Clouds 15 1025 87 8047 3.1 70 16:41 26.10.2019
2718 Clouds 15 1025 87 8047 3.1 70 16:22 26.10.2019
2719 Clouds 14 1025 93 8047 2.6 80 15:41 26.10.2019
2720 Clouds 14 1025 93 8047 2.6 80 15:20 26.10.2019
2721 Clouds 14 1024 87 6437 3.1 70 14:41 26.10.2019
2722 Clouds 14 1024 87 6437 3.1 70 14:22 26.10.2019
2723 Clouds 13 1024 87 6437 2.6 360 13:59 26.10.2019
2724 Clouds 13 1024 87 6437 2.6 360 13:41 26.10.2019
2725 Clouds 14 1016 76 0 2.04 24 13:21 26.10.2019
2726 Clouds 14 1024 87 0 1.79 200 12:48 26.10.2019
2727 Clouds 14 1024 87 0 1.79 200 12:25 26.10.2019
2728 Clouds 13 1024 87 6437 2.1 200 11:50 26.10.2019
2729 Clouds 13 1024 87 6437 2.1 200 11:29 26.10.2019
2730 Clouds 12 1025 93 4828 2.1 360 10:57 26.10.2019
2731 Clouds 12 1025 93 4828 2.1 360 10:39 26.10.2019
2732 Clouds 12 1025 93 4828 2.1 360 10:21 26.10.2019
2733 Rain 12 1025 93 3219 2.6 20 09:44 26.10.2019
2734 Rain 12 1025 93 3219 2.6 20 09:26 26.10.2019
2735 Rain 12 1026 93 3219 2.1 40 08:44 26.10.2019
2736 Rain 12 1026 93 3219 2.1 40 08:25 26.10.2019
2737 Rain 12 1026 93 3219 2.6 40 07:55 26.10.2019
2738 Rain 12 1026 93 3219 2.6 40 07:31 26.10.2019
2739 Rain 13 1026 93 9656 3.1 10 06:46 26.10.2019
2740 Rain 13 1026 93 9656 3.1 10 06:27 26.10.2019
2741 Rain 14 1025 87 9656 2.6 320 05:21 26.10.2019
2742 Rain 14 1024 82 12874 5.1 300 04:30 26.10.2019
2743 Clouds 17 1022 63 9656 4.1 310 02:49 26.10.2019
2744 Rain 18 1022 72 6437 3.6 300 01:56 26.10.2019
2745 Clouds 18 1021 59 8047 3.1 260 01:29 26.10.2019
2746 Clouds 19 1021 49 9656 3.1 70 00:26 26.10.2019
2747 Clouds 19 1021 49 9656 3.1 100 23:44 25.10.2019
2748 Clouds 19 1021 49 9656 3.1 100 23:44 25.10.2019
2749 Clouds 20 1021 49 9656 3.1 100 23:20 25.10.2019
2750 Clouds 21 1022 49 8047 1.5 30 22:41 25.10.2019
2751 Clouds 21 1022 49 8047 1.5 30 22:23 25.10.2019
2752 Clouds 21 1023 56 8047 4.1 340 21:58 25.10.2019
2753 Clouds 21 1023 56 8047 4.1 340 21:40 25.10.2019
2754 Clouds 21 1023 56 8047 4.1 340 21:21 25.10.2019
2755 Haze 21 1025 59 4828 2.6 20 20:56 25.10.2019
2756 Haze 21 1025 59 4828 2.6 20 20:38 25.10.2019
2757 Haze 21 1025 59 4828 2.6 20 20:19 25.10.2019
2758 Haze 19 1026 72 4828 1.5 50 19:44 25.10.2019
2759 Haze 19 1026 72 4828 1.5 50 19:25 25.10.2019
2760 Smoke 18 1019 69 4828 2.93 5 18:46 25.10.2019
2761 Clouds 18 1026 72 6437 2.1 320 18:24 25.10.2019
2762 Clouds 16 1025 77 6437 1.5 270 17:42 25.10.2019
2763 Clouds 16 1025 77 6437 1.5 270 17:22 25.10.2019
2764 Clouds 15 1025 82 8047 2.1 310 16:58 25.10.2019
2765 Clouds 15 1025 82 8047 2.1 310 16:40 25.10.2019
2766 Clouds 15 1025 82 8047 2.1 310 16:19 25.10.2019
2767 Clouds 15 1024 82 8047 2.1 250 15:41 25.10.2019
2768 Clouds 15 1024 82 8047 2.1 250 15:23 25.10.2019
2769 Clouds 15 1024 82 9656 2.6 300 14:59 25.10.2019
2770 Clouds 15 1024 82 9656 2.6 300 14:40 25.10.2019
2771 Clouds 15 1024 82 9656 2.6 300 14:21 25.10.2019
2772 Mist 13 1025 93 3219 1.05 32 13:44 25.10.2019
2773 Mist 13 1025 93 3219 1.05 32 13:44 25.10.2019
2774 Clouds 14 1024 82 12874 2.1 360 13:24 25.10.2019
2775 Clouds 14 1023 82 16093 1.05 32 12:57 25.10.2019
2776 Clouds 14 1023 82 16093 1.05 32 12:39 25.10.2019
2777 Clouds 14 1023 82 16093 0.9 159 12:19 25.10.2019
2778 Clouds 13 1023 82 19312 2.1 280 11:41 25.10.2019
2779 Clouds 13 1023 82 19312 2.1 280 11:22 25.10.2019
2780 Clouds 13 1024 82 19312 1.5 250 10:59 25.10.2019
2781 Clouds 14 1024 82 19312 1.5 250 10:39 25.10.2019
2782 Clouds 14 1024 82 19312 1.5 250 10:19 25.10.2019
2783 Clouds 14 1024 82 16093 1.5 240 09:54 25.10.2019
2784 Clouds 14 1024 82 16093 1.5 240 09:36 25.10.2019
2785 Clouds 14 1024 82 16093 1.5 240 09:18 25.10.2019
2786 Clouds 14 1024 87 12874 1.5 270 08:42 25.10.2019
2787 Clouds 14 1024 87 12874 1.5 270 08:23 25.10.2019
2788 Clouds 13 1025 87 12874 2.4 190 07:49 25.10.2019
2789 Clouds 13 1025 87 12874 2.4 190 07:49 25.10.2019
2790 Rain 13 1025 87 11265 2.4 190 07:30 25.10.2019
2791 Clouds 13 1025 87 11265 2.1 330 06:38 25.10.2019
2792 Rain 13 1024 87 8047 3.6 260 05:50 25.10.2019
2793 Rain 13 1024 87 8047 3.6 260 05:32 25.10.2019
2794 Rain 14 1024 82 8047 7.2 280 04:37 25.10.2019
2795 Rain 18 1022 72 9656 3.6 280 02:42 25.10.2019
2796 Rain 18 1020 77 11265 5.7 280 01:53 25.10.2019
2797 Rain 19 1020 67 8047 7.2 270 00:36 25.10.2019
2798 Rain 19 1020 67 8047 7.7 280 23:56 24.10.2019
2799 Clouds 22 1020 46 9656 6.7 280 23:37 24.10.2019
2800 Clouds 22 1020 46 9656 6.7 280 23:19 24.10.2019
2801 Clouds 22 1020 46 9656 6.7 280 23:19 24.10.2019
2802 Clouds 23 1021 38 6437 4.6 80 22:39 24.10.2019
2803 Clouds 23 1021 38 6437 4.6 80 22:19 24.10.2019
2804 Clouds 22 1022 40 8047 1.5 40 21:58 24.10.2019
2805 Clouds 22 1022 40 8047 1.5 40 21:40 24.10.2019
2806 Clouds 22 1022 40 8047 1.5 40 21:20 24.10.2019
2807 Clouds 22 1022 43 8047 2.1 140 20:59 24.10.2019
2808 Clouds 22 1022 43 8047 2.1 140 20:39 24.10.2019
2809 Clouds 21 1023 52 8047 2.1 240 20:21 24.10.2019
2810 Clouds 20 1025 55 8047 1.95 1 19:57 24.10.2019
2811 Clouds 20 1025 55 8047 1.95 1 19:57 24.10.2019
2812 Clouds 20 1025 55 8047 1.95 1 19:38 24.10.2019
2813 Clouds 20 1025 55 8047 1.95 1 19:20 24.10.2019
2814 Clouds 19 1025 55 8047 1.5 70 18:56 24.10.2019
2815 Clouds 19 1025 55 8047 1.5 70 18:38 24.10.2019
2816 Clouds 18 1025 63 8047 2.6 110 18:18 24.10.2019
2817 Mist 16 1026 93 3219 1.35 355 17:42 24.10.2019
2818 Clouds 15 1025 72 6437 2.1 90 17:20 24.10.2019
2819 Mist 14 1026 93 1609 2.1 290 16:58 24.10.2019
2820 Mist 14 1026 93 1609 2.1 290 16:39 24.10.2019
2821 Clouds 13 1025 82 8047 2.1 80 16:21 24.10.2019
2822 Clouds 13 1025 87 9656 2.6 60 15:58 24.10.2019
2823 Clouds 13 1025 87 9656 2.6 60 15:40 24.10.2019
2824 Clouds 13 1024 82 9656 2.6 70 15:21 24.10.2019
2825 Mist 13 1025 87 3219 1.8 16 14:57 24.10.2019
2826 Mist 13 1025 87 3219 1.8 16 14:38 24.10.2019
2827 Clouds 13 1024 82 9656 3.1 60 14:20 24.10.2019
2828 Clouds 11 1023 87 9656 2.6 90 13:40 24.10.2019
2829 Clouds 11 1023 87 9656 2.6 90 13:19 24.10.2019
2830 Clouds 11 1023 82 9656 3.1 80 12:57 24.10.2019
2831 Clouds 11 1023 82 9656 3.1 80 12:57 24.10.2019
2832 Clouds 12 1023 82 9656 3.1 80 12:39 24.10.2019
2833 Clouds 12 1023 82 9656 3.1 80 12:19 24.10.2019
2834 Clouds 13 1024 76 11265 1 80 11:56 24.10.2019
2835 Clouds 13 1024 76 11265 1 80 11:38 24.10.2019
2836 Clouds 13 1024 76 11265 1 80 11:19 24.10.2019
2837 Clouds 14 1025 67 14484 2.1 80 10:55 24.10.2019
2838 Clouds 14 1025 67 14484 2.1 80 10:36 24.10.2019
2839 Clouds 14 1025 67 14484 2.1 80 10:18 24.10.2019
2840 Clouds 14 1025 67 14484 4.1 40 09:38 24.10.2019
2841 Clouds 15 1025 67 14484 4.1 40 09:18 24.10.2019
2842 Clouds 15 1025 67 12874 2.6 80 08:44 24.10.2019
2843 Clouds 15 1025 67 12874 2.6 80 08:21 24.10.2019
2844 Clouds 15 1026 63 12874 2.6 30 07:56 24.10.2019
2845 Clouds 15 1026 63 12874 2.6 30 07:38 24.10.2019
2846 Clouds 15 1026 63 12874 2.6 30 07:20 24.10.2019
2847 Clouds 15 1026 59 12874 4.6 360 06:39 24.10.2019
2848 Clouds 15 1025 59 12874 6.2 360 05:57 24.10.2019
2849 Clouds 15 1025 59 12874 6.2 360 05:39 24.10.2019
2850 Clouds 16 1024 55 16093 5.1 10 04:49 24.10.2019
2851 Clouds 18 1023 52 16093 5.1 20 03:36 24.10.2019
2852 Clouds 20 1022 49 16093 7.2 10 02:51 24.10.2019
2853 Clouds 20 1022 49 16093 7.2 10 02:22 24.10.2019
2854 Clouds 21 1021 40 11265 5.1 360 01:33 24.10.2019
2855 Clouds 22 1021 37 11265 2.1 150 00:57 24.10.2019
2856 Clouds 22 1021 37 11265 2.1 150 00:37 24.10.2019
2857 Clouds 22 1021 37 11265 2.1 150 00:18 24.10.2019
2858 Clouds 23 1022 40 9656 3.1 320 23:42 23.10.2019
2859 Clouds 23 1022 40 9656 3.1 320 23:21 23.10.2019
2860 Clouds 23 1023 40 9656 3.6 360 22:57 23.10.2019
2861 Clouds 23 1023 40 9656 3.6 360 22:37 23.10.2019
2862 Clouds 23 1023 40 9656 3.6 360 22:18 23.10.2019
2863 Clouds 22 1025 49 9656 3.21 349 21:57 23.10.2019
2864 Clouds 22 1025 49 9656 2.63 12 21:38 23.10.2019
2865 Clouds 22 1025 49 9656 2.99 359 21:19 23.10.2019
2866 Clouds 21 1026 52 9656 2.6 230 20:56 23.10.2019
2867 Clouds 21 1026 52 9656 2.6 230 20:37 23.10.2019
2868 Clouds 21 1026 52 9656 2.6 230 20:19 23.10.2019
2869 Clouds 20 1027 52 9656 2.99 359 19:44 23.10.2019
2870 Clouds 20 1027 52 9656 2.99 359 19:44 23.10.2019
2871 Clouds 19 1027 59 9656 2.1 350 19:20 23.10.2019
2872 Clouds 17 1028 67 8047 1.5 300 18:59 23.10.2019
2873 Clouds 17 1028 67 8047 1.5 300 18:39 23.10.2019
2874 Clouds 17 1028 67 8047 1.5 300 18:19 23.10.2019
2875 Clouds 17 1028 67 9656 3.1 70 17:57 23.10.2019
2876 Clouds 16 1028 67 9656 3.1 70 17:39 23.10.2019
2877 Clouds 15 1028 82 9656 4.6 80 17:18 23.10.2019
2878 Clouds 14 1027 87 9656 4.6 80 16:41 23.10.2019
2879 Clouds 14 1027 87 9656 4.6 80 16:21 23.10.2019
2880 Clouds 13 1027 82 9656 3.6 80 15:57 23.10.2019
2881 Clouds 13 1027 82 9656 3.6 80 15:39 23.10.2019
2882 Clouds 13 1027 82 9656 3.6 80 15:21 23.10.2019
2883 Clouds 14 1026 76 12874 2.1 40 14:56 23.10.2019
2884 Clouds 14 1020 100 12874 1.87 343 14:37 23.10.2019
2885 Clouds 13 1026 76 12874 2.1 40 14:18 23.10.2019
2886 Clouds 13 1026 76 12874 2.1 40 14:18 23.10.2019
2887 Clouds 11 1026 76 11265 3.1 70 13:43 23.10.2019
2888 Clouds 12 1026 76 11265 3.1 70 13:25 23.10.2019
2889 Clouds 12 1026 76 12874 2.6 320 12:57 23.10.2019
2890 Clouds 13 1026 76 12874 2.6 320 12:39 23.10.2019
2891 Clouds 13 1026 76 12874 2.6 320 12:19 23.10.2019
2892 Clouds 13 1026 72 19312 3.1 340 11:58 23.10.2019
2893 Clouds 13 1026 72 19312 3.1 340 11:39 23.10.2019
2894 Clouds 13 1026 72 19312 3.1 340 11:21 23.10.2019
2895 Clouds 14 1027 67 19312 2.1 360 10:55 23.10.2019
2896 Clouds 14 1027 67 19312 2.1 360 10:37 23.10.2019
2897 Clouds 14 1027 67 19312 2.1 360 10:18 23.10.2019
2898 Clouds 14 1028 67 19312 2.1 10 09:40 23.10.2019
2899 Clouds 14 1028 67 19312 2.1 10 09:21 23.10.2019
2900 Clouds 14 1028 67 19312 3.1 320 08:43 23.10.2019
2901 Clouds 15 1028 67 19312 3.1 320 08:25 23.10.2019
2902 Clouds 14 1028 67 19312 2.1 340 07:58 23.10.2019
2903 Clouds 14 1028 67 19312 2.1 340 07:39 23.10.2019
2904 Clouds 14 1028 67 19312 2.1 340 07:18 23.10.2019
2905 Clouds 16 1029 67 19312 3.1 360 06:41 23.10.2019
2906 Clouds 14 1029 67 19312 3.1 360 06:18 23.10.2019
2907 Clouds 15 1028 67 19312 5.1 60 05:18 23.10.2019
2908 Clouds 16 1026 59 14484 5.7 40 03:46 23.10.2019
2909 Clouds 18 1026 59 14484 6.7 40 02:42 23.10.2019
2910 Thunderstorm 19 1025 63 12874 7.2 60 01:35 23.10.2019
2911 Clouds 22 1024 43 14484 5.1 30 00:59 23.10.2019
2912 Clouds 22 1024 43 14484 5.1 30 00:33 23.10.2019
2913 Clouds 22 1025 49 14484 5.1 350 23:43 22.10.2019
2914 Clouds 22 1025 49 14484 5.1 350 23:20 22.10.2019
2915 Clouds 21 1025 49 14484 5.7 10 22:59 22.10.2019
2916 Clouds 21 1025 49 14484 5.7 10 22:40 22.10.2019
2917 Clouds 21 1025 49 14484 5.7 10 22:22 22.10.2019
2918 Clouds 22 1027 49 16093 5.1 40 21:57 22.10.2019
2919 Clouds 22 1027 49 16093 5.1 40 21:38 22.10.2019
2920 Clouds 22 1027 49 16093 5.1 40 21:19 22.10.2019
2921 Clouds 22 1028 52 16093 6.2 30 20:58 22.10.2019
2922 Clouds 22 1028 52 16093 6.2 30 20:58 22.10.2019
2923 Clouds 22 1028 52 16093 6.2 30 20:40 22.10.2019
2924 Clouds 22 1028 52 16093 6.2 30 20:21 22.10.2019
2925 Clouds 21 1029 56 16093 5.7 30 19:55 22.10.2019
2926 Clouds 21 1029 56 16093 5.7 30 19:37 22.10.2019
2927 Clouds 21 1029 56 16093 5.7 30 19:19 22.10.2019
2928 Clouds 19 1029 59 12874 3.1 360 18:54 22.10.2019
2929 Clouds 19 1029 59 12874 3.1 360 18:36 22.10.2019
2930 Clouds 19 1029 59 12874 3.1 360 18:18 22.10.2019
2931 Mist 18 1031 93 3219 2.1 320 17:39 22.10.2019
2932 Clouds 17 1029 63 11265 3.1 10 17:20 22.10.2019
2933 Clouds 16 1028 82 9656 3.1 40 16:58 22.10.2019
2934 Clouds 15 1028 82 9656 3.1 40 16:39 22.10.2019
2935 Clouds 15 1028 82 9656 3.1 40 16:39 22.10.2019
2936 Clouds 15 1028 82 9656 3.1 40 16:39 22.10.2019
2937 Clouds 15 1028 82 9656 3.1 40 16:20 22.10.2019
2938 Ash 15 1027 77 8047 2.1 30 15:58 22.10.2019
2939 Ash 15 1027 77 8047 2.1 30 15:40 22.10.2019
2940 Ash 15 1027 77 8047 2.1 30 15:19 22.10.2019
2941 Fog 15 1028 87 805 2.02 10 14:44 22.10.2019
2942 Haze 13 1027 82 8047 2.6 60 14:21 22.10.2019
2943 Clouds 12 1026 82 9656 2.1 70 13:43 22.10.2019
2944 Clouds 12 1026 82 9656 2.1 70 13:23 22.10.2019
2945 Clouds 13 1027 82 9656 1.5 280 12:59 22.10.2019
2946 Clouds 13 1027 82 9656 1.5 280 12:41 22.10.2019
2947 Clouds 13 1027 82 9656 1.5 280 12:21 22.10.2019
2948 Clouds 13 1027 82 9656 1 20 11:57 22.10.2019
2949 Clouds 13 1027 82 9656 1 20 11:38 22.10.2019
2950 Clouds 13 1027 82 9656 1 20 11:20 22.10.2019
2951 Clouds 14 1027 82 11265 1.5 360 10:57 22.10.2019
2952 Clouds 14 1027 82 11265 1.5 360 10:37 22.10.2019
2953 Clouds 14 1027 82 11265 1.5 360 10:18 22.10.2019
2954 Clouds 14 1027 82 11265 1.5 360 10:18 22.10.2019
2955 Clouds 14 1028 72 11265 2.6 300 09:55 22.10.2019
2956 Clouds 14 1028 72 11265 2.6 300 09:36 22.10.2019
2957 Clouds 15 1028 72 11265 2.6 300 09:18 22.10.2019
2958 Clouds 15 1027 67 11265 3.1 300 08:42 22.10.2019
2959 Clouds 15 1027 67 11265 3.1 300 08:42 22.10.2019
2960 Clouds 15 1027 67 11265 3.1 300 08:21 22.10.2019
2961 Clouds 15 1027 67 11265 3.1 300 08:21 22.10.2019
2962 Clouds 16 1028 68 11265 4.1 290 07:46 22.10.2019
2963 Clouds 16 1028 68 11265 4.1 290 07:26 22.10.2019
2964 Clouds 16 1028 68 11265 4.1 290 07:26 22.10.2019
2965 Clouds 16 1027 68 11265 3.1 320 06:51 22.10.2019
2966 Clouds 16 1027 68 11265 3.1 320 06:31 22.10.2019
2967 Clouds 16 1027 68 11265 3.1 320 06:31 22.10.2019
2968 Clouds 17 1027 55 11265 1 10 05:56 22.10.2019
2969 Clouds 17 1027 55 11265 1 10 05:20 22.10.2019
2970 Clouds 21 1024 52 16093 3.6 320 02:47 22.10.2019
2971 Clouds 21 1024 52 16093 3.6 320 02:28 22.10.2019
2972 Clouds 23 1023 46 16093 5.1 120 01:27 22.10.2019
2973 Clouds 23 1022 43 16093 7.2 140 00:57 22.10.2019
2974 Clouds 23 1022 43 16093 7.2 140 00:39 22.10.2019
2975 Clouds 23 1022 43 16093 7.2 140 00:20 22.10.2019
2976 Thunderstorm 24 1023 46 16093 5.7 130 23:54 21.10.2019
2977 Thunderstorm 24 1023 46 16093 5.7 130 23:36 21.10.2019
2978 Thunderstorm 24 1023 46 16093 5.7 130 23:36 21.10.2019
2979 Clouds 24 1023 46 16093 6.2 120 23:18 21.10.2019
2980 Clouds 24 1023 46 16093 6.2 120 22:54 21.10.2019
2981 Clouds 24 1023 46 16093 6.2 120 22:54 21.10.2019
2982 Clouds 24 1023 46 16093 6.2 120 22:36 21.10.2019
2983 Clouds 24 1024 38 16093 1.37 66 22:18 21.10.2019
2984 Ash 25 1025 38 16093 1.5 90 21:40 21.10.2019
2985 Ash 25 1025 38 16093 1.5 90 21:22 21.10.2019
2986 Ash 24 1025 44 16093 0.85 182 20:58 21.10.2019
2987 Ash 24 1025 44 16093 0.85 182 20:40 21.10.2019
2988 Ash 24 1025 44 16093 0.85 182 20:21 21.10.2019
2989 Ash 23 1026 40 16093 1.5 190 19:58 21.10.2019
2990 Ash 23 1026 40 16093 1.5 190 19:40 21.10.2019
2991 Ash 22 1026 40 16093 1.5 190 19:22 21.10.2019
2992 Clouds 21 1026 46 16093 1 120 18:56 21.10.2019
2993 Clouds 20 1026 46 16093 1 120 18:37 21.10.2019
2994 Clouds 20 1026 46 16093 1 120 18:19 21.10.2019
2995 Clouds 19 1029 72 8047 2.1 120 17:56 21.10.2019
2996 Clouds 19 1029 72 8047 2.1 120 17:37 21.10.2019
2997 Clouds 18 1026 55 19312 2.6 120 17:18 21.10.2019
2998 Clouds 17 1026 63 19312 2.6 120 16:56 21.10.2019
2999 Clouds 17 1026 63 19312 2.6 120 16:37 21.10.2019
3000 Clouds 17 1025 72 19312 2.6 110 16:19 21.10.2019
3001 Clouds 15 1025 77 19312 2.6 130 15:42 21.10.2019
3002 Clouds 15 1025 77 19312 2.6 130 15:24 21.10.2019
3003 Clear 15 1024 72 19312 2.6 140 14:57 21.10.2019
3004 Clear 15 1024 72 19312 2.6 140 14:38 21.10.2019
3005 Clear 14 1024 72 19312 2.6 140 14:19 21.10.2019
3006 Clear 14 1024 82 24140 3.6 150 13:56 21.10.2019
3007 Clear 14 1024 82 24140 3.6 150 13:37 21.10.2019
3008 Clear 14 1024 82 24140 3.6 150 13:18 21.10.2019
3009 Clear 13 1024 82 24140 2.6 120 12:41 21.10.2019
3010 Clear 13 1024 82 24140 2.6 120 12:22 21.10.2019
3011 Clear 12 1024 77 24140 3.1 140 11:55 21.10.2019
3012 Clear 13 1024 77 24140 3.1 140 11:37 21.10.2019
3013 Clear 13 1024 77 24140 3.1 140 11:19 21.10.2019
3014 Clouds 14 1025 77 19312 3.1 120 10:55 21.10.2019
3015 Clouds 14 1025 77 19312 3.1 120 10:37 21.10.2019
3016 Clouds 14 1025 77 19312 3.1 120 10:18 21.10.2019
3017 Clouds 14 1025 77 19312 3.1 140 09:44 21.10.2019
3018 Clouds 14 1025 77 19312 3.1 140 09:25 21.10.2019
3019 Clear 15 1025 72 19312 4.1 120 08:43 21.10.2019
3020 Clear 15 1025 72 19312 4.1 120 08:24 21.10.2019
3021 Clear 15 1025 67 19312 4.1 120 07:59 21.10.2019
3022 Clear 15 1025 67 19312 4.1 120 07:37 21.10.2019
3023 Clear 15 1025 67 19312 4.1 120 07:19 21.10.2019
3024 Clear 16 1025 63 19312 3.1 140 06:53 21.10.2019
3025 Clear 16 1025 63 19312 3.1 140 06:33 21.10.2019
3026 Clear 17 1024 59 19312 4.1 120 05:50 21.10.2019
3027 Clouds 17 1023 55 19312 3.6 180 04:43 21.10.2019
3028 Clouds 20 1023 56 19312 4.1 170 02:41 21.10.2019
3029 Clouds 21 1022 46 19312 5.1 170 02:22 21.10.2019
3030 Clouds 21 1021 41 19312 5.1 170 01:49 21.10.2019
3031 Clouds 22 1021 41 19312 5.1 170 01:22 21.10.2019
3032 Clouds 24 1021 38 19312 7.2 190 00:42 21.10.2019
3033 Clouds 24 1021 38 19312 7.2 190 00:42 21.10.2019
3034 Clouds 24 1021 38 19312 7.2 190 00:23 21.10.2019
3035 Clouds 25 1022 41 19312 5.7 190 23:40 20.10.2019
3036 Clouds 24 1022 41 19312 5.7 190 23:21 20.10.2019
3037 Clouds 24 1023 41 19312 5.7 200 22:55 20.10.2019
3038 Clouds 24 1023 41 19312 5.7 200 22:36 20.10.2019
3039 Clouds 24 1023 41 19312 5.7 200 22:18 20.10.2019
3040 Clouds 24 1023 44 19312 5.1 200 21:41 20.10.2019
3041 Clouds 24 1023 44 19312 5.1 200 21:41 20.10.2019
3042 Clouds 23 1024 49 16093 4.1 180 21:22 20.10.2019
3043 Clouds 22 1024 49 16093 4.6 160 20:59 20.10.2019
3044 Clouds 22 1024 49 16093 4.6 160 20:39 20.10.2019
3045 Ash 23 1025 41 16093 4.1 180 20:18 20.10.2019
3046 Ash 23 1025 41 16093 4.1 180 20:18 20.10.2019
3047 Ash 22 1019 69 11265 3.1 200 19:56 20.10.2019
3048 Ash 22 1019 69 11265 3.1 200 19:37 20.10.2019
3049 Ash 22 1024 43 16093 5.1 200 19:19 20.10.2019
3050 Ash 21 1024 43 16093 4.1 170 18:42 20.10.2019
3051 Ash 21 1024 43 16093 4.1 170 18:42 20.10.2019
3052 Mist 20 1024 49 16093 4.1 160 18:23 20.10.2019
3053 Clouds 19 1024 60 14484 4.6 150 17:59 20.10.2019
3054 Clouds 19 1024 60 14484 4.6 150 17:40 20.10.2019
3055 Clouds 19 1024 60 14484 4.6 150 17:21 20.10.2019
3056 Fog 18 1024 68 14484 1 160 16:56 20.10.2019
3057 Fog 18 1024 68 14484 1 160 16:37 20.10.2019
3058 Fog 17 1024 77 16093 1 330 16:18 20.10.2019
3059 Fog 16 1025 87 11265 4.6 130 15:54 20.10.2019
3060 Fog 16 1025 87 11265 4.6 130 15:54 20.10.2019
3061 Fog 16 1025 87 11265 4.6 130 15:36 20.10.2019
3062 Fog 15 1023 82 16093 1.7 182.773 15:18 20.10.2019
3063 Fog 15 1023 82 16093 1 20 14:39 20.10.2019
3064 Fog 15 1023 82 16093 1 20 14:21 20.10.2019
3065 Mist 15 1023 82 16093 1 170 13:56 20.10.2019
3066 Mist 15 1023 82 16093 1 170 13:37 20.10.2019
3067 Mist 15 1023 82 16093 1 170 13:19 20.10.2019
3068 Mist 15 1022 82 16093 1.58 182.001 12:57 20.10.2019
3069 Mist 15 1022 82 16093 1.58 182.001 12:39 20.10.2019
3070 Mist 15 1022 82 16093 1.58 182.001 12:39 20.10.2019
3071 Mist 15 1022 82 16093 1.33 178.23 12:21 20.10.2019
3072 Clouds 14 1022 82 14484 1.5 130 11:59 20.10.2019
3073 Clouds 14 1022 82 14484 1.5 130 11:40 20.10.2019
3074 Clouds 14 1022 82 14484 1.5 130 11:22 20.10.2019
3075 Clouds 14 1022 82 14484 1.5 130 11:22 20.10.2019
3076 Clouds 15 1023 77 14484 3.6 130 10:57 20.10.2019
3077 Clouds 15 1023 77 14484 3.6 130 10:38 20.10.2019
3078 Clouds 15 1023 77 14484 3.6 130 10:20 20.10.2019
3079 Clouds 15 1023 72 12874 3.6 110 09:44 20.10.2019
3080 Clouds 15 1023 72 12874 3.6 110 09:23 20.10.2019
3081 Clouds 15 1024 72 11265 2.1 110 08:59 20.10.2019
3082 Clouds 15 1024 72 11265 2.1 110 08:39 20.10.2019
3083 Clouds 15 1024 72 11265 2.1 110 08:20 20.10.2019
3084 Clouds 16 1024 63 12874 3.6 140 07:47 20.10.2019
3085 Clouds 16 1024 63 12874 3.6 140 07:26 20.10.2019
3086 Clouds 17 1024 63 16093 5.1 130 06:28 20.10.2019
3087 Clouds 18 1022 59 16093 5.1 140 04:28 20.10.2019
3088 Clouds 17 1021 56 16093 6.2 140 03:49 20.10.2019
3089 Clouds 18 1021 56 16093 6.2 140 03:22 20.10.2019
3090 Clouds 21 1020 52 16093 7.7 130 02:46 20.10.2019
3091 Clouds 21 1020 52 16093 7.7 130 02:18 20.10.2019
3092 Clouds 23 1020 46 16093 7.2 110 01:45 20.10.2019
3093 Clouds 23 1020 46 16093 7.2 110 01:19 20.10.2019
3094 Clouds 23 1020 43 16093 6.2 140 00:47 20.10.2019
3095 Clouds 23 1020 43 16093 6.2 140 00:47 20.10.2019
3096 Clouds 23 1020 43 16093 6.2 140 00:20 20.10.2019
3097 Clouds 23 1020 44 16093 3.1 160 23:44 19.10.2019
3098 Clouds 23 1020 44 16093 3.1 160 23:24 19.10.2019
3099 Clouds 23 1021 46 16093 4.1 180 22:58 19.10.2019
3100 Clouds 23 1021 46 16093 4.1 180 22:40 19.10.2019
3101 Clouds 23 1021 38 16093 4.1 120 22:20 19.10.2019
3102 Clouds 23 1022 41 16093 1.5 230 21:46 19.10.2019
3103 Clouds 23 1022 41 16093 1.5 230 21:25 19.10.2019
3104 Clouds 23 1018 65 14484 1 190 20:57 19.10.2019
3105 Clouds 23 1018 65 14484 1 190 20:57 19.10.2019
3106 Clouds 23 1018 65 14484 1 190 20:39 19.10.2019
3107 -273 0 0 0 0 0 20:20 19.10.2019
3108 Clouds 21 1024 52 12874 2.6 360 19:41 19.10.2019
3109 Clouds 21 1024 52 12874 2.6 360 19:23 19.10.2019
3110 Clouds 20 1025 63 9656 1 40 18:54 19.10.2019
3111 Clouds 20 1025 63 9656 1 40 18:54 19.10.2019
3112 Clouds 20 1025 63 9656 1 40 18:36 19.10.2019
3113 Clouds 20 1025 63 9656 1 40 18:18 19.10.2019
3114 Clouds 20 1025 63 9656 1 40 18:18 19.10.2019
3115 Clouds 20 1025 63 9656 1 40 18:18 19.10.2019
3116 Mist 16 1024 72 9656 0.5 70 17:41 19.10.2019
3117 Mist 17 1024 72 9656 0.5 70 17:21 19.10.2019
3118 Mist 16 1024 72 12874 1 110 16:55 19.10.2019
3119 Mist 16 1024 72 12874 1 110 16:37 19.10.2019
3120 Mist 16 1024 72 12874 1 110 16:18 19.10.2019
3121 Mist 16 1024 72 12874 1 110 16:18 19.10.2019
3122 Fog 15 1023 82 16093 1.33 106.484 15:40 19.10.2019
3123 Fog 15 1023 82 16093 0.48 242.952 15:22 19.10.2019
3124 Fog 15 1025 93 805 0.48 242.952 14:39 19.10.2019
3125 Mist 15 1023 82 14484 2.1 180 14:20 19.10.2019
3126 Clouds 14 1023 87 16093 1 290 13:57 19.10.2019
3127 Clouds 14 1023 87 16093 1 290 13:39 19.10.2019
3128 Clouds 14 1023 87 16093 1 290 13:18 19.10.2019
3129 Clouds 14 1023 87 16093 1.5 300 12:55 19.10.2019
3130 Clouds 14 1023 87 16093 1.5 300 12:36 19.10.2019
3131 Clouds 14 1023 87 16093 1.5 300 12:18 19.10.2019
3132 Clouds 14 1023 87 16093 2.1 270 11:41 19.10.2019
3133 Clouds 14 1023 87 16093 2.1 270 11:22 19.10.2019
3134 Clouds 15 1024 82 12874 2.1 60 10:55 19.10.2019
3135 Clouds 15 1024 82 12874 2.1 60 10:37 19.10.2019
3136 Clouds 15 1024 82 12874 2.1 60 10:19 19.10.2019
3137 Rain 15 1024 82 12874 2.1 360 09:41 19.10.2019
3138 Rain 15 1024 82 12874 2.1 360 09:23 19.10.2019
3139 Rain 15 1024 82 12874 2.1 360 09:23 19.10.2019
3140 Rain 15 1024 82 12874 2.1 360 08:58 19.10.2019
3141 Rain 15 1024 82 12874 2.1 360 08:58 19.10.2019
3142 Clouds 15 1024 77 12874 1.36 247.134 08:39 19.10.2019
3143 Clouds 15 1024 77 12874 1.36 247.134 08:20 19.10.2019
3144 Clouds 15 1024 72 16093 4.1 110 07:43 19.10.2019
3145 Clouds 15 1024 72 16093 4.1 110 07:24 19.10.2019
3146 Clouds 15 1024 77 16093 4.6 120 06:45 19.10.2019
3147 Clouds 16 1024 67 16093 5.1 120 05:56 19.10.2019
3148 Clouds 16 1024 67 16093 5.1 120 05:27 19.10.2019
3149 Clouds 16 1024 67 16093 5.1 120 05:27 19.10.2019
3150 Clouds 16 1022 68 16093 5.7 130 03:25 19.10.2019
3151 Rain 19 1022 68 16093 4.6 100 02:38 19.10.2019
3152 Rain 19 1021 60 16093 5.1 100 01:51 19.10.2019
3153 Rain 21 1021 60 16093 5.1 100 01:18 19.10.2019
3154 Smoke 21 1021 52 16093 2.1 180 00:45 19.10.2019
3155 Smoke 21 1021 52 16093 2.1 180 00:22 19.10.2019
3156 Rain 20 1022 52 16093 4.6 150 23:40 18.10.2019
3157 Rain 20 1022 52 16093 4.6 150 23:21 18.10.2019
3158 Rain 21 1022 53 16093 5.1 120 22:55 18.10.2019
3159 Rain 21 1022 53 16093 5.1 120 22:37 18.10.2019
3160 Rain 21 1022 53 16093 5.1 120 22:37 18.10.2019
3161 Clouds 21 1022 53 16093 5.1 120 22:19 18.10.2019
3162 Clouds 21 1025 77 11265 5.1 160 21:56 18.10.2019
3163 Clouds 21 1025 77 11265 5.1 160 21:56 18.10.2019
3164 Clouds 21 1025 77 11265 5.1 160 21:37 18.10.2019
3165 Clouds 21 1023 46 16093 5.1 130 21:18 18.10.2019
3166 Clouds 22 1024 43 12874 2.6 120 20:43 18.10.2019
3167 Clouds 22 1024 43 12874 2.6 120 20:24 18.10.2019
3168 Clouds 21 1024 46 14484 1.5 90 19:59 18.10.2019
3169 Clouds 21 1024 46 14484 1.5 90 19:40 18.10.2019
3170 Clouds 20 1025 49 16093 2.6 110 19:22 18.10.2019
3171 Clouds 20 1025 56 16093 2.1 90 18:59 18.10.2019
3172 Clouds 20 1025 56 16093 2.1 90 18:41 18.10.2019
3173 Clouds 20 1025 56 16093 2.1 90 18:41 18.10.2019
3174 Clouds 19 1025 56 16093 2.1 90 18:23 18.10.2019
3175 Clouds 19 1025 56 16093 1 170 17:56 18.10.2019
3176 Clouds 19 1025 56 16093 1 170 17:37 18.10.2019
3177 Clouds 19 1025 56 16093 1 170 17:19 18.10.2019
3178 Mist 18 1025 59 16093 1.5 190 16:40 18.10.2019
3179 Mist 17 1025 72 16093 1.5 210 16:21 18.10.2019
3180 Mist 15 1025 82 16093 1.5 180 15:58 18.10.2019
3181 Mist 15 1025 82 16093 1.5 180 15:38 18.10.2019
3182 Mist 15 1025 82 16093 1.5 180 15:20 18.10.2019
3183 Mist 15 1025 82 16093 1.5 180 15:20 18.10.2019
3184 Mist 15 1024 87 12874 3.1 110 14:57 18.10.2019
3185 Mist 15 1024 87 12874 3.1 110 14:38 18.10.2019
3186 Mist 15 1024 87 12874 3.1 110 14:19 18.10.2019
3187 Clouds 14 1024 87 11265 1 170 13:56 18.10.2019
3188 Clouds 14 1024 87 11265 1 170 13:37 18.10.2019
3189 Clouds 14 1024 87 11265 1 170 13:18 18.10.2019
3190 Clouds 14 1024 87 11265 0.75 180.836 12:55 18.10.2019
3191 -273 0 0 0 0 0 12:55 18.10.2019
3192 Clouds 14 1024 87 11265 0.75 180.836 12:37 18.10.2019
3193 Clouds 14 1024 87 11265 1.11 209.349 12:18 18.10.2019
3194 Clouds 14 1024 87 12874 2.6 130 11:41 18.10.2019
3195 Clouds 14 1024 87 12874 2.6 130 11:20 18.10.2019
3196 Clouds 14 1024 87 12874 1.11 209.349 10:57 18.10.2019
3197 Clouds 14 1024 87 12874 1.11 209.349 10:39 18.10.2019
3198 Clouds 14 1024 87 12874 1.11 209.349 10:20 18.10.2019
3199 Clouds 14 1025 87 16093 2.6 110 09:57 18.10.2019
3200 Clouds 14 1025 87 16093 2.6 110 09:39 18.10.2019
3201 Clouds 14 1025 87 16093 2.6 110 09:19 18.10.2019
3202 Clouds 14 1025 87 12874 1.5 190 08:44 18.10.2019
3203 -273 0 0 0 0 0 08:25 18.10.2019
3204 Clouds 15 1025 82 11265 2.6 120 07:53 18.10.2019
3205 Clouds 15 1025 82 11265 2.6 120 07:35 18.10.2019
3206 Clouds 15 1027 87 8047 3.6 140 06:55 18.10.2019
3207 Rain 15 1025 82 11265 3.1 160 06:35 18.10.2019
3208 Rain 15 1027 87 4828 2.1 120 05:59 18.10.2019
3209 Rain 14 1027 87 4828 2.1 120 05:41 18.10.2019
3210 Clouds 14 1025 93 11265 3.6 120 05:18 18.10.2019
3211 Rain 15 1024 82 12874 1 30 03:36 18.10.2019
3212 Rain 17 1023 77 8047 2.1 360 02:51 18.10.2019
3213 Rain 17 1023 77 8047 2.1 360 02:32 18.10.2019
3214 Rain 18 1023 77 8047 1.5 340 01:39 18.10.2019
3215 Rain 18 1023 77 8047 1.5 340 01:20 18.10.2019
3216 Rain 18 1023 82 6437 1.5 330 00:41 18.10.2019
3217 Rain 18 1023 82 6437 1.5 330 00:19 18.10.2019
3218 Rain 18 1023 93 6437 2.6 360 23:39 17.10.2019
3219 Thunderstorm 18 1023 93 3219 1 60 23:20 17.10.2019
3220 Rain 18 1023 87 3219 3.6 250 22:56 17.10.2019
3221 Rain 18 1023 87 3219 3.6 250 22:56 17.10.2019
3222 Rain 18 1023 87 3219 3.6 250 22:56 17.10.2019
3223 Rain 18 1023 87 3219 3.6 250 22:56 17.10.2019
3224 Rain 18 1023 87 3219 3.6 250 22:38 17.10.2019
3225 Rain 18 1023 82 8047 3.6 10 22:19 17.10.2019
3226 Mist 17 1024 87 8047 3.1 10 21:56 17.10.2019
3227 Mist 17 1024 87 8047 3.1 10 21:38 17.10.2019
3228 Mist 17 1024 87 8047 3.1 10 21:20 17.10.2019
3229 Rain 17 1024 82 4828 4.1 10 20:57 17.10.2019
3230 Rain 17 1024 82 4828 4.1 10 20:39 17.10.2019
3231 Rain 17 1024 82 4828 4.1 10 20:39 17.10.2019
3232 Rain 17 1025 77 8047 2.6 60 20:19 17.10.2019
3233 Rain 18 1025 77 9656 1.5 70 19:57 17.10.2019
3234 Rain 18 1025 77 9656 1.5 70 19:38 17.10.2019
3235 Rain 18 1026 87 6437 3.6 40 19:19 17.10.2019
3236 Rain 17 1026 87 4828 3.1 30 18:43 17.10.2019
3237 Rain 16 1026 82 3219 2.6 70 18:21 17.10.2019
3238 Mist 16 1026 87 8047 3.1 20 17:58 17.10.2019
3239 Clouds 16 1026 87 8047 3.1 20 17:40 17.10.2019
3240 Clouds 16 1026 87 8047 3.1 20 17:22 17.10.2019
3241 Rain 15 1025 93 4828 3.6 20 16:56 17.10.2019
3242 Rain 15 1025 93 4828 3.6 20 16:37 17.10.2019
3243 Rain 15 1025 93 4828 3.6 20 16:18 17.10.2019
3244 Rain 15 1025 87 4828 3.1 360 15:55 17.10.2019
3245 Rain 15 1025 87 4828 3.1 360 15:37 17.10.2019
3246 Rain 15 1025 87 4828 3.1 360 15:18 17.10.2019
3247 Rain 15 1024 87 6437 2.6 340 14:42 17.10.2019
3248 Rain 15 1024 87 6437 2.6 340 14:23 17.10.2019
3249 Rain 13 1024 87 4828 2.1 20 13:54 17.10.2019
3250 Rain 13 1024 87 4828 2.1 20 13:36 17.10.2019
3251 Rain 14 1024 87 8047 2.1 320 13:18 17.10.2019
3252 Clouds 13 1024 93 6437 2.1 310 12:41 17.10.2019
3253 Clouds 13 1024 93 6437 2.1 310 12:20 17.10.2019
3254 Rain 14 1024 93 6437 2.1 340 11:58 17.10.2019
3255 Rain 14 1024 93 6437 2.1 340 11:40 17.10.2019
3256 Rain 14 1024 93 6437 2.1 340 11:19 17.10.2019
3257 Rain 14 1025 93 4828 4.1 20 10:54 17.10.2019
3258 Rain 14 1025 93 4828 4.1 20 10:54 17.10.2019
3259 Rain 14 1025 93 4828 4.1 20 10:54 17.10.2019
3260 Rain 14 1025 93 4828 4.1 20 10:36 17.10.2019
3261 Rain 14 1025 93 4828 4.1 20 10:18 17.10.2019
3262 Rain 14 1025 93 4828 4.1 20 10:18 17.10.2019
3263 Rain 14 1025 93 4828 2.6 10 09:41 17.10.2019
3264 Rain 14 1025 87 9656 4.1 340 09:21 17.10.2019
3265 Rain 14 1025 82 12874 5.1 360 08:58 17.10.2019
3266 Rain 14 1025 82 12874 5.1 360 08:39 17.10.2019
3267 Clouds 15 1025 72 16093 4.6 20 08:20 17.10.2019
3268 Clouds 15 1025 72 16093 5.1 360 07:54 17.10.2019
3269 Clouds 15 1025 72 16093 5.1 360 07:54 17.10.2019
3270 Clouds 15 1025 72 16093 5.1 360 07:36 17.10.2019
3271 Clouds 15 1025 72 16093 5.1 360 07:18 17.10.2019
3272 Rain 15 1027 82 9656 4.1 40 06:39 17.10.2019
3273 Clouds 15 1025 72 16093 3.6 340 06:20 17.10.2019
3274 Rain 16 1023 67 16093 5.7 340 05:49 17.10.2019
3275 Rain 16 1023 67 16093 5.7 340 05:30 17.10.2019
3276 Rain 16 1024 67 16093 4.1 340 04:51 17.10.2019
3277 Clouds 17 1023 59 14484 7.2 40 03:54 17.10.2019
3278 Clouds 19 1022 59 11265 8.2 30 02:36 17.10.2019
3279 Rain 20 1022 63 8047 4.6 30 00:56 17.10.2019
3280 Rain 20 1022 63 8047 4.6 30 00:38 17.10.2019
3281 Rain 20 1022 63 8047 4.6 30 00:18 17.10.2019
3282 Clouds 19 1022 56 11265 6.7 360 23:42 16.10.2019
3283 Clouds 21 1022 56 11265 6.7 360 23:20 16.10.2019
3284 Clouds 22 1022 52 11265 6.2 10 22:55 16.10.2019
3285 Clouds 22 1022 52 11265 6.2 10 22:36 16.10.2019
3286 Clouds 22 1022 52 11265 6.2 10 22:18 16.10.2019
3287 Clouds 22 1023 52 12874 4.6 340 21:56 16.10.2019
3288 Clouds 22 1023 52 12874 4.6 340 21:37 16.10.2019
3289 Clouds 22 1023 52 12874 4.6 340 21:18 16.10.2019
3290 Clouds 22 1024 49 12874 4.6 330 20:56 16.10.2019
3291 Clouds 22 1024 49 12874 4.6 330 20:38 16.10.2019
3292 Clouds 22 1024 49 12874 4.6 330 20:20 16.10.2019
3293 Clouds 22 1025 56 12874 1 320 19:56 16.10.2019
3294 Clouds 21 1025 56 12874 1 320 19:38 16.10.2019
3295 Clouds 21 1025 56 12874 1 320 19:19 16.10.2019
3296 Clouds 20 1025 56 12874 2.6 30 18:39 16.10.2019
3297 Clouds 19 1026 63 12874 1.5 300 18:19 16.10.2019
3298 Clouds 18 1025 63 11265 1.5 50 17:56 16.10.2019
3299 Clouds 18 1025 63 11265 1.5 50 17:38 16.10.2019
3300 Clouds 18 1025 63 11265 1.5 50 17:19 16.10.2019
3301 Clouds 17 1025 67 9656 2.6 10 16:58 16.10.2019
3302 Clouds 17 1025 67 9656 2.6 10 16:39 16.10.2019
3303 Clouds 17 1025 67 9656 2.6 10 16:20 16.10.2019
3304 Clouds 15 1024 67 9656 2.1 280 15:55 16.10.2019
3305 Clouds 16 1024 67 9656 2.1 280 15:36 16.10.2019
3306 Clouds 16 1024 72 9656 4.1 280 15:18 16.10.2019
3307 Clouds 16 1024 72 9656 4.1 280 15:18 16.10.2019
3308 Clouds 15 1024 72 9656 4.1 280 14:55 16.10.2019
3309 Clouds 15 1024 72 9656 4.1 280 14:36 16.10.2019
3310 Clouds 14 1024 72 9656 4.1 280 14:18 16.10.2019
3311 Clouds 14 1024 72 9656 3.1 280 13:42 16.10.2019
3312 Clouds 14 1024 72 9656 3.1 280 13:23 16.10.2019
3313 Clouds 15 1024 67 9656 3.1 20 12:57 16.10.2019
3314 Clouds 14 1024 67 9656 3.1 20 12:39 16.10.2019
3315 Clouds 15 1024 67 9656 3.1 20 12:18 16.10.2019
3316 Clouds 14 1024 67 9656 4.1 20 11:42 16.10.2019
3317 Clouds 14 1024 67 9656 4.1 20 11:42 16.10.2019
3318 Rain 14 1024 72 9656 4.1 30 11:18 16.10.2019
3319 Rain 14 1024 72 9656 4.1 30 11:18 16.10.2019
3320 Clouds 15 1024 63 11265 5.1 310 10:38 16.10.2019
3321 Clouds 15 1024 63 11265 5.1 310 10:20 16.10.2019
3322 Clouds 15 1025 63 12874 4.6 290 09:55 16.10.2019
3323 Clouds 15 1025 63 12874 4.6 290 09:37 16.10.2019
3324 Clouds 15 1025 63 12874 4.6 290 09:19 16.10.2019
3325 Clouds 16 1025 52 12874 4.6 300 08:42 16.10.2019
3326 Clouds 16 1025 52 12874 4.6 300 08:24 16.10.2019
3327 Clouds 17 1025 45 12874 5.1 300 07:45 16.10.2019
3328 Clouds 17 1025 45 12874 5.1 300 07:45 16.10.2019
3329 Clouds 17 1025 45 12874 5.1 300 07:25 16.10.2019
3330 Clouds 17 1025 45 12874 5.1 300 07:24 16.10.2019
3331 Clouds 17 1025 48 14484 5.1 340 06:56 16.10.2019
3332 Clouds 17 1025 48 14484 5.1 340 06:35 16.10.2019
3333 Clouds 18 1024 42 16093 5.1 10 05:39 16.10.2019
3334 Clouds 23 1021 31 12874 5.1 350 02:57 16.10.2019
3335 Clouds 23 1021 31 12874 5.1 350 02:37 16.10.2019
3336 Clouds 25 1021 26 12874 4.1 300 01:18 16.10.2019
3337 Clouds 26 1021 24 11265 3.6 240 00:46 16.10.2019
3338 Clouds 26 1021 24 11265 3.6 240 00:25 16.10.2019
3339 Clouds 26 1022 26 9656 4.6 360 23:39 15.10.2019
3340 Clouds 26 1022 26 9656 4.6 360 23:21 15.10.2019
3341 Clouds 26 1022 29 9656 2.6 70 22:55 15.10.2019
3342 Clouds 25 1022 29 9656 2.6 70 22:37 15.10.2019
3343 Clouds 25 1023 33 9656 2.6 340 22:19 15.10.2019
3344 Clouds 25 1023 31 9656 2.437 329 21:55 15.10.2019
3345 Clouds 25 1023 31 9656 2.437 329 21:55 15.10.2019
3346 Clouds 24 1023 31 9656 2.234 332 21:37 15.10.2019
3347 Clouds 24 1024 40 8047 4.1 350 21:19 15.10.2019
3348 Clouds 23 1025 43 8047 2.1 10 20:57 15.10.2019
3349 Clouds 23 1025 43 8047 2.1 10 20:38 15.10.2019
3350 Clouds 23 1025 43 8047 2.1 10 20:19 15.10.2019
3351 Clouds 22 1026 43 8047 2.412 337 19:56 15.10.2019
3352 Clouds 22 1026 43 8047 2.412 337 19:56 15.10.2019
3353 Clouds 22 1026 43 8047 2.412 337 19:37 15.10.2019
3354 Clouds 22 1026 43 8047 2.412 337 19:37 15.10.2019
3355 Clouds 21 1027 56 8047 1.5 270 19:19 15.10.2019
3356 Clouds 19 1027 59 9656 2.1 110 18:44 15.10.2019
3357 Clouds 19 1027 59 9656 2.1 110 18:26 15.10.2019
3358 Clouds 16 1027 59 9656 2.092 359 17:56 15.10.2019
3359 Clouds 16 1027 59 9656 2.092 359 17:38 15.10.2019
3360 Clouds 16 1027 63 9656 2.1 90 17:19 15.10.2019
3361 Clouds 15 1027 77 9656 3.1 80 16:45 15.10.2019
3362 Clouds 15 1027 77 9656 3.1 80 16:45 15.10.2019
3363 Clouds 15 1027 82 9656 3.1 80 16:22 15.10.2019
3364 Clouds 13 1027 81 9656 2.6 70 15:58 15.10.2019
3365 Clouds 13 1027 81 9656 2.6 70 15:40 15.10.2019
3366 Clouds 13 1027 81 9656 2.6 70 15:40 15.10.2019
3367 Clouds 12 1027 81 9656 2.6 70 15:20 15.10.2019
3368 Fog 13 1028 93 805 1.92 10 14:56 15.10.2019
3369 Clouds 11 1026 81 12874 3.1 90 14:37 15.10.2019
3370 Clouds 11 1026 81 12874 3.1 90 14:19 15.10.2019
3371 Fog 12 1028 93 805 2.1 320 13:43 15.10.2019
3372 Clouds 12 1026 76 11265 2.6 60 13:21 15.10.2019
3373 Clouds 12 1026 71 11265 2.6 60 12:59 15.10.2019
3374 Clouds 12 1026 71 11265 2.6 60 12:59 15.10.2019
3375 Clouds 13 1026 71 11265 2.6 60 12:38 15.10.2019
3376 Clouds 13 1026 71 11265 2.6 60 12:20 15.10.2019
3377 Clouds 13 1028 87 11265 2.64 19 11:44 15.10.2019
3378 Clouds 13 1028 87 11265 2.64 19 11:20 15.10.2019
3379 Clouds 14 1027 67 14484 3.1 60 10:57 15.10.2019
3380 Clouds 14 1027 67 14484 3.1 60 10:39 15.10.2019
3381 Clouds 14 1027 67 14484 3.1 60 10:19 15.10.2019
3382 Clouds 14 1027 63 16093 4.1 330 09:56 15.10.2019
3383 Clouds 14 1027 63 16093 4.1 330 09:37 15.10.2019
3384 Clouds 14 1027 63 16093 4.1 330 09:19 15.10.2019
3385 Clouds 15 1027 59 17702 3.1 300 08:41 15.10.2019
3386 Clouds 15 1027 59 17702 3.1 300 08:21 15.10.2019
3387 Clouds 16 1027 59 17702 3.1 290 07:55 15.10.2019
3388 Clouds 16 1027 59 17702 3.1 290 07:36 15.10.2019
3389 Clouds 16 1027 59 17702 3.1 290 07:18 15.10.2019
3390 Clouds 16 1027 55 17702 4.1 300 06:43 15.10.2019
3391 Clouds 16 1027 55 17702 4.1 300 06:20 15.10.2019
3392 Clouds 17 1026 55 17702 4.1 340 05:37 15.10.2019
3393 Clouds 18 1025 49 16093 5.1 360 04:54 15.10.2019
3394 Clouds 18 1025 49 16093 5.1 360 04:20 15.10.2019
3395 Clouds 19 1025 49 16093 4.6 360 03:35 15.10.2019
3396 Clouds 19 1025 49 16093 4.6 360 03:35 15.10.2019
3397 Clouds 22 1023 46 12874 5.1 110 02:19 15.10.2019
3398 Clouds 25 1022 29 12874 4.6 340 01:41 15.10.2019
3399 Clouds 25 1022 29 12874 4.6 340 01:18 15.10.2019
3400 Clouds 25 1022 22 14484 3.1 330 00:26 15.10.2019
3401 Clouds 26 1022 21 12874 2.6 60 23:59 14.10.2019
3402 Clouds 26 1022 21 12874 2.6 60 23:38 14.10.2019
3403 Clouds 26 1022 21 12874 2.6 60 23:19 14.10.2019
3404 Clouds 26 1024 26 12874 2.6 130 22:40 14.10.2019
3405 Clouds 26 1024 26 12874 2.6 130 22:21 14.10.2019
3406 Clouds 25 1025 33 11265 5.7 330 21:59 14.10.2019
3407 Clouds 25 1025 33 11265 5.7 330 21:40 14.10.2019
3408 Clouds 25 1025 33 11265 5.7 330 21:40 14.10.2019
3409 Clouds 25 1025 33 11265 5.7 330 21:21 14.10.2019
3410 Clouds 24 1025 36 11265 2.6 280 20:58 14.10.2019
3411 Clouds 23 1026 43 11265 2.35 70.856 20:38 14.10.2019
3412 Clouds 23 1026 43 11265 2.35 70.856 20:19 14.10.2019
3413 Clouds 22 1027 49 8047 2.1 60 19:56 14.10.2019
3414 Clouds 22 1027 49 8047 2.1 60 19:37 14.10.2019
3415 Clouds 22 1027 49 8047 2.1 60 19:19 14.10.2019
3416 Clouds 20 1027 52 8047 3.1 350 18:57 14.10.2019
3417 Clouds 20 1027 63 9656 1.5 270 18:37 14.10.2019
3418 Clouds 19 1027 63 9656 1.5 270 18:18 14.10.2019
3419 Clouds 18 1028 68 9656 1.5 60 17:41 14.10.2019
3420 Clouds 18 1028 77 9656 1.5 120 17:23 14.10.2019
3421 Ash 15 1027 82 9656 2.6 80 16:54 14.10.2019
3422 Ash 15 1027 82 9656 2.6 80 16:36 14.10.2019
3423 Ash 15 1027 82 9656 2.6 80 16:18 14.10.2019
3424 Ash 14 1027 82 9656 2.6 90 15:40 14.10.2019
3425 Ash 14 1027 82 9656 2.6 90 15:21 14.10.2019
3426 Ash 13 1026 82 9656 2.6 100 14:44 14.10.2019
3427 Clouds 12 1026 82 9656 2.6 100 14:25 14.10.2019
3428 Clear 12 1026 77 9656 1.5 70 13:58 14.10.2019
3429 Clear 13 1026 77 9656 1.5 70 13:40 14.10.2019
3430 Clear 13 1026 77 9656 1.5 70 13:20 14.10.2019
3431 Clear 14 1026 82 11265 2.1 300 12:41 14.10.2019
3432 Clear 14 1026 82 11265 2.1 300 12:21 14.10.2019
3433 Clear 14 1026 72 12874 3.1 310 11:55 14.10.2019
3434 Clear 14 1026 72 12874 3.1 310 11:54 14.10.2019
3435 Clear 14 1026 72 12874 3.1 310 11:36 14.10.2019
3436 Clear 14 1026 72 12874 3.1 310 11:18 14.10.2019
3437 Clouds 15 1027 59 14484 3.1 280 10:43 14.10.2019
3438 Clouds 15 1027 59 14484 3.1 280 10:21 14.10.2019
3439 Clouds 15 1027 59 14484 3.1 280 10:21 14.10.2019
3440 Clouds 16 1027 55 14484 3.6 300 09:57 14.10.2019
3441 Clouds 16 1027 55 14484 3.6 300 09:38 14.10.2019
3442 Clouds 16 1027 55 14484 3.6 300 09:19 14.10.2019
3443 Clouds 16 1027 55 12874 3.6 320 08:46 14.10.2019
3444 Clouds 17 1027 55 12874 3.6 320 08:23 14.10.2019
3445 Clouds 17 1027 63 12874 0.65 1.776 07:44 14.10.2019
3446 Clouds 17 1027 63 12874 0.65 1.776 07:21 14.10.2019
3447 Clouds 17 1026 63 12874 2.1 10 06:54 14.10.2019
3448 Clouds 17 1026 63 12874 2.1 10 06:27 14.10.2019
3449 Clouds 18 1026 59 11265 2.6 110 05:51 14.10.2019
3450 Clouds 18 1025 59 12874 2.6 80 04:50 14.10.2019
3451 Thunderstorm 18 1025 63 11265 4.6 30 03:48 14.10.2019
3452 -273 0 0 0 0 0 03:21 14.10.2019
3453 Clouds 24 1022 46 11265 6.2 120 01:36 14.10.2019
3454 Clouds 25 1022 31 11265 3.1 100 01:18 14.10.2019
3455 Clouds 25 1022 31 11265 3.1 100 00:23 14.10.2019
3456 Clouds 24 1023 33 9656 2.6 310 23:46 13.10.2019
3457 Ash 25 1023 33 9656 2.6 310 23:21 13.10.2019
3458 Ash 25 1024 38 9656 3.6 90 23:00 13.10.2019
3459 Ash 25 1024 38 9656 3.6 90 22:41 13.10.2019
3460 Ash 25 1024 38 9656 3.6 90 22:22 13.10.2019
3461 Ash 25 1024 38 9656 3.6 90 22:22 13.10.2019
3462 Ash 24 1024 38 9656 4.6 80 21:58 13.10.2019
3463 Ash 24 1024 38 9656 4.6 80 21:38 13.10.2019
3464 Ash 23 1025 40 9656 2.08 75.076 21:19 13.10.2019
3465 Ash 22 1026 46 9656 3.6 90 20:58 13.10.2019
3466 Ash 22 1026 46 9656 3.6 90 20:40 13.10.2019
3467 Ash 22 1026 46 9656 3.6 90 20:21 13.10.2019
3468 Clear 21 1027 52 8047 1.5 310 20:00 13.10.2019
3469 Clear 21 1027 52 8047 1.5 310 19:39 13.10.2019
3470 Clear 21 1027 52 8047 1.5 310 19:39 13.10.2019
3471 Clear 21 1027 52 8047 1.5 310 19:39 13.10.2019
3472 Clear 21 1027 52 8047 1.5 310 19:21 13.10.2019
3473 Haze 20 1027 52 8047 2.1 210 18:59 13.10.2019
3474 Haze 20 1027 52 8047 2.1 210 18:59 13.10.2019
3475 Haze 20 1027 52 8047 2.1 210 18:58 13.10.2019
3476 -273 0 0 0 0 0 18:58 13.10.2019
3477 Haze 20 1027 52 8047 2.1 210 18:38 13.10.2019
3478 Haze 20 1027 52 8047 2.1 210 18:38 13.10.2019
3479 Haze 19 1027 59 6437 1.19 59.89 18:19 13.10.2019
3480 Mist 18 1027 72 8047 2.1 110 17:58 13.10.2019
3481 Mist 18 1027 72 8047 2.1 110 17:39 13.10.2019
3482 Mist 18 1027 72 8047 2.1 110 17:21 13.10.2019
3483 Mist 16 1027 72 8047 1.5 110 16:43 13.10.2019
3484 Mist 15 1027 82 8047 1.19 59.89 16:19 13.10.2019
3485 Mist 14 1027 93 8047 3.6 80 15:57 13.10.2019
3486 Mist 14 1027 93 8047 3.6 80 15:57 13.10.2019
3487 Mist 14 1027 93 8047 3.6 80 15:57 13.10.2019
3488 Mist 13 1027 93 8047 3.6 80 15:38 13.10.2019
3489 Mist 13 1027 93 8047 3.6 80 15:19 13.10.2019
3490 Clouds 13 1026 87 8047 3.6 90 14:57 13.10.2019
3491 Clouds 13 1026 87 8047 3.6 90 14:38 13.10.2019
3492 Clouds 13 1026 87 8047 3.6 90 14:19 13.10.2019
3493 Clouds 12 1026 82 11265 2.1 90 13:42 13.10.2019
3494 Clouds 12 1026 82 11265 2.1 90 13:23 13.10.2019
3495 Clouds 12 1026 82 11265 2.1 90 13:23 13.10.2019
3496 Clouds 12 1026 87 12874 2.1 50 12:59 13.10.2019
3497 Clouds 12 1026 87 12874 2.1 50 12:39 13.10.2019
3498 Clouds 12 1026 87 12874 2.1 50 12:21 13.10.2019
3499 Clouds 12 1026 82 16093 2.6 100 11:59 13.10.2019
3500 Clouds 13 1026 82 16093 2.6 100 11:39 13.10.2019
3501 Clouds 13 1026 82 16093 2.6 100 11:20 13.10.2019
3502 Clear 13 1026 72 16093 2.6 90 10:57 13.10.2019
3503 Clear 13 1026 72 16093 2.6 90 10:38 13.10.2019
3504 Clear 13 1026 72 16093 2.6 90 10:20 13.10.2019
3505 Clear 12 1026 76 16093 2.1 80 09:39 13.10.2019
3506 Clear 14 1027 67 16093 2.6 310 09:21 13.10.2019
3507 Clouds 14 1027 67 19312 3.6 310 08:44 13.10.2019
3508 Clouds 14 1027 67 19312 3.6 310 08:25 13.10.2019
3509 Clouds 14 1027 67 19312 3.1 290 07:52 13.10.2019
3510 Clouds 14 1027 67 19312 3.1 290 07:33 13.10.2019
3511 Clouds 15 1026 59 19312 3.1 340 06:53 13.10.2019
3512 Clouds 16 1026 59 19312 3.1 340 06:24 13.10.2019
3513 Clouds 18 1025 68 19312 4.1 70 05:19 13.10.2019
3514 Clouds 18 1025 56 16093 3.1 120 04:34 13.10.2019
3515 Clouds 18 1025 56 16093 3.1 120 04:34 13.10.2019
3516 Clouds 22 1024 35 16093 4.1 40 02:53 13.10.2019
3517 Clouds 22 1024 35 16093 4.1 40 02:30 13.10.2019
3518 Clouds 23 1024 38 12874 5.7 50 01:36 13.10.2019
3519 Clouds 23 1024 38 12874 5.7 50 01:36 13.10.2019
3520 Clouds 24 1024 38 12874 5.1 70 00:55 13.10.2019
3521 Clouds 24 1024 38 12874 5.1 70 00:37 13.10.2019
3522 Clouds 24 1024 38 12874 5.1 70 00:37 13.10.2019
3523 Clouds 24 1024 38 12874 5.1 70 00:18 13.10.2019
3524 Clouds 25 1024 38 12874 3.6 68.364 23:41 12.10.2019
3525 Clouds 25 1024 38 12874 3.6 68.364 23:22 12.10.2019
3526 Clouds 24 1025 38 12874 3.1 150 22:58 12.10.2019
3527 Clouds 24 1025 38 12874 3.1 150 22:58 12.10.2019
3528 Clouds 24 1025 38 12874 3.1 150 22:40 12.10.2019
3529 Clouds 24 1025 38 12874 3.1 150 22:40 12.10.2019
3530 Clouds 24 1025 38 12874 3.1 150 22:22 12.10.2019
3531 Clouds 23 1026 40 12874 2.1 260 21:57 12.10.2019
3532 Clouds 23 1026 40 12874 2.1 260 21:39 12.10.2019
3533 Clouds 23 1026 40 12874 2.1 260 21:20 12.10.2019
3534 Clouds 22 1026 43 12874 3.1 220 20:46 12.10.2019
3535 Clouds 22 1027 49 12874 2.6 340 20:28 12.10.2019
3536 Clouds 22 1028 49 12874 1.5 240 19:57 12.10.2019
3537 Clouds 21 1028 49 12874 1.5 240 19:36 12.10.2019
3538 Clouds 21 1028 49 12874 1.5 240 19:18 12.10.2019
3539 Clouds 19 1028 55 16093 1.5 240 18:41 12.10.2019
3540 Mist 20 1028 55 16093 1.5 240 18:23 12.10.2019
3541 Mist 18 1027 59 16093 2.6 40 17:45 12.10.2019
3542 Mist 18 1027 59 16093 2.6 40 17:21 12.10.2019
3543 Mist 16 1027 67 16093 2.6 360 16:58 12.10.2019
3544 Mist 16 1027 67 16093 2.6 360 16:58 12.10.2019
3545 Mist 16 1027 67 16093 2.6 360 16:40 12.10.2019
3546 Mist 16 1027 67 16093 2.6 360 16:19 12.10.2019
3547 Mist 15 1026 72 12874 3.1 350 15:45 12.10.2019
3548 Fog 16 1026 72 12874 3.1 350 15:26 12.10.2019
3549 Fog 16 1026 72 14484 3.1 20 14:59 12.10.2019
3550 Fog 16 1026 72 14484 3.1 20 14:38 12.10.2019
3551 Fog 16 1026 72 14484 3.1 20 14:20 12.10.2019
3552 Clouds 15 1026 72 14484 2.6 320 13:49 12.10.2019
3553 Clouds 15 1026 72 14484 2.6 320 13:31 12.10.2019
3554 Clouds 15 1025 72 14484 4.1 20 12:55 12.10.2019
3555 Clouds 15 1025 72 14484 4.1 20 12:37 12.10.2019
3556 Clouds 15 1025 72 14484 4.1 20 12:18 12.10.2019
3557 Clouds 15 1025 63 12874 2.6 10 11:40 12.10.2019
3558 Clouds 16 1025 63 12874 2.6 10 11:22 12.10.2019
3559 Clouds 15 1026 63 11265 3.6 20 10:57 12.10.2019
3560 Clouds 15 1026 63 11265 3.6 20 10:37 12.10.2019
3561 Clouds 16 1026 63 11265 3.6 20 10:19 12.10.2019
3562 -273 0 0 0 0 0 09:56 12.10.2019
3563 Clouds 15 1026 63 11265 3.1 360 09:56 12.10.2019
3564 Clouds 15 1026 63 11265 3.1 360 09:37 12.10.2019
3565 Clouds 16 1026 63 11265 3.1 360 09:19 12.10.2019
3566 Clouds 15 1027 67 11265 5.1 360 08:42 12.10.2019
3567 Clouds 16 1027 67 11265 5.1 360 08:22 12.10.2019
3568 Clouds 16 1027 68 11265 5.1 350 07:40 12.10.2019
3569 Clouds 16 1027 68 11265 5.1 350 07:22 12.10.2019
3570 Rain 16 1026 63 12874 7.2 20 05:54 12.10.2019
3571 Rain 17 1026 63 12874 7.2 20 05:25 12.10.2019
3572 Thunderstorm 18 1025 59 11265 5.1 20 04:29 12.10.2019
3573 Clouds 19 1024 60 8047 7.2 30 03:46 12.10.2019
3574 Thunderstorm 20 1024 72 4828 8.7 90 02:37 12.10.2019
3575 Rain 22 1022 63 8047 10.3 60 01:31 12.10.2019
3576 Clouds 25 1022 28 11265 6.7 30 00:44 12.10.2019
3577 Clouds 26 1022 28 11265 6.7 30 00:24 12.10.2019
3578 Clouds 25 1022 29 9656 3.6 310 23:41 11.10.2019
3579 Clouds 25 1022 29 9656 3.6 310 23:21 11.10.2019
3580 Clouds 25 1023 33 9656 2.1 320 22:59 11.10.2019
3581 Clouds 25 1023 33 9656 2.1 320 22:37 11.10.2019
3582 Clouds 25 1023 33 9656 2.1 320 22:37 11.10.2019
3583 Clouds 25 1023 33 9656 2.1 320 22:18 11.10.2019
3584 Clouds 26 1024 33 9656 6.2 340 21:40 11.10.2019
3585 Clouds 24 1024 33 9656 6.2 340 21:21 11.10.2019
3586 Clouds 23 1025 44 9656 3.1 290 20:54 11.10.2019
3587 Clouds 23 1025 44 9656 3.1 290 20:54 11.10.2019
3588 Clouds 23 1025 44 9656 3.1 290 20:36 11.10.2019
3589 Clouds 23 1025 44 9656 3.1 290 20:18 11.10.2019
3590 Clouds 22 1026 49 9656 3.1 310 19:54 11.10.2019
3591 Clouds 22 1026 49 9656 3.1 310 19:54 11.10.2019
3592 Clouds 22 1026 49 9656 3.1 310 19:36 11.10.2019
3593 Clouds 22 1026 49 9656 3.1 310 19:18 11.10.2019
3594 Clouds 22 1026 49 9656 3.1 310 19:18 11.10.2019
3595 Clouds 20 1027 56 9656 1.5 30 18:39 11.10.2019
3596 Clouds 20 1027 56 9656 1.5 30 18:19 11.10.2019
3597 Drizzle 19 1027 63 9656 0.84 35.411 17:59 11.10.2019
3598 Drizzle 18 1027 63 9656 0.84 35.411 17:38 11.10.2019
3599 Drizzle 18 1027 63 9656 0.84 35.411 17:19 11.10.2019
3600 Rain 17 1027 63 9656 0.84 35.411 16:59 11.10.2019
3601 Rain 17 1027 63 9656 0.84 35.411 16:39 11.10.2019
3602 Rain 17 1027 63 9656 0.84 35.411 16:39 11.10.2019
3603 Rain 17 1027 63 9656 0.84 35.411 16:39 11.10.2019
3604 Rain 17 1027 72 9656 2.1 70 16:19 11.10.2019
3605 Fog 15 1026 77 9656 3.1 60 15:55 11.10.2019
3606 Fog 15 1026 77 9656 3.1 60 15:36 11.10.2019
3607 Fog 15 1026 77 9656 3.1 60 15:18 11.10.2019
3608 Fog 15 1026 77 9656 3.1 60 15:18 11.10.2019
3609 Thunderstorm 15 1025 77 11265 2.1 80 14:42 11.10.2019
3610 Thunderstorm 15 1025 77 11265 2.1 80 14:23 11.10.2019
3611 Clouds 14 1025 77 11265 1.5 60 13:47 11.10.2019
3612 Clouds 14 1025 77 11265 1.5 60 13:26 11.10.2019
3613 Clouds 14 1025 82 12874 2.1 60 12:58 11.10.2019
3614 Clouds 14 1025 82 12874 2.1 60 12:40 11.10.2019
3615 Clouds 14 1025 82 12874 2.1 60 12:21 11.10.2019
3616 Clouds 14 1025 77 12874 1 30 11:59 11.10.2019
3617 Clouds 14 1025 77 12874 1 30 11:39 11.10.2019
3618 Clouds 14 1025 77 12874 1 30 11:21 11.10.2019
3619 Clouds 15 1025 72 14484 3.1 40 10:56 11.10.2019
3620 Clouds 15 1025 72 14484 3.1 40 10:37 11.10.2019
3621 Clouds 16 1025 72 14484 3.1 40 10:18 11.10.2019
3622 Rain 16 1025 63 16093 1.38 293.962 09:42 11.10.2019
3623 Rain 16 1025 63 16093 0.65 212.857 09:21 11.10.2019
3624 Clouds 16 1025 72 17702 2.1 350 08:59 11.10.2019
3625 Clouds 16 1025 72 17702 2.1 350 08:39 11.10.2019
3626 Clouds 17 1025 72 17702 2.1 350 08:20 11.10.2019
3627 Clouds 17 1028 87 8047 3.1 300 07:54 11.10.2019
3628 Rain 17 1025 68 17702 3.1 280 07:34 11.10.2019
3629 Clouds 17 1026 68 16093 2.6 30 06:50 11.10.2019
3630 Clouds 17 1026 68 16093 2.6 30 06:25 11.10.2019
3631 Clouds 18 1025 56 16093 4.1 60 05:48 11.10.2019
3632 Clouds 18 1025 56 16093 4.1 60 05:30 11.10.2019
3633 Clouds 19 1024 49 14484 4.6 110 04:58 11.10.2019
3634 Clouds 18 1023 49 14484 2.1 330 03:40 11.10.2019
3635 Clouds 23 1021 38 11265 5.7 120 01:26 11.10.2019
3636 Thunderstorm 24 1021 36 11265 6.2 130 00:41 11.10.2019
3637 Thunderstorm 23 1021 49 9656 3.1 50 00:20 11.10.2019
3638 Rain 23 1022 60 8047 5.7 50 23:41 10.10.2019
3639 Rain 23 1022 60 8047 5.7 50 23:20 10.10.2019
3640 Rain 24 1022 38 9656 4.1 110 22:56 10.10.2019
3641 Clouds 24 1023 36 9656 3.6 90 22:36 10.10.2019
3642 Clouds 25 1023 36 9656 3.6 90 22:18 10.10.2019
3643 Clouds 25 1023 34 9656 1.5 230 21:42 10.10.2019
3644 Clouds 25 1023 34 9656 1.5 230 21:42 10.10.2019
3645 Clouds 24 1024 38 9656 4.1 110 21:22 10.10.2019
3646 Clouds 24 1024 38 8047 2.6 170 20:59 10.10.2019
3647 Clouds 23 1024 38 8047 2.6 170 20:40 10.10.2019
3648 Clouds 23 1025 46 6437 1.5 40 20:20 10.10.2019
3649 Clouds 22 1026 49 8047 2.1 30 19:57 10.10.2019
3650 Clouds 22 1026 49 8047 2.1 30 19:39 10.10.2019
3651 Clouds 21 1027 60 8047 2.1 130 19:19 10.10.2019
3652 Clouds 19 1027 63 8047 2.1 30 18:42 10.10.2019
3653 Clouds 19 1027 63 8047 2.1 30 18:21 10.10.2019
3654 Haze 18 1027 63 8047 1 160 17:59 10.10.2019
3655 Haze 18 1027 63 8047 1 160 17:40 10.10.2019
3656 Haze 18 1027 72 8047 3.1 80 17:19 10.10.2019
3657 Haze 17 1029 77 4828 2.1 90 16:57 10.10.2019
3658 Haze 16 1027 72 9656 2.6 90 16:38 10.10.2019
3659 Haze 16 1027 72 9656 2.6 90 16:20 10.10.2019
3660 Haze 14 1026 82 9656 2.6 60 15:42 10.10.2019
3661 Haze 14 1026 82 9656 2.6 60 15:23 10.10.2019
3662 Rain 15 1026 82 8047 2.1 80 14:59 10.10.2019
3663 Rain 15 1026 82 8047 2.1 80 14:37 10.10.2019
3664 Rain 15 1026 82 8047 2.1 80 14:19 10.10.2019
3665 Clouds 14 1025 82 8047 3.1 90 13:58 10.10.2019
3666 Clouds 14 1025 82 8047 3.1 90 13:39 10.10.2019
3667 Clouds 14 1025 82 8047 3.1 90 13:18 10.10.2019
3668 Rain 14 1025 82 8047 3.1 90 12:42 10.10.2019
3669 Clouds 14 1025 77 8047 1.5 260 12:21 10.10.2019
3670 Clouds 14 1025 72 9656 0.93 44.344 11:58 10.10.2019
3671 Clouds 14 1025 72 9656 0.93 44.344 11:40 10.10.2019
3672 Clouds 14 1025 72 9656 0.93 44.344 11:19 10.10.2019
3673 Clouds 14 1025 72 9656 1.5 80 10:47 10.10.2019
3674 Clouds 14 1025 72 9656 1.5 80 10:47 10.10.2019
3675 Clouds 14 1025 72 9656 1.5 80 10:28 10.10.2019
3676 Clouds 14 1025 72 9656 1.5 80 10:28 10.10.2019
3677 Clouds 15 1025 67 11265 2.1 310 09:59 10.10.2019
3678 Clouds 15 1025 67 11265 2.1 310 09:41 10.10.2019
3679 Clouds 15 1025 67 11265 2.1 310 09:23 10.10.2019
3680 Clouds 15 1026 67 11265 2.6 280 08:59 10.10.2019
3681 Clouds 15 1026 67 11265 2.6 280 08:40 10.10.2019
3682 Clouds 16 1026 67 11265 2.6 280 08:20 10.10.2019
3683 Clouds 16 1026 63 12874 2.6 20 07:47 10.10.2019
3684 Clouds 16 1026 63 12874 2.6 20 07:26 10.10.2019
3685 Clouds 16 1025 63 12874 3.6 20 06:55 10.10.2019
3686 Clouds 17 1025 63 12874 3.6 20 06:36 10.10.2019
3687 Clouds 17 1025 59 12874 4.1 360 05:39 10.10.2019
3688 Clouds 17 1025 59 12874 4.1 360 05:18 10.10.2019
3689 Rain 18 1023 60 16093 5.1 20 04:34 10.10.2019
3690 Thunderstorm 20 1022 63 9656 5.1 300 02:29 10.10.2019
3691 Rain 22 1022 46 12874 4.1 310 01:37 10.10.2019
3692 Ash 22 1022 49 12874 3.6 300 01:18 10.10.2019
3693 Rain 23 1022 35 11265 4.6 360 00:29 10.10.2019
3694 Ash 25 1022 33 14484 2.6 110 23:42 09.10.2019
3695 Ash 25 1022 33 14484 2.6 110 23:24 09.10.2019
3696 Clouds 24 1024 36 14484 4.1 60 22:59 09.10.2019
3697 Clouds 24 1024 36 14484 4.1 60 22:41 09.10.2019
3698 Clouds 24 1024 36 14484 4.1 60 22:22 09.10.2019
3699 Clouds 23 1025 38 16093 1.5 210 21:56 09.10.2019
3700 Clouds 23 1025 38 16093 1.5 210 21:56 09.10.2019
3701 Clouds 23 1025 38 16093 1.5 210 21:38 09.10.2019
3702 Clouds 23 1025 38 16093 1.5 210 21:38 09.10.2019
3703 Clouds 23 1025 38 16093 1.5 210 21:18 09.10.2019
3704 Clouds 22 1027 43 16093 3.1 90 20:54 09.10.2019
3705 Clouds 22 1027 43 16093 3.1 90 20:36 09.10.2019
3706 Clouds 22 1027 43 16093 3.1 90 20:18 09.10.2019
3707 Clouds 22 1027 43 16093 3.1 90 20:18 09.10.2019
3708 Clouds 22 1027 43 16093 3.1 90 20:18 09.10.2019
3709 Clouds 21 1027 45 16093 1.5 140 19:43 09.10.2019
3710 Clouds 21 1027 45 16093 1.5 140 19:22 09.10.2019
3711 Clouds 19 1028 48 16093 1.5 50 18:39 09.10.2019
3712 Clouds 19 1028 48 16093 1.5 50 18:21 09.10.2019
3713 Haze 18 1028 52 16093 3.1 20 17:58 09.10.2019
3714 Haze 18 1028 52 16093 3.1 20 17:40 09.10.2019
3715 Haze 18 1028 52 16093 3.1 20 17:22 09.10.2019
3716 Haze 15 1028 63 16093 3.6 20 16:57 09.10.2019
3717 Haze 15 1028 63 16093 3.6 20 16:39 09.10.2019
3718 Haze 15 1028 63 16093 3.6 20 16:20 09.10.2019
3719 Haze 15 1028 63 16093 3.6 20 16:20 09.10.2019
3720 Haze 14 1027 67 16093 3.6 360 15:56 09.10.2019
3721 Haze 14 1027 67 16093 3.6 360 15:37 09.10.2019
3722 Haze 14 1027 67 16093 3.6 360 15:37 09.10.2019
3723 Haze 14 1027 67 16093 3.6 360 15:18 09.10.2019
3724 Clouds 13 1027 67 19312 4.1 10 14:45 09.10.2019
3725 Clouds 12 1027 67 19312 4.1 10 14:19 09.10.2019
3726 Clouds 12 1026 67 19312 4.1 350 13:59 09.10.2019
3727 Clouds 13 1026 67 19312 4.1 350 13:38 09.10.2019
3728 Clouds 13 1026 67 19312 4.1 350 13:18 09.10.2019
3729 Clouds 12 1026 72 19312 3.6 350 12:44 09.10.2019
3730 Clouds 12 1026 72 19312 3.6 350 12:44 09.10.2019
3731 Clouds 13 1026 72 19312 3.6 350 12:23 09.10.2019
3732 Clouds 12 1026 67 19312 3.1 340 11:58 09.10.2019
3733 Clouds 12 1026 67 19312 3.1 340 11:40 09.10.2019
3734 Clouds 13 1026 67 19312 3.1 340 11:20 09.10.2019
3735 Clouds 13 1027 72 16093 2.1 300 10:58 09.10.2019
3736 Clouds 13 1027 72 16093 2.1 300 10:40 09.10.2019
3737 Clouds 13 1027 72 16093 2.1 300 10:18 09.10.2019
3738 Clouds 13 1027 77 16093 3.6 300 09:43 09.10.2019
3739 Clouds 13 1027 77 16093 3.6 300 09:20 09.10.2019
3740 Clouds 13 1027 77 16093 4.1 300 08:57 09.10.2019
3741 Clouds 14 1027 77 16093 4.1 300 08:37 09.10.2019
3742 Clouds 14 1027 77 16093 4.1 300 08:18 09.10.2019
3743 Clouds 14 1028 77 16093 4.1 300 07:46 09.10.2019
3744 Clouds 14 1028 77 16093 4.1 300 07:24 09.10.2019
3745 Clouds 14 1028 77 16093 4.1 300 07:24 09.10.2019
3746 Clouds 15 1028 67 16093 3.1 360 06:54 09.10.2019
3747 Clouds 15 1028 67 16093 3.1 360 06:20 09.10.2019
3748 Clouds 16 1027 63 16093 3.1 10 05:46 09.10.2019
3749 Clouds 16 1027 67 16093 4.1 340 04:41 09.10.2019
3750 Clouds 17 1026 63 16093 2.1 340 03:24 09.10.2019
3751 Clouds 20 1025 59 16093 3.6 320 01:48 09.10.2019
3752 Clouds 20 1025 59 16093 3.6 320 01:22 09.10.2019
3753 Clouds 20 1025 63 16093 4.1 300 00:58 09.10.2019
3754 Clouds 20 1025 63 16093 4.1 300 00:40 09.10.2019
3755 Clouds 20 1025 63 16093 4.1 300 00:21 09.10.2019
3756 Clouds 17 1025 67 16093 4.6 310 23:57 08.10.2019
3757 Clouds 17 1025 67 16093 4.6 310 23:36 08.10.2019
3758 Clouds 20 1025 67 16093 4.6 310 23:18 08.10.2019
3759 Clouds 20 1026 63 12874 3.6 330 22:39 08.10.2019
3760 Clouds 20 1026 63 12874 3.6 330 22:20 08.10.2019
3761 Clouds 20 1026 63 12874 3.6 330 22:20 08.10.2019
3762 Clouds 20 1026 63 12874 3.6 330 22:20 08.10.2019
3763 Clouds 20 1027 59 11265 4.1 340 21:57 08.10.2019
3764 Clouds 20 1027 59 11265 4.1 340 21:39 08.10.2019
3765 Clouds 20 1027 59 11265 4.1 340 21:19 08.10.2019
3766 Clouds 19 1028 63 11265 4.6 40 20:57 08.10.2019
3767 Clouds 19 1028 63 11265 4.6 40 20:39 08.10.2019
3768 Clouds 19 1028 63 11265 4.6 40 20:21 08.10.2019
3769 Clouds 17 1028 59 12874 2.1 360 19:58 08.10.2019
3770 Clouds 17 1028 59 12874 2.1 360 19:58 08.10.2019
3771 Clouds 17 1028 59 12874 2.1 360 19:58 08.10.2019
3772 Clouds 17 1028 59 12874 2.1 360 19:40 08.10.2019
3773 Clouds 19 1028 59 12874 2.1 360 19:21 08.10.2019
3774 Clouds 19 1028 59 12874 2.1 360 19:21 08.10.2019
3775 Clouds 18 1029 63 12874 4.1 20 18:55 08.10.2019
3776 Clouds 18 1029 63 12874 4.1 20 18:36 08.10.2019
3777 Clouds 17 1029 63 12874 4.1 20 18:18 08.10.2019
3778 Clouds 18 1029 63 8047 3.6 280 17:40 08.10.2019
3779 Clouds 17 1028 62 14484 4.1 20 17:21 08.10.2019
3780 Clouds 13 1028 62 16093 4.1 360 16:59 08.10.2019
3781 Clouds 13 1028 62 16093 4.1 360 16:40 08.10.2019
3782 Clouds 13 1028 62 16093 4.1 360 16:21 08.10.2019
3783 Clouds 14 1027 62 16093 3.6 10 15:41 08.10.2019
3784 Clouds 14 1027 62 16093 3.6 10 15:22 08.10.2019
3785 Clouds 14 1027 62 16093 3.6 10 15:22 08.10.2019
3786 Clouds 15 1027 67 16093 4.1 40 14:58 08.10.2019
3787 Clouds 14 1027 67 16093 4.1 40 14:39 08.10.2019
3788 Clouds 14 1027 67 16093 4.1 40 14:21 08.10.2019
3789 Clouds 14 1027 67 16093 4.1 350 13:57 08.10.2019
3790 Clouds 14 1027 67 16093 4.1 350 13:38 08.10.2019
3791 Clouds 14 1027 67 16093 4.1 350 13:19 08.10.2019
3792 Clouds 14 1027 67 16093 6.2 20 12:58 08.10.2019
3793 Clouds 14 1027 67 16093 6.2 20 12:37 08.10.2019
3794 Clouds 14 1027 67 16093 6.2 20 12:18 08.10.2019
3795 Clouds 14 1027 72 16093 2.1 20 11:42 08.10.2019
3796 Clouds 14 1027 72 16093 2.1 20 11:24 08.10.2019
3797 Clouds 14 1027 72 12874 5.1 40 10:56 08.10.2019
3798 Clouds 14 1027 72 12874 5.1 40 10:37 08.10.2019
3799 Clouds 14 1027 72 12874 5.1 40 10:19 08.10.2019
3800 Haze 14 1027 72 8047 2.6 350 09:55 08.10.2019
3801 Haze 14 1027 72 8047 2.6 350 09:37 08.10.2019
3802 Haze 14 1027 72 8047 2.6 350 09:19 08.10.2019
3803 Clouds 15 1028 63 16093 3.6 10 08:42 08.10.2019
3804 Clouds 15 1028 63 16093 3.6 10 08:23 08.10.2019
3805 Clouds 17 1028 63 16093 3.1 360 07:44 08.10.2019
3806 Clouds 17 1028 63 16093 3.1 360 07:21 08.10.2019
3807 Clouds 17 1028 63 16093 3.1 360 07:21 08.10.2019
3808 Clouds 16 1028 63 14484 5.1 10 06:49 08.10.2019
3809 Clouds 17 1028 63 14484 5.1 10 06:28 08.10.2019
3810 Clouds 16 1028 63 12874 6.2 10 05:45 08.10.2019
3811 Rain 17 1028 59 12874 5.1 10 05:25 08.10.2019
3812 Clouds 18 1026 55 16093 9.3 20 03:33 08.10.2019
3813 Clouds 20 1025 48 16093 8.2 10 02:48 08.10.2019
3814 Clouds 21 1025 40 16093 8.2 10 02:29 08.10.2019
3815 Clouds 23 1024 33 16093 6.7 10 01:43 08.10.2019
3816 Clouds 22 1024 33 16093 6.7 10 01:25 08.10.2019
3817 Clouds 24 1024 31 16093 3.94 32.283 00:38 08.10.2019
3818 Clouds 24 1024 31 16093 5.13 34.108 00:19 08.10.2019
3819 Clouds 24 1024 31 16093 6.2 50 23:39 07.10.2019
3820 Clouds 24 1024 31 16093 6.2 50 23:19 07.10.2019
3821 Clouds 23 1025 35 16093 6.2 40 22:55 07.10.2019
3822 Clouds 23 1025 35 16093 6.2 40 22:55 07.10.2019
3823 Clouds 23 1025 35 16093 6.2 40 22:37 07.10.2019
3824 Clouds 23 1025 35 16093 6.2 40 22:19 07.10.2019
3825 Clouds 22 1026 40 14484 5.1 350 21:55 07.10.2019
3826 Clouds 22 1026 40 14484 5.1 350 21:37 07.10.2019
3827 Clouds 22 1026 40 14484 5.1 350 21:18 07.10.2019
3828 Clouds 21 1027 42 14484 4.1 40 20:56 07.10.2019
3829 Clouds 21 1027 42 14484 4.1 40 20:38 07.10.2019
3830 Clouds 21 1027 42 14484 4.1 40 20:38 07.10.2019
3831 Clouds 21 1027 42 14484 4.1 40 20:19 07.10.2019
3832 Clouds 20 1028 48 14484 5.1 30 19:54 07.10.2019
3833 Clouds 20 1028 48 14484 5.1 30 19:36 07.10.2019
3834 Clouds 20 1028 48 14484 5.1 30 19:18 07.10.2019
3835 Clouds 19 1028 45 12874 5.7 30 18:43 07.10.2019
3836 Clouds 19 1028 45 12874 5.7 30 18:19 07.10.2019
3837 Clouds 17 1028 59 12874 3.1 50 17:59 07.10.2019
3838 Clouds 17 1028 59 12874 3.1 50 17:41 07.10.2019
3839 Clouds 17 1028 59 12874 3.1 50 17:19 07.10.2019
3840 Ash 14 1028 72 12874 2.1 80 16:46 07.10.2019
3841 Ash 14 1028 72 12874 2.1 80 16:46 07.10.2019
3842 Ash 14 1028 72 12874 2.1 80 16:28 07.10.2019
3843 Ash 12 1027 82 12874 2.1 80 15:59 07.10.2019
3844 Ash 12 1027 82 12874 2.1 80 15:40 07.10.2019
3845 Ash 12 1027 82 12874 2.1 80 15:21 07.10.2019
3846 Mist 12 1027 76 12874 3.1 310 14:42 07.10.2019
3847 Mist 11 1027 76 12874 3.1 310 14:23 07.10.2019
3848 Clouds 11 1027 76 12874 2.6 310 13:45 07.10.2019
3849 Clouds 12 1027 76 12874 2.6 310 13:21 07.10.2019
3850 Clouds 11 1026 76 16093 2.6 310 12:59 07.10.2019
3851 Clouds 11 1026 76 16093 2.6 310 12:40 07.10.2019
3852 Clouds 11 1026 76 16093 2.6 310 12:40 07.10.2019
3853 Clouds 11 1026 76 16093 2.6 310 12:21 07.10.2019
3854 Clouds 11 1026 76 16093 2.6 310 12:21 07.10.2019
3855 Clouds 11 1026 76 16093 2.6 310 12:21 07.10.2019
3856 Clouds 12 1026 76 16093 1.5 310 11:59 07.10.2019
3857 Clouds 12 1026 76 16093 1.5 310 11:59 07.10.2019
3858 Clouds 11 1026 76 16093 1.5 310 11:40 07.10.2019
3859 Clouds 12 1026 76 16093 1.5 310 11:21 07.10.2019
3860 Clouds 12 1026 76 16093 1.5 310 11:21 07.10.2019
3861 Clouds 12 1027 71 16093 2.6 340 10:57 07.10.2019
3862 Clouds 12 1027 71 16093 2.6 340 10:39 07.10.2019
3863 Clouds 12 1027 71 16093 2.6 340 10:20 07.10.2019
3864 Clouds 13 1027 67 16093 2.6 360 09:39 07.10.2019
3865 Clouds 13 1027 67 16093 2.6 360 09:39 07.10.2019
3866 Clouds 13 1027 67 16093 2.6 360 09:21 07.10.2019
3867 Clear 12 1029 76 11265 2.6 280 08:44 07.10.2019
3868 Clear 14 1029 76 11265 2.6 280 08:21 07.10.2019
3869 Clouds 14 1028 63 16093 3.1 360 07:56 07.10.2019
3870 Clouds 14 1028 63 16093 3.1 360 07:36 07.10.2019
3871 Clouds 14 1028 63 16093 3.1 360 07:18 07.10.2019
3872 Clouds 15 1028 59 16093 5.1 30 06:43 07.10.2019
3873 Clouds 15 1028 59 16093 5.1 30 06:20 07.10.2019
3874 Clouds 15 1027 59 16093 7.2 20 05:27 07.10.2019
3875 Clouds 16 1026 55 16093 7.7 40 04:54 07.10.2019
3876 Clouds 17 1025 55 16093 7.7 40 03:48 07.10.2019
3877 Clouds 17 1025 55 16093 7.7 40 03:48 07.10.2019
3878 Clouds 18 1025 49 16093 8.7 50 03:30 07.10.2019
3879 Clouds 21 1024 49 16093 9.8 60 02:39 07.10.2019
3880 Clouds 22 1023 35 14484 7.2 10 02:19 07.10.2019
3881 Clouds 24 1023 29 12874 6.2 20 01:24 07.10.2019
3882 Clouds 24 1023 25 12874 3.1 340 00:53 07.10.2019
3883 Clouds 24 1023 25 12874 3.1 340 00:26 07.10.2019
3884 Clouds 24 1024 29 12874 4.6 80 23:59 06.10.2019
3885 Clouds 24 1024 29 12874 4.6 80 23:40 06.10.2019
3886 Clouds 24 1024 29 12874 4.6 80 23:20 06.10.2019
3887 Clouds 24 1024 31 12874 5.1 30 22:56 06.10.2019
3888 Clouds 24 1024 31 12874 5.1 30 22:37 06.10.2019
3889 Clouds 24 1024 31 12874 5.1 30 22:19 06.10.2019
3890 Clouds 22 1026 40 12874 5.1 60 21:55 06.10.2019
3891 Clouds 22 1026 40 12874 5.1 60 21:36 06.10.2019
3892 Clouds 22 1026 40 12874 5.1 60 21:18 06.10.2019
3893 Clouds 22 1026 35 12874 3.1 20 20:54 06.10.2019
3894 Clouds 22 1027 45 12874 3.6 40 20:36 06.10.2019
3895 Clouds 22 1027 45 12874 3.6 40 20:36 06.10.2019
3896 Clouds 22 1027 45 12874 3.6 40 20:36 06.10.2019
3897 Clouds 21 1027 45 12874 3.6 40 20:18 06.10.2019
3898 Clouds 20 1028 55 12874 2.5 38.137 19:55 06.10.2019
3899 Clouds 20 1028 55 12874 2.5 38.137 19:55 06.10.2019
3900 Clouds 20 1028 55 12874 2.5 38.137 19:36 06.10.2019
3901 Clouds 20 1028 55 12874 2.5 38.137 19:18 06.10.2019
3902 Clouds 17 1029 59 12874 1.5 140 18:55 06.10.2019
3903 Clouds 17 1029 59 12874 1.5 140 18:55 06.10.2019
3904 Clouds 17 1029 59 12874 1.5 140 18:36 06.10.2019
3905 Clouds 18 1029 59 12874 1.5 140 18:18 06.10.2019
3906 Clouds 18 1029 59 12874 1.5 140 18:18 06.10.2019
3907 Clouds 17 1029 67 14484 2.6 70 17:42 06.10.2019
3908 Clouds 16 1029 67 14484 2.6 70 17:20 06.10.2019
3909 Haze 15 1028 77 14484 3.6 80 16:55 06.10.2019
3910 Haze 15 1028 77 14484 3.6 80 16:55 06.10.2019
3911 Haze 15 1028 77 14484 3.6 80 16:37 06.10.2019
3912 Haze 15 1028 77 14484 3.6 80 16:18 06.10.2019
3913 Mist 13 1027 82 12874 2.1 70 15:42 06.10.2019
3914 Mist 13 1027 82 12874 2.1 70 15:42 06.10.2019
3915 Mist 13 1027 82 12874 2.1 70 15:21 06.10.2019
3916 Mist 13 1027 76 9656 1 80 14:44 06.10.2019
3917 Mist 12 1027 76 9656 1 80 14:26 06.10.2019
3918 Mist 11 1027 71 9656 0.9 65.029 13:59 06.10.2019
3919 Mist 11 1027 71 9656 0.9 65.029 13:40 06.10.2019
3920 Mist 12 1027 71 9656 0.89 61.096 13:21 06.10.2019
3921 Clouds 12 1027 72 11265 2.1 330 12:58 06.10.2019
3922 Clouds 13 1027 72 11265 2.1 330 12:39 06.10.2019
3923 Clouds 13 1027 72 11265 2.1 330 12:21 06.10.2019
3924 Clouds 13 1027 67 11265 2.6 360 11:58 06.10.2019
3925 Clouds 13 1027 67 11265 2.6 360 11:39 06.10.2019
3926 Clouds 13 1027 67 11265 2.6 360 11:20 06.10.2019
3927 Clouds 13 1027 67 11265 3.1 20 10:54 06.10.2019
3928 Clouds 13 1027 67 11265 3.1 20 10:36 06.10.2019
3929 Clouds 13 1027 67 11265 3.1 20 10:18 06.10.2019
3930 Clouds 14 1027 63 12874 3.6 20 09:40 06.10.2019
3931 Clouds 14 1027 63 12874 3.6 20 09:19 06.10.2019
3932 Clouds 14 1027 63 12874 3.6 20 09:19 06.10.2019
3933 Clouds 14 1028 63 14484 3.1 350 08:47 06.10.2019
3934 Clouds 14 1028 63 14484 3.1 350 08:21 06.10.2019
3935 Clouds 15 1028 55 14484 6.2 340 07:57 06.10.2019
3936 Clouds 15 1028 55 14484 6.2 340 07:38 06.10.2019
3937 Clouds 15 1028 59 14484 3.6 350 06:39 06.10.2019
3938 Clouds 16 1027 63 14484 4.6 360 05:36 06.10.2019
3939 Clouds 17 1026 59 12874 8.2 40 04:29 06.10.2019
3940 Clouds 21 1024 52 12874 7.7 60 02:48 06.10.2019
3941 Clouds 21 1024 43 11265 6.7 40 02:28 06.10.2019
3942 Clouds 22 1023 31 11265 6.2 30 01:46 06.10.2019
3943 Clouds 23 1023 31 11265 6.2 30 01:27 06.10.2019
3944 Clouds 23 1023 31 11265 6.2 30 01:27 06.10.2019
3945 Clouds 24 1023 31 11265 3.1 330 00:59 06.10.2019
3946 Clouds 24 1023 31 11265 3.1 330 00:29 06.10.2019
3947 Clouds 24 1024 33 9656 4.1 20 23:46 05.10.2019
3948 Clouds 24 1024 33 9656 4.1 20 23:23 05.10.2019
3949 Clouds 24 1025 38 9656 2.6 270 22:59 05.10.2019
3950 Clouds 23 1025 38 9656 2.6 270 22:40 05.10.2019
3951 Clouds 23 1025 38 9656 2.6 270 22:21 05.10.2019
3952 Clouds 23 1026 35 9656 3.1 350 21:57 05.10.2019
3953 Clouds 23 1026 35 9656 3.1 350 21:57 05.10.2019
3954 Clouds 23 1026 35 9656 3.1 350 21:39 05.10.2019
3955 Clouds 23 1026 35 9656 3.1 350 21:20 05.10.2019
3956 Clouds 22 1027 49 9656 2.1 80 20:56 05.10.2019
3957 Clouds 22 1027 49 9656 2.1 80 20:38 05.10.2019
3958 Clouds 22 1027 49 9656 2.1 80 20:19 05.10.2019
3959 Clouds 21 1029 52 9656 2.1 40 19:39 05.10.2019
3960 Clouds 21 1029 52 9656 2.1 40 19:21 05.10.2019
3961 Haze 20 1029 59 9656 1.92 31.516 18:57 05.10.2019
3962 Haze 20 1029 59 9656 1.92 31.516 18:39 05.10.2019
3963 Haze 20 1029 59 9656 0.68 44.643 18:20 05.10.2019
3964 Mist 17 1029 67 9656 2.6 40 17:46 05.10.2019
3965 Mist 17 1029 67 9656 2.6 40 17:28 05.10.2019
3966 Fog 16 1029 77 9656 3.1 50 16:59 05.10.2019
3967 Fog 16 1029 77 9656 3.1 50 16:41 05.10.2019
3968 Fog 16 1029 77 9656 3.1 50 16:21 05.10.2019
3969 Fog 14 1030 93 201 2.1 330 15:57 05.10.2019
3970 Fog 14 1030 93 201 2.1 330 15:39 05.10.2019
3971 Mist 15 1028 82 11265 3.6 70 15:21 05.10.2019
3972 Mist 15 1028 77 14484 3.6 70 14:56 05.10.2019
3973 Mist 15 1028 77 14484 3.6 70 14:56 05.10.2019
3974 Mist 15 1028 77 14484 3.6 70 14:56 05.10.2019
3975 Mist 15 1028 77 14484 3.6 70 14:38 05.10.2019
3976 Mist 13 1028 77 14484 3.6 70 14:19 05.10.2019
3977 Mist 14 1028 77 16093 2.1 80 13:41 05.10.2019
3978 Mist 14 1028 77 16093 2.1 80 13:21 05.10.2019
3979 Clouds 14 1028 72 16093 3.1 80 12:46 05.10.2019
3980 Clouds 14 1028 72 16093 3.1 80 12:21 05.10.2019
3981 Clouds 14 1028 67 12874 2.1 20 11:54 05.10.2019
3982 Clouds 14 1028 67 12874 2.1 20 11:36 05.10.2019
3983 Clouds 14 1028 67 12874 2.1 20 11:18 05.10.2019
3984 Clouds 14 1028 67 12874 4.1 20 10:44 05.10.2019
3985 Clouds 14 1028 67 12874 4.1 20 10:24 05.10.2019
3986 Clouds 15 1029 63 12874 4.1 20 09:57 05.10.2019
3987 Clouds 15 1029 63 12874 4.1 20 09:38 05.10.2019
3988 Clouds 15 1029 63 12874 4.1 20 09:20 05.10.2019
3989 Clouds 16 1030 87 8047 1.17 27.005 08:39 05.10.2019
3990 Clouds 16 1030 87 8047 1.17 27.005 08:39 05.10.2019
3991 Rain 16 1029 59 14484 3.1 310 08:19 05.10.2019
3992 Rain 16 1029 59 14484 3.6 40 07:56 05.10.2019
3993 Rain 16 1029 59 14484 3.6 40 07:33 05.10.2019
3994 Clouds 15 1029 59 14484 4.1 30 06:58 05.10.2019
3995 Clouds 15 1029 59 14484 4.1 30 06:26 05.10.2019
3996 Clouds 15 1028 59 14484 5.1 40 05:40 05.10.2019
3997 Clouds 16 1026 59 16093 5.7 60 03:42 05.10.2019
3998 Clouds 16 1026 59 16093 5.7 60 03:42 05.10.2019
3999 Clouds 19 1026 59 16093 5.7 60 03:22 05.10.2019
4000 Clouds 22 1024 33 9656 1 60 01:30 05.10.2019
4001 Thunderstorm 21 1024 33 9656 2.1 110 00:58 05.10.2019
4002 Thunderstorm 21 1024 33 9656 2.1 110 00:40 05.10.2019
4003 Thunderstorm 21 1024 33 9656 2.1 110 00:22 05.10.2019
4004 Thunderstorm 21 1025 38 8047 2.1 310 23:43 04.10.2019
4005 Thunderstorm 21 1025 38 8047 2.1 310 23:43 04.10.2019
4006 Thunderstorm 21 1025 38 8047 2.1 310 23:24 04.10.2019
4007 Clouds 23 1026 43 9656 2.1 150 22:58 04.10.2019
4008 Clouds 22 1026 43 9656 2.1 150 22:38 04.10.2019
4009 Clouds 22 1026 43 9656 2.1 150 22:38 04.10.2019
4010 Clouds 22 1026 43 9656 2.1 150 22:19 04.10.2019
4011 Clouds 22 1027 45 9656 2.1 50 21:55 04.10.2019
4012 Clouds 22 1027 45 9656 2.1 50 21:36 04.10.2019
4013 Clouds 22 1027 45 9656 2.1 50 21:36 04.10.2019
4014 Clouds 22 1027 45 9656 2.1 50 21:18 04.10.2019
4015 Clouds 21 1028 49 9656 2.6 360 20:42 04.10.2019
4016 Clouds 21 1028 49 9656 2.6 360 20:23 04.10.2019
4017 Clouds 21 1028 52 9656 2.1 70 19:57 04.10.2019
4018 Clouds 21 1028 52 9656 2.1 70 19:39 04.10.2019
4019 Clouds 20 1029 59 11265 1.5 60 19:20 04.10.2019
4020 Clouds 19 1029 55 11265 3.1 40 18:56 04.10.2019
4021 Clouds 19 1029 55 11265 3.1 40 18:37 04.10.2019
4022 Clouds 19 1029 55 11265 3.1 40 18:18 04.10.2019
4023 Clouds 17 1029 63 12874 4.6 50 17:41 04.10.2019
4024 Clouds 17 1029 63 12874 4.6 50 17:22 04.10.2019
4025 Haze 15 1029 72 12874 3.6 40 16:58 04.10.2019
4026 Haze 15 1029 72 12874 3.6 40 16:39 04.10.2019
4027 Haze 15 1029 72 12874 3.6 40 16:39 04.10.2019
4028 Haze 15 1029 72 12874 3.6 40 16:18 04.10.2019
4029 Haze 15 1029 72 12874 3.6 40 16:18 04.10.2019
4030 Haze 15 1029 72 12874 3.6 40 16:18 04.10.2019
4031 Mist 14 1028 71 12874 3.6 50 15:56 04.10.2019
4032 Mist 14 1028 71 12874 3.6 50 15:38 04.10.2019
4033 Mist 14 1028 71 12874 3.6 50 15:38 04.10.2019
4034 Mist 14 1028 71 12874 3.6 50 15:19 04.10.2019
4035 Haze 14 1029 87 3219 1.18 35.571 14:55 04.10.2019
4036 Haze 14 1029 87 3219 1.18 35.571 14:37 04.10.2019
4037 Fog 14 1028 76 11265 2.1 20 14:19 04.10.2019
4038 Clouds 14 1027 67 12874 2.1 360 13:44 04.10.2019
4039 Clouds 14 1027 67 12874 2.1 360 13:22 04.10.2019
4040 Clouds 14 1027 72 12874 3.1 360 12:54 04.10.2019
4041 Clouds 14 1027 72 12874 3.1 360 12:36 04.10.2019
4042 Clouds 14 1027 72 12874 3.1 360 12:18 04.10.2019
4043 Clouds 14 1027 67 11265 3.1 10 11:42 04.10.2019
4044 Clouds 14 1027 67 11265 3.1 10 11:41 04.10.2019
4045 Clouds 14 1027 67 11265 3.1 10 11:41 04.10.2019
4046 Clouds 14 1027 67 11265 3.1 10 11:21 04.10.2019
4047 Clouds 16 1027 67 11265 2.6 20 10:41 04.10.2019
4048 Clouds 16 1027 67 11265 2.6 20 10:21 04.10.2019
4049 Clouds 14 1027 67 11265 2.6 20 10:21 04.10.2019
4050 Clouds 14 1027 67 12874 3.1 30 09:50 04.10.2019
4051 Clouds 14 1027 67 12874 3.1 30 09:32 04.10.2019
4052 Clouds 14 1028 67 12874 4.1 10 08:59 04.10.2019
4053 Clouds 14 1028 67 12874 4.1 10 08:41 04.10.2019
4054 Clouds 14 1028 67 12874 4.1 10 08:23 04.10.2019
4055 Rain 15 1028 63 12874 5.1 30 07:47 04.10.2019
4056 Rain 15 1028 63 12874 5.1 30 07:23 04.10.2019
4057 Rain 15 1027 67 12874 2.6 60 06:48 04.10.2019
4058 Rain 15 1027 67 12874 2.6 60 06:27 04.10.2019
4059 Rain 15 1027 67 12874 2.6 60 06:27 04.10.2019
4060 Rain 15 1027 72 12874 2.1 30 05:52 04.10.2019
4061 Rain 15 1027 72 12874 2.1 30 05:52 04.10.2019
4062 Rain 15 1027 72 12874 2.1 30 05:19 04.10.2019
4063 Rain 17 1025 72 16093 5.1 90 03:56 04.10.2019
4064 Clouds 19 1024 59 16093 7.2 80 02:54 04.10.2019
4065 Clouds 20 1023 43 14484 6.2 10 02:21 04.10.2019
4066 Clouds 22 1022 40 14484 6.7 20 01:43 04.10.2019
4067 Clouds 22 1022 40 14484 6.7 20 01:24 04.10.2019
4068 Ash 23 1022 35 12874 4.6 360 00:18 04.10.2019
4069 Ash 24 1023 36 12874 3.25 59.209 23:37 03.10.2019
4070 Ash 24 1023 36 12874 3.25 59.209 23:18 03.10.2019
4071 Ash 24 1024 33 12874 3.1 350 22:57 03.10.2019
4072 Ash 24 1024 33 12874 3.1 350 22:57 03.10.2019
4073 Ash 24 1024 33 12874 3.1 350 22:39 03.10.2019
4074 Ash 24 1024 33 12874 3.1 350 22:21 03.10.2019
4075 Ash 22 1025 40 14484 4.1 340 21:56 03.10.2019
4076 Ash 22 1025 40 14484 4.1 340 21:37 03.10.2019
4077 Ash 22 1025 40 14484 4.1 340 21:19 03.10.2019
4078 Clouds 22 1026 45 14484 3.1 320 20:56 03.10.2019
4079 Clouds 22 1026 45 14484 3.1 320 20:37 03.10.2019
4080 Clouds 22 1026 45 14484 3.1 320 20:37 03.10.2019
4081 Clouds 21 1026 45 14484 3.1 320 20:19 03.10.2019
4082 Clouds 19 1027 48 12874 3.1 350 19:41 03.10.2019
4083 Clouds 20 1027 48 12874 3.1 350 19:22 03.10.2019
4084 Clouds 19 1027 59 12874 1.5 150 18:59 03.10.2019
4085 Clouds 19 1027 59 12874 1.5 150 18:39 03.10.2019
4086 Clouds 19 1027 59 12874 1.5 150 18:19 03.10.2019
4087 Clouds 17 1027 63 12874 1.38 66.349 17:59 03.10.2019
4088 Clouds 17 1027 63 12874 1.38 66.349 17:59 03.10.2019
4089 Clouds 17 1027 63 12874 1.38 66.349 17:41 03.10.2019
4090 Clouds 16 1027 77 12874 4.1 70 17:19 03.10.2019
4091 Clouds 14 1027 76 11265 1.5 60 16:44 03.10.2019
4092 Clouds 14 1027 76 11265 1.5 60 16:26 03.10.2019
4093 Fog 12 1026 87 11265 2.6 90 15:56 03.10.2019
4094 Fog 12 1026 87 11265 2.6 90 15:38 03.10.2019
4095 Fog 12 1026 87 11265 2.6 90 15:20 03.10.2019
4096 Fog 12 1026 82 12874 2.1 40 14:46 03.10.2019
4097 Fog 12 1026 82 12874 2.1 40 14:27 03.10.2019
4098 Clouds 11 1025 82 12874 2.6 100 13:59 03.10.2019
4099 Clouds 11 1025 82 12874 2.6 100 13:41 03.10.2019
4100 Clouds 12 1025 82 12874 2.6 100 13:19 03.10.2019
4101 Clouds 12 1025 82 12874 2.6 100 12:56 03.10.2019
4102 Clouds 12 1025 82 12874 2.6 100 12:37 03.10.2019
4103 Clouds 13 1025 72 12874 2.1 320 12:19 03.10.2019
4104 Clouds 13 1025 72 12874 2.1 320 12:19 03.10.2019
4105 Clouds 13 1025 67 12874 1 30 11:41 03.10.2019
4106 Clouds 13 1025 67 12874 1 30 11:41 03.10.2019
4107 Clouds 13 1025 67 12874 1 30 11:23 03.10.2019
4108 Clouds 14 1025 67 16093 2.1 10 10:59 03.10.2019
4109 Clouds 14 1025 67 16093 2.1 10 10:40 03.10.2019
4110 Clouds 14 1025 67 16093 2.1 10 10:19 03.10.2019
4111 Clouds 14 1026 59 17702 3.1 20 09:58 03.10.2019
4112 Clouds 14 1026 59 17702 3.1 20 09:39 03.10.2019
4113 Clouds 14 1026 59 17702 3.1 20 09:20 03.10.2019
4114 Clouds 15 1026 59 19312 2.6 360 08:45 03.10.2019
4115 Clouds 15 1026 59 19312 2.6 360 08:27 03.10.2019
4116 Clouds 15 1026 55 19312 2.1 20 07:57 03.10.2019
4117 Clouds 15 1026 55 19312 2.1 20 07:39 03.10.2019
4118 Clouds 15 1026 55 19312 2.1 20 07:19 03.10.2019
4119 Clouds 15 1025 55 16093 4.1 360 06:46 03.10.2019
4120 Clouds 15 1025 55 16093 4.1 360 06:20 03.10.2019
4121 Clouds 16 1025 48 16093 5.1 30 05:43 03.10.2019
4122 Clouds 17 1024 48 16093 6.7 30 04:51 03.10.2019
4123 Clouds 19 1024 48 16093 6.7 30 04:25 03.10.2019
4124 Clouds 20 1022 37 16093 7.2 40 03:23 03.10.2019
4125 Clouds 21 1023 37 11265 3.6 60 02:37 03.10.2019
4126 Clouds 23 1021 33 14484 5.7 350 01:51 03.10.2019
4127 Clouds 23 1021 33 14484 5.7 350 01:32 03.10.2019
4128 Clouds 24 1022 29 16093 5.1 310 00:47 03.10.2019
4129 Clouds 24 1022 29 16093 5.1 310 00:18 03.10.2019
4130 Clouds 24 1022 29 16093 2.6 50 23:43 02.10.2019
4131 Clouds 24 1022 29 16093 2.6 50 23:21 02.10.2019
4132 Clouds 22 1023 33 16093 4.1 90 22:44 02.10.2019
4133 Clouds 22 1023 33 16093 4.1 90 22:44 02.10.2019
4134 Clouds 23 1023 33 16093 4.1 90 22:21 02.10.2019
4135 Clouds 23 1024 28 16093 3.1 40 21:56 02.10.2019
4136 Clouds 23 1024 28 16093 3.1 40 21:56 02.10.2019
4137 Clouds 23 1024 28 16093 3.1 40 21:38 02.10.2019
4138 Clouds 23 1024 28 16093 3.1 40 21:20 02.10.2019
4139 Clouds 21 1025 40 16093 2.6 50 20:57 02.10.2019
4140 Clouds 21 1025 40 16093 2.6 50 20:38 02.10.2019
4141 Clouds 21 1025 40 16093 2.6 50 20:20 02.10.2019
4142 Clouds 21 1026 43 16093 4.6 10 19:54 02.10.2019
4143 Clouds 21 1026 43 16093 4.6 10 19:36 02.10.2019
4144 Clouds 21 1026 43 16093 4.6 10 19:36 02.10.2019
4145 Clouds 20 1026 52 16093 3.1 50 19:18 02.10.2019
4146 Clouds 19 1026 55 16093 3.1 70 18:56 02.10.2019
4147 Clouds 19 1026 55 16093 3.1 70 18:36 02.10.2019
4148 Clouds 18 1027 63 16093 2.6 40 18:18 02.10.2019
4149 Clouds 16 1026 72 11265 4.1 40 17:42 02.10.2019
4150 Clouds 16 1026 72 11265 4.1 40 17:21 02.10.2019
4151 Fog 15 1026 82 9656 4.6 60 16:58 02.10.2019
4152 Fog 15 1026 82 9656 4.6 60 16:39 02.10.2019
4153 Clouds 13 1025 82 9656 2.6 280 16:20 02.10.2019
4154 Fog 14 1025 82 9656 2.6 280 15:56 02.10.2019
4155 Fog 14 1025 82 9656 2.6 280 15:37 02.10.2019
4156 Fog 14 1025 82 9656 2.6 280 15:18 02.10.2019
4157 Fog 14 1025 82 9656 2.6 280 15:18 02.10.2019
4158 Clouds 13 1025 77 11265 2.6 320 14:45 02.10.2019
4159 Clouds 13 1025 77 11265 2.6 320 14:27 02.10.2019
4160 Clouds 13 1025 82 12874 1 240 13:58 02.10.2019
4161 -273 0 0 0 0 0 13:40 02.10.2019
4162 Clouds 13 1025 82 12874 1 240 13:21 02.10.2019
4163 Clouds 13 1025 82 12874 2.1 220 12:41 02.10.2019
4164 Clouds 13 1025 82 12874 2.1 220 12:22 02.10.2019
4165 Clouds 12 1025 82 12874 1 50 11:59 02.10.2019
4166 Clouds 13 1025 82 12874 1 50 11:41 02.10.2019
4167 Clouds 13 1025 82 12874 1 50 11:21 02.10.2019
4168 Clouds 13 1025 87 14484 1.5 360 10:39 02.10.2019
4169 Clouds 13 1025 87 14484 1.5 360 10:19 02.10.2019
4170 Clouds 13 1025 87 14484 1.5 360 10:19 02.10.2019
4171 Clouds 13 1025 77 16093 1.25 1.603 09:41 02.10.2019
4172 Clouds 13 1025 77 16093 0.76 64.282 09:20 02.10.2019
4173 Clouds 14 1025 77 16093 4.1 320 08:56 02.10.2019
4174 Clouds 14 1025 77 16093 4.1 320 08:38 02.10.2019
4175 Clouds 14 1025 77 16093 4.1 320 08:20 02.10.2019
4176 Rain 14 1025 82 16093 4.1 330 07:43 02.10.2019
4177 Rain 14 1025 82 16093 4.1 330 07:24 02.10.2019
4178 Rain 13 1026 87 11265 2.6 280 06:58 02.10.2019
4179 Rain 13 1026 87 11265 2.6 280 06:27 02.10.2019
4180 Rain 13 1026 87 9656 6.7 240 05:49 02.10.2019
4181 Thunderstorm 13 1025 76 8047 4.1 220 05:20 02.10.2019
4182 Thunderstorm 15 1023 77 11265 5.1 40 03:53 02.10.2019
4183 Rain 19 1023 68 9656 5.7 60 03:31 02.10.2019
4184 Thunderstorm 19 1021 63 9656 7.7 30 02:26 02.10.2019
4185 Thunderstorm 20 1021 63 9656 5.1 30 01:59 02.10.2019
4186 Clouds 22 1021 49 11265 6.7 20 00:52 02.10.2019
4187 Clouds 23 1021 36 11265 3.1 90 00:29 02.10.2019
4188 Clouds 23 1022 38 11265 1.02 91.403 23:55 01.10.2019
4189 Clouds 23 1022 38 11265 1.02 91.403 23:36 01.10.2019
4190 Clouds 23 1022 38 11265 1.02 91.403 23:18 01.10.2019
4191 Thunderstorm 24 1023 38 11265 3.6 120 22:57 01.10.2019
4192 Thunderstorm 24 1023 38 11265 3.6 120 22:37 01.10.2019
4193 Thunderstorm 24 1023 38 11265 3.6 120 22:18 01.10.2019
4194 Clouds 22 1024 40 12874 3.1 50 21:42 01.10.2019
4195 Clouds 23 1024 40 12874 3.1 50 21:22 01.10.2019
4196 Clouds 23 1024 40 12874 3.1 50 21:22 01.10.2019
4197 Clouds 22 1025 49 12874 1.56 96.761 20:57 01.10.2019
4198 Clouds 22 1025 49 12874 1.65 116.022 20:38 01.10.2019
4199 Clouds 22 1025 49 12874 1.65 116.022 20:20 01.10.2019
4200 Clouds 22 1025 49 12874 1.65 116.022 20:20 01.10.2019
4201 Clouds 20 1025 46 12874 1.65 116.022 19:57 01.10.2019
4202 Clouds 19 1026 56 11265 2.1 60 19:38 01.10.2019
4203 Clouds 19 1026 56 11265 2.1 60 19:20 01.10.2019
4204 -273 0 0 0 0 0 18:55 01.10.2019
4205 Clouds 18 1026 59 12874 2.1 100 18:37 01.10.2019
4206 Clouds 19 1026 59 12874 2.1 100 18:19 01.10.2019
4207 Clouds 17 1026 67 12874 2.1 340 17:43 01.10.2019
4208 Clouds 17 1026 67 12874 2.1 340 17:20 01.10.2019
4209 Clouds 16 1026 77 16093 1.5 80 16:59 01.10.2019
4210 Clouds 16 1026 77 16093 1.5 80 16:40 01.10.2019
4211 Clouds 15 1026 77 16093 1.5 80 16:22 01.10.2019
4212 Clouds 14 1023 77 16093 1 70 15:48 01.10.2019
4213 Clouds 14 1025 82 12874 2.6 100 15:24 01.10.2019
4214 Mist 14 1025 82 16093 0.36 128.042 14:58 01.10.2019
4215 Clouds 13 1025 82 16093 0.36 128.042 14:38 01.10.2019
4216 Clouds 13 1024 82 19312 0.36 128.042 14:19 01.10.2019
4217 Clouds 12 1024 82 19312 0.36 128.042 13:55 01.10.2019
4218 Clouds 12 1024 82 19312 0.36 128.042 13:55 01.10.2019
4219 Clouds 12 1024 82 19312 0.36 128.042 13:55 01.10.2019
4220 -273 0 0 0 0 0 13:55 01.10.2019
4221 Clouds 13 1024 82 19312 0.36 128.042 13:36 01.10.2019
4222 Clouds 13 1024 82 19312 0.71 178.947 13:18 01.10.2019
4223 Clouds 13 1024 87 24140 0.71 178.947 12:42 01.10.2019
4224 Clouds 13 1024 87 24140 0.63 196.246 12:21 01.10.2019
4225 Clouds 12 1025 87 24140 0.63 196.246 11:58 01.10.2019
4226 Clouds 13 1025 87 24140 0.63 196.246 11:39 01.10.2019
4227 Clouds 13 1025 87 24140 0.63 196.246 11:19 01.10.2019
4228 Clouds 13 1025 82 24140 3.6 100 10:59 01.10.2019
4229 Clouds 13 1025 82 24140 3.6 100 10:41 01.10.2019
4230 Clouds 13 1025 82 24140 3.6 100 10:23 01.10.2019
4231 Clouds 14 1025 82 24140 4.1 110 09:43 01.10.2019
4232 Clouds 14 1025 82 24140 4.1 110 09:25 01.10.2019
4233 Clouds 14 1026 82 19312 1.5 260 08:43 01.10.2019
4234 Clouds 14 1026 82 19312 1.5 260 08:25 01.10.2019
4235 Clouds 14 1026 82 16093 1.5 250 07:49 01.10.2019
4236 Clouds 14 1026 82 16093 1.5 250 07:25 01.10.2019
4237 Clouds 14 1026 82 16093 1.5 250 07:25 01.10.2019
4238 Clouds 14 1026 82 16093 2.6 220 06:50 01.10.2019
4239 Rain 15 1025 82 16093 2.6 270 06:22 01.10.2019
4240 Rain 15 1025 82 12874 3.1 300 05:46 01.10.2019
4241 Rain 15 1025 82 12874 3.1 300 05:18 01.10.2019
4242 Rain 14 1025 87 9656 3.6 80 04:30 01.10.2019
4243 Clouds 18 1023 52 14484 4.1 90 02:29 01.10.2019
4244 Rain 19 1025 87 11265 3.6 140 01:59 01.10.2019
4245 Clouds 20 1023 49 12874 4.1 140 00:59 01.10.2019
4246 Clouds 20 1023 49 12874 4.1 140 00:37 01.10.2019
4247 Clouds 20 1023 49 12874 4.1 140 00:37 01.10.2019
4248 Clouds 20 1023 49 12874 4.1 140 00:18 01.10.2019
4249 Clouds 21 1024 46 12874 5.1 110 23:41 30.09.2019
4250 Clouds 21 1024 46 12874 5.1 110 23:20 30.09.2019
4251 Clouds 20 1024 52 12874 2.1 350 22:43 30.09.2019
4252 Clouds 20 1024 52 12874 2.1 350 22:25 30.09.2019
4253 Fog 19 1026 56 14484 2.1 130 21:58 30.09.2019
4254 Rain 19 1026 56 14484 2.1 130 21:38 30.09.2019
4255 Rain 19 1026 56 14484 2.1 130 21:19 30.09.2019
4256 Rain 17 1027 55 14484 3.6 80 20:57 30.09.2019
4257 Rain 17 1027 55 14484 3.6 80 20:39 30.09.2019
4258 Rain 17 1027 55 14484 3.6 80 20:20 30.09.2019
4259 Rain 16 1028 59 14484 1.37 145.238 19:57 30.09.2019
4260 Rain 16 1028 59 14484 1.37 145.238 19:56 30.09.2019
4261 Rain 16 1028 59 14484 1.37 145.238 19:38 30.09.2019
4262 Rain 16 1028 59 14484 2.6 190 19:19 30.09.2019
4263 Rain 16 1028 59 14484 2.6 190 18:57 30.09.2019
4264 Rain 16 1028 59 14484 2.6 190 18:57 30.09.2019
4265 Rain 16 1028 59 14484 2.6 190 18:37 30.09.2019
4266 Rain 15 1030 87 6437 3.1 130 18:19 30.09.2019
4267 Rain 14 1028 71 14484 3.1 100 17:43 30.09.2019
4268 Rain 14 1028 71 14484 3.1 100 17:23 30.09.2019
4269 Rain 13 1028 71 16093 4.1 110 16:57 30.09.2019
4270 Rain 13 1028 71 16093 4.1 110 16:39 30.09.2019
4271 Rain 13 1028 71 16093 4.1 110 16:19 30.09.2019
4272 Rain 14 1027 67 16093 4.6 110 15:58 30.09.2019
4273 Rain 14 1027 67 16093 4.6 110 15:37 30.09.2019
4274 Rain 14 1027 67 16093 4.6 110 15:19 30.09.2019
4275 Rain 14 1026 62 16093 4.6 110 14:57 30.09.2019
4276 Rain 13 1026 62 16093 4.6 110 14:37 30.09.2019
4277 Rain 13 1026 62 16093 4.6 110 14:18 30.09.2019
4278 Rain 13 1026 62 16093 4.6 110 14:18 30.09.2019
4279 Clouds 13 1026 67 16093 5.1 120 13:56 30.09.2019
4280 Clouds 13 1026 67 16093 5.1 120 13:37 30.09.2019
4281 Clouds 13 1026 67 16093 5.1 120 13:19 30.09.2019
4282 Clouds 14 1025 72 16093 3.1 130 12:41 30.09.2019
4283 Clouds 14 1025 72 16093 3.1 130 12:21 30.09.2019
4284 Clouds 15 1025 77 16093 4.1 150 11:56 30.09.2019
4285 Clouds 15 1025 77 16093 4.1 150 11:56 30.09.2019
4286 Clouds 15 1025 77 16093 4.1 150 11:37 30.09.2019
4287 Clouds 14 1025 77 16093 4.1 150 11:18 30.09.2019
4288 Clouds 14 1026 72 16093 6.2 130 10:41 30.09.2019
4289 Clouds 14 1026 72 16093 6.2 130 10:19 30.09.2019
4290 Clouds 14 1026 82 16093 6.2 130 09:58 30.09.2019
4291 Clouds 13 1026 82 16093 6.2 130 09:39 30.09.2019
4292 Clouds 13 1026 82 16093 6.2 130 09:20 30.09.2019
4293 Clouds 13 1026 82 16093 6.2 130 08:47 30.09.2019
4294 Rain 14 1026 77 16093 7.2 140 08:28 30.09.2019
4295 Rain 14 1027 72 16093 7.2 120 07:45 30.09.2019
4296 Rain 14 1027 72 16093 7.2 120 07:45 30.09.2019
4297 Rain 14 1027 72 16093 7.2 120 07:27 30.09.2019
4298 Rain 14 1027 72 16093 7.2 120 07:27 30.09.2019
4299 Rain 14 1026 82 16093 8.2 140 06:56 30.09.2019
4300 Rain 14 1026 82 16093 8.2 140 06:33 30.09.2019
4301 Rain 15 1026 77 16093 8.2 140 05:48 30.09.2019
4302 Haze 15 1025 77 16093 9.3 130 04:32 30.09.2019
4303 Haze 17 1024 63 12874 6.2 120 02:48 30.09.2019
4304 Rain 18 1023 63 11265 4.1 180 01:37 30.09.2019
4305 Haze 19 1023 63 11265 9.3 150 00:42 30.09.2019
4306 Haze 19 1023 63 11265 9.3 150 00:22 30.09.2019
4307 Haze 20 1023 56 12874 9.3 140 23:47 29.09.2019
4308 Haze 20 1023 56 12874 9.3 140 23:27 29.09.2019
4309 Haze 20 1023 64 9656 5.1 90 22:59 29.09.2019
4310 Haze 20 1023 64 9656 5.1 90 22:40 29.09.2019
4311 Haze 20 1023 64 9656 5.1 90 22:22 29.09.2019
4312 Haze 20 1024 68 9656 5.1 130 21:57 29.09.2019
4313 Rain 20 1024 72 9656 4.6 110 21:37 29.09.2019
4314 Rain 19 1024 72 9656 4.6 110 21:19 29.09.2019
4315 Rain 19 1025 77 9656 3.6 130 20:45 29.09.2019
4316 Rain 19 1025 77 9656 3.6 130 20:20 29.09.2019
4317 Rain 19 1025 77 11265 4.6 110 19:59 29.09.2019
4318 Rain 19 1026 72 3219 6.7 160 19:38 29.09.2019
4319 Rain 19 1025 72 12874 4.1 90 19:19 29.09.2019
4320 Rain 18 1025 82 9656 2.6 110 18:56 29.09.2019
4321 Rain 18 1025 82 9656 2.6 110 18:38 29.09.2019
4322 Rain 18 1025 82 9656 2.6 110 18:38 29.09.2019
4323 Rain 18 1025 82 9656 2.6 110 18:19 29.09.2019
4324 Rain 17 1025 82 9656 2.6 110 17:58 29.09.2019
4325 Rain 17 1025 82 9656 2.6 110 17:40 29.09.2019
4326 Rain 17 1025 82 9656 2.6 110 17:20 29.09.2019
4327 Rain 17 1025 77 11265 2.6 70 16:58 29.09.2019
4328 Rain 17 1024 77 11265 2.81 98.375 16:40 29.09.2019
4329 Rain 17 1024 77 11265 2.81 98.375 16:19 29.09.2019
4330 Rain 16 1024 82 11265 2.81 98.375 15:57 29.09.2019
4331 Rain 16 1024 82 11265 2.81 98.375 15:57 29.09.2019
4332 Rain 16 1024 82 11265 2.81 98.375 15:36 29.09.2019
4333 Rain 16 1024 82 11265 1.87 116.688 15:18 29.09.2019
4334 Rain 16 1024 82 11265 1.87 116.688 14:55 29.09.2019
4335 Rain 16 1023 82 12874 2.1 280 14:36 29.09.2019
4336 Clouds 14 1022 82 19312 2.1 230 14:18 29.09.2019
4337 Clouds 14 1022 82 19312 2.1 230 13:42 29.09.2019
4338 Clouds 14 1022 82 19312 2.1 230 13:19 29.09.2019
4339 Clouds 15 1022 82 24140 2.1 50 12:58 29.09.2019
4340 Clouds 15 1022 82 24140 2.1 50 12:40 29.09.2019
4341 Clouds 15 1022 82 24140 2.1 50 12:21 29.09.2019
4342 -273 0 0 0 0 0 11:57 29.09.2019
4343 Clouds 15 1022 77 24140 4.6 310 11:39 29.09.2019
4344 Clouds 15 1022 77 24140 4.6 310 11:19 29.09.2019
4345 Clouds 16 1022 77 19312 4.1 290 10:57 29.09.2019
4346 Clouds 16 1022 77 19312 4.1 290 10:57 29.09.2019
4347 Clouds 16 1022 77 19312 4.1 290 10:37 29.09.2019
4348 Clouds 16 1022 77 19312 4.1 290 10:18 29.09.2019
4349 Clouds 15 1023 82 19312 4.6 280 09:47 29.09.2019
4350 Clouds 16 1023 82 19312 4.6 280 09:21 29.09.2019
4351 Clouds 16 1023 82 16093 3.6 250 08:59 29.09.2019
4352 Clouds 16 1023 82 16093 3.6 250 08:39 29.09.2019
4353 Clouds 16 1023 82 16093 3.6 250 08:20 29.09.2019
4354 Haze 17 1023 72 16093 4.1 270 07:43 29.09.2019
4355 Haze 17 1023 72 16093 4.1 270 07:24 29.09.2019
4356 Haze 17 1023 72 16093 4.1 270 07:24 29.09.2019
4357 Haze 17 1023 72 16093 4.1 270 07:24 29.09.2019
4358 Haze 17 1023 59 19312 2.6 340 06:43 29.09.2019
4359 Rain 17 1022 63 16093 5.1 20 05:27 29.09.2019
4360 Clouds 18 1021 60 11265 5.1 30 04:38 29.09.2019
4361 Clouds 18 1021 60 11265 5.1 30 04:18 29.09.2019
4362 Rain 21 1020 53 11265 3.6 70 02:47 29.09.2019
4363 Rain 21 1020 53 11265 3.6 70 02:18 29.09.2019
4364 Rain 21 1019 53 9656 4.1 20 01:32 29.09.2019
4365 Clouds 22 1019 46 9656 7.2 20 00:52 29.09.2019
4366 Clouds 24 1020 41 9656 4.6 70 00:21 29.09.2019
4367 Clouds 22 1019 46 9656 7.2 20 00:21 29.09.2019
4368 Clouds 24 1020 41 9656 4.6 70 23:43 28.09.2019
4369 Clouds 24 1020 41 9656 4.6 70 23:23 28.09.2019
4370 Clouds 24 1021 41 9656 4.1 140 22:57 28.09.2019
4371 Clouds 24 1021 41 9656 4.1 140 22:38 28.09.2019
4372 Clouds 24 1021 41 9656 4.1 140 22:20 28.09.2019
4373 Clouds 24 1022 46 8047 2.6 50 21:56 28.09.2019
4374 Clouds 24 1022 46 8047 2.6 50 21:38 28.09.2019
4375 Clouds 24 1022 46 8047 2.6 50 21:19 28.09.2019
4376 Clouds 23 1023 46 8047 1.5 360 20:57 28.09.2019
4377 Clouds 23 1023 46 8047 1.5 360 20:57 28.09.2019
4378 Clouds 23 1023 46 8047 1.5 360 20:38 28.09.2019
4379 Clouds 23 1023 46 8047 1.5 360 20:18 28.09.2019
4380 Clouds 22 1024 52 8047 1.5 260 19:55 28.09.2019
4381 Clouds 22 1024 52 8047 1.5 260 19:36 28.09.2019
4382 Clouds 22 1024 52 8047 1.5 260 19:18 28.09.2019
4383 Clouds 21 1024 59 8047 1 0 18:41 28.09.2019
4384 Clouds 18 1024 63 9656 1.5 350 18:22 28.09.2019
4385 Clouds 21 1024 59 8047 1 0 18:22 28.09.2019
4386 Clouds 18 1024 63 9656 1.5 350 17:59 28.09.2019
4387 Clouds 18 1024 63 9656 1.5 350 17:40 28.09.2019
4388 Clouds 18 1024 63 9656 1.5 350 17:21 28.09.2019
4389 Clouds 15 1024 72 9656 3.1 60 16:49 28.09.2019
4390 Clouds 16 1024 72 9656 3.1 60 16:29 28.09.2019
4391 Clouds 15 1023 67 9656 2.6 20 15:59 28.09.2019
4392 Clouds 15 1023 67 9656 2.6 20 15:39 28.09.2019
4393 Clouds 15 1023 67 9656 2.6 20 15:21 28.09.2019
4394 -273 0 0 0 0 0 14:55 28.09.2019
4395 Clouds 15 1022 72 9656 4.1 80 14:55 28.09.2019
4396 Clouds 15 1022 72 9656 4.1 80 14:36 28.09.2019
4397 Clouds 15 1022 72 9656 4.1 80 14:18 28.09.2019
4398 Clouds 14 1022 67 11265 3.1 10 13:43 28.09.2019
4399 Clouds 14 1022 67 11265 3.1 10 13:20 28.09.2019
4400 Clouds 14 1022 67 11265 2.1 20 12:57 28.09.2019
4401 Clouds 14 1022 67 11265 2.1 20 12:37 28.09.2019
4402 Clouds 15 1022 63 11265 2.6 50 12:18 28.09.2019
4403 Clouds 15 1022 63 11265 2.6 50 11:40 28.09.2019
4404 Clouds 15 1022 63 11265 2.6 50 11:20 28.09.2019
4405 Clouds 15 1023 63 11265 3.1 310 10:44 28.09.2019
4406 Clouds 15 1023 63 11265 3.1 310 10:21 28.09.2019
4407 Rain 15 1023 67 11265 3.1 300 09:59 28.09.2019
4408 Rain 15 1023 67 11265 3.1 300 09:40 28.09.2019
4409 Rain 16 1023 67 11265 3.1 300 09:19 28.09.2019
4410 Rain 16 1023 67 11265 3.1 300 09:19 28.09.2019
4411 Clouds 16 1023 67 12874 3.6 300 08:48 28.09.2019
4412 Clouds 16 1023 67 12874 3.6 300 08:29 28.09.2019
4413 Clouds 17 1023 63 12874 3.1 20 07:57 28.09.2019
4414 Clouds 17 1023 63 12874 3.1 20 07:38 28.09.2019
4415 Clouds 17 1023 63 12874 3.1 20 07:19 28.09.2019
4416 Clouds 18 1023 59 12874 5.1 10 06:38 28.09.2019
4417 Clouds 18 1023 59 12874 5.1 10 06:20 28.09.2019
4418 Clouds 18 1022 59 12874 5.1 30 05:25 28.09.2019
4419 Clouds 19 1021 56 16093 3.6 40 04:54 28.09.2019
4420 Clouds 19 1021 56 16093 3.6 40 04:29 28.09.2019
4421 Clouds 20 1020 49 16093 5.7 30 03:41 28.09.2019
4422 Ash 23 1019 46 16093 8.7 40 02:59 28.09.2019
4423 Ash 23 1019 46 16093 8.7 40 02:40 28.09.2019
4424 Ash 22 1019 46 16093 8.7 40 02:19 28.09.2019
4425 Clouds 24 1019 26 16093 5.1 60 01:42 28.09.2019
4426 Clouds 26 1019 26 16093 5.1 60 01:19 28.09.2019
4427 Clouds 25 1019 26 16093 3.6 130 00:45 28.09.2019
4428 Clouds 25 1019 26 16093 3.6 130 00:27 28.09.2019
4429 Clouds 25 1020 27 16093 3.6 70 23:39 27.09.2019
4430 Clouds 25 1020 27 16093 3.6 70 23:21 27.09.2019
4431 Clouds 25 1021 33 16093 2.1 80 22:49 27.09.2019
4432 Clouds 25 1021 33 16093 2.1 80 22:21 27.09.2019
4433 Clear 24 1023 38 16093 2.6 40 22:00 27.09.2019
4434 Clear 24 1023 38 16093 2.6 40 21:40 27.09.2019
4435 Clear 24 1023 38 16093 2.6 40 21:21 27.09.2019
4436 Clear 23 1024 37 12874 3.1 320 20:59 27.09.2019
4437 Clear 23 1024 37 12874 3.1 320 20:59 27.09.2019
4438 Clear 23 1024 37 12874 3.1 320 20:40 27.09.2019
4439 Clear 23 1024 37 12874 3.1 320 20:20 27.09.2019
4440 Clear 23 1024 37 12874 3.1 320 20:20 27.09.2019
4441 Clear 22 1024 37 12874 2.6 300 19:57 27.09.2019
4442 Clouds 21 1025 45 12874 2.6 350 19:39 27.09.2019
4443 Clouds 20 1025 55 11265 4.1 320 19:20 27.09.2019
4444 Clouds 20 1025 55 11265 4.1 320 18:42 27.09.2019
4445 Clouds 20 1025 55 11265 4.1 320 18:24 27.09.2019
4446 Haze 19 1025 63 9656 2.1 80 17:56 27.09.2019
4447 Haze 19 1025 63 9656 2.1 80 17:38 27.09.2019
4448 Haze 19 1025 63 9656 2.1 80 17:20 27.09.2019
4449 Haze 19 1025 63 9656 2.1 80 17:20 27.09.2019
4450 Mist 14 1025 77 11265 2.6 90 16:57 27.09.2019
4451 Mist 14 1025 77 11265 2.6 90 16:37 27.09.2019
4452 Mist 14 1025 77 11265 2.6 90 16:37 27.09.2019
4453 Mist 15 1025 77 11265 2.6 90 16:18 27.09.2019
4454 Mist 15 1025 77 11265 2.6 90 16:18 27.09.2019
4455 Fog 13 1024 82 11265 2.6 80 15:46 27.09.2019
4456 Fog 13 1024 82 11265 2.6 80 15:21 27.09.2019
4457 Fog 14 1024 72 14484 3.1 340 14:59 27.09.2019
4458 Fog 14 1024 72 14484 3.1 340 14:41 27.09.2019
4459 Fog 14 1024 72 14484 3.1 340 14:21 27.09.2019
4460 Clouds 13 1023 72 16093 3.1 360 13:58 27.09.2019
4461 Clouds 13 1023 72 16093 3.1 360 13:40 27.09.2019
4462 Clouds 13 1023 72 16093 3.1 360 13:21 27.09.2019
4463 Clouds 13 1023 72 16093 3.1 360 13:21 27.09.2019
4464 Clouds 13 1024 72 19312 2.1 330 13:21 27.09.2019
4465 Clouds 14 1024 72 19312 2.1 330 12:54 27.09.2019
4466 Clouds 14 1024 72 19312 2.1 330 12:24 27.09.2019
4467 Clouds 14 1024 67 19312 2.1 340 11:59 27.09.2019
4468 Clouds 14 1024 67 19312 2.1 340 11:38 27.09.2019
4469 Clouds 14 1024 67 19312 2.1 340 11:20 27.09.2019
4470 Clouds 14 1025 67 19312 2.6 20 10:43 27.09.2019
4471 Clouds 14 1025 67 19312 2.6 20 10:23 27.09.2019
4472 Clouds 15 1025 63 19312 2.1 320 09:58 27.09.2019
4473 Clouds 15 1025 63 19312 2.1 320 09:58 27.09.2019
4474 Clouds 15 1025 63 19312 2.1 320 09:40 27.09.2019
4475 Clouds 15 1025 63 19312 2.1 320 09:20 27.09.2019
4476 Clouds 17 1025 59 19312 3.1 320 08:42 27.09.2019
4477 Clouds 17 1025 59 19312 3.1 320 08:21 27.09.2019
4478 Clouds 17 1025 59 19312 3.6 10 07:57 27.09.2019
4479 Clouds 17 1025 59 19312 3.6 10 07:39 27.09.2019
4480 Clouds 17 1025 55 19312 4.1 10 07:19 27.09.2019
4481 Clouds 17 1025 55 19312 4.1 10 06:40 27.09.2019
4482 Clouds 17 1025 55 19312 4.1 10 06:21 27.09.2019
4483 Clouds 18 1025 59 19312 4.6 30 05:47 27.09.2019
4484 Clouds 18 1025 59 19312 4.6 30 05:29 27.09.2019
4485 Clouds 19 1022 43 16093 6.2 40 03:52 27.09.2019
4486 Clouds 25 1014 57 12874 2.1 240 01:57 27.09.2019
4487 Clouds 25 1014 57 12874 2.1 240 01:57 27.09.2019
4488 Clouds 24 1021 36 9656 5.1 320 01:34 27.09.2019
4489 Clouds 26 1021 36 9656 4.6 320 00:44 27.09.2019
4490 Clouds 25 1022 36 9656 3.1 40 23:59 26.09.2019
4491 Clouds 25 1022 36 9656 3.1 40 23:41 26.09.2019
4492 Clouds 25 1022 36 9656 3.1 40 23:22 26.09.2019
4493 Clouds 25 1024 41 9656 2.1 70 22:59 26.09.2019
4494 Clouds 25 1024 41 9656 2.1 70 22:40 26.09.2019
4495 Clouds 25 1024 41 9656 2.1 70 22:19 26.09.2019
4496 Clouds 24 1025 46 8047 3.6 40 21:59 26.09.2019
4497 Clouds 24 1025 46 8047 3.6 40 21:38 26.09.2019
4498 Clouds 24 1025 46 8047 3.6 40 21:20 26.09.2019
4499 Haze 23 1026 49 6437 3.1 30 20:59 26.09.2019
4500 Haze 23 1026 49 6437 3.1 30 20:40 26.09.2019
4501 Haze 23 1026 49 6437 3.1 30 20:40 26.09.2019
4502 Haze 23 1026 49 6437 3.1 30 20:22 26.09.2019
4503 Haze 19 1027 60 4828 1.5 110 19:59 26.09.2019
4504 Haze 19 1027 60 4828 1.5 110 19:40 26.09.2019
4505 Haze 19 1027 60 4828 1.5 110 19:18 26.09.2019
4506 Haze 20 1027 64 4828 1.5 150 18:57 26.09.2019
4507 Haze 19 1029 72 3219 2.1 210 18:37 26.09.2019
4508 Haze 19 1029 72 3219 2.1 210 18:19 26.09.2019
4509 Haze 16 1027 77 4828 1 280 17:38 26.09.2019
4510 Mist 16 1027 82 3219 2.1 320 17:19 26.09.2019
4511 Mist 16 1027 82 3219 2.1 320 16:58 26.09.2019
4512 Mist 16 1027 82 3219 2.1 320 16:39 26.09.2019
4513 Mist 16 1027 82 3219 2.1 320 16:20 26.09.2019
4514 Mist 14 1026 82 4828 2.6 270 15:56 26.09.2019
4515 Mist 15 1026 82 4828 2.6 270 15:37 26.09.2019
4516 Mist 15 1026 82 4828 2.6 270 15:18 26.09.2019
4517 Mist 15 1026 93 4828 1.5 230 14:41 26.09.2019
4518 Mist 15 1026 93 4828 1.5 230 14:23 26.09.2019
4519 Mist 14 1025 93 4023 1 300 13:58 26.09.2019
4520 Mist 14 1025 93 4023 1 300 13:40 26.09.2019
4521 Mist 14 1025 93 4023 1 300 13:19 26.09.2019
4522 Mist 13 1025 100 6437 1 60 12:55 26.09.2019
4523 Mist 13 1025 100 6437 1 60 12:36 26.09.2019
4524 Mist 13 1025 100 6437 1 60 12:18 26.09.2019
4525 Mist 14 1026 93 6437 2.1 80 11:42 26.09.2019
4526 Mist 14 1026 93 6437 2.1 80 11:21 26.09.2019
4527 Haze 13 1026 93 6437 3.1 70 10:43 26.09.2019
4528 Haze 13 1026 93 6437 3.1 70 10:25 26.09.2019
4529 Haze 14 1027 87 6437 1.5 90 09:59 26.09.2019
4530 Haze 14 1027 87 6437 1.5 90 09:59 26.09.2019
4531 Haze 14 1027 87 6437 1.5 90 09:41 26.09.2019
4532 Haze 14 1027 87 6437 1.5 90 09:22 26.09.2019
4533 Haze 14 1028 87 6437 2.1 60 08:54 26.09.2019
4534 Haze 14 1028 87 6437 2.1 60 08:32 26.09.2019
4535 Clouds 14 1028 87 8047 2.1 360 07:58 26.09.2019
4536 Clouds 14 1028 87 8047 2.1 360 07:40 26.09.2019
4537 Clouds 15 1028 87 8047 2.1 360 07:19 26.09.2019
4538 Clouds 15 1028 87 8047 2.6 360 06:43 26.09.2019
4539 Clouds 15 1028 87 8047 2.6 360 06:24 26.09.2019
4540 Rain 15 1027 87 8047 3.1 250 05:40 26.09.2019
4541 Rain 15 1027 87 8047 3.1 250 05:20 26.09.2019
4542 Thunderstorm 18 1025 82 4828 2.1 50 02:41 26.09.2019
4543 Thunderstorm 18 1024 72 6437 8.2 20 01:49 26.09.2019
4544 Thunderstorm 18 1024 72 6437 8.2 20 01:27 26.09.2019
4545 Clouds 21 1023 56 9656 8.2 340 00:54 26.09.2019
4546 Clouds 21 1022 46 9656 8.7 150 00:36 26.09.2019
4547 Thunderstorm 22 1026 72 6437 4.1 180 23:45 25.09.2019
4548 Thunderstorm 22 1026 72 6437 4.1 180 23:27 25.09.2019
4549 Thunderstorm 22 1024 40 9656 2.1 30 22:56 25.09.2019
4550 Thunderstorm 22 1024 40 9656 2.1 30 22:56 25.09.2019
4551 Thunderstorm 22 1024 40 9656 2.1 30 22:38 25.09.2019
4552 Thunderstorm 22 1024 40 9656 2.1 30 22:38 25.09.2019
4553 Thunderstorm 22 1024 40 9656 2.1 30 22:20 25.09.2019
4554 Thunderstorm 22 1024 40 9656 2.1 30 22:20 25.09.2019
4555 Rain 22 1027 55 6437 8.2 120 21:56 25.09.2019
4556 Haze 22 1025 43 9656 3.6 100 21:38 25.09.2019
4557 Haze 23 1025 43 9656 3.6 100 21:18 25.09.2019
4558 Haze 23 1026 41 8047 1.5 0 20:56 25.09.2019
4559 Haze 23 1026 41 8047 1.5 0 20:38 25.09.2019
4560 Haze 23 1026 41 8047 1.5 0 20:19 25.09.2019
4561 Haze 22 1027 53 6437 2.6 60 19:41 25.09.2019
4562 Haze 22 1027 53 6437 2.6 60 19:41 25.09.2019
4563 Haze 21 1027 53 6437 1.5 60 19:21 25.09.2019
4564 Haze 21 1027 53 6437 1.5 60 18:57 25.09.2019
4565 Haze 20 1027 60 6437 2.6 100 18:39 25.09.2019
4566 Haze 20 1027 60 6437 2.6 100 18:21 25.09.2019
4567 Mist 19 1027 63 8047 1.5 360 17:58 25.09.2019
4568 Mist 19 1027 63 8047 1.5 360 17:37 25.09.2019
4569 Mist 19 1027 63 8047 1.5 360 17:18 25.09.2019
4570 Mist 17 1027 72 6437 0.76 286.815 16:44 25.09.2019
4571 Mist 17 1027 72 6437 0.76 286.815 16:26 25.09.2019
4572 Mist 17 1027 72 6437 0.76 286.815 16:26 25.09.2019
4573 Mist 15 1026 77 6437 1.5 60 15:58 25.09.2019
4574 Mist 15 1026 77 6437 1.5 60 15:40 25.09.2019
4575 Mist 15 1026 77 6437 1.5 60 15:21 25.09.2019
4576 Mist 15 1026 77 6437 2.1 90 14:54 25.09.2019
4577 Mist 15 1026 77 6437 2.1 90 14:54 25.09.2019
4578 Mist 14 1026 77 6437 2.1 90 14:36 25.09.2019
4579 Mist 14 1026 77 6437 2.1 90 14:18 25.09.2019
4580 Mist 13 1025 93 6437 2.1 70 13:41 25.09.2019
4581 Mist 14 1026 87 6437 2.1 60 13:20 25.09.2019
4582 Mist 14 1026 87 6437 2.1 60 12:58 25.09.2019
4583 Mist 14 1026 87 6437 2.1 60 12:39 25.09.2019
4584 Mist 14 1026 87 6437 2.1 60 12:39 25.09.2019
4585 Mist 13 1028 87 4828 1.41 191.692 12:20 25.09.2019
4586 Mist 14 1026 87 6437 1.41 191.692 11:42 25.09.2019
4587 Mist 14 1026 87 6437 1.41 191.692 11:21 25.09.2019
4588 Clouds 14 1026 87 6437 2.1 340 10:57 25.09.2019
4589 Clouds 14 1026 87 6437 2.1 340 10:38 25.09.2019
4590 Clouds 14 1026 87 6437 2.1 340 10:19 25.09.2019
4591 Clouds 14 1026 87 6437 2.1 340 10:19 25.09.2019
4592 Clouds 14 1026 87 6437 2.1 340 10:19 25.09.2019
4593 Clouds 15 1026 82 6437 1.41 191.692 09:55 25.09.2019
4594 Clouds 15 1026 82 6437 1.41 191.692 09:36 25.09.2019
4595 Clouds 15 1027 82 8047 1.5 110 09:18 25.09.2019
4596 Clouds 15 1027 82 8047 1.5 110 08:41 25.09.2019
4597 Clouds 15 1027 82 8047 1.5 110 08:20 25.09.2019
4598 Clouds 15 1027 87 8047 2.1 50 07:55 25.09.2019
4599 -273 0 0 0 0 0 07:55 25.09.2019
4600 Clouds 15 1027 87 8047 2.1 50 07:36 25.09.2019
4601 Mist 15 1029 87 4023 2.1 70 07:18 25.09.2019
4602 Mist 15 1029 87 4023 2.1 70 06:37 25.09.2019
4603 Rain 15 1027 82 8047 2.6 320 05:52 25.09.2019
4604 Thunderstorm 15 1026 82 8047 2.1 270 05:26 25.09.2019
4605 Thunderstorm 15 1026 87 6437 2.1 260 04:45 25.09.2019
4606 Thunderstorm 21 1023 72 8047 6.2 250 01:44 25.09.2019
4607 Clouds 24 1022 38 9656 2.1 80 00:42 25.09.2019
4608 Clouds 24 1022 38 9656 2.1 80 00:23 25.09.2019
4609 Clouds 25 1023 33 8047 2.1 250 23:45 24.09.2019
4610 Clouds 25 1023 33 8047 2.1 250 23:23 24.09.2019
4611 Clouds 24 1024 38 8047 4.1 320 22:59 24.09.2019
4612 Clouds 24 1024 38 8047 4.1 320 22:38 24.09.2019
4613 Clouds 24 1024 38 8047 4.1 320 22:20 24.09.2019
4614 Clouds 23 1025 38 8047 3.1 50 21:56 24.09.2019
4615 Clouds 23 1025 38 8047 3.1 50 21:37 24.09.2019
4616 Clouds 23 1025 38 8047 3.1 50 21:18 24.09.2019
4617 Clouds 23 1027 46 8047 2.6 360 20:56 24.09.2019
4618 Clouds 23 1027 46 8047 2.6 360 20:38 24.09.2019
4619 -273 0 0 0 0 0 20:19 24.09.2019
4620 Haze 21 1028 56 9656 1 270 19:43 24.09.2019
4621 Haze 21 1028 56 9656 1 270 19:21 24.09.2019
4622 Haze 18 1028 63 9656 1.5 260 18:58 24.09.2019
4623 Haze 18 1028 63 9656 1.5 260 18:39 24.09.2019
4624 Mist 18 1028 63 9656 2.1 240 18:21 24.09.2019
4625 Mist 18 1028 63 9656 2.1 240 17:57 24.09.2019
4626 Mist 18 1028 63 9656 2.1 240 17:38 24.09.2019
4627 Mist 18 1028 63 9656 2.1 240 17:20 24.09.2019
4628 Mist 16 1028 63 8047 1.5 220 16:43 24.09.2019
4629 Mist 16 1028 63 8047 1.5 220 16:21 24.09.2019
4630 Fog 15 1028 77 8047 0.94 165.668 15:59 24.09.2019
4631 Fog 14 1029 93 805 0.94 165.668 15:41 24.09.2019
4632 Fog 14 1029 93 805 0.43 146.162 15:22 24.09.2019
4633 Fog 14 1029 93 805 0.43 146.162 15:22 24.09.2019
4634 Mist 13 1026 72 9656 4.1 290 14:40 24.09.2019
4635 Mist 13 1026 72 9656 4.1 290 14:19 24.09.2019
4636 Mist 13 1026 72 9656 2.1 260 13:45 24.09.2019
4637 Mist 13 1026 72 9656 2.1 260 13:24 24.09.2019
4638 Mist 14 1026 67 9656 1 310 12:59 24.09.2019
4639 Mist 14 1026 67 9656 1 310 12:39 24.09.2019
4640 Mist 14 1026 67 11265 3.1 60 12:18 24.09.2019
4641 Mist 14 1026 67 9656 1 310 12:18 24.09.2019
4642 Mist 14 1026 67 11265 3.1 60 11:42 24.09.2019
4643 Mist 14 1026 67 11265 3.1 60 11:22 24.09.2019
4644 Clouds 15 1027 63 11265 3.6 310 10:57 24.09.2019
4645 Clouds 15 1027 63 11265 3.6 310 10:37 24.09.2019
4646 Clouds 15 1027 63 11265 3.6 310 10:18 24.09.2019
4647 Clouds 15 1027 67 12874 3.6 310 09:45 24.09.2019
4648 Clouds 15 1027 67 12874 3.6 310 09:27 24.09.2019
4649 Clouds 16 1027 63 12874 5.1 310 08:57 24.09.2019
4650 Clouds 16 1027 63 12874 5.1 310 08:38 24.09.2019
4651 Clouds 16 1027 63 12874 5.1 310 08:19 24.09.2019
4652 Clouds 16 1028 59 14484 2.1 330 08:19 24.09.2019
4653 Clouds 16 1028 59 14484 2.1 330 07:52 24.09.2019
4654 Clouds 16 1028 59 14484 2.1 330 07:25 24.09.2019
4655 Clouds 17 1027 52 14484 5.1 20 06:57 24.09.2019
4656 Clouds 17 1027 52 14484 5.1 20 06:36 24.09.2019
4657 Clouds 17 1027 55 12874 4.6 360 05:51 24.09.2019
4658 Clouds 17 1027 55 12874 4.6 360 05:20 24.09.2019
4659 Clouds 19 1025 43 12874 4.1 360 03:45 24.09.2019
4660 Clouds 23 1024 40 11265 7.7 350 02:57 24.09.2019
4661 Clouds 23 1024 40 11265 7.7 350 02:38 24.09.2019
4662 Clouds 24 1024 29 11265 3.1 70 01:22 24.09.2019
4663 Clouds 25 1024 27 9656 2.1 350 00:37 24.09.2019
4664 Clouds 25 1025 29 8047 2.1 350 00:18 24.09.2019
4665 Clouds 25 1025 29 8047 2.1 350 23:40 23.09.2019
4666 Clouds 25 1025 29 8047 2.1 350 23:21 23.09.2019
4667 Clouds 25 1026 31 6437 3.1 110 22:40 23.09.2019
4668 Clouds 25 1026 31 6437 3.1 110 22:21 23.09.2019
4669 Haze 23 1027 37 9656 2.6 60 21:58 23.09.2019
4670 Haze 23 1027 37 9656 2.6 60 21:40 23.09.2019
4671 Haze 23 1027 37 9656 2.6 60 21:19 23.09.2019
4672 Haze 22 1028 43 8047 3.1 80 20:55 23.09.2019
4673 Haze 22 1028 43 8047 3.1 80 20:36 23.09.2019
4674 Haze 21 1028 43 8047 3.1 80 20:18 23.09.2019
4675 Haze 21 1028 43 8047 3.1 80 20:18 23.09.2019
4676 Haze 21 1029 52 8047 3.1 90 19:39 23.09.2019
4677 Haze 19 1030 59 8047 1.45 56.758 19:21 23.09.2019
4678 Haze 19 1030 59 8047 1.45 56.758 18:57 23.09.2019
4679 Haze 19 1030 59 8047 1.45 56.758 18:38 23.09.2019
4680 Haze 17 1030 59 9656 2.1 300 18:18 23.09.2019
4681 Haze 17 1030 59 9656 2.1 300 17:55 23.09.2019
4682 Haze 17 1030 59 9656 2.1 300 17:37 23.09.2019
4683 Haze 17 1030 59 9656 2.1 300 17:18 23.09.2019
4684 Haze 15 1029 76 11265 4.1 70 16:40 23.09.2019
4685 Haze 14 1029 76 11265 4.1 70 16:22 23.09.2019
4686 Mist 10 1029 93 3219 1.5 30 15:59 23.09.2019
4687 Mist 13 1029 87 1609 2.1 40 15:41 23.09.2019
4688 Mist 13 1029 87 1609 2.1 40 15:20 23.09.2019
4689 Mist 13 1029 87 1609 2.1 40 15:20 23.09.2019
4690 Mist 12 1029 93 1609 0.87 69.843 14:59 23.09.2019
4691 Fog 12 1028 81 11265 4.1 60 14:39 23.09.2019
4692 Fog 12 1028 81 11265 4.1 60 14:19 23.09.2019
4693 Fog 12 1028 76 12874 3.6 80 13:57 23.09.2019
4694 Fog 12 1028 76 12874 3.6 80 13:37 23.09.2019
4695 Fog 12 1028 76 12874 3.6 80 13:18 23.09.2019
4696 Clouds 13 1027 72 19312 3.1 320 12:41 23.09.2019
4697 Clouds 13 1027 72 19312 3.1 320 12:21 23.09.2019
4698 Clouds 13 1028 67 24140 2.6 360 11:55 23.09.2019
4699 Clouds 13 1028 67 24140 2.6 360 11:37 23.09.2019
4700 Clouds 13 1028 67 24140 2.6 360 11:18 23.09.2019
4701 Clouds 13 1028 67 24140 2.6 360 11:18 23.09.2019
4702 Clouds 14 1028 63 19312 1.5 10 10:44 23.09.2019
4703 Clouds 14 1028 63 19312 1.5 10 10:20 23.09.2019
4704 Clouds 15 1029 59 19312 2.1 350 09:43 23.09.2019
4705 Clouds 15 1029 59 19312 2.1 350 09:25 23.09.2019
4706 Clouds 15 1029 59 19312 2.6 320 08:58 23.09.2019
4707 Clouds 15 1029 59 19312 2.6 320 08:39 23.09.2019
4708 Clouds 15 1029 59 19312 2.6 320 08:19 23.09.2019
4709 Clouds 16 1029 55 19312 4.1 340 07:38 23.09.2019
4710 Clouds 16 1029 55 19312 4.1 340 07:20 23.09.2019
4711 Clouds 16 1028 55 19312 3.6 350 06:20 23.09.2019
4712 Clouds 17 1028 55 19312 5.7 20 05:38 23.09.2019
4713 Clouds 18 1027 49 16093 6.2 20 04:58 23.09.2019
4714 Clouds 21 1025 43 14484 5.1 30 04:00 23.09.2019
4715 Clouds 24 1024 33 11265 6.2 340 01:26 23.09.2019
4716 Rain 24 1024 33 11265 4.1 350 00:38 23.09.2019
4717 Rain 24 1025 33 9656 4.1 260 00:18 23.09.2019
4718 Rain 24 1025 33 9656 4.1 260 23:41 22.09.2019
4719 Rain 24 1025 33 9656 4.1 260 23:22 22.09.2019
4720 Clouds 24 1026 36 9656 2.1 330 22:56 22.09.2019
4721 Clouds 24 1026 36 9656 2.1 330 22:37 22.09.2019
4722 Clouds 24 1026 36 9656 2.1 330 22:19 22.09.2019
4723 Clouds 23 1027 43 9656 3.6 60 21:42 22.09.2019
4724 Ash 23 1028 49 9656 2.1 140 21:21 22.09.2019
4725 Ash 23 1028 49 9656 2.1 140 20:45 22.09.2019
4726 Ash 23 1028 49 9656 2.1 140 20:45 22.09.2019
4727 Ash 23 1028 49 9656 2.1 140 20:27 22.09.2019
4728 Ash 23 1028 49 9656 2.1 140 20:27 22.09.2019
4729 Ash 22 1028 46 9656 2.12 54.62 19:59 22.09.2019
4730 Ash 22 1028 46 9656 2.12 54.62 19:59 22.09.2019
4731 Ash 21 1029 59 8047 1.5 300 19:41 22.09.2019
4732 Ash 21 1029 59 8047 1.5 300 19:21 22.09.2019
4733 Haze 20 1029 63 8047 1.5 230 18:57 22.09.2019
4734 Haze 20 1029 63 8047 1.5 230 18:38 22.09.2019
4735 Haze 18 1030 77 8047 4.1 90 18:18 22.09.2019
4736 Haze 18 1030 77 8047 4.1 90 17:47 22.09.2019
4737 Haze 18 1030 77 8047 4.1 90 17:27 22.09.2019
4738 Mist 15 1029 82 9656 2.6 60 16:58 22.09.2019
4739 Mist 15 1029 82 9656 2.6 60 16:58 22.09.2019
4740 Mist 15 1029 82 9656 2.6 60 16:40 22.09.2019
4741 Mist 15 1029 82 9656 2.6 60 16:20 22.09.2019
4742 Haze 14 1030 93 3219 0.66 88.792 15:46 22.09.2019
4743 Mist 14 1028 82 9656 2.6 90 15:26 22.09.2019
4744 Clouds 14 1027 82 9656 3.1 70 14:57 22.09.2019
4745 Clouds 14 1027 82 9656 3.1 70 14:39 22.09.2019
4746 Clouds 13 1027 82 11265 2.6 60 14:21 22.09.2019
4747 Clouds 13 1027 82 11265 2.6 60 13:43 22.09.2019
4748 Clouds 13 1027 82 11265 2.6 60 13:43 22.09.2019
4749 Clouds 13 1027 82 11265 2.6 60 13:25 22.09.2019
4750 Clouds 14 1027 77 12874 2.1 90 12:57 22.09.2019
4751 Clouds 14 1027 77 12874 2.1 90 12:39 22.09.2019
4752 Clouds 14 1027 67 12874 2.6 330 12:21 22.09.2019
4753 Clouds 14 1027 67 12874 2.6 330 11:56 22.09.2019
4754 Clouds 14 1027 67 12874 2.6 330 11:56 22.09.2019
4755 Clouds 14 1027 67 12874 2.6 330 11:37 22.09.2019
4756 Clouds 15 1027 67 12874 2.6 280 11:18 22.09.2019
4757 Clouds 15 1027 67 12874 2.6 280 10:42 22.09.2019
4758 Clouds 15 1027 67 12874 2.6 280 10:42 22.09.2019
4759 Clouds 15 1027 67 12874 2.6 280 10:20 22.09.2019
4760 Clouds 15 1028 67 14484 3.1 300 09:43 22.09.2019
4761 Clouds 15 1028 67 14484 3.1 300 09:22 22.09.2019
4762 Clouds 15 1028 63 14484 3.1 300 08:58 22.09.2019
4763 Clouds 15 1028 63 14484 3.1 300 08:40 22.09.2019
4764 Clouds 16 1028 63 14484 3.1 300 08:22 22.09.2019
4765 Clouds 16 1028 63 14484 3.1 300 08:22 22.09.2019
4766 Clouds 16 1028 59 14484 3.6 280 07:44 22.09.2019
4767 Clouds 17 1028 59 14484 3.6 280 07:26 22.09.2019
4768 Clouds 16 1027 59 16093 4.1 350 06:58 22.09.2019
4769 Clouds 17 1027 59 16093 4.1 350 06:34 22.09.2019
4770 Clouds 18 1025 52 19312 7.2 20 04:41 22.09.2019
4771 Clouds 23 1025 49 16093 7.2 30 02:45 22.09.2019
4772 Clouds 24 1024 36 16093 6.2 360 02:24 22.09.2019
4773 Clouds 24 1024 36 16093 6.2 360 01:38 22.09.2019
4774 Clouds 25 1024 33 16093 4.1 10 00:53 22.09.2019
4775 Clouds 25 1024 33 16093 4.1 10 00:32 22.09.2019
4776 Clouds 25 1024 33 16093 2.6 360 23:54 21.09.2019
4777 Clouds 25 1024 33 16093 2.6 360 23:36 21.09.2019
4778 Clouds 24 1025 33 16093 4.1 30 22:46 21.09.2019
4779 Clouds 24 1025 33 16093 4.1 30 22:25 21.09.2019
4780 Clouds 24 1026 36 12874 2.1 60 21:59 21.09.2019
4781 Clear 23 1027 33 12874 3.6 20 21:41 21.09.2019
4782 Clear 23 1027 33 12874 3.6 20 21:19 21.09.2019
4783 Clear 22 1028 32 12874 3.6 90 20:55 21.09.2019
4784 Clear 22 1028 32 12874 3.6 90 20:36 21.09.2019
4785 Clear 21 1029 37 12874 1 50 20:18 21.09.2019
4786 Clear 21 1029 37 12874 1 50 19:42 21.09.2019
4787 Clouds 21 1030 55 6437 1.5 320 19:19 21.09.2019
4788 Haze 20 1029 55 11265 2.31 64.545 18:40 21.09.2019
4789 Haze 19 1031 67 4828 2.1 100 18:21 21.09.2019
4790 Mist 18 1029 67 9656 2.1 20 17:42 21.09.2019
4791 Mist 18 1029 67 9656 2.1 20 17:42 21.09.2019
4792 Mist 18 1029 67 9656 2.1 20 17:23 21.09.2019
4793 Mist 16 1029 76 9656 2.1 70 16:57 21.09.2019
4794 Mist 15 1029 76 9656 2.1 70 16:37 21.09.2019
4795 Mist 15 1029 76 9656 2.1 70 16:19 21.09.2019
4796 Fog 14 1029 87 9656 3.6 80 15:42 21.09.2019
4797 Fog 14 1029 87 9656 3.6 80 15:21 21.09.2019
4798 Mist 14 1028 82 8047 1.5 40 14:47 21.09.2019
4799 Mist 14 1028 82 8047 1.5 40 14:28 21.09.2019
4800 Mist 12 1027 87 8047 2.6 80 13:46 21.09.2019
4801 Mist 12 1027 87 8047 2.6 80 13:26 21.09.2019
4802 Mist 12 1027 82 9656 2.6 60 12:59 21.09.2019
4803 Mist 13 1027 82 9656 2.6 60 12:41 21.09.2019
4804 Mist 13 1027 82 9656 2.6 60 12:21 21.09.2019
4805 Mist 13 1027 87 9656 0.18 119.34 11:58 21.09.2019
4806 Mist 13 1027 87 9656 0.18 119.34 11:39 21.09.2019
4807 Mist 13 1027 87 9656 0.18 119.34 11:19 21.09.2019
4808 Mist 13 1027 82 9656 2.1 20 10:41 21.09.2019
4809 Mist 13 1028 87 11265 2.1 320 10:21 21.09.2019
4810 Mist 13 1028 87 11265 2.1 320 09:57 21.09.2019
4811 Mist 13 1028 87 11265 2.1 320 09:38 21.09.2019
4812 Mist 13 1028 87 11265 2.1 320 09:19 21.09.2019
4813 Clouds 14 1028 77 11265 1.5 240 08:50 21.09.2019
4814 Clouds 14 1028 77 11265 1.5 240 08:22 21.09.2019
4815 Clouds 14 1028 77 12874 2.1 240 07:40 21.09.2019
4816 Clouds 14 1028 77 12874 2.1 240 07:20 21.09.2019
4817 Rain 14 1027 77 12874 4.1 230 06:36 21.09.2019
4818 Clouds 14 1027 77 12874 3.1 240 05:51 21.09.2019
4819 Thunderstorm 15 1026 82 8047 3.6 250 04:48 21.09.2019
4820 Thunderstorm 15 1026 82 8047 3.6 250 04:29 21.09.2019
4821 Thunderstorm 19 1024 77 8047 4.1 220 02:26 21.09.2019
4822 Thunderstorm 21 1024 82 4828 3.1 250 01:50 21.09.2019
4823 Thunderstorm 20 1024 82 4828 3.1 250 01:32 21.09.2019
4824 Thunderstorm 23 1024 46 6437 12.9 80 00:26 21.09.2019
4825 Thunderstorm 23 1023 36 6437 3.1 300 23:58 20.09.2019
4826 Thunderstorm 23 1023 36 6437 3.1 300 23:31 20.09.2019
4827 Thunderstorm 23 1026 63 9656 6.7 170 22:59 20.09.2019
4828 Clouds 24 1024 38 8047 2.6 300 22:38 20.09.2019
4829 Clouds 24 1024 38 8047 2.6 300 22:20 20.09.2019
4830 Clouds 23 1025 43 8047 2.1 30 21:55 20.09.2019
4831 Clouds 23 1025 43 8047 2.1 30 21:37 20.09.2019
4832 Clouds 23 1025 43 8047 2.1 30 21:18 20.09.2019
4833 Clouds 23 1026 46 6437 1.5 90 20:41 20.09.2019
4834 Clouds 23 1026 46 6437 1.5 90 20:41 20.09.2019
4835 Clouds 23 1026 46 6437 1.5 90 20:21 20.09.2019
4836 Haze 21 1027 56 6437 1.5 320 19:59 20.09.2019
4837 Haze 21 1027 56 6437 1.5 320 19:40 20.09.2019
4838 Mist 20 1027 63 8047 2.1 260 19:20 20.09.2019
4839 Mist 20 1027 63 8047 2.1 260 18:40 20.09.2019
4840 Mist 20 1027 63 8047 2.1 260 18:20 20.09.2019
4841 Mist 18 1028 76 3219 2.1 290 17:59 20.09.2019
4842 Mist 17 1027 72 8047 2.1 260 17:41 20.09.2019
4843 Mist 17 1027 72 8047 2.1 260 17:22 20.09.2019
4844 Mist 16 1027 82 8047 1.5 70 16:41 20.09.2019
4845 Mist 16 1027 82 8047 1.5 70 16:19 20.09.2019
4846 Mist 13 1026 82 8047 2.6 70 15:43 20.09.2019
4847 Mist 13 1026 82 8047 2.6 70 15:24 20.09.2019
4848 Mist 13 1026 82 8047 2.6 70 15:24 20.09.2019
4849 Mist 13 1027 93 3219 2.1 50 14:59 20.09.2019
4850 Fog 13 1026 87 8047 2.6 60 14:41 20.09.2019
4851 Fog 13 1026 87 8047 2.6 60 14:41 20.09.2019
4852 Fog 13 1026 87 8047 2.6 60 14:18 20.09.2019
4853 Fog 13 1026 87 8047 2.6 60 14:18 20.09.2019
4854 Clouds 14 1026 93 0 2.24 70 13:47 20.09.2019
4855 Mist 12 1027 93 4828 0.54 128.127 13:28 20.09.2019
4856 Mist 14 1026 87 8047 1 70 12:57 20.09.2019
4857 Mist 14 1026 87 8047 1 70 12:36 20.09.2019
4858 Mist 14 1026 87 8047 1 70 12:18 20.09.2019
4859 Mist 14 1026 87 8047 1 80 11:48 20.09.2019
4860 Mist 14 1026 87 8047 1 80 11:21 20.09.2019
4861 Mist 14 1026 87 9656 1.5 80 10:43 20.09.2019
4862 Mist 14 1026 87 9656 1.5 80 10:24 20.09.2019
4863 Mist 14 1027 82 9656 1.5 240 09:55 20.09.2019
4864 Mist 14 1027 82 9656 1.5 240 09:36 20.09.2019
4865 Mist 14 1027 82 9656 1.5 240 09:18 20.09.2019
4866 Mist 15 1026 77 9656 3.1 290 08:41 20.09.2019
4867 Mist 15 1026 77 9656 3.1 290 08:22 20.09.2019
4868 Clouds 15 1027 82 9656 3.1 280 07:45 20.09.2019
4869 Clouds 15 1027 82 9656 3.1 280 07:26 20.09.2019
4870 Clouds 15 1026 77 9656 2.1 280 06:44 20.09.2019
4871 Clouds 16 1026 77 9656 2.1 280 06:21 20.09.2019
4872 Rain 15 1026 82 9656 2.6 290 05:43 20.09.2019
4873 Clouds 17 1025 68 11265 2.1 310 03:36 20.09.2019
4874 Rain 19 1025 68 11265 2.1 310 03:18 20.09.2019
4875 Rain 18 1024 87 8047 12.9 360 01:44 20.09.2019
4876 Rain 18 1024 87 8047 12.9 360 01:44 20.09.2019
4877 Rain 19 1023 72 9656 7.2 270 00:52 20.09.2019
4878 Clouds 22 1023 46 9656 2.6 80 00:21 20.09.2019
4879 Clouds 22 1023 46 9656 2.6 80 23:42 19.09.2019
4880 Clouds 22 1023 46 9656 2.6 80 23:19 19.09.2019
4881 Rain 22 1024 53 8047 4.1 100 22:55 19.09.2019
4882 Rain 22 1024 53 8047 4.1 100 22:36 19.09.2019
4883 Rain 22 1024 53 8047 4.1 100 22:18 19.09.2019
4884 Rain 22 1024 60 8047 6.7 120 21:55 19.09.2019
4885 Clouds 23 1025 44 9656 1 200 21:36 19.09.2019
4886 Haze 23 1025 44 9656 1 200 21:18 19.09.2019
4887 Haze 22 1026 49 9656 2.6 300 20:43 19.09.2019
4888 Haze 22 1026 49 9656 2.6 300 20:21 19.09.2019
4889 Haze 20 1027 52 8047 2.6 90 19:55 19.09.2019
4890 Haze 20 1027 52 8047 2.6 90 19:37 19.09.2019
4891 Haze 20 1027 52 8047 1.5 140 19:19 19.09.2019
4892 Haze 20 1027 52 8047 1.5 140 18:42 19.09.2019
4893 Haze 18 1027 68 9656 1.88 254.929 18:24 19.09.2019
4894 Haze 18 1027 68 9656 1.88 254.929 17:54 19.09.2019
4895 Haze 18 1027 68 9656 1.88 254.929 17:36 19.09.2019
4896 Haze 16 1027 82 12874 1.5 190 17:18 19.09.2019
4897 Haze 16 1027 82 12874 1.5 190 16:42 19.09.2019
4898 Haze 16 1027 82 9656 1.5 190 16:20 19.09.2019
4899 Haze 16 1027 82 9656 1.5 190 15:55 19.09.2019
4900 Haze 16 1027 82 9656 1.5 190 15:55 19.09.2019
4901 Haze 16 1027 82 9656 1.5 190 15:55 19.09.2019
4902 Haze 16 1027 82 9656 1.5 190 15:55 19.09.2019
4903 Haze 16 1027 82 9656 1.5 190 15:55 19.09.2019
4904 Haze 16 1027 82 9656 1.5 190 15:36 19.09.2019
4905 Haze 15 1027 82 9656 1.5 190 15:18 19.09.2019
4906 Mist 15 1026 87 12874 2.1 200 14:41 19.09.2019
4907 Mist 15 1026 87 12874 2.1 200 14:22 19.09.2019
4908 Clouds 14 1026 87 16093 2.1 230 13:58 19.09.2019
4909 Clouds 14 1026 87 16093 2.1 230 13:37 19.09.2019
4910 Clouds 14 1026 87 16093 1.16 257.809 13:18 19.09.2019
4911 Clouds 14 1026 87 16093 1.16 257.809 12:37 19.09.2019
4912 Clouds 14 1026 87 16093 0.96 229.373 12:18 19.09.2019
4913 Rain 14 1027 93 12874 2.6 60 11:41 19.09.2019
4914 Rain 14 1027 93 12874 2.6 60 11:22 19.09.2019
4915 Rain 14 1027 93 12874 2.6 60 11:22 19.09.2019
4916 Rain 14 1027 87 12874 1.5 120 10:59 19.09.2019
4917 Rain 14 1027 87 12874 1.5 120 10:39 19.09.2019
4918 Rain 14 1027 87 12874 1.5 120 10:21 19.09.2019
4919 Rain 14 1027 87 12874 1.5 120 10:21 19.09.2019
4920 Rain 14 1028 82 16093 0.96 229.373 09:58 19.09.2019
4921 Rain 14 1028 82 16093 0.96 229.373 09:40 19.09.2019
4922 Rain 14 1028 82 16093 0.96 229.373 09:40 19.09.2019
4923 Rain 14 1028 82 16093 1.3 299.936 09:19 19.09.2019
4924 Rain 14 1028 87 16093 1.53 265.84 08:51 19.09.2019
4925 Rain 14 1028 87 16093 1.53 265.84 08:24 19.09.2019
4926 Rain 14 1029 93 12874 1.53 265.84 07:44 19.09.2019
4927 Rain 14 1029 87 8047 4.1 260 07:22 19.09.2019
4928 Rain 15 1029 87 8047 4.1 260 06:57 19.09.2019
4929 Rain 15 1029 87 8047 4.1 260 06:37 19.09.2019
4930 Thunderstorm 15 1029 87 6437 4.1 220 06:19 19.09.2019
4931 Thunderstorm 15 1028 87 6437 3.6 60 05:42 19.09.2019
4932 Thunderstorm 15 1027 82 9656 5.1 360 04:18 19.09.2019
4933 Thunderstorm 16 1026 77 12874 2.6 160 03:20 19.09.2019
4934 Thunderstorm 21 1024 40 12874 2.1 160 01:40 19.09.2019
4935 Thunderstorm 22 1027 77 9656 5.1 320 01:19 19.09.2019
4936 Thunderstorm 22 1027 77 9656 5.1 320 00:42 19.09.2019
4937 Thunderstorm 22 1027 77 9656 5.1 320 00:18 19.09.2019
4938 Clouds 22 1024 41 14484 5.1 120 23:37 18.09.2019
4939 Clouds 23 1024 41 14484 5.1 120 23:19 18.09.2019
4940 Clouds 23 1025 43 14484 5.1 130 22:38 18.09.2019
4941 Clouds 23 1025 43 14484 5.1 130 22:19 18.09.2019
4942 Clouds 22 1026 46 16093 3.6 120 21:57 18.09.2019
4943 Clouds 22 1026 46 16093 3.6 120 21:39 18.09.2019
4944 Clouds 22 1026 46 16093 3.6 120 21:18 18.09.2019
4945 Clouds 22 1028 46 16093 3.1 210 20:57 18.09.2019
4946 Clouds 22 1028 46 16093 3.1 210 20:57 18.09.2019
4947 Clouds 22 1028 46 16093 3.1 210 20:39 18.09.2019
4948 Clouds 22 1028 43 16093 3.1 170 20:20 18.09.2019
4949 Clouds 22 1028 43 16093 3.1 170 20:20 18.09.2019
4950 Clouds 22 1028 43 16093 3.1 170 19:56 18.09.2019
4951 Clouds 21 1028 52 16093 2.6 230 19:37 18.09.2019
4952 Mist 20 1028 60 16093 2.6 40 19:18 18.09.2019
4953 Mist 20 1028 60 16093 2.6 40 18:54 18.09.2019
4954 Mist 20 1028 60 16093 2.6 40 18:36 18.09.2019
4955 Mist 19 1028 60 16093 2.6 40 18:18 18.09.2019
4956 Mist 17 1028 67 16093 4.1 110 17:41 18.09.2019
4957 Mist 17 1028 67 16093 4.1 110 17:20 18.09.2019
4958 Mist 16 1030 82 9656 3.1 120 16:59 18.09.2019
4959 Mist 16 1030 82 9656 3.1 120 16:41 18.09.2019
4960 Mist 16 1030 82 9656 3.1 120 16:22 18.09.2019
4961 Mist 15 1027 72 16093 2.6 110 15:56 18.09.2019
4962 Mist 15 1027 72 16093 2.6 110 15:56 18.09.2019
4963 Mist 15 1027 72 16093 2.6 110 15:38 18.09.2019
4964 Mist 15 1027 72 16093 2.6 110 15:20 18.09.2019
4965 Mist 16 1029 87 8047 5.7 150 14:58 18.09.2019
4966 Clouds 15 1027 67 16093 3.1 160 14:40 18.09.2019
4967 Clouds 15 1027 67 16093 3.1 160 14:21 18.09.2019
4968 Clouds 14 1027 77 16093 3.6 120 13:58 18.09.2019
4969 Clouds 14 1027 77 16093 3.6 120 13:58 18.09.2019
4970 Clouds 14 1027 77 16093 3.6 120 13:37 18.09.2019
4971 Clouds 15 1026 67 16093 1 180 13:18 18.09.2019
4972 Clouds 15 1026 67 16093 1 180 13:18 18.09.2019
4973 Clouds 15 1026 67 16093 1 180 12:42 18.09.2019
4974 Clouds 15 1026 67 16093 1 180 12:22 18.09.2019
4975 Clouds 15 1027 72 16093 1 150 11:40 18.09.2019
4976 Clouds 15 1027 72 16093 1 150 11:40 18.09.2019
4977 Clouds 15 1027 72 16093 1 150 11:20 18.09.2019
4978 Clouds 15 1027 72 14484 2.1 180 10:58 18.09.2019
4979 Clouds 15 1027 72 14484 2.1 180 10:39 18.09.2019
4980 Clouds 15 1027 72 14484 2.1 180 10:20 18.09.2019
4981 Clouds 16 1027 68 14484 1.5 230 09:55 18.09.2019
4982 Clouds 16 1027 68 14484 1.5 230 09:37 18.09.2019
4983 Clouds 16 1027 68 14484 1.5 230 09:18 18.09.2019
4984 Clouds 15 1028 72 11265 1.5 210 08:41 18.09.2019
4985 Clouds 15 1028 72 11265 1.5 210 08:41 18.09.2019
4986 Clouds 15 1028 72 11265 1.5 210 08:21 18.09.2019
4987 Clouds 15 1028 72 11265 2.1 270 07:45 18.09.2019
4988 Clouds 15 1028 72 11265 2.1 270 07:23 18.09.2019
4989 Clouds 15 1027 77 12874 3.1 290 06:55 18.09.2019
4990 Clouds 15 1027 77 12874 3.1 290 06:55 18.09.2019
4991 Clouds 15 1027 77 12874 3.1 290 06:29 18.09.2019
4992 Rain 15 1027 77 12874 3.6 280 05:39 18.09.2019
4993 Thunderstorm 19 1026 72 9656 3.1 280 03:49 18.09.2019
4994 Thunderstorm 19 1023 82 1609 15.4 50 02:41 18.09.2019
4995 Thunderstorm 22 1023 49 9656 5.1 120 01:50 18.09.2019
4996 Clouds 25 1023 33 9656 2.6 80 00:57 18.09.2019
4997 Clouds 25 1023 33 9656 2.6 80 00:34 18.09.2019
4998 Clouds 25 1024 31 9656 3.1 340 23:48 17.09.2019
4999 Clouds 25 1024 31 9656 3.1 340 23:48 17.09.2019
5000 Clouds 25 1024 31 9656 3.1 340 23:26 17.09.2019
5001 Clouds 25 1025 36 8047 2.6 90 22:59 17.09.2019
5002 Clouds 24 1025 36 8047 2.6 90 22:41 17.09.2019
5003 Clouds 24 1025 36 8047 2.6 90 22:22 17.09.2019
5004 Clouds 23 1026 40 9656 3.1 90 21:54 17.09.2019
5005 Clouds 23 1026 40 9656 3.1 90 21:36 17.09.2019
5006 Clouds 23 1026 40 9656 3.1 90 21:18 17.09.2019
5007 Clouds 23 1026 40 9656 3.1 90 21:18 17.09.2019
5008 Clouds 23 1026 40 9656 3.1 90 21:18 17.09.2019
5009 -273 0 0 0 0 0 20:57 17.09.2019
5010 Clouds 22 1027 46 8047 1.54 56.134 20:38 17.09.2019
5011 Clouds 22 1027 46 8047 1.54 56.134 20:20 17.09.2019
5012 Clouds 22 1027 46 8047 1.54 56.134 20:20 17.09.2019
5013 Mist 22 1028 43 8047 2.6 80 19:57 17.09.2019
5014 Mist 21 1028 56 8047 3.1 20 19:38 17.09.2019
5015 Mist 19 1029 63 8047 3.1 280 19:18 17.09.2019
5016 Mist 19 1029 63 8047 3.1 280 18:43 17.09.2019
5017 Mist 19 1029 63 8047 3.1 280 18:22 17.09.2019
5018 Mist 18 1029 72 8047 2.1 90 17:56 17.09.2019
5019 Mist 18 1029 72 8047 2.1 90 17:38 17.09.2019
5020 Mist 18 1029 72 8047 2.1 90 17:19 17.09.2019
5021 Fog 16 1028 82 9656 3.1 80 16:42 17.09.2019
5022 Fog 14 1028 82 8047 2.6 80 16:23 17.09.2019
5023 Fog 14 1028 82 8047 2.6 80 15:59 17.09.2019
5024 Fog 15 1028 82 8047 2.6 80 15:38 17.09.2019
5025 Fog 15 1028 82 8047 2.6 80 15:19 17.09.2019
5026 Fog 14 1027 87 9656 3.1 120 14:56 17.09.2019
5027 Fog 14 1027 87 9656 3.1 120 14:56 17.09.2019
5028 Fog 13 1027 87 9656 3.1 120 14:37 17.09.2019
5029 Fog 12 1027 87 12874 1.5 80 14:19 17.09.2019
5030 Fog 13 1027 87 12874 1.5 80 13:43 17.09.2019
5031 Fog 13 1027 87 12874 1.5 80 13:23 17.09.2019
5032 Fog 12 1026 87 16093 2.6 70 12:56 17.09.2019
5033 Fog 13 1026 87 16093 2.6 70 12:37 17.09.2019
5034 Fog 13 1026 82 19312 2.1 300 12:18 17.09.2019
5035 Fog 13 1026 82 19312 2.1 300 11:42 17.09.2019
5036 Fog 13 1026 82 19312 2.1 300 11:24 17.09.2019
5037 Fog 13 1026 82 19312 2.1 300 11:24 17.09.2019
5038 Fog 13 1027 87 19312 2.1 270 10:55 17.09.2019
5039 Fog 13 1027 87 19312 2.1 270 10:37 17.09.2019
5040 Fog 13 1027 87 19312 2.1 270 10:18 17.09.2019
5041 Mist 14 1027 82 19312 2.6 260 09:41 17.09.2019
5042 Clouds 14 1028 72 19312 5.1 280 09:21 17.09.2019
5043 Clouds 15 1028 72 19312 5.1 280 08:50 17.09.2019
5044 Clouds 15 1028 72 19312 5.1 280 08:32 17.09.2019
5045 Mist 15 1027 72 19312 2.1 260 07:59 17.09.2019
5046 Mist 15 1027 72 19312 2.1 260 07:39 17.09.2019
5047 Mist 15 1027 72 19312 2.1 260 07:39 17.09.2019
5048 Mist 15 1027 72 19312 2.1 260 07:39 17.09.2019
5049 Rain 15 1028 82 19312 2.6 280 07:19 17.09.2019
5050 Rain 14 1028 82 19312 2.6 280 06:45 17.09.2019
5051 Thunderstorm 14 1027 82 11265 4.6 280 06:20 17.09.2019
5052 Thunderstorm 14 1027 82 11265 4.6 280 05:47 17.09.2019
5053 Thunderstorm 14 1027 93 8047 5.1 300 04:29 17.09.2019
5054 Rain 20 1025 72 11265 3.1 270 02:57 17.09.2019
5055 Clouds 20 1025 63 11265 3.1 260 02:38 17.09.2019
5056 Clouds 20 1025 63 11265 3.1 260 02:38 17.09.2019
5057 Clouds 21 1024 56 11265 5.1 130 01:26 17.09.2019
5058 Rain 23 1023 36 12874 4.1 40 00:40 17.09.2019
5059 Clouds 23 1024 36 11265 3.1 20 23:40 16.09.2019
5060 Clouds 23 1024 36 11265 3.1 20 23:19 16.09.2019
5061 Clouds 24 1026 38 9656 3.1 350 22:56 16.09.2019
5062 Clouds 24 1026 38 9656 3.1 350 22:56 16.09.2019
5063 Clouds 24 1026 38 9656 3.1 350 22:56 16.09.2019
5064 Clouds 23 1026 38 9656 3.1 350 22:37 16.09.2019
5065 Clouds 23 1026 38 9656 3.1 350 22:19 16.09.2019
5066 Clouds 23 1027 46 9656 4.1 160 21:41 16.09.2019
5067 Clouds 23 1027 46 9656 4.1 160 21:22 16.09.2019
5068 Clouds 23 1027 46 9656 2.17 51.266 20:59 16.09.2019
5069 Clouds 22 1028 52 9656 2.6 220 20:40 16.09.2019
5070 Clouds 22 1028 52 9656 2.6 220 20:20 16.09.2019
5071 Clouds 20 1029 55 9656 1.5 180 19:57 16.09.2019
5072 Clouds 20 1029 55 9656 1.5 180 19:38 16.09.2019
5073 Clouds 20 1029 55 9656 1.5 180 19:19 16.09.2019
5074 Clouds 19 1029 59 9656 2.25 57.32 18:46 16.09.2019
5075 Clouds 19 1029 59 9656 2.25 57.32 18:27 16.09.2019
5076 Haze 17 1029 67 8047 2.1 300 17:57 16.09.2019
5077 Haze 17 1029 67 8047 2.1 300 17:38 16.09.2019
5078 Haze 17 1029 67 8047 2.1 300 17:19 16.09.2019
5079 Mist 15 1029 77 6437 2.6 240 16:44 16.09.2019
5080 Mist 15 1029 77 6437 2.6 240 16:22 16.09.2019
5081 Mist 13 1028 82 9656 2.1 80 15:58 16.09.2019
5082 Mist 13 1028 82 9656 2.1 80 15:39 16.09.2019
5083 Mist 13 1028 82 9656 2.1 80 15:21 16.09.2019
5084 Smoke 13 1028 87 8047 2.6 90 14:58 16.09.2019
5085 Smoke 11 1028 87 8047 2.6 90 14:40 16.09.2019
5086 Smoke 11 1028 87 8047 2.6 90 14:21 16.09.2019
5087 Smoke 12 1027 82 9656 3.6 60 13:43 16.09.2019
5088 Clouds 12 1027 82 11265 3.6 70 13:22 16.09.2019
5089 Clouds 12 1027 82 11265 3.6 70 12:59 16.09.2019
5090 Clouds 12 1027 82 11265 3.6 70 12:39 16.09.2019
5091 Clouds 12 1027 82 11265 3.6 70 12:21 16.09.2019
5092 Clouds 13 1027 67 16093 3.1 80 11:46 16.09.2019
5093 Clouds 13 1027 67 16093 3.1 80 11:23 16.09.2019
5094 Smoke 14 1028 63 16093 2.1 90 10:56 16.09.2019
5095 Smoke 14 1028 63 16093 2.1 90 10:38 16.09.2019
5096 Smoke 14 1028 63 16093 2.1 90 10:19 16.09.2019
5097 Clouds 15 1028 63 16093 3.6 300 09:55 16.09.2019
5098 Clouds 15 1028 63 16093 3.6 300 09:36 16.09.2019
5099 Clouds 15 1028 63 16093 3.6 300 09:18 16.09.2019
5100 Clouds 15 1029 59 16093 4.1 290 08:41 16.09.2019
5101 Clouds 15 1029 59 16093 4.1 290 08:41 16.09.2019
5102 Clouds 15 1029 59 16093 4.1 290 08:22 16.09.2019
5103 Smoke 15 1029 59 16093 1.5 350 07:43 16.09.2019
5104 Smoke 15 1029 59 16093 1.5 350 07:24 16.09.2019
5105 Clouds 15 1028 59 19312 4.1 360 06:58 16.09.2019
5106 Clouds 15 1028 59 19312 4.1 360 06:39 16.09.2019
5107 Clouds 16 1027 55 19312 6.7 10 06:20 16.09.2019
5108 Clouds 16 1027 55 19312 6.7 10 05:42 16.09.2019
5109 Clouds 16 1026 52 19312 5.1 360 05:21 16.09.2019
5110 Clouds 20 1025 40 19312 7.2 20 03:46 16.09.2019
5111 Clouds 22 1024 33 19312 9.3 20 01:31 16.09.2019
5112 Rain 23 1024 27 16093 2.1 130 00:38 16.09.2019
5113 Rain 23 1024 27 16093 2.1 130 00:20 16.09.2019
5114 Clouds 24 1025 29 16093 2.1 20 23:39 15.09.2019
5115 Clouds 24 1026 31 16093 3.1 40 23:20 15.09.2019
5116 Clouds 24 1026 31 16093 3.1 40 22:40 15.09.2019
5117 Clouds 24 1026 31 16093 3.1 40 22:21 15.09.2019
5118 Clouds 23 1027 33 16093 4.6 60 21:58 15.09.2019
5119 Clouds 23 1027 33 16093 4.6 60 21:39 15.09.2019
5120 Clouds 23 1027 33 16093 4.6 60 21:39 15.09.2019
5121 Clouds 23 1027 33 16093 4.6 60 21:39 15.09.2019
5122 Clouds 23 1027 33 16093 4.6 60 21:39 15.09.2019
5123 Clouds 22 1028 37 16093 3.6 340 21:21 15.09.2019
5124 Clouds 22 1028 37 16093 3.6 340 20:57 15.09.2019
5125 Clouds 22 1028 37 16093 3.6 340 20:57 15.09.2019
5126 Clouds 22 1028 37 16093 3.6 340 20:38 15.09.2019
5127 Clouds 22 1028 37 16093 3.6 340 20:20 15.09.2019
5128 Clouds 21 1029 40 16093 3.6 130 19:42 15.09.2019
5129 Clouds 21 1029 40 16093 3.6 130 19:22 15.09.2019
5130 Clouds 19 1029 55 14484 2.1 80 18:42 15.09.2019
5131 Clouds 19 1029 55 14484 2.1 80 18:24 15.09.2019
5132 Haze 16 1029 67 14484 2.1 50 17:58 15.09.2019
5133 Haze 16 1029 67 14484 2.1 50 17:39 15.09.2019
5134 Haze 16 1029 67 14484 2.1 50 17:20 15.09.2019
5135 Haze 14 1029 76 14484 3.1 90 16:44 15.09.2019
5136 Haze 14 1029 76 14484 3.1 90 16:25 15.09.2019
5137 Mist 13 1028 82 14484 2.6 60 15:58 15.09.2019
5138 Mist 13 1028 82 14484 2.6 60 15:40 15.09.2019
5139 Mist 13 1028 82 14484 2.6 60 15:20 15.09.2019
5140 Mist 11 1029 93 3219 2.1 320 14:58 15.09.2019
5141 Clouds 11 1028 82 16093 3.1 70 14:39 15.09.2019
5142 Clouds 11 1028 82 16093 3.1 70 14:20 15.09.2019
5143 Clouds 12 1028 76 19312 1.5 90 13:46 15.09.2019
5144 Clouds 12 1028 76 19312 1.5 90 13:46 15.09.2019
5145 Clouds 12 1028 76 19312 1.5 90 13:24 15.09.2019
5146 Clouds 12 1028 76 19312 2.1 50 12:55 15.09.2019
5147 Clouds 12 1028 76 19312 2.1 50 12:36 15.09.2019
5148 Clouds 13 1028 67 19312 2.1 10 12:18 15.09.2019
5149 Clouds 13 1028 67 19312 2.1 10 11:42 15.09.2019
5150 Clouds 13 1028 67 19312 2.1 10 11:22 15.09.2019
5151 Clouds 13 1028 67 16093 2.6 280 10:56 15.09.2019
5152 Clouds 13 1028 67 16093 2.6 280 10:38 15.09.2019
5153 Clouds 13 1028 67 16093 2.6 280 10:19 15.09.2019
5154 Clouds 13 1029 62 19312 2.6 290 09:40 15.09.2019
5155 Clouds 14 1029 59 19312 4.1 330 09:20 15.09.2019
5156 Clouds 14 1029 59 19312 4.1 330 08:47 15.09.2019
5157 Clouds 14 1029 59 19312 4.1 330 08:47 15.09.2019
5158 Clouds 14 1029 59 19312 4.1 330 08:28 15.09.2019
5159 Clouds 14 1029 59 19312 4.1 330 08:28 15.09.2019
5160 Clouds 14 1029 59 19312 4.6 10 07:51 15.09.2019
5161 Clouds 14 1029 59 19312 4.6 10 07:32 15.09.2019
5162 Clouds 15 1029 63 19312 4.1 330 06:43 15.09.2019
5163 Clouds 18 1026 45 16093 9.8 30 03:54 15.09.2019
5164 Clouds 21 1026 45 16093 9.3 40 02:46 15.09.2019
5165 Clouds 22 1025 38 16093 6.2 10 01:45 15.09.2019
5166 Clouds 22 1025 38 16093 6.2 10 01:45 15.09.2019
5167 Clouds 22 1025 38 16093 6.2 10 01:45 15.09.2019
5168 Clouds 22 1025 38 16093 6.2 10 01:27 15.09.2019
5169 Clouds 23 1025 35 16093 5.1 360 00:50 15.09.2019
5170 Clouds 23 1025 35 16093 5.1 360 00:24 15.09.2019
5171 Clouds 23 1026 43 16093 5.1 340 23:59 14.09.2019
5172 Clouds 22 1026 43 16093 5.1 340 23:41 14.09.2019
5173 Clouds 22 1026 43 16093 5.1 340 23:22 14.09.2019
5174 Clouds 22 1027 49 16093 4.1 330 22:59 14.09.2019
5175 Clouds 22 1027 49 16093 4.1 330 22:40 14.09.2019
5176 Clouds 22 1027 49 16093 4.1 330 22:21 14.09.2019
5177 Clouds 21 1028 52 16093 5.1 40 21:57 14.09.2019
5178 Clouds 21 1028 52 16093 5.1 40 21:39 14.09.2019
5179 Clouds 21 1028 52 16093 5.1 40 21:19 14.09.2019
5180 Clouds 21 1029 55 16093 4.1 360 20:55 14.09.2019
5181 Clouds 21 1029 55 16093 4.1 360 20:55 14.09.2019
5182 Clouds 20 1029 55 16093 4.1 360 20:36 14.09.2019
5183 Clouds 20 1029 55 16093 4.1 360 20:18 14.09.2019
5184 Mist 20 1029 59 12874 5.1 360 19:44 14.09.2019
5185 Mist 20 1029 59 12874 5.1 360 19:21 14.09.2019
5186 Fog 19 1029 63 12874 3.6 340 18:55 14.09.2019
5187 Fog 18 1030 72 12874 3.6 350 18:37 14.09.2019
5188 Mist 17 1030 67 4828 4.1 270 18:18 14.09.2019
5189 Mist 16 1029 72 12874 2.1 360 17:42 14.09.2019
5190 Mist 16 1029 72 12874 2.1 360 17:22 14.09.2019
5191 Mist 15 1030 82 4828 2.26 57.3 16:47 14.09.2019
5192 Mist 15 1030 82 4828 2.26 57.3 16:47 14.09.2019
5193 Mist 15 1029 77 12874 2.1 360 16:26 14.09.2019
5194 Mist 15 1028 77 12874 2.6 310 15:57 14.09.2019
5195 Mist 15 1028 77 12874 2.6 310 15:38 14.09.2019
5196 Mist 15 1028 77 12874 2.6 310 15:19 14.09.2019
5197 Fog 15 1028 77 16093 1.5 310 14:43 14.09.2019
5198 Fog 15 1028 77 16093 1.5 310 14:19 14.09.2019
5199 Clouds 14 1027 77 19312 1.5 340 13:48 14.09.2019
5200 Clouds 14 1027 77 19312 1.5 340 13:23 14.09.2019
5201 Clouds 14 1027 77 19312 2.6 350 12:58 14.09.2019
5202 Clouds 14 1027 77 19312 2.6 350 12:37 14.09.2019
5203 Clouds 14 1027 77 19312 2.6 350 12:18 14.09.2019
5204 Clouds 14 1027 72 19312 4.1 350 11:40 14.09.2019
5205 Clouds 14 1027 72 19312 4.1 350 11:19 14.09.2019
5206 Clouds 15 1028 67 19312 4.1 340 10:39 14.09.2019
5207 Clouds 15 1028 63 19312 2.6 10 10:20 14.09.2019
5208 Clouds 15 1028 63 19312 2.6 10 09:57 14.09.2019
5209 Clouds 15 1028 63 19312 2.6 10 09:39 14.09.2019
5210 Clouds 15 1028 63 19312 2.6 10 09:19 14.09.2019
5211 Clouds 15 1028 67 19312 5.1 340 08:46 14.09.2019
5212 Clouds 15 1028 67 19312 5.1 340 08:24 14.09.2019
5213 Clouds 15 1029 67 19312 5.1 350 07:47 14.09.2019
5214 Clouds 15 1029 67 19312 5.1 350 07:28 14.09.2019
5215 Clouds 16 1028 67 19312 4.1 10 06:52 14.09.2019
5216 Clouds 16 1028 67 19312 4.1 10 06:28 14.09.2019
5217 Clouds 16 1028 67 19312 4.1 10 06:28 14.09.2019
5218 Rain 17 1028 63 19312 4.6 10 05:26 14.09.2019
5219 Clouds 17 1026 82 11265 2.6 260 03:46 14.09.2019
5220 Rain 18 1026 77 11265 3.1 230 02:54 14.09.2019
5221 Rain 18 1026 77 11265 3.1 230 02:54 14.09.2019
5222 Rain 18 1025 63 11265 4.6 290 01:52 14.09.2019
5223 Rain 18 1025 59 11265 2.6 240 01:23 14.09.2019
5224 Rain 21 1025 52 12874 3.1 20 00:58 14.09.2019
5225 Rain 21 1025 52 12874 3.1 20 00:38 14.09.2019
5226 Clouds 20 1025 52 11265 3.6 260 00:20 14.09.2019
5227 Clouds 22 1025 52 11265 3.6 260 23:38 13.09.2019
5228 Clouds 22 1025 52 11265 3.6 260 23:19 13.09.2019
5229 Clouds 22 1026 59 11265 2.6 220 22:58 13.09.2019
5230 Rain 21 1026 55 9656 2.6 200 22:38 13.09.2019
5231 Rain 21 1026 55 9656 2.6 200 22:20 13.09.2019
5232 Clouds 21 1028 55 16093 3.1 240 21:42 13.09.2019
5233 Clouds 21 1028 55 16093 3.1 240 21:20 13.09.2019
5234 Clouds 21 1028 55 16093 3.1 240 21:20 13.09.2019
5235 Clouds 20 1028 55 16093 2.1 10 20:59 13.09.2019
5236 Clouds 20 1028 55 16093 2.1 10 20:40 13.09.2019
5237 Clouds 20 1028 55 16093 2.1 10 20:21 13.09.2019
5238 Clouds 20 1029 59 16093 3.6 300 19:58 13.09.2019
5239 Clouds 20 1029 59 16093 3.6 300 19:40 13.09.2019
5240 Clouds 19 1029 63 12874 2.6 350 19:19 13.09.2019
5241 Clouds 18 1029 63 12874 2.6 350 18:56 13.09.2019
5242 Clouds 18 1029 63 12874 2.6 350 18:37 13.09.2019
5243 Clouds 17 1028 67 11265 2.6 10 18:18 13.09.2019
5244 Clouds 17 1028 67 11265 2.6 10 17:39 13.09.2019
5245 Clouds 17 1028 67 11265 2.6 10 17:39 13.09.2019
5246 Clouds 17 1028 67 11265 2.6 10 17:19 13.09.2019
5247 Fog 16 1027 67 11265 3.6 40 16:42 13.09.2019
5248 Fog 16 1027 67 11265 3.6 40 16:22 13.09.2019
5249 Fog 15 1027 72 12874 3.6 40 15:58 13.09.2019
5250 Fog 15 1027 72 12874 3.6 40 15:39 13.09.2019
5251 Fog 15 1027 72 12874 3.6 40 15:20 13.09.2019
5252 Fog 15 1027 77 16093 1.5 280 14:44 13.09.2019
5253 Fog 15 1027 77 16093 1.5 280 14:22 13.09.2019
5254 Clouds 14 1026 72 16093 2.6 20 13:56 13.09.2019
5255 Clouds 14 1026 72 16093 2.6 20 13:37 13.09.2019
5256 Clouds 14 1026 72 16093 2.6 20 13:18 13.09.2019
5257 Clouds 14 1026 67 19312 2.6 20 12:41 13.09.2019
5258 Clouds 14 1026 67 19312 2.6 20 12:23 13.09.2019
5259 Clouds 15 1026 67 19312 2.1 360 11:56 13.09.2019
5260 Clouds 15 1026 67 19312 2.1 360 11:20 13.09.2019
5261 Clouds 15 1027 72 19312 2.1 320 10:41 13.09.2019
5262 Clouds 15 1027 72 19312 2.1 320 10:20 13.09.2019
5263 Clouds 14 1027 77 19312 3.1 320 09:46 13.09.2019
5264 Clouds 14 1027 77 19312 3.1 320 09:25 13.09.2019
5265 Clouds 15 1027 72 19312 1.5 350 08:59 13.09.2019
5266 Clouds 15 1027 72 19312 1.5 350 08:41 13.09.2019
5267 Clouds 15 1027 72 19312 1.5 350 08:21 13.09.2019
5268 Clouds 15 1028 72 24140 3.6 350 07:56 13.09.2019
5269 Clouds 15 1028 72 24140 3.6 350 07:38 13.09.2019
5270 Rain 15 1028 67 24140 2.1 10 06:49 13.09.2019
5271 Rain 15 1027 67 24140 4.1 350 05:50 13.09.2019
5272 Rain 15 1027 67 24140 4.1 350 05:18 13.09.2019
5273 Clouds 17 1025 63 14484 5.1 10 03:40 13.09.2019
5274 Clouds 20 1024 63 14484 5.1 10 02:48 13.09.2019
5275 Clouds 20 1024 63 14484 5.1 10 02:18 13.09.2019
5276 Rain 21 1024 56 14484 9.3 80 01:35 13.09.2019
5277 Rain 22 1024 49 14484 5.1 40 00:58 13.09.2019
5278 Rain 21 1023 55 14484 8.7 30 00:31 13.09.2019
5279 Clouds 24 1024 40 11265 3.6 20 23:40 12.09.2019
5280 Clouds 24 1024 40 11265 3.6 20 23:20 12.09.2019
5281 Clouds 23 1025 46 11265 2.98 37.659 23:20 12.09.2019
5282 Clouds 23 1025 46 11265 2.98 37.659 22:42 12.09.2019
5283 Clouds 23 1025 46 11265 2.98 37.659 22:24 12.09.2019
5284 Clouds 22 1026 49 11265 2.1 250 21:57 12.09.2019
5285 Clouds 22 1026 49 11265 2.1 250 21:38 12.09.2019
5286 Clouds 22 1026 49 11265 2.1 250 21:20 12.09.2019
5287 Clouds 21 1027 49 9656 2.1 60 20:57 12.09.2019
5288 Clouds 21 1027 49 9656 2.1 60 20:56 12.09.2019
5289 Clouds 21 1027 49 9656 2.1 60 20:38 12.09.2019
5290 Clouds 21 1027 49 9656 2.1 60 20:19 12.09.2019
5291 Clouds 21 1027 49 9656 2.1 60 20:19 12.09.2019
5292 Clouds 21 1028 52 9656 2.1 250 19:54 12.09.2019
5293 Clouds 21 1028 52 9656 2.1 250 19:36 12.09.2019
5294 Mist 19 1028 56 9656 3.1 300 19:18 12.09.2019
5295 Mist 19 1028 63 9656 2.1 360 18:37 12.09.2019
5296 Mist 17 1028 72 11265 4.1 60 18:19 12.09.2019
5297 Mist 17 1028 72 11265 4.1 60 17:56 12.09.2019
5298 Mist 17 1028 72 11265 4.1 60 17:38 12.09.2019
5299 Mist 17 1028 72 11265 4.1 60 17:19 12.09.2019
5300 Mist 15 1027 77 11265 2.1 70 16:41 12.09.2019
5301 Mist 15 1027 77 11265 2.1 70 16:21 12.09.2019
5302 Mist 14 1027 82 11265 2.6 80 15:45 12.09.2019
5303 Mist 14 1027 82 11265 2.6 80 15:27 12.09.2019
5304 Mist 14 1026 82 11265 3.6 90 14:58 12.09.2019
5305 Mist 14 1026 82 11265 3.6 90 14:40 12.09.2019
5306 Mist 14 1026 82 11265 3.6 90 14:40 12.09.2019
5307 Mist 14 1026 82 11265 3.6 90 14:21 12.09.2019
5308 Mist 13 1026 82 11265 1.5 90 13:39 12.09.2019
5309 Mist 13 1026 82 11265 1.5 90 13:21 12.09.2019
5310 Mist 14 1026 72 12874 1 80 12:49 12.09.2019
5311 Clouds 13 1026 72 12874 2.6 320 12:20 12.09.2019
5312 Clouds 13 1026 72 12874 2.6 320 12:20 12.09.2019
5313 Clouds 14 1026 72 12874 2.6 320 11:59 12.09.2019
5314 Clouds 14 1026 72 12874 2.6 320 11:40 12.09.2019
5315 Clouds 14 1026 72 12874 2.6 320 11:21 12.09.2019
5316 Clouds 14 1027 72 14484 3.1 300 10:56 12.09.2019
5317 Clouds 14 1027 72 14484 3.1 300 10:37 12.09.2019
5318 Clouds 14 1028 72 19312 3.1 300 10:18 12.09.2019
5319 Clouds 14 1028 72 19312 3.1 300 09:42 12.09.2019
5320 Clouds 14 1028 67 19312 2.6 20 09:20 12.09.2019
5321 Clouds 14 1028 67 19312 2.6 20 08:45 12.09.2019
5322 Clouds 14 1028 67 19312 2.6 20 08:45 12.09.2019
5323 Clouds 14 1028 67 19312 2.6 20 08:25 12.09.2019
5324 Clouds 15 1027 63 19312 4.1 310 07:56 12.09.2019
5325 Clouds 15 1027 63 19312 4.1 310 07:36 12.09.2019
5326 Clouds 16 1027 63 19312 3.6 360 07:18 12.09.2019
5327 Clouds 16 1027 63 19312 3.6 360 06:46 12.09.2019
5328 Clouds 16 1027 63 19312 3.6 360 06:19 12.09.2019
5329 Clouds 17 1027 63 19312 6.2 360 05:43 12.09.2019
5330 Clouds 17 1027 63 19312 6.2 360 05:19 12.09.2019
5331 Rain 16 1025 63 12874 3.6 10 03:58 12.09.2019
5332 Clouds 20 1025 68 12874 7.7 30 01:44 12.09.2019
5333 Clouds 20 1025 68 12874 7.7 30 01:26 12.09.2019
5334 Rain 21 1024 68 12874 9.8 60 00:50 12.09.2019
5335 Rain 21 1024 68 12874 9.8 60 00:31 12.09.2019
5336 Clouds 23 1025 38 11265 4.1 20 23:47 11.09.2019
5337 Clouds 23 1025 38 11265 4.1 20 23:27 11.09.2019
5338 Clouds 23 1026 43 11265 2.1 120 22:58 11.09.2019
5339 Clouds 23 1026 43 11265 2.1 120 22:38 11.09.2019
5340 Clouds 23 1026 43 11265 2.1 120 22:20 11.09.2019
5341 Clouds 23 1026 43 11265 2.1 120 22:20 11.09.2019
5342 Clouds 22 1027 49 9656 4.1 330 21:59 11.09.2019
5343 Clouds 22 1027 49 9656 4.1 330 21:41 11.09.2019
5344 Clouds 22 1027 49 9656 4.1 330 21:22 11.09.2019
5345 Clouds 21 1028 52 9656 1.5 340 20:56 11.09.2019
5346 Clouds 21 1028 52 9656 1.5 340 20:38 11.09.2019
5347 Clouds 21 1028 52 9656 1.5 340 20:19 11.09.2019
5348 Clouds 20 1029 59 11265 2.1 30 19:56 11.09.2019
5349 Clouds 20 1029 59 11265 2.1 30 19:56 11.09.2019
5350 Clouds 20 1029 59 11265 2.1 30 19:37 11.09.2019
5351 Clouds 19 1029 63 11265 2.6 310 19:19 11.09.2019
5352 Clouds 19 1029 63 11265 2.6 310 18:42 11.09.2019
5353 Clouds 19 1029 63 11265 2.6 310 18:23 11.09.2019
5354 Clouds 16 1029 72 11265 1.24 43.622 17:58 11.09.2019
5355 Clouds 16 1029 72 11265 1.24 43.622 17:40 11.09.2019
5356 Clouds 16 1029 72 11265 1.24 43.622 17:21 11.09.2019
5357 Clouds 15 1029 82 9656 2.6 100 16:56 11.09.2019
5358 Clouds 15 1029 82 9656 2.6 100 16:36 11.09.2019
5359 Clouds 15 1029 82 9656 2.6 100 16:18 11.09.2019
5360 Clouds 14 1028 82 9656 1.5 90 15:46 11.09.2019
5361 Clouds 14 1028 82 9656 1.5 90 15:23 11.09.2019
5362 Clouds 14 1028 82 11265 2.1 300 14:57 11.09.2019
5363 Clouds 14 1028 82 11265 2.1 300 14:38 11.09.2019
5364 Clouds 14 1028 82 11265 2.1 300 14:19 11.09.2019
5365 Clouds 13 1028 87 11265 2.1 280 13:57 11.09.2019
5366 Clouds 13 1028 87 11265 2.1 280 13:36 11.09.2019
5367 Clouds 13 1028 93 12874 0.47 56.412 13:18 11.09.2019
5368 Clouds 13 1028 93 12874 0.47 56.412 12:41 11.09.2019
5369 Clouds 13 1028 93 12874 1.17 65.382 12:21 11.09.2019
5370 Clouds 13 1028 87 12874 2.1 290 11:56 11.09.2019
5371 Clouds 13 1028 87 12874 2.1 290 11:36 11.09.2019
5372 Mist 13 1028 87 12874 2.1 290 11:18 11.09.2019
5373 Mist 13 1028 87 12874 2.1 290 11:18 11.09.2019
5374 Mist 13 1028 87 12874 1.17 65.382 10:40 11.09.2019
5375 Mist 13 1028 87 12874 1.17 65.382 10:22 11.09.2019
5376 Mist 14 1029 82 12874 1.5 10 09:41 11.09.2019
5377 Mist 14 1029 82 12874 1.5 10 09:20 11.09.2019
5378 Clouds 14 1029 82 16093 3.1 340 08:59 11.09.2019
5379 Clouds 14 1029 82 16093 3.1 340 08:39 11.09.2019
5380 Clouds 14 1029 82 16093 3.1 340 08:21 11.09.2019
5381 Clouds 15 1029 87 16093 2.6 260 07:46 11.09.2019
5382 Clouds 15 1029 87 12874 2.6 260 07:23 11.09.2019
5383 Clouds 15 1029 87 12874 2.6 260 06:54 11.09.2019
5384 Clouds 15 1029 87 12874 2.6 260 06:35 11.09.2019
5385 Clouds 15 1029 87 12874 4.1 260 05:49 11.09.2019
5386 Clouds 15 1029 87 12874 4.1 260 05:28 11.09.2019
5387 Rain 14 1028 93 9656 3.6 350 04:51 11.09.2019
5388 Rain 18 1027 87 11265 5.1 300 03:36 11.09.2019
5389 Clouds 19 1026 72 11265 4.1 330 02:56 11.09.2019
5390 Clouds 19 1026 72 11265 4.1 330 02:26 11.09.2019
5391 Thunderstorm 17 1026 87 4828 4.1 70 00:57 11.09.2019
5392 Rain 20 1025 59 8047 7.7 40 00:29 11.09.2019
5393 Haze 21 1025 52 8047 7.7 20 23:57 10.09.2019
5394 Haze 23 1025 36 8047 2.6 330 23:39 10.09.2019
5395 Haze 22 1028 82 4828 3.1 200 23:20 10.09.2019
5396 Haze 22 1028 82 4828 3.1 200 22:41 10.09.2019
5397 Clouds 23 1027 43 9656 3.1 10 22:20 10.09.2019
5398 Clouds 22 1027 43 9656 3.1 10 21:56 10.09.2019
5399 Clouds 22 1027 43 9656 3.1 10 21:38 10.09.2019
5400 Clouds 22 1027 43 9656 3.1 10 21:20 10.09.2019
5401 Clouds 21 1028 46 8047 1.5 0 20:58 10.09.2019
5402 Clouds 21 1028 46 8047 1.5 0 20:39 10.09.2019
5403 Clouds 21 1028 46 8047 1.5 0 20:21 10.09.2019
5404 Haze 20 1029 52 8047 3.6 300 19:57 10.09.2019
5405 Haze 20 1029 52 8047 3.6 300 19:37 10.09.2019
5406 Haze 20 1029 52 8047 3.6 300 19:19 10.09.2019
5407 Haze 20 1029 52 9656 2.1 70 18:55 10.09.2019
5408 Haze 20 1029 52 9656 2.1 70 18:37 10.09.2019
5409 Haze 18 1031 63 6437 2.6 110 18:19 10.09.2019
5410 Haze 17 1029 63 9656 1.5 80 17:43 10.09.2019
5411 Haze 17 1029 63 9656 1.5 80 17:23 10.09.2019
5412 Mist 16 1029 72 9656 3.6 90 16:59 10.09.2019
5413 Mist 16 1029 72 9656 3.6 90 16:39 10.09.2019
5414 Mist 15 1028 72 9656 2.1 50 16:21 10.09.2019
5415 Mist 15 1028 72 9656 2.1 50 15:59 10.09.2019
5416 Mist 15 1028 72 9656 2.1 50 15:40 10.09.2019
5417 Mist 15 1028 72 9656 2.1 50 15:20 10.09.2019
5418 Mist 14 1028 77 11265 2.6 90 14:42 10.09.2019
5419 Mist 14 1028 77 11265 2.6 90 14:24 10.09.2019
5420 Clouds 15 1027 72 11265 1.5 70 13:56 10.09.2019
5421 Clouds 15 1027 72 11265 1.5 70 13:37 10.09.2019
5422 Clouds 14 1027 72 11265 1.5 70 13:19 10.09.2019
5423 Clouds 14 1027 77 12874 2.6 60 12:43 10.09.2019
5424 Clouds 14 1027 77 12874 2.6 60 12:43 10.09.2019
5425 Clouds 14 1027 77 12874 2.6 60 12:24 10.09.2019
5426 Clouds 14 1027 67 12874 1 230 11:56 10.09.2019
5427 Clouds 14 1027 67 12874 1 230 11:38 10.09.2019
5428 Clouds 14 1027 67 12874 1 230 11:20 10.09.2019
5429 Clouds 14 1029 87 8047 0.91 228.513 10:39 10.09.2019
5430 Clouds 13 1030 87 8047 0.91 228.513 10:19 10.09.2019
5431 Clouds 13 1030 87 8047 0.91 228.513 10:19 10.09.2019
5432 Clouds 14 1028 67 12874 3.1 110 09:55 10.09.2019
5433 Clouds 14 1028 67 12874 3.1 110 09:37 10.09.2019
5434 Rain 15 1029 67 12874 4.1 120 09:18 10.09.2019
5435 Rain 15 1029 67 12874 4.1 120 08:43 10.09.2019
5436 Rain 15 1029 67 12874 4.1 120 08:24 10.09.2019
5437 Rain 15 1029 67 12874 4.1 120 08:24 10.09.2019
5438 Rain 15 1029 67 11265 2.6 180 07:44 10.09.2019
5439 Rain 15 1029 67 11265 2.6 180 07:26 10.09.2019
5440 Rain 16 1028 67 11265 4.1 200 06:51 10.09.2019
5441 Rain 16 1028 67 11265 4.1 200 06:32 10.09.2019
5442 Smoke 17 1027 55 11265 3.1 180 04:57 10.09.2019
5443 Clouds 18 1026 55 12874 2.6 320 03:48 10.09.2019
5444 Clouds 20 1025 59 12874 7.2 30 02:23 10.09.2019
5445 Clouds 21 1025 55 12874 7.2 20 01:57 10.09.2019
5446 Clouds 21 1025 55 12874 7.2 20 01:39 10.09.2019
5447 Clouds 22 1024 40 11265 6.2 120 00:46 10.09.2019
5448 Clouds 22 1024 40 11265 6.2 120 00:25 10.09.2019
5449 Thunderstorm 23 1025 27 11265 4.1 70 23:47 09.09.2019
5450 Thunderstorm 24 1025 27 11265 4.1 70 23:20 09.09.2019
5451 Clouds 24 1026 31 9656 4.1 40 22:56 09.09.2019
5452 Clouds 24 1026 31 9656 4.1 40 22:38 09.09.2019
5453 Clouds 23 1027 33 9656 2.1 100 22:20 09.09.2019
5454 Clouds 23 1027 33 9656 2.1 100 21:57 09.09.2019
5455 Clouds 23 1027 33 9656 2.1 100 21:38 09.09.2019
5456 Clouds 22 1028 40 8047 1.5 50 21:20 09.09.2019
5457 Clouds 22 1028 40 8047 1.5 50 20:56 09.09.2019
5458 Clouds 22 1028 40 8047 1.5 50 20:37 09.09.2019
5459 Clouds 22 1028 43 8047 1.5 170 20:19 09.09.2019
5460 Clouds 22 1028 43 8047 1.5 170 19:57 09.09.2019
5461 Clouds 22 1028 43 8047 1.5 170 19:38 09.09.2019
5462 Clouds 20 1030 52 8047 2.1 250 19:19 09.09.2019
5463 Clouds 20 1030 52 8047 2.1 250 19:19 09.09.2019
5464 Clouds 19 1029 55 9656 2.1 90 18:57 09.09.2019
5465 Clouds 19 1029 55 9656 2.1 90 18:38 09.09.2019
5466 Clouds 18 1029 59 9656 2.1 60 18:20 09.09.2019
5467 Clouds 18 1029 59 9656 2.1 60 17:57 09.09.2019
5468 Clouds 18 1029 59 9656 2.1 60 17:39 09.09.2019
5469 Haze 15 1029 72 9656 2.6 70 17:20 09.09.2019
5470 Haze 15 1029 72 9656 2.6 70 16:55 09.09.2019
5471 Haze 15 1029 72 9656 2.6 70 16:37 09.09.2019
5472 Fog 14 1028 71 9656 2.6 70 16:18 09.09.2019
5473 Fog 14 1028 71 9656 2.6 70 15:44 09.09.2019
5474 Fog 14 1028 71 9656 2.6 70 15:24 09.09.2019
5475 Fog 14 1028 76 12874 1.5 30 14:59 09.09.2019
5476 Fog 13 1028 76 12874 1.5 30 14:40 09.09.2019
5477 Fog 13 1028 76 12874 1.5 30 14:21 09.09.2019
5478 Clouds 12 1027 76 16093 3.1 90 13:57 09.09.2019
5479 Clouds 12 1027 76 16093 3.1 90 13:39 09.09.2019
5480 Clouds 13 1027 76 16093 2.6 80 13:18 09.09.2019
5481 Clouds 13 1027 76 16093 2.6 80 12:54 09.09.2019
5482 Clouds 14 1027 67 19312 2.1 280 12:36 09.09.2019
5483 Clouds 14 1027 63 19312 2.1 290 12:18 09.09.2019
5484 Clouds 14 1027 63 19312 2.1 290 11:43 09.09.2019
5485 Clouds 14 1028 63 19312 3.1 290 11:20 09.09.2019
5486 Clouds 14 1028 63 19312 3.1 290 10:42 09.09.2019
5487 Clouds 15 1028 63 19312 3.1 290 10:24 09.09.2019
5488 Clouds 15 1028 59 19312 2.1 300 09:59 09.09.2019
5489 Clouds 15 1028 59 19312 2.1 300 09:40 09.09.2019
5490 Clouds 15 1028 59 19312 2.1 300 09:22 09.09.2019
5491 Clouds 15 1028 55 19312 2.1 20 08:56 09.09.2019
5492 Clouds 15 1028 55 19312 2.1 20 08:37 09.09.2019
5493 Clouds 14 1030 76 11265 1.5 130 08:18 09.09.2019
5494 Clouds 16 1028 52 19312 4.6 30 07:41 09.09.2019
5495 Clouds 16 1028 52 19312 4.1 30 07:20 09.09.2019
5496 Clouds 17 1028 52 19312 4.1 30 06:53 09.09.2019
5497 Clouds 17 1027 52 19312 4.6 30 06:27 09.09.2019
5498 Clouds 21 1025 40 14484 7.2 60 03:21 09.09.2019
5499 Clouds 22 1024 33 16093 8.2 20 02:41 09.09.2019
5500 Rain 24 1024 43 12874 7.2 30 01:24 09.09.2019
5501 Rain 24 1024 43 12874 7.2 30 01:24 09.09.2019
5502 Clouds 25 1024 26 14484 4.1 40 00:24 09.09.2019
5503 Clouds 25 1025 27 12874 4.6 80 23:55 08.09.2019
5504 Clouds 25 1025 27 12874 4.6 80 23:37 08.09.2019
5505 Clouds 25 1026 29 12874 4.1 40 23:19 08.09.2019
5506 Clouds 24 1026 29 12874 4.1 40 22:40 08.09.2019
5507 Clouds 24 1026 29 12874 4.1 40 22:22 08.09.2019
5508 Clouds 23 1027 35 11265 4.1 30 21:58 08.09.2019
5509 Clouds 23 1027 35 11265 4.1 30 21:39 08.09.2019
5510 Clouds 23 1027 35 11265 4.1 30 21:39 08.09.2019
5511 Clouds 22 1028 37 9656 3.1 60 21:21 08.09.2019
5512 Clouds 22 1028 37 9656 3.1 60 20:41 08.09.2019
5513 Clouds 22 1028 37 9656 3.1 60 20:22 08.09.2019
5514 Ash 21 1029 49 9656 2.1 360 19:59 08.09.2019
5515 Ash 20 1029 55 11265 2.6 50 19:39 08.09.2019
5516 Ash 20 1029 55 11265 2.6 50 19:21 08.09.2019
5517 Ash 20 1029 55 11265 2.6 50 19:21 08.09.2019
5518 Ash 19 1031 55 6437 3.6 240 18:58 08.09.2019
5519 Ash 19 1031 55 6437 3.6 240 18:39 08.09.2019
5520 Mist 18 1030 63 11265 2.1 40 18:19 08.09.2019
5521 Mist 18 1030 63 11265 2.1 40 17:58 08.09.2019
5522 Mist 18 1030 63 11265 2.1 40 17:37 08.09.2019
5523 Mist 15 1029 76 11265 2.6 80 17:18 08.09.2019
5524 Mist 15 1029 76 11265 2.6 80 16:54 08.09.2019
5525 Mist 15 1029 76 11265 2.6 80 16:54 08.09.2019
5526 Mist 15 1029 76 11265 2.6 80 16:36 08.09.2019
5527 Mist 13 1030 81 3219 0.63 223.65 16:18 08.09.2019
5528 Mist 14 1030 81 3219 0.63 223.65 15:41 08.09.2019
5529 Mist 13 1030 81 3219 0.5 221.624 15:22 08.09.2019
5530 Mist 12 1028 87 9656 2.6 90 14:59 08.09.2019
5531 Mist 12 1028 87 9656 2.6 90 14:39 08.09.2019
5532 Mist 11 1028 81 9656 2.1 80 14:21 08.09.2019
5533 Mist 11 1028 81 9656 2.1 80 13:57 08.09.2019
5534 Mist 11 1028 81 9656 2.1 80 13:38 08.09.2019
5535 Mist 11 1028 81 9656 2.1 80 13:20 08.09.2019
5536 Mist 12 1027 76 11265 4.1 80 12:44 08.09.2019
5537 Mist 11 1029 93 4828 1.23 205.395 12:24 08.09.2019
5538 Mist 12 1028 76 11265 2.1 50 11:59 08.09.2019
5539 Mist 13 1028 76 11265 2.1 50 11:41 08.09.2019
5540 Mist 13 1028 76 11265 2.1 50 11:20 08.09.2019
5541 Mist 14 1028 72 14484 2.1 160 10:59 08.09.2019
5542 Mist 14 1028 72 14484 2.1 160 10:41 08.09.2019
5543 Mist 13 1029 72 12874 2.6 100 10:22 08.09.2019
5544 Mist 13 1029 72 12874 2.6 100 10:22 08.09.2019
5545 Mist 14 1029 72 12874 2.6 100 09:55 08.09.2019
5546 Mist 14 1029 72 12874 2.6 100 09:37 08.09.2019
5547 Mist 14 1029 63 12874 2.1 360 09:18 08.09.2019
5548 Mist 14 1029 63 12874 2.1 360 08:39 08.09.2019
5549 Mist 14 1029 67 14484 3.1 20 08:18 08.09.2019
5550 Mist 14 1029 67 14484 3.1 20 07:41 08.09.2019
5551 Clouds 15 1029 67 14484 3.1 20 07:21 08.09.2019
5552 Clouds 15 1029 63 14484 3.6 360 06:54 08.09.2019
5553 Clouds 15 1029 63 14484 3.6 360 06:34 08.09.2019
5554 Clouds 16 1028 55 16093 1 340 05:39 08.09.2019
5555 Clouds 15 1027 67 11265 1.96 157.731 04:27 08.09.2019
5556 Thunderstorm 19 1027 67 11265 2.6 100 03:19 08.09.2019
5557 Thunderstorm 20 1026 59 11265 3.1 70 02:36 08.09.2019
5558 Thunderstorm 19 1026 63 11265 2.6 30 01:53 08.09.2019
5559 Thunderstorm 20 1026 63 11265 2.6 30 01:25 08.09.2019
5560 Thunderstorm 21 1026 59 9656 7.7 40 00:46 08.09.2019
5561 Thunderstorm 21 1026 59 9656 7.7 40 00:28 08.09.2019
5562 Clouds 22 1026 60 9656 2.6 190 23:39 07.09.2019
5563 Clouds 22 1026 60 9656 2.6 190 23:21 07.09.2019
5564 Clouds 22 1026 60 9656 2.6 190 22:59 07.09.2019
5565 Clouds 22 1026 60 9656 2.6 190 22:59 07.09.2019
5566 Rain 22 1027 52 9656 4.6 100 22:40 07.09.2019
5567 Rain 22 1027 52 9656 4.6 100 22:22 07.09.2019
5568 Clouds 23 1027 43 9656 7.2 80 21:54 07.09.2019
5569 Clouds 24 1027 35 9656 1.5 0 21:36 07.09.2019
5570 Clouds 22 1029 40 9656 2.6 300 21:18 07.09.2019
5571 Clouds 22 1029 40 9656 2.6 300 20:39 07.09.2019
5572 Clouds 22 1029 40 9656 2.6 300 20:20 07.09.2019
5573 Clouds 22 1030 46 9656 1.21 17.159 20:20 07.09.2019
5574 Clouds 21 1030 46 9656 1.21 17.159 19:56 07.09.2019
5575 Clouds 21 1030 46 9656 1.21 17.159 19:37 07.09.2019
5576 Clouds 20 1030 52 8047 2.1 50 19:19 07.09.2019
5577 Clouds 20 1030 52 8047 2.1 50 18:58 07.09.2019
5578 Clouds 20 1030 52 8047 2.1 50 18:38 07.09.2019
5579 Haze 19 1030 67 8047 3.1 70 18:20 07.09.2019
5580 Haze 18 1030 67 8047 3.1 70 17:56 07.09.2019
5581 Haze 18 1030 67 8047 3.1 70 17:38 07.09.2019
5582 Mist 15 1030 67 8047 3.1 70 17:18 07.09.2019
5583 Mist 14 1031 77 8047 3.6 70 16:43 07.09.2019
5584 Mist 14 1031 77 8047 3.6 70 16:43 07.09.2019
5585 Mist 14 1030 67 9656 3.1 240 16:23 07.09.2019
5586 Mist 14 1030 67 9656 3.1 240 15:58 07.09.2019
5587 Mist 14 1030 67 9656 3.1 240 15:39 07.09.2019
5588 Mist 13 1031 93 3219 1.5 270 15:21 07.09.2019
5589 Mist 13 1031 93 3219 1.5 270 14:55 07.09.2019
5590 Mist 13 1031 93 3219 1.5 270 14:55 07.09.2019
5591 Mist 13 1031 93 3219 1.5 270 14:55 07.09.2019
5592 Mist 13 1029 82 9656 0.92 176.128 14:36 07.09.2019
5593 Mist 13 1029 82 9656 0.92 176.128 14:36 07.09.2019
5594 Clouds 11 1029 82 11265 2.1 70 14:18 07.09.2019
5595 Clouds 12 1029 82 11265 2.1 70 13:43 07.09.2019
5596 Clouds 12 1028 72 12874 3.1 80 13:25 07.09.2019
5597 Clouds 13 1028 72 12874 3.1 80 12:54 07.09.2019
5598 Clouds 13 1028 72 12874 3.1 80 12:36 07.09.2019
5599 Clouds 13 1028 67 12874 2.1 280 12:18 07.09.2019
5600 Clouds 13 1028 67 12874 2.1 280 11:40 07.09.2019
5601 Clouds 13 1029 67 11265 3.6 290 11:21 07.09.2019
5602 Clouds 13 1029 67 11265 3.6 290 10:41 07.09.2019
5603 Clouds 13 1029 67 11265 3.6 290 10:41 07.09.2019
5604 Clouds 12 1031 76 11265 0.42 117.797 10:22 07.09.2019
5605 Clouds 14 1030 63 11265 4.6 310 09:58 07.09.2019
5606 Clouds 14 1030 63 11265 4.6 310 09:39 07.09.2019
5607 Clouds 14 1030 63 11265 4.6 310 09:20 07.09.2019
5608 Clouds 15 1030 59 12874 4.6 300 08:48 07.09.2019
5609 Clouds 15 1030 59 12874 4.6 300 08:30 07.09.2019
5610 Clouds 15 1030 59 16093 4.1 290 07:48 07.09.2019
5611 Clouds 14 1030 59 16093 4.1 290 07:28 07.09.2019
5612 Clouds 15 1029 55 16093 4.1 320 06:55 07.09.2019
5613 Clouds 15 1029 55 16093 4.1 320 06:35 07.09.2019
5614 Clouds 16 1029 52 16093 5.7 350 05:32 07.09.2019
5615 Clouds 18 1027 43 11265 5.7 330 04:26 07.09.2019
5616 Clouds 21 1027 40 11265 5.7 360 03:27 07.09.2019
5617 Clouds 23 1026 31 11265 5.7 30 02:21 07.09.2019
5618 Clouds 24 1026 23 11265 4.1 20 01:27 07.09.2019
5619 Ash 25 1026 22 8047 2.6 350 00:48 07.09.2019
5620 Ash 25 1029 43 8047 6.7 140 00:21 07.09.2019
5621 Ash 24 1027 33 8047 1.5 230 23:55 06.09.2019
5622 Ash 24 1027 33 8047 1.5 230 23:37 06.09.2019
5623 Ash 24 1028 35 8047 1.5 310 23:18 06.09.2019
5624 Ash 24 1028 35 8047 1.5 310 22:55 06.09.2019
5625 Ash 24 1028 35 8047 1.5 310 22:36 06.09.2019
5626 Clouds 22 1029 40 9656 4.1 10 22:18 06.09.2019
5627 Ash 23 1029 40 9656 4.1 10 21:41 06.09.2019
5628 Ash 22 1022 50 12874 2.6 310 21:23 06.09.2019
5629 Ash 22 1030 40 8047 3.6 20 20:59 06.09.2019
5630 Ash 22 1030 40 8047 3.6 20 20:40 06.09.2019
5631 Ash 22 1030 40 8047 3.6 20 20:21 06.09.2019
5632 Clouds 21 1030 43 8047 2.6 110 19:58 06.09.2019
5633 Clouds 21 1030 43 8047 2.6 110 19:40 06.09.2019
5634 Haze 20 1030 52 8047 3.01 58.938 19:20 06.09.2019
5635 Haze 20 1030 52 8047 3.01 58.938 18:47 06.09.2019
5636 Haze 20 1030 52 8047 3.01 58.938 18:29 06.09.2019
5637 Haze 19 1031 55 8047 1.5 40 17:59 06.09.2019
5638 Haze 19 1031 55 8047 1.5 40 17:38 06.09.2019
5639 Mist 17 1031 72 9656 2.6 80 17:20 06.09.2019
5640 Mist 16 1031 72 9656 2.6 80 16:42 06.09.2019
5641 Mist 15 1031 72 9656 2.6 80 16:19 06.09.2019
5642 Mist 15 1030 67 9656 2.1 80 15:59 06.09.2019
5643 Mist 15 1030 67 9656 2.1 80 15:39 06.09.2019
5644 Mist 15 1029 67 9656 3.6 20 15:21 06.09.2019
5645 Mist 15 1029 67 9656 3.6 20 14:40 06.09.2019
5646 Mist 14 1029 67 9656 3.6 50 14:18 06.09.2019
5647 Mist 13 1029 67 9656 3.6 50 13:43 06.09.2019
5648 Mist 15 1031 87 6437 0.71 12.608 13:22 06.09.2019
5649 Mist 15 1029 67 9656 2.1 310 12:41 06.09.2019
5650 Mist 15 1029 67 9656 2.1 310 12:23 06.09.2019
5651 Mist 15 1029 67 9656 2.6 280 11:58 06.09.2019
5652 Mist 15 1029 67 9656 2.6 280 11:58 06.09.2019
5653 Mist 15 1029 67 9656 2.6 280 11:40 06.09.2019
5654 Clouds 15 1029 67 12874 1 280 11:21 06.09.2019
5655 Clouds 15 1029 67 12874 1 280 10:43 06.09.2019
5656 Clouds 15 1029 67 12874 1 280 10:22 06.09.2019
5657 Clouds 17 1030 63 11265 2.6 300 09:58 06.09.2019
5658 Clouds 17 1030 63 11265 2.6 300 09:37 06.09.2019
5659 Clouds 15 1030 59 12874 4.6 290 09:19 06.09.2019
5660 Clouds 16 1030 59 12874 4.6 290 08:44 06.09.2019
5661 Clouds 16 1030 59 12874 4.6 290 08:26 06.09.2019
5662 Clouds 17 1030 55 12874 1 60 07:51 06.09.2019
5663 Clouds 17 1030 55 12874 1 60 07:28 06.09.2019
5664 Clouds 17 1029 55 12874 4.6 360 06:59 06.09.2019
5665 Clouds 17 1029 55 12874 4.6 360 06:41 06.09.2019
5666 Clouds 17 1029 55 12874 5.1 360 05:46 06.09.2019
5667 Clouds 17 1028 56 12874 5.7 330 04:55 06.09.2019
5668 Clouds 18 1028 56 12874 5.7 330 04:25 06.09.2019
5669 Thunderstorm 21 1026 43 11265 2.6 320 02:44 06.09.2019
5670 Clouds 25 1026 31 11265 4.6 170 00:57 06.09.2019
5671 Clouds 24 1026 31 11265 2.6 60 00:20 06.09.2019
5672 Clouds 24 1026 31 11265 2.6 60 00:20 06.09.2019
5673 Clouds 25 1026 31 11265 2.6 60 23:41 05.09.2019
5674 Clouds 24 1028 36 11265 2.1 100 23:22 05.09.2019
5675 Clouds 24 1028 36 11265 2.1 100 22:45 05.09.2019
5676 Clouds 24 1028 36 11265 2.1 100 22:25 05.09.2019
5677 Clouds 24 1029 41 11265 2.6 90 21:57 05.09.2019
5678 Clouds 24 1029 41 11265 2.6 90 21:39 05.09.2019
5679 Clouds 24 1029 41 11265 2.6 90 21:39 05.09.2019
5680 Clouds 23 1029 43 9656 4.6 80 21:20 05.09.2019
5681 Clouds 23 1029 43 9656 4.6 80 20:58 05.09.2019
5682 Clouds 23 1029 43 9656 4.6 80 20:38 05.09.2019
5683 Clouds 23 1029 43 9656 4.6 80 20:20 05.09.2019
5684 Ash 22 1030 43 9656 3.6 50 19:57 05.09.2019
5685 Ash 22 1030 43 9656 3.6 50 19:38 05.09.2019
5686 Haze 21 1030 46 9656 3.1 60 19:19 05.09.2019
5687 Haze 21 1030 46 9656 3.1 60 18:41 05.09.2019
5688 Haze 18 1030 63 9656 3.1 80 18:23 05.09.2019
5689 Haze 18 1030 63 9656 3.1 80 17:59 05.09.2019
5690 Haze 18 1030 63 9656 3.1 80 17:39 05.09.2019
5691 Haze 18 1030 63 9656 3.1 80 17:39 05.09.2019
5692 Haze 17 1032 77 4828 1.12 118.256 17:20 05.09.2019
5693 -273 0 0 0 0 0 16:57 05.09.2019
5694 Mist 16 1030 67 9656 2.1 50 16:39 05.09.2019
5695 Mist 15 1029 72 9656 2.1 60 16:18 05.09.2019
5696 Mist 15 1029 72 9656 2.1 60 15:40 05.09.2019
5697 Mist 15 1029 72 9656 2.1 60 15:40 05.09.2019
5698 Mist 14 1031 93 1609 1.5 70 15:19 05.09.2019
5699 Mist 14 1031 93 1609 1.5 70 14:56 05.09.2019
5700 Fog 14 1028 72 9656 1.5 60 14:38 05.09.2019
5701 Clouds 13 1030 93 8047 1.5 170 14:18 05.09.2019
5702 Mist 13 1030 93 3219 1 160 13:42 05.09.2019
5703 Clouds 14 1028 67 9656 2.6 80 13:19 05.09.2019
5704 Clouds 14 1028 67 9656 2.6 80 12:44 05.09.2019
5705 Clouds 14 1028 67 9656 2.6 80 12:26 05.09.2019
5706 Clouds 14 1028 72 9656 1.5 80 11:57 05.09.2019
5707 Clouds 14 1028 72 9656 1.5 80 11:38 05.09.2019
5708 Clouds 14 1028 77 9656 3.1 80 11:18 05.09.2019
5709 Clouds 13 1028 77 9656 3.1 80 10:41 05.09.2019
5710 Clouds 14 1028 77 9656 3.1 80 10:22 05.09.2019
5711 Clouds 14 1028 77 9656 3.1 80 10:22 05.09.2019
5712 Clouds 15 1029 67 11265 0.85 11.27 09:57 05.09.2019
5713 Clouds 15 1029 67 11265 0.49 52.919 09:38 05.09.2019
5714 Clouds 15 1029 67 11265 2.1 280 09:18 05.09.2019
5715 Clouds 15 1029 67 11265 2.1 280 08:45 05.09.2019
5716 Clouds 15 1029 67 11265 2.1 280 08:26 05.09.2019
5717 Clouds 15 1029 68 11265 4.6 290 07:45 05.09.2019
5718 Clouds 15 1029 68 11265 4.6 290 07:27 05.09.2019
5719 Clouds 16 1031 76 6437 4.6 20 06:53 05.09.2019
5720 Clouds 16 1031 76 6437 4.6 20 06:29 05.09.2019
5721 Clouds 17 1027 52 12874 3.6 110 05:50 05.09.2019
5722 Clouds 17 1027 52 12874 3.6 110 05:30 05.09.2019
5723 Haze 16 1026 56 12874 4.6 150 04:48 05.09.2019
5724 Haze 16 1026 56 12874 4.6 150 04:24 05.09.2019
5725 Haze 17 1025 56 11265 5.1 110 03:38 05.09.2019
5726 Rain 21 1025 49 11265 3.1 90 02:45 05.09.2019
5727 Rain 21 1024 56 9656 2.33 151.11 02:20 05.09.2019
5728 Rain 21 1024 56 9656 0.63 185.729 01:26 05.09.2019
5729 Thunderstorm 21 1024 52 9656 6.2 140 00:42 05.09.2019
5730 Thunderstorm 20 1024 56 9656 6.7 120 00:20 05.09.2019
5731 Rain 20 1024 56 9656 5.7 130 23:48 04.09.2019
5732 Rain 20 1024 56 9656 5.7 130 23:26 04.09.2019
5733 Thunderstorm 21 1025 46 9656 5.1 250 22:59 04.09.2019
5734 Thunderstorm 21 1025 46 9656 5.1 250 22:38 04.09.2019
5735 Rain 22 1027 67 6437 4.1 280 22:18 04.09.2019
5736 Clouds 22 1025 43 11265 4.6 150 21:39 04.09.2019
5737 Clouds 23 1025 43 11265 4.6 150 21:20 04.09.2019
5738 Clouds 22 1026 40 11265 1.5 0 20:56 04.09.2019
5739 Clouds 22 1026 40 11265 1.5 0 20:38 04.09.2019
5740 Mist 21 1026 46 9656 3.6 340 20:18 04.09.2019
5741 Mist 21 1026 46 9656 3.6 340 19:55 04.09.2019
5742 Mist 21 1026 46 9656 3.6 340 19:36 04.09.2019
5743 Mist 21 1026 46 9656 1.85 212.077 19:18 04.09.2019
5744 Mist 20 1027 56 9656 2.1 180 18:38 04.09.2019
5745 Mist 19 1026 63 11265 2.1 70 18:19 04.09.2019
5746 Mist 18 1026 63 11265 2.1 70 17:41 04.09.2019
5747 Mist 18 1026 63 11265 2.1 70 17:23 04.09.2019
5748 Mist 16 1026 72 11265 1.5 50 16:58 04.09.2019
5749 Mist 16 1026 72 11265 1.5 50 16:39 04.09.2019
5750 Mist 15 1026 77 11265 2.1 60 16:21 04.09.2019
5751 Mist 15 1026 77 11265 2.1 60 15:55 04.09.2019
5752 Mist 15 1026 77 11265 2.1 60 15:37 04.09.2019
5753 Mist 14 1025 82 11265 1 20 15:18 04.09.2019
5754 Mist 14 1025 82 11265 1 20 14:54 04.09.2019
5755 Mist 14 1025 82 11265 1 20 14:36 04.09.2019
5756 Clouds 12 1025 76 11265 3.1 60 14:18 04.09.2019
5757 Clouds 12 1025 76 11265 3.1 60 13:39 04.09.2019
5758 Clouds 10 1026 87 11265 1.41 203.455 13:21 04.09.2019
5759 Clouds 13 1025 77 11265 2.6 40 12:45 04.09.2019
5760 Clouds 11 1026 87 11265 0.69 199.587 12:26 04.09.2019
5761 Clouds 13 1025 77 11265 2.6 40 12:26 04.09.2019
5762 Clouds 13 1025 77 12874 2.6 50 11:58 04.09.2019
5763 Clouds 13 1025 77 12874 2.6 50 11:39 04.09.2019
5764 Clouds 13 1025 77 12874 2.6 50 11:21 04.09.2019
5765 Clouds 14 1025 67 14484 1 290 10:56 04.09.2019
5766 Clouds 14 1025 67 14484 1 290 10:38 04.09.2019
5767 Clouds 14 1025 67 14484 1 290 10:38 04.09.2019
5768 Clouds 13 1027 76 11265 0.69 199.587 10:19 04.09.2019
5769 Clouds 15 1025 63 16093 3.1 300 09:45 04.09.2019
5770 Clouds 15 1025 63 16093 3.1 300 09:21 04.09.2019
5771 Clouds 15 1026 63 16093 2.1 330 08:43 04.09.2019
5772 Clouds 15 1026 63 16093 2.1 330 08:24 04.09.2019
5773 Clouds 15 1026 59 16093 3.1 20 07:59 04.09.2019
5774 Clouds 16 1026 59 16093 3.1 20 07:36 04.09.2019
5775 Clouds 16 1026 59 19312 4.1 30 06:59 04.09.2019
5776 Clouds 16 1026 59 19312 4.1 30 06:39 04.09.2019
5777 Clouds 18 1025 55 19312 7.2 50 04:55 04.09.2019
5778 Clouds 19 1024 43 12874 6.7 40 04:23 04.09.2019
5779 Clouds 22 1022 35 12874 5.7 360 02:51 04.09.2019
5780 Clouds 23 1024 42 11265 3.1 80 01:20 04.09.2019
5781 Clouds 23 1022 31 12874 3.1 10 00:45 04.09.2019
5782 Clouds 23 1022 31 12874 3.1 10 00:27 04.09.2019
5783 Clouds 24 1023 31 12874 3.1 10 23:51 03.09.2019
5784 Clouds 24 1023 31 12874 3.1 10 23:27 03.09.2019
5785 Clouds 24 1024 37 12874 5.1 10 22:43 03.09.2019
5786 Clouds 23 1024 37 12874 5.1 10 22:25 03.09.2019
5787 Clouds 23 1025 37 12874 3.6 360 21:59 03.09.2019
5788 Clouds 23 1025 37 12874 3.6 360 21:39 03.09.2019
5789 Clouds 22 1025 40 14484 3.6 360 21:20 03.09.2019
5790 Clouds 21 1025 40 14484 3.6 360 20:59 03.09.2019
5791 Clouds 21 1025 40 14484 3.6 360 20:40 03.09.2019
5792 Clouds 21 1026 42 16093 2.6 10 20:21 03.09.2019
5793 Clouds 21 1026 42 16093 2.6 10 19:55 03.09.2019
5794 Clouds 21 1026 42 16093 2.6 10 19:36 03.09.2019
5795 Clouds 21 1026 42 16093 2.6 10 19:18 03.09.2019
5796 Clouds 20 1027 52 16093 2.6 40 18:42 03.09.2019
5797 Clouds 21 1027 52 16093 2.6 40 18:24 03.09.2019
5798 Haze 17 1027 59 12874 3.1 50 17:56 03.09.2019
5799 Haze 17 1027 59 12874 3.1 50 17:38 03.09.2019
5800 Haze 16 1027 63 11265 1.5 60 17:19 03.09.2019
5801 Haze 16 1027 63 11265 1.5 60 16:43 03.09.2019
5802 Haze 14 1027 63 11265 1.5 60 16:23 03.09.2019
5803 Haze 14 1027 59 11265 1 44.879 15:58 03.09.2019
5804 Haze 13 1027 67 12874 3.6 70 15:38 03.09.2019
5805 Mist 13 1026 67 19312 2.6 340 15:20 03.09.2019
5806 Mist 13 1026 67 19312 2.6 340 14:56 03.09.2019
5807 Mist 13 1026 67 19312 2.6 340 14:37 03.09.2019
5808 Mist 11 1025 76 16093 2.1 270 14:18 03.09.2019
5809 Mist 11 1025 76 16093 2.1 270 13:55 03.09.2019
5810 Mist 11 1025 76 16093 2.1 270 13:37 03.09.2019
5811 Clouds 12 1025 76 16093 2.1 320 13:18 03.09.2019
5812 Clouds 12 1025 76 16093 2.1 320 12:47 03.09.2019
5813 Clouds 12 1025 76 16093 2.1 320 12:29 03.09.2019
5814 Clouds 12 1026 71 16093 0.53 72.865 11:44 03.09.2019
5815 Clouds 12 1026 71 16093 0.53 72.865 11:25 03.09.2019
5816 -273 0 0 0 0 0 10:59 03.09.2019
5817 Clouds 13 1026 67 16093 3.1 330 10:59 03.09.2019
5818 Clouds 13 1026 67 16093 3.1 330 10:40 03.09.2019
5819 Clouds 13 1026 67 16093 3.1 330 10:21 03.09.2019
5820 Clouds 13 1027 63 19312 3.1 290 09:51 03.09.2019
5821 Clouds 13 1027 63 19312 3.1 290 09:33 03.09.2019
5822 Clouds 14 1028 63 19312 3.1 310 08:57 03.09.2019
5823 Clouds 14 1028 63 19312 3.1 310 08:38 03.09.2019
5824 Clouds 14 1028 63 19312 3.1 310 08:38 03.09.2019
5825 Clear 12 1029 71 11265 1.57 46.16 08:19 03.09.2019
5826 Clouds 15 1028 59 19312 3.1 340 07:43 03.09.2019
5827 Clouds 15 1028 59 19312 3.1 340 07:24 03.09.2019
5828 Clouds 15 1027 59 19312 3.6 30 06:50 03.09.2019
5829 Clouds 15 1027 59 19312 3.6 30 06:32 03.09.2019
5830 Clouds 19 1025 49 16093 6.2 40 03:44 03.09.2019
5831 Clouds 22 1024 28 16093 5.7 20 02:48 03.09.2019
5832 Clouds 22 1024 28 16093 5.7 20 02:29 03.09.2019
5833 Clouds 24 1024 31 14484 8.7 340 01:58 03.09.2019
5834 Clouds 24 1024 31 14484 8.7 340 01:39 03.09.2019
5835 Clouds 24 1024 31 14484 10.3 30 01:20 03.09.2019
5836 Clouds 26 1024 31 14484 10.3 30 00:27 03.09.2019
5837 Clouds 25 1024 25 14484 4.1 340 23:41 02.09.2019
5838 Clouds 25 1025 33 12874 3.1 360 23:21 02.09.2019
5839 Clouds 25 1025 33 12874 3.1 360 23:21 02.09.2019
5840 Clouds 24 1025 33 12874 3.1 360 22:58 02.09.2019
5841 Clouds 24 1025 33 12874 3.1 360 22:58 02.09.2019
5842 Clouds 24 1025 33 12874 3.1 360 22:39 02.09.2019
5843 Clouds 24 1025 33 12874 3.1 360 22:21 02.09.2019
5844 Clouds 22 1026 36 12874 3.6 40 21:58 02.09.2019
5845 Clouds 23 1026 36 12874 3.6 40 21:40 02.09.2019
5846 Clouds 23 1026 36 11265 4.1 310 21:20 02.09.2019
5847 Clouds 23 1026 36 11265 4.1 310 20:59 02.09.2019
5848 Clouds 23 1027 43 11265 4.6 50 20:40 02.09.2019
5849 Clouds 23 1027 43 11265 4.6 50 20:40 02.09.2019
5850 Clouds 21 1028 46 11265 2.6 360 20:19 02.09.2019
5851 Clouds 21 1028 46 11265 2.6 360 19:57 02.09.2019
5852 Clouds 21 1028 46 11265 2.6 360 19:38 02.09.2019
5853 Clouds 20 1030 48 8047 2.6 320 19:19 02.09.2019
5854 Clouds 19 1028 49 12874 4.1 110 18:40 02.09.2019
5855 Haze 19 1028 55 12874 2.6 50 18:22 02.09.2019
5856 Haze 19 1028 55 12874 2.6 50 17:58 02.09.2019
5857 Haze 19 1028 55 12874 2.6 50 17:58 02.09.2019
5858 Haze 19 1028 55 12874 2.6 50 17:39 02.09.2019
5859 Haze 19 1028 55 12874 2.6 50 17:21 02.09.2019
5860 Mist 16 1028 63 12874 1.44 31.032 16:58 02.09.2019
5861 Mist 16 1028 63 12874 1.44 31.032 16:36 02.09.2019
5862 Fog 14 1021 77 12874 1.44 31.032 16:18 02.09.2019
5863 Fog 13 1028 76 12874 3.6 80 15:44 02.09.2019
5864 Fog 13 1028 76 12874 3.6 80 15:22 02.09.2019
5865 Fog 11 1029 93 805 0.23 17.716 14:56 02.09.2019
5866 Mist 11 1027 82 12874 3.1 70 14:37 02.09.2019
5867 Clouds 12 1028 72 16093 1.5 60 14:19 02.09.2019
5868 Clouds 13 1028 72 16093 1.5 60 13:46 02.09.2019
5869 Clouds 13 1028 72 16093 1.5 60 13:46 02.09.2019
5870 Clear 11 1029 87 9656 0.5 56.087 13:25 02.09.2019
5871 Clouds 13 1028 72 16093 2.1 20 12:59 02.09.2019
5872 Clouds 13 1028 72 16093 2.1 20 12:41 02.09.2019
5873 Clear 11 1029 87 11265 1.35 48.356 12:23 02.09.2019
5874 Clear 11 1029 87 11265 1.35 48.356 12:23 02.09.2019
5875 Clouds 13 1028 72 16093 2.1 360 11:58 02.09.2019
5876 Clouds 13 1028 72 16093 2.1 360 11:38 02.09.2019
5877 Clouds 13 1028 72 16093 2.1 360 11:19 02.09.2019
5878 Clouds 14 1028 63 12874 2.6 30 10:42 02.09.2019
5879 Clouds 14 1028 63 12874 2.6 30 10:22 02.09.2019
5880 Clouds 14 1029 67 14484 2.6 350 09:59 02.09.2019
5881 Clouds 14 1029 67 14484 2.6 350 09:40 02.09.2019
5882 Clouds 15 1029 59 12874 3.6 360 09:20 02.09.2019
5883 Clouds 15 1029 59 12874 3.6 360 09:20 02.09.2019
5884 Clouds 15 1029 59 12874 3.6 360 08:43 02.09.2019
5885 Clouds 15 1029 59 14484 6.2 10 08:22 02.09.2019
5886 Clouds 15 1029 59 14484 6.2 10 07:57 02.09.2019
5887 Clouds 15 1029 59 14484 6.2 10 07:38 02.09.2019
5888 Clouds 16 1028 55 14484 6.7 30 07:20 02.09.2019
5889 Clouds 17 1028 55 14484 6.7 30 06:43 02.09.2019
5890 Clouds 16 1027 55 14484 6.2 10 05:54 02.09.2019
5891 Clouds 16 1027 55 14484 6.2 10 05:54 02.09.2019
5892 Clouds 17 1027 55 14484 6.2 10 05:26 02.09.2019
5893 Clouds 18 1026 45 16093 9.3 20 04:48 02.09.2019
5894 Clouds 23 1024 36 16093 8.2 40 02:29 02.09.2019
5895 Clouds 25 1024 22 16093 4.1 360 01:41 02.09.2019
5896 Clouds 26 1024 57 16093 6.2 360 00:42 02.09.2019
5897 Clouds 25 1025 17 16093 4.1 10 00:20 02.09.2019
5898 Clouds 25 1025 17 16093 4.1 10 23:39 01.09.2019
5899 Clouds 25 1026 16 16093 5.1 360 23:19 01.09.2019
5900 Clouds 25 1026 16 16093 5.1 360 22:56 01.09.2019
5901 Clouds 25 1026 16 16093 5.1 360 22:56 01.09.2019
5902 Clouds 25 1026 16 16093 5.1 360 22:38 01.09.2019
5903 Clouds 24 1027 27 16093 3.1 80 22:18 01.09.2019
5904 Clouds 24 1027 27 16093 3.1 80 21:43 01.09.2019
5905 Clouds 23 1027 27 16093 3.1 80 21:23 01.09.2019
5906 Clouds 23 1028 26 16093 3.1 280 20:58 01.09.2019
5907 Clouds 22 1028 26 16093 3.1 280 20:39 01.09.2019
5908 Clouds 22 1022 44 16093 2.1 210 20:19 01.09.2019
5909 Clouds 21 1022 44 16093 2.1 210 19:59 01.09.2019
5910 Clouds 21 1028 35 16093 1.5 110 19:40 01.09.2019
5911 Clouds 21 1028 35 16093 1.5 110 19:21 01.09.2019
5912 Clear 20 1029 39 16093 2.1 360 18:48 01.09.2019
5913 Clear 19 1029 39 16093 2.1 360 18:30 01.09.2019
5914 Clear 18 1030 55 9656 1.08 83.625 17:59 01.09.2019
5915 Clear 16 1029 51 16093 4.1 70 17:39 01.09.2019
5916 Clear 16 1029 51 16093 4.1 70 17:21 01.09.2019
5917 Clear 15 1029 58 16093 2.6 50 16:41 01.09.2019
5918 Clear 15 1029 58 16093 2.6 50 16:41 01.09.2019
5919 Clear 15 1029 58 16093 2.6 50 16:41 01.09.2019
5920 Clear 15 1029 58 16093 2.6 50 16:21 01.09.2019
5921 Clear 12 1028 66 19312 3.6 60 15:59 01.09.2019
5922 Clear 12 1028 66 19312 3.6 60 15:41 01.09.2019
5923 Clear 12 1028 66 19312 3.6 60 15:22 01.09.2019
5924 Clear 12 1028 66 19312 0.93 78.06 14:44 01.09.2019
5925 Clear 12 1028 66 19312 0.93 78.06 14:26 01.09.2019
5926 Clear 11 1028 66 19312 2.1 50 13:59 01.09.2019
5927 Clear 11 1028 66 19312 2.1 50 13:40 01.09.2019
5928 Clear 9 1029 87 9656 0.68 70.476 13:21 01.09.2019
5929 Clear 12 1028 58 19312 3.1 40 12:44 01.09.2019
5930 Clear 12 1028 58 19312 3.1 40 12:25 01.09.2019
5931 Clear 13 1028 62 19312 4.6 310 11:56 01.09.2019
5932 Clear 13 1028 62 19312 4.6 310 11:38 01.09.2019
5933 Clear 11 1030 81 11265 0.76 31.548 11:18 01.09.2019
5934 Clear 13 1029 59 19312 4.1 310 10:44 01.09.2019
5935 Clear 13 1029 59 19312 4.1 310 10:44 01.09.2019
5936 Clear 13 1029 59 19312 4.1 310 10:23 01.09.2019
5937 Clear 17 1029 45 19312 3.1 320 09:47 01.09.2019
5938 Clouds 15 1029 55 19312 4.1 290 09:26 01.09.2019
5939 Clouds 15 1029 55 19312 4.1 290 08:56 01.09.2019
5940 Clouds 15 1029 55 19312 4.1 290 08:37 01.09.2019
5941 Clouds 15 1029 55 19312 1.5 20 08:19 01.09.2019
5942 Clouds 15 1029 55 19312 1.5 20 07:41 01.09.2019
5943 Clear 13 1029 66 11265 3.6 60 07:19 01.09.2019
5944 Clouds 16 1028 52 19312 4.1 30 06:38 01.09.2019
5945 Clouds 17 1027 48 19312 5.1 20 05:57 01.09.2019
5946 Clouds 18 1026 42 16093 6.2 40 04:36 01.09.2019
5947 Clouds 19 1025 33 16093 8.2 40 03:43 01.09.2019
5948 Clouds 23 1025 35 16093 8.2 40 02:59 01.09.2019
5949 Clouds 24 1024 22 16093 6.7 40 02:29 01.09.2019
5950 Clouds 25 1024 56 16093 5.1 360 01:52 01.09.2019
5951 Clouds 26 1024 58 16093 5.1 360 01:25 01.09.2019
5952 Clouds 26 1024 16 16093 4.1 350 00:47 01.09.2019
5953 Clouds 26 1024 16 16093 4.1 350 00:23 01.09.2019
5954 Clouds 26 1025 16 16093 4.1 30 23:56 31.08.2019
5955 Clouds 26 1025 16 16093 4.1 30 23:38 31.08.2019
5956 Clouds 25 1026 16 16093 2.6 50 23:18 31.08.2019
5957 Clouds 25 1026 16 16093 2.6 50 23:18 31.08.2019
5958 Clouds 25 1026 16 16093 2.6 50 22:44 31.08.2019
5959 Clouds 25 1026 16 16093 2.6 50 22:26 31.08.2019
5960 Clear 24 1027 17 16093 4.88 45.257 21:58 31.08.2019
5961 Clear 24 1027 17 16093 5.23 42.946 21:39 31.08.2019
5962 Clear 22 1028 18 16093 4.6 50 21:21 31.08.2019
5963 Clear 23 1028 18 16093 4.6 50 20:49 31.08.2019
5964 Clear 23 1028 18 16093 4.6 50 20:31 31.08.2019
5965 Clear 22 1028 18 16093 4.6 50 19:57 31.08.2019
5966 Clear 21 1028 28 16093 4.1 20 19:39 31.08.2019
5967 Clear 21 1028 28 16093 4.1 20 19:39 31.08.2019
5968 Clear 20 1028 42 12874 1.5 300 19:20 31.08.2019
5969 Clear 20 1028 42 12874 1.5 300 18:40 31.08.2019
5970 Clear 17 1028 42 12874 1.5 300 18:21 31.08.2019
5971 Clear 18 1028 42 12874 1.5 300 17:58 31.08.2019
5972 Clear 18 1029 51 12874 1.5 320 17:37 31.08.2019
5973 Clouds 15 1029 62 16093 1.5 260 17:19 31.08.2019
5974 Clouds 15 1029 62 16093 1.5 260 17:19 31.08.2019
5975 Clouds 15 1029 62 16093 1.5 260 16:58 31.08.2019
5976 Clouds 15 1029 62 16093 1.5 260 16:58 31.08.2019
5977 Clouds 15 1029 62 16093 1.5 260 16:40 31.08.2019
5978 Clouds 15 1029 62 16093 1.5 260 16:21 31.08.2019
5979 Clouds 15 1029 62 16093 1.5 260 16:21 31.08.2019
5980 Clouds 12 1029 62 16093 0.77 68.599 15:57 31.08.2019
5981 Clouds 12 1029 62 16093 0.77 68.599 15:36 31.08.2019
5982 Clouds 12 1028 71 12874 2.1 80 15:18 31.08.2019
5983 Clouds 12 1028 71 12874 2.1 80 14:41 31.08.2019
5984 Clouds 12 1028 71 12874 2.1 80 14:22 31.08.2019
5985 Clear 10 1027 71 12874 3.6 60 13:42 31.08.2019
5986 Clear 11 1027 71 12874 3.6 60 13:23 31.08.2019
5987 Clear 11 1028 66 12874 2.1 60 12:59 31.08.2019
5988 Clear 11 1028 66 12874 2.1 60 12:39 31.08.2019
5989 Clear 12 1028 67 14484 2.6 40 12:20 31.08.2019
5990 Clear 12 1028 67 14484 2.6 40 12:20 31.08.2019
5991 Clear 12 1028 67 14484 2.6 40 11:55 31.08.2019
5992 Clear 12 1028 67 14484 2.6 40 11:36 31.08.2019
5993 Clear 13 1028 51 14484 2.1 280 11:18 31.08.2019
5994 Clear 13 1028 51 14484 2.1 280 11:18 31.08.2019
5995 Clear 14 1028 51 14484 2.1 280 10:42 31.08.2019
5996 Clouds 13 1030 71 9656 0.6 39.598 10:19 31.08.2019
5997 Clouds 14 1030 71 9656 0.6 39.598 09:59 31.08.2019
5998 Clouds 14 1030 71 9656 0.59 2.926 09:38 31.08.2019
5999 Clear 15 1029 51 14484 3.1 300 09:19 31.08.2019
6000 Clear 15 1029 51 14484 3.1 300 08:43 31.08.2019
6001 Clear 15 1029 51 14484 3.1 300 08:23 31.08.2019
6002 Clouds 16 1029 45 16093 2.1 20 07:41 31.08.2019
6003 Clouds 16 1028 45 16093 3.1 20 07:22 31.08.2019
6004 Clouds 16 1028 45 16093 3.1 20 06:41 31.08.2019
6005 Clouds 16 1028 45 16093 3.1 20 06:41 31.08.2019
6006 Clouds 17 1027 45 16093 6.2 30 06:18 31.08.2019
6007 Clouds 17 1027 45 16093 6.2 30 06:18 31.08.2019
6008 Clouds 17 1027 45 16093 6.2 30 05:33 31.08.2019
6009 Clouds 19 1026 40 16093 6.7 30 04:36 31.08.2019
6010 Clouds 19 1025 37 16093 4.1 240 03:45 31.08.2019
6011 Clouds 22 1025 35 11265 4.1 220 02:49 31.08.2019
6012 Ash 23 1025 33 11265 3.6 220 01:55 31.08.2019
6013 Ash 23 1025 33 11265 3.6 220 01:34 31.08.2019
6014 Ash 24 1025 29 11265 3.6 30 00:52 31.08.2019
6015 Ash 24 1025 29 11265 3.6 30 00:30 31.08.2019
6016 Clouds 25 1026 27 11265 4.1 330 23:58 30.08.2019
6017 Clouds 25 1026 27 11265 4.1 330 23:39 30.08.2019
6018 Clouds 23 1027 31 11265 5.1 70 23:18 30.08.2019
6019 Clouds 24 1027 31 11265 5.1 70 22:42 30.08.2019
6020 Clouds 21 1030 34 12874 3.1 210 22:24 30.08.2019
6021 Clouds 22 1028 31 11265 2.6 230 21:58 30.08.2019
6022 Clouds 23 1028 31 11265 2.6 230 21:38 30.08.2019
6023 Clouds 23 1029 31 11265 2.1 320 21:19 30.08.2019
6024 Clouds 23 1029 31 11265 2.1 320 20:59 30.08.2019
6025 Clouds 23 1029 31 11265 2.1 320 20:40 30.08.2019
6026 Clear 21 1029 35 11265 1.5 50 20:20 30.08.2019
6027 Clear 21 1029 42 12874 1.5 80 19:57 30.08.2019
6028 Clear 22 1029 35 11265 1.5 50 19:57 30.08.2019
6029 Clear 21 1029 42 12874 1.5 80 19:39 30.08.2019
6030 Clear 21 1029 42 12874 1.5 80 19:19 30.08.2019
6031 Clear 20 1029 45 12874 2.1 150 18:49 30.08.2019
6032 Clear 18 1029 59 12874 2.1 90 18:25 30.08.2019
6033 Clear 18 1029 59 12874 2.1 90 17:59 30.08.2019
6034 Clear 18 1029 59 12874 2.1 90 17:41 30.08.2019
6035 Clear 16 1029 63 12874 2.1 90 17:19 30.08.2019
6036 Clear 15 1029 63 12874 2.1 90 16:59 30.08.2019
6037 Clear 15 1029 63 12874 2.1 90 16:40 30.08.2019
6038 Clear 15 1029 63 12874 2.1 90 16:22 30.08.2019
6039 Clear 13 1029 71 16093 2.1 100 15:43 30.08.2019
6040 Clear 12 1029 71 16093 2.1 100 15:23 30.08.2019
6041 Clear 13 1029 71 16093 2.1 100 15:23 30.08.2019
6042 Clear 12 1029 76 16093 3.1 280 14:47 30.08.2019
6043 Clear 12 1029 76 16093 3.1 280 14:29 30.08.2019
6044 Clear 10 1028 76 16093 2.6 60 13:58 30.08.2019
6045 Clear 10 1028 76 16093 2.6 60 13:40 30.08.2019
6046 Clouds 11 1028 82 19312 2.1 70 13:22 30.08.2019
6047 Clouds 12 1028 82 19312 2.1 70 12:46 30.08.2019
6048 Clouds 12 1028 82 19312 2.1 70 12:27 30.08.2019
6049 Clouds 13 1028 72 19312 2.6 320 11:59 30.08.2019
6050 Clouds 13 1028 72 19312 2.6 320 11:41 30.08.2019
6051 Clouds 12 1031 87 9656 2.6 100 11:23 30.08.2019
6052 Clouds 14 1029 72 19312 4.1 280 10:39 30.08.2019
6053 Clouds 14 1029 72 19312 4.1 280 10:20 30.08.2019
6054 Clouds 14 1029 67 19312 4.6 290 09:56 30.08.2019
6055 Clouds 14 1029 67 19312 4.6 290 09:56 30.08.2019
6056 Clouds 14 1029 67 19312 4.6 290 09:36 30.08.2019
6057 Clouds 14 1029 67 19312 4.6 290 09:36 30.08.2019
6058 Clouds 15 1029 63 19312 3.6 260 09:18 30.08.2019
6059 Clouds 15 1029 63 19312 3.6 260 09:18 30.08.2019
6060 Clouds 15 1029 63 19312 3.6 260 08:44 30.08.2019
6061 Clouds 15 1029 63 19312 3.6 260 08:24 30.08.2019
6062 Rain 15 1030 63 19312 4.1 290 07:56 30.08.2019
6063 Rain 15 1030 63 19312 4.1 290 07:37 30.08.2019
6064 Rain 15 1030 63 19312 4.1 290 07:37 30.08.2019
6065 Rain 15 1029 59 16093 5.1 280 07:18 30.08.2019
6066 Rain 16 1029 59 16093 5.1 280 06:40 30.08.2019
6067 Rain 16 1028 59 16093 2.6 180 06:21 30.08.2019
6068 Rain 16 1028 59 16093 2.6 180 05:32 30.08.2019
6069 Thunderstorm 19 1025 43 11265 5.7 50 03:57 30.08.2019
6070 Thunderstorm 19 1025 43 11265 5.7 50 03:37 30.08.2019
6071 Thunderstorm 19 1025 43 11265 5.7 50 03:37 30.08.2019
6072 Thunderstorm 19 1025 43 11265 5.7 50 03:37 30.08.2019
6073 Thunderstorm 23 1025 40 11265 7.7 360 02:44 30.08.2019
6074 Thunderstorm 25 1025 36 11265 6.2 10 02:19 30.08.2019
6075 Ash 26 1025 19 12874 3.6 90 00:57 30.08.2019
6076 Clouds 26 1026 19 11265 2.6 100 00:23 30.08.2019
6077 Clouds 26 1026 19 11265 2.6 100 23:49 29.08.2019
6078 Clouds 26 1026 19 11265 2.6 100 23:49 29.08.2019
6079 Clouds 24 1026 22 11265 2.6 90 23:23 29.08.2019
6080 Clouds 25 1026 22 11265 2.6 90 22:58 29.08.2019
6081 Clouds 24 1027 27 11265 1.5 250 22:38 29.08.2019
6082 Clouds 24 1027 27 11265 1.5 250 22:20 29.08.2019
6083 Clouds 24 1028 29 11265 4.1 330 21:42 29.08.2019
6084 Ash 23 1028 31 9656 1.5 160 21:21 29.08.2019
6085 Ash 22 1028 31 9656 1.5 160 20:59 29.08.2019
6086 Ash 22 1028 31 9656 1.5 160 20:41 29.08.2019
6087 Ash 21 1029 40 9656 2.6 300 20:19 29.08.2019
6088 Ash 21 1030 45 9656 3.6 360 19:56 29.08.2019
6089 Ash 21 1030 45 9656 3.6 360 19:38 29.08.2019
6090 Ash 21 1030 45 9656 3.6 360 19:19 29.08.2019
6091 Haze 20 1030 49 9656 4.1 340 18:41 29.08.2019
6092 Haze 20 1030 49 9656 4.1 340 18:20 29.08.2019
6093 Clear 19 1030 59 9656 1 100 17:56 29.08.2019
6094 Clear 19 1030 59 9656 1 100 17:36 29.08.2019
6095 Mist 17 1030 59 9656 1 100 17:18 29.08.2019
6096 Mist 15 1030 72 8047 2.1 40 16:43 29.08.2019
6097 Mist 14 1031 87 4828 0.67 108.57 16:23 29.08.2019
6098 Mist 13 1031 87 4828 0.67 108.57 15:57 29.08.2019
6099 Mist 12 1029 82 9656 3.6 70 15:37 29.08.2019
6100 Mist 13 1030 87 3219 0.39 52.924 15:18 29.08.2019
6101 Mist 13 1030 87 3219 0.39 52.924 14:43 29.08.2019
6102 Clouds 11 1028 76 11265 3.1 100 14:21 29.08.2019
6103 Clouds 11 1028 76 11265 3.1 100 13:58 29.08.2019
6104 Clouds 11 1028 76 11265 3.1 100 13:58 29.08.2019
6105 Clouds 11 1028 76 11265 3.1 100 13:39 29.08.2019
6106 Clouds 12 1028 72 12874 2.6 330 13:20 29.08.2019
6107 Clouds 13 1028 72 12874 2.6 330 12:58 29.08.2019
6108 Clouds 13 1028 72 12874 2.6 330 12:39 29.08.2019
6109 Clear 13 1029 67 12874 3.1 310 12:20 29.08.2019
6110 Clear 13 1029 67 12874 3.1 310 11:57 29.08.2019
6111 Clear 13 1029 67 12874 3.1 310 11:36 29.08.2019
6112 Clear 13 1029 63 14484 4.1 290 11:18 29.08.2019
6113 Clear 14 1029 63 14484 4.1 290 10:42 29.08.2019
6114 Clear 14 1029 63 14484 4.1 290 10:42 29.08.2019
6115 Clear 14 1029 63 14484 3.1 320 10:23 29.08.2019
6116 Clear 14 1029 63 14484 3.1 320 09:42 29.08.2019
6117 Clear 14 1030 55 14484 3.6 350 09:21 29.08.2019
6118 Clear 15 1030 55 14484 3.6 350 08:58 29.08.2019
6119 Clear 15 1030 55 14484 3.6 350 08:39 29.08.2019
6120 Clear 15 1030 59 16093 4.1 350 08:21 29.08.2019
6121 Clear 15 1030 59 16093 4.1 350 07:43 29.08.2019
6122 Clear 15 1030 59 16093 4.1 350 07:25 29.08.2019
6123 Clouds 16 1029 52 19312 5.1 20 06:43 29.08.2019
6124 Clouds 16 1029 52 19312 5.1 20 06:21 29.08.2019
6125 Clouds 17 1028 37 19312 6.2 340 05:38 29.08.2019
6126 Clouds 18 1027 32 16093 3.1 320 04:50 29.08.2019
6127 Clouds 19 1027 32 16093 3.1 320 04:28 29.08.2019
6128 Clouds 23 1025 31 16093 6.7 20 02:44 29.08.2019
6129 Clouds 24 1025 31 16093 8.2 10 01:42 29.08.2019
6130 Clouds 25 1025 27 16093 5.1 20 00:58 29.08.2019
6131 Clouds 25 1025 27 16093 5.1 20 00:40 29.08.2019
6132 Clouds 25 1027 35 8047 5.7 50 00:20 29.08.2019
6133 Clouds 25 1025 27 16093 6.2 30 23:41 28.08.2019
6134 Clouds 24 1026 27 12874 5.1 360 23:22 28.08.2019
6135 Clouds 24 1026 27 12874 5.1 360 22:57 28.08.2019
6136 Clouds 25 1026 26 12874 4.1 310 22:38 28.08.2019
6137 Clouds 25 1027 33 11265 4.1 60 22:18 28.08.2019
6138 Clouds 25 1027 33 11265 4.1 60 21:57 28.08.2019
6139 Clouds 25 1027 33 11265 4.1 60 21:38 28.08.2019
6140 Haze 24 1027 33 11265 5.1 20 21:19 28.08.2019
6141 Haze 23 1028 43 9656 4.1 60 20:41 28.08.2019
6142 Haze 23 1028 43 9656 3.6 90 20:22 28.08.2019
6143 Mist 22 1029 52 8047 3.07 56.951 19:55 28.08.2019
6144 Mist 21 1029 52 8047 3.07 56.951 19:37 28.08.2019
6145 Mist 21 1029 52 8047 3.07 56.951 19:37 28.08.2019
6146 Mist 21 1029 52 8047 3.07 56.951 19:18 28.08.2019
6147 Mist 19 1029 59 8047 1.5 240 18:41 28.08.2019
6148 Mist 19 1031 93 1609 1 280 18:21 28.08.2019
6149 Mist 17 1029 59 8047 0.46 60.333 17:39 28.08.2019
6150 Fog 17 1029 59 8047 0.46 60.333 17:20 28.08.2019
6151 Fog 16 1029 72 8047 3.1 290 16:58 28.08.2019
6152 Fog 16 1029 72 8047 3.1 290 16:40 28.08.2019
6153 Fog 16 1031 93 805 1.5 70 16:18 28.08.2019
6154 Mist 15 1029 77 9656 2.6 110 15:39 28.08.2019
6155 Fog 15 1028 72 9656 0.48 82.326 15:20 28.08.2019
6156 Fog 15 1028 72 9656 0.48 82.326 14:58 28.08.2019
6157 Fog 15 1028 72 9656 0.48 82.326 14:40 28.08.2019
6158 Fog 13 1028 77 9656 2.1 60 14:21 28.08.2019
6159 Fog 13 1028 77 9656 2.1 60 13:59 28.08.2019
6160 Fog 13 1028 77 9656 2.1 60 13:39 28.08.2019
6161 Fog 13 1030 93 201 0.31 91.668 13:20 28.08.2019
6162 Fog 13 1028 77 12874 1.5 50 12:42 28.08.2019
6163 Mist 13 1028 77 12874 1.5 50 12:24 28.08.2019
6164 Mist 14 1027 72 12874 2.1 320 11:59 28.08.2019
6165 Mist 14 1027 72 12874 2.1 320 11:39 28.08.2019
6166 Mist 14 1027 72 12874 3.6 310 11:20 28.08.2019
6167 Mist 15 1027 72 12874 3.6 310 10:56 28.08.2019
6168 Mist 15 1027 72 12874 3.6 310 10:37 28.08.2019
6169 Mist 14 1027 72 12874 3.6 310 10:19 28.08.2019
6170 Mist 15 1028 63 12874 4.1 320 09:41 28.08.2019
6171 Mist 16 1028 59 12874 2.6 340 09:21 28.08.2019
6172 Mist 16 1028 59 12874 2.6 340 08:55 28.08.2019
6173 Mist 16 1028 59 12874 2.6 340 08:36 28.08.2019
6174 Clouds 16 1028 63 12874 3.1 320 08:18 28.08.2019
6175 Clouds 17 1028 63 12874 3.1 320 07:37 28.08.2019
6176 Clouds 17 1027 59 12874 3.6 290 07:19 28.08.2019
6177 Clouds 17 1027 59 12874 3.6 290 06:46 28.08.2019
6178 Clouds 18 1026 56 12874 6.2 230 05:52 28.08.2019
6179 Thunderstorm 18 1026 52 11265 3.6 360 04:40 28.08.2019
6180 Rain 23 1024 46 9656 4.6 20 01:57 28.08.2019
6181 Clouds 25 1023 31 11265 4.1 60 01:30 28.08.2019
6182 Rain 24 1023 33 8047 1.5 60 00:43 28.08.2019
6183 Thunderstorm 23 1024 33 8047 2.1 90 00:23 28.08.2019
6184 Thunderstorm 23 1024 33 8047 2.1 90 23:44 27.08.2019
6185 Thunderstorm 24 1024 33 8047 2.1 90 23:22 27.08.2019
6186 Thunderstorm 24 1025 36 8047 4.1 100 22:59 27.08.2019
6187 Thunderstorm 25 1025 36 8047 4.1 100 22:39 27.08.2019
6188 Thunderstorm 25 1025 36 8047 4.1 100 22:39 27.08.2019
6189 Clouds 24 1026 38 8047 3.6 60 22:20 27.08.2019
6190 Clouds 24 1026 38 8047 3.6 60 21:56 27.08.2019
6191 Clouds 24 1026 38 8047 3.6 60 21:38 27.08.2019
6192 Clouds 23 1026 46 9656 2.1 120 21:18 27.08.2019
6193 Clouds 23 1026 46 9656 2.1 120 20:55 27.08.2019
6194 Clouds 23 1026 46 9656 2.1 120 20:37 27.08.2019
6195 Clouds 22 1027 53 9656 0.99 83.942 20:18 27.08.2019
6196 Clouds 21 1027 53 9656 0.99 83.942 19:42 27.08.2019
6197 Clouds 21 1027 60 9656 3.1 20 19:24 27.08.2019
6198 Clouds 20 1027 60 9656 3.1 20 18:55 27.08.2019
6199 Clouds 19 1027 59 9656 0.99 83.942 18:36 27.08.2019
6200 Clouds 19 1029 55 9656 0.7 177.035 18:18 27.08.2019
6201 Clouds 18 1027 68 8047 1.5 280 17:42 27.08.2019
6202 Clouds 18 1027 68 8047 1.5 280 17:22 27.08.2019
6203 Clouds 16 1027 72 8047 1 30 16:48 27.08.2019
6204 Clouds 15 1027 72 8047 1 30 16:28 27.08.2019
6205 Fog 14 1026 77 8047 1.5 140 15:58 27.08.2019
6206 Fog 14 1026 77 8047 1.5 140 15:40 27.08.2019
6207 Fog 15 1025 77 9656 1 60 15:21 27.08.2019
6208 Fog 15 1025 77 9656 1 60 14:58 27.08.2019
6209 Fog 15 1025 77 9656 1 60 14:40 27.08.2019
6210 Fog 15 1020 93 16093 0.62 165.761 14:20 27.08.2019
6211 Clouds 14 1026 77 9656 1 180 13:42 27.08.2019
6212 Clouds 15 1026 63 9656 1 300 13:23 27.08.2019
6213 -273 0 0 0 0 0 12:55 27.08.2019
6214 Clouds 15 1026 63 9656 1 300 12:36 27.08.2019
6215 Clouds 15 1026 63 11265 1 250 12:18 27.08.2019
6216 Clouds 15 1026 63 11265 1 250 11:43 27.08.2019
6217 Clouds 15 1026 63 11265 1 250 11:23 27.08.2019
6218 Clouds 16 1026 63 11265 2.6 300 10:42 27.08.2019
6219 Clouds 15 1026 67 11265 2.6 220 10:20 27.08.2019
6220 Clouds 15 1026 67 11265 2.6 220 09:57 27.08.2019
6221 Clouds 15 1026 67 11265 2.6 220 09:38 27.08.2019
6222 Thunderstorm 15 1027 72 11265 4.1 240 09:19 27.08.2019
6223 Thunderstorm 15 1027 72 11265 4.1 240 08:46 27.08.2019
6224 Thunderstorm 15 1027 72 11265 4.1 240 08:26 27.08.2019
6225 Clouds 15 1027 72 11265 4.1 240 07:56 27.08.2019
6226 Rain 16 1027 63 12874 3.6 60 07:37 27.08.2019
6227 Rain 16 1027 63 12874 3.6 60 07:37 27.08.2019
6228 Rain 16 1027 63 12874 3.6 60 07:18 27.08.2019
6229 Clouds 16 1026 59 12874 3.1 260 06:48 27.08.2019
6230 Clouds 17 1026 52 14484 3.6 300 06:20 27.08.2019
6231 Clouds 17 1026 52 14484 3.6 300 05:29 27.08.2019
6232 Thunderstorm 17 1024 52 11265 3.6 300 03:45 27.08.2019
6233 Clouds 19 1022 46 9656 2.1 160 03:21 27.08.2019
6234 Thunderstorm 22 1022 40 9656 3.1 200 01:48 27.08.2019
6235 Thunderstorm 22 1022 40 9656 3.1 200 01:26 27.08.2019
6236 Rain 22 1022 43 9656 6.2 150 00:49 27.08.2019
6237 Haze 24 1023 33 11265 3.1 80 00:28 27.08.2019
6238 Haze 24 1023 33 11265 3.1 80 23:44 26.08.2019
6239 Haze 24 1023 33 11265 3.1 80 23:26 26.08.2019
6240 Thunderstorm 25 1025 40 9656 2.1 190 22:59 26.08.2019
6241 Clouds 25 1024 41 9656 1.5 80 22:37 26.08.2019
6242 Clouds 25 1024 41 9656 1.5 80 22:19 26.08.2019
6243 Clouds 23 1025 43 9656 2.1 170 21:40 26.08.2019
6244 Clouds 23 1025 43 9656 2.1 170 21:22 26.08.2019
6245 Haze 22 1026 49 9656 2.1 100 20:59 26.08.2019
6246 Haze 22 1026 49 9656 2.1 100 20:41 26.08.2019
6247 Haze 22 1026 49 9656 2.1 100 20:20 26.08.2019
6248 Haze 21 1027 52 9656 2.1 40 19:58 26.08.2019
6249 Haze 21 1027 52 9656 2.1 40 19:58 26.08.2019
6250 Haze 21 1027 52 9656 2.1 40 19:40 26.08.2019
6251 Haze 21 1027 52 9656 2.1 40 19:19 26.08.2019
6252 Haze 21 1027 52 9656 3.1 110 18:55 26.08.2019
6253 Haze 21 1027 52 9656 3.1 110 18:37 26.08.2019
6254 Mist 20 1027 52 9656 3.1 110 18:18 26.08.2019
6255 Mist 19 1027 63 11265 0.57 208.74 17:43 26.08.2019
6256 Mist 19 1027 63 11265 0.57 208.74 17:19 26.08.2019
6257 Fog 18 1027 63 11265 1.5 150 16:56 26.08.2019
6258 Fog 18 1027 63 11265 1.5 150 16:38 26.08.2019
6259 Fog 17 1027 77 11265 2.6 80 16:18 26.08.2019
6260 Fog 16 1026 72 11265 2.6 80 15:42 26.08.2019
6261 Fog 16 1026 72 11265 2.6 80 15:22 26.08.2019
6262 Fog 15 1028 93 805 2.1 200 14:57 26.08.2019
6263 Mist 13 1026 77 12874 1.5 70 14:37 26.08.2019
6264 Mist 13 1026 77 12874 1.5 70 14:19 26.08.2019
6265 Mist 13 1026 87 12874 0.51 177.994 13:42 26.08.2019
6266 Mist 13 1026 87 12874 0.96 228.282 13:21 26.08.2019
6267 Mist 13 1026 82 12874 3.6 100 12:46 26.08.2019
6268 Mist 13 1026 82 12874 3.6 100 12:28 26.08.2019
6269 Clouds 14 1026 77 12874 2.1 80 11:59 26.08.2019
6270 Clouds 14 1026 77 12874 2.1 80 11:38 26.08.2019
6271 Clouds 14 1026 77 12874 2.1 80 11:19 26.08.2019
6272 Clouds 14 1026 77 12874 1.5 270 10:55 26.08.2019
6273 Clouds 14 1026 77 12874 1.5 270 10:55 26.08.2019
6274 Clouds 14 1026 77 12874 1.5 270 10:36 26.08.2019
6275 Clouds 15 1026 77 12874 1.5 270 10:18 26.08.2019
6276 Clouds 15 1027 77 16093 2.1 260 09:41 26.08.2019
6277 Clouds 15 1027 77 16093 2.1 260 09:23 26.08.2019
6278 Clouds 15 1027 77 16093 3.1 310 08:55 26.08.2019
6279 Thunderstorm 15 1028 82 12874 4.1 300 08:37 26.08.2019
6280 Thunderstorm 15 1028 82 12874 4.1 300 08:18 26.08.2019
6281 Thunderstorm 16 1028 82 11265 7.2 310 07:42 26.08.2019
6282 Thunderstorm 16 1028 82 11265 7.2 310 07:23 26.08.2019
6283 Thunderstorm 16 1027 82 9656 4.1 290 06:49 26.08.2019
6284 Thunderstorm 17 1027 77 9656 5.7 280 06:25 26.08.2019
6285 Rain 16 1027 87 9656 5.7 250 05:51 26.08.2019
6286 Clouds 19 1025 52 12874 5.1 280 04:31 26.08.2019
6287 Clouds 22 1025 49 12874 3.1 300 03:19 26.08.2019
6288 Thunderstorm 24 1023 38 12874 3.1 90 01:40 26.08.2019
6289 Thunderstorm 24 1023 38 12874 3.1 90 01:21 26.08.2019
6290 Thunderstorm 24 1023 34 12874 5.1 120 00:41 26.08.2019
6291 Thunderstorm 24 1023 34 12874 5.1 120 00:22 26.08.2019
6292 Thunderstorm 25 1024 29 12874 3.1 20 23:43 25.08.2019
6293 Thunderstorm 25 1024 29 12874 3.1 20 23:19 25.08.2019
6294 Clouds 26 1025 31 12874 4.1 220 22:57 25.08.2019
6295 Clouds 26 1025 31 12874 4.1 220 22:39 25.08.2019
6296 Clouds 26 1025 31 12874 4.1 220 22:20 25.08.2019
6297 Clouds 25 1026 36 12874 4.6 80 21:57 25.08.2019
6298 Clouds 25 1026 36 12874 4.6 80 21:37 25.08.2019
6299 Clouds 25 1026 36 12874 4.6 80 21:18 25.08.2019
6300 Clouds 24 1027 46 9656 2.6 120 20:40 25.08.2019
6301 Clouds 23 1027 46 9656 2.6 120 20:20 25.08.2019
6302 Clouds 22 1028 49 9656 1.18 264.067 19:58 25.08.2019
6303 Clouds 22 1028 60 9656 1.18 264.067 19:39 25.08.2019
6304 Clouds 22 1028 60 9656 1.18 264.067 19:19 25.08.2019
6305 Haze 20 1029 68 9656 2.1 100 18:57 25.08.2019
6306 Haze 20 1029 68 9656 2.1 100 18:39 25.08.2019
6307 Haze 20 1029 68 9656 2.1 100 18:21 25.08.2019
6308 Mist 18 1029 72 9656 2.1 70 17:43 25.08.2019
6309 Mist 18 1029 72 9656 2.1 70 17:25 25.08.2019
6310 Mist 16 1029 77 9656 2.1 80 16:56 25.08.2019
6311 Mist 16 1029 77 9656 2.1 80 16:36 25.08.2019
6312 Mist 16 1029 77 9656 2.1 80 16:18 25.08.2019
6313 Mist 15 1028 82 8047 1.45 220.691 15:42 25.08.2019
6314 Mist 15 1028 82 8047 0.88 194.005 15:24 25.08.2019
6315 Mist 14 1028 82 8047 2.1 80 14:43 25.08.2019
6316 Mist 14 1028 82 8047 2.1 80 14:24 25.08.2019
6317 Clouds 14 1027 87 8047 0.88 194.005 13:56 25.08.2019
6318 Clouds 14 1027 87 8047 0.88 194.005 13:37 25.08.2019
6319 Clouds 13 1027 87 8047 0.66 207.92 13:18 25.08.2019
6320 Clouds 12 1027 87 8047 2.1 70 12:42 25.08.2019
6321 Clouds 12 1027 87 8047 2.1 70 12:24 25.08.2019
6322 Clouds 13 1027 82 9656 3.1 80 11:58 25.08.2019
6323 Clouds 13 1027 82 9656 3.1 80 11:38 25.08.2019
6324 Clouds 13 1027 82 9656 3.1 80 11:20 25.08.2019
6325 Clouds 15 1027 72 9656 1.5 110 10:56 25.08.2019
6326 Clouds 15 1027 72 9656 1.5 110 10:37 25.08.2019
6327 Clouds 15 1027 72 9656 1.5 110 10:19 25.08.2019
6328 Clouds 15 1028 72 9656 1 70 09:43 25.08.2019
6329 Clouds 15 1028 72 9656 1 70 09:24 25.08.2019
6330 Clouds 16 1028 68 11265 3.1 100 08:47 25.08.2019
6331 Clouds 16 1028 68 11265 3.1 100 08:29 25.08.2019
6332 Clouds 16 1029 72 11265 3.6 80 07:54 25.08.2019
6333 Clouds 17 1029 72 11265 3.6 80 07:32 25.08.2019
6334 Clouds 18 1028 63 11265 3.6 60 06:39 25.08.2019
6335 Clouds 18 1027 59 11265 3.1 90 05:27 25.08.2019
6336 Clouds 18 1026 63 11265 4.6 210 03:48 25.08.2019
6337 Clouds 22 1025 64 11265 2.6 240 02:44 25.08.2019
6338 Clouds 22 1025 64 11265 2.6 240 02:20 25.08.2019
6339 Thunderstorm 23 1025 56 9656 8.2 120 00:56 25.08.2019
6340 Thunderstorm 23 1024 33 9656 6.7 80 00:24 25.08.2019
6341 Thunderstorm 24 1025 33 9656 2.6 80 23:58 24.08.2019
6342 Thunderstorm 24 1025 33 9656 2.6 80 23:40 24.08.2019
6343 Thunderstorm 24 1025 33 9656 2.6 80 23:22 24.08.2019
6344 Clouds 25 1026 38 9656 2.1 80 22:54 24.08.2019
6345 Clouds 25 1026 38 9656 2.1 80 22:36 24.08.2019
6346 Clouds 25 1026 38 9656 2.1 80 22:18 24.08.2019
6347 Clouds 24 1027 46 9656 3.6 80 21:42 24.08.2019
6348 Clouds 24 1027 46 9656 3.6 80 21:42 24.08.2019
6349 Clouds 24 1027 46 9656 3.6 80 21:42 24.08.2019
6350 Clouds 23 1027 46 9656 3.6 80 21:24 24.08.2019
6351 Clouds 21 1028 46 9656 1.5 30 20:58 24.08.2019
6352 Clouds 21 1028 46 9656 1.5 30 20:40 24.08.2019
6353 Clouds 22 1028 46 9656 1.5 30 20:20 24.08.2019
6354 Clouds 21 1029 49 9656 2.6 80 19:58 24.08.2019
6355 Clouds 21 1029 49 9656 2.6 80 19:39 24.08.2019
6356 Clouds 21 1029 49 9656 2.6 80 19:21 24.08.2019
6357 Clouds 21 1029 49 9656 2.6 70 18:46 24.08.2019
6358 Clouds 20 1029 59 11265 0.42 62.829 18:25 24.08.2019
6359 Clouds 19 1030 59 11265 2.6 110 17:57 24.08.2019
6360 Clouds 18 1030 67 11265 2.6 90 17:39 24.08.2019
6361 Clouds 18 1030 67 11265 2.6 90 17:21 24.08.2019
6362 Clouds 15 1029 67 11265 2.6 130 16:40 24.08.2019
6363 Clouds 16 1029 67 11265 2.6 130 16:19 24.08.2019
6364 Clouds 15 1031 81 6437 1.5 120 15:44 24.08.2019
6365 Mist 14 1028 72 11265 0.25 251.421 15:26 24.08.2019
6366 Mist 14 1030 87 4828 0.25 251.421 14:59 24.08.2019
6367 Mist 14 1028 77 12874 2.6 170 14:40 24.08.2019
6368 Mist 14 1028 77 12874 2.6 170 14:19 24.08.2019
6369 Mist 13 1030 87 3219 4.1 50 13:54 24.08.2019
6370 Mist 13 1027 72 16093 0.25 251.421 13:36 24.08.2019
6371 Mist 13 1027 72 16093 0.68 257.793 13:18 24.08.2019
6372 Clouds 13 1027 72 16093 1.5 150 12:41 24.08.2019
6373 Clouds 13 1027 72 16093 1.5 150 12:22 24.08.2019
6374 Clouds 14 1027 77 16093 2.1 120 11:52 24.08.2019
6375 Clouds 14 1027 77 16093 2.1 120 11:32 24.08.2019
6376 Clouds 14 1028 77 16093 2.6 350 10:59 24.08.2019
6377 Clouds 14 1028 77 16093 2.6 350 10:40 24.08.2019
6378 Clouds 14 1028 77 16093 2.6 350 10:21 24.08.2019
6379 Rain 14 1029 72 12874 2.6 120 09:42 24.08.2019
6380 Rain 15 1029 72 12874 2.6 120 09:19 24.08.2019
6381 Rain 14 1030 77 12874 5.1 110 08:43 24.08.2019
6382 Rain 14 1030 77 12874 5.1 110 08:25 24.08.2019
6383 Rain 15 1030 72 11265 4.6 120 07:53 24.08.2019
6384 Rain 15 1029 67 12874 5.7 110 07:30 24.08.2019
6385 Clouds 15 1028 67 12874 2.1 230 06:52 24.08.2019
6386 Clouds 16 1028 67 12874 2.1 230 06:21 24.08.2019
6387 Rain 16 1028 72 12874 0.61 168.525 05:36 24.08.2019
6388 Clouds 16 1027 77 11265 3.6 10 03:48 24.08.2019
6389 Thunderstorm 16 1026 77 8047 4.1 60 03:28 24.08.2019
6390 Thunderstorm 19 1026 82 4828 5.7 50 02:18 24.08.2019
6391 Thunderstorm 20 1025 68 9656 4.1 80 01:25 24.08.2019
6392 Thunderstorm 20 1025 59 9656 5.7 130 00:47 24.08.2019
6393 Thunderstorm 20 1025 59 9656 5.7 130 00:23 24.08.2019
6394 Thunderstorm 20 1025 59 9656 5.7 130 00:23 24.08.2019
6395 Thunderstorm 22 1028 87 4828 1.5 210 23:45 23.08.2019
6396 Thunderstorm 22 1028 87 4828 1.5 210 23:45 23.08.2019
6397 Thunderstorm 22 1024 43 9656 7.2 260 23:20 23.08.2019
6398 Thunderstorm 23 1029 77 1609 7.7 220 22:45 23.08.2019
6399 Clouds 24 1025 41 9656 2.6 350 22:27 23.08.2019
6400 Clouds 24 1026 41 9656 4.1 30 21:56 23.08.2019
6401 Clouds 24 1026 41 9656 4.1 30 21:37 23.08.2019
6402 Clouds 24 1026 41 9656 4.1 30 21:37 23.08.2019
6403 Clouds 24 1026 41 9656 4.1 30 21:19 23.08.2019
6404 Clouds 23 1026 41 8047 2.6 310 20:51 23.08.2019
6405 Clouds 23 1027 49 8047 2.6 100 20:33 23.08.2019
6406 Clouds 22 1027 49 8047 2.1 40 19:47 23.08.2019
6407 Clouds 22 1027 49 8047 2.1 40 19:19 23.08.2019
6408 Clouds 21 1027 56 8047 3.6 50 18:56 23.08.2019
6409 Clouds 21 1027 56 8047 3.6 50 18:37 23.08.2019
6410 Clouds 21 1027 56 8047 3.6 50 18:19 23.08.2019
6411 Clouds 19 1028 63 8047 2.1 80 17:42 23.08.2019
6412 Clouds 19 1028 63 8047 2.1 80 17:24 23.08.2019
6413 Clouds 17 1028 72 8047 2.1 80 16:56 23.08.2019
6414 Clouds 17 1028 72 8047 2.1 80 16:38 23.08.2019
6415 Clouds 17 1028 72 8047 2.1 80 16:20 23.08.2019
6416 Clouds 16 1028 77 8047 3.6 80 15:40 23.08.2019
6417 Clouds 16 1028 77 8047 3.6 80 15:22 23.08.2019
6418 Clouds 16 1028 77 8047 3.6 80 14:56 23.08.2019
6419 Clouds 16 1028 77 8047 3.6 80 14:38 23.08.2019
6420 Clouds 16 1028 77 8047 3.6 80 14:20 23.08.2019
6421 Clouds 14 1027 77 9656 2.1 60 13:42 23.08.2019
6422 Clouds 14 1027 77 9656 2.1 60 13:23 23.08.2019
6423 Clouds 15 1027 72 9656 3.1 110 13:00 23.08.2019
6424 Clouds 15 1027 72 9656 3.1 110 12:41 23.08.2019
6425 Clouds 15 1027 72 9656 3.1 110 12:22 23.08.2019
6426 Clouds 15 1027 72 9656 1.5 50 11:58 23.08.2019
6427 Clouds 15 1027 72 9656 1.5 50 11:39 23.08.2019
6428 Clouds 15 1027 72 9656 1.5 50 11:19 23.08.2019
6429 Clouds 15 1027 67 9656 2.6 70 10:56 23.08.2019
6430 Clouds 15 1027 67 9656 2.6 70 10:38 23.08.2019
6431 Clouds 15 1027 67 9656 2.6 70 10:18 23.08.2019
6432 Clouds 15 1027 67 9656 2.1 50 09:43 23.08.2019
6433 Clouds 15 1027 67 9656 2.1 50 09:20 23.08.2019
6434 Clouds 15 1027 72 11265 3.1 60 08:45 23.08.2019
6435 Clouds 15 1027 72 11265 3.1 60 08:22 23.08.2019
6436 Clouds 15 1028 72 11265 2.6 330 07:59 23.08.2019
6437 Clouds 15 1028 72 11265 2.6 330 07:40 23.08.2019
6438 Clouds 15 1028 72 11265 2.6 330 07:22 23.08.2019
6439 Clouds 15 1027 63 11265 4.1 300 06:41 23.08.2019
6440 Clouds 15 1027 63 11265 4.1 300 06:22 23.08.2019
6441 Clouds 16 1027 55 12874 6.2 50 05:44 23.08.2019
6442 -273 0 0 0 0 0 05:25 23.08.2019
6443 Clouds 17 1025 52 11265 3.1 140 03:46 23.08.2019
6444 Rain 20 1024 56 11265 2.1 210 02:39 23.08.2019
6445 Rain 20 1024 56 11265 2.1 210 02:20 23.08.2019
6446 Thunderstorm 20 1024 46 8047 5.7 250 00:58 23.08.2019
6447 Thunderstorm 21 1024 46 8047 5.7 250 00:39 23.08.2019
6448 Thunderstorm 21 1024 46 8047 5.7 250 00:18 23.08.2019
6449 Thunderstorm 23 1025 40 9656 5.1 180 23:41 22.08.2019
6450 Thunderstorm 23 1025 40 9656 5.1 180 23:21 22.08.2019
6451 Clouds 24 1019 57 16093 2.6 330 22:42 22.08.2019
6452 Clouds 24 1027 40 9656 2.6 240 22:24 22.08.2019
6453 Clouds 23 1026 41 9656 3.1 90 21:58 22.08.2019
6454 Clouds 23 1026 41 9656 3.1 90 21:40 22.08.2019
6455 Clouds 23 1026 41 9656 3.1 90 21:22 22.08.2019
6456 Clouds 22 1027 46 9656 1.5 130 20:58 22.08.2019
6457 Clouds 22 1027 46 9656 1.5 130 20:39 22.08.2019
6458 Clouds 22 1027 46 9656 1.5 130 20:20 22.08.2019
6459 Clouds 21 1028 52 9656 2.6 140 19:56 22.08.2019
6460 Clouds 21 1028 52 9656 2.6 140 19:38 22.08.2019
6461 Clouds 21 1028 52 9656 2.6 140 19:20 22.08.2019
6462 Rain 20 1028 56 11265 3.6 120 18:57 22.08.2019
6463 Rain 20 1028 56 11265 3.6 120 18:39 22.08.2019
6464 Rain 20 1028 56 11265 3.6 120 18:19 22.08.2019
6465 Rain 19 1031 72 8047 2.1 70 17:43 22.08.2019
6466 Clouds 19 1028 59 0 2.68 90 17:24 22.08.2019
6467 Rain 17 1028 67 12874 1.22 244.108 16:59 22.08.2019
6468 Rain 17 1028 67 12874 1.22 244.108 16:40 22.08.2019
6469 Rain 17 1028 67 12874 1.22 244.108 16:22 22.08.2019
6470 Rain 17 1028 67 12874 1.22 244.108 16:22 22.08.2019
6471 Rain 17 1028 67 12874 1.22 244.108 16:21 22.08.2019
6472 Rain 17 1028 67 12874 1.22 244.108 16:21 22.08.2019
6473 Clouds 17 1028 67 0 1.22 244.108 15:59 22.08.2019
6474 Clouds 17 1028 67 0 1.22 244.108 15:59 22.08.2019
6475 Fog 18 1022 93 8047 1.22 244.108 15:40 22.08.2019
6476 Fog 18 1022 93 8047 1.22 244.108 15:40 22.08.2019
6477 Fog 18 1022 93 8047 1.22 244.108 15:40 22.08.2019
6478 Fog 16 1028 72 12874 0.91 215.245 15:21 22.08.2019
6479 Fog 16 1028 72 12874 0.91 215.245 14:57 22.08.2019
6480 Fog 16 1028 72 12874 0.91 215.245 14:38 22.08.2019
6481 Fog 16 1028 72 12874 0.91 215.245 14:18 22.08.2019
6482 Clouds 14 1027 77 16093 1.5 190 13:56 22.08.2019
6483 Clouds 14 1027 77 16093 1.5 190 13:37 22.08.2019
6484 Clouds 14 1027 77 16093 1.5 190 13:18 22.08.2019
6485 Clouds 14 1027 72 16093 2.6 140 12:40 22.08.2019
6486 Clouds 14 1027 72 16093 2.6 140 12:21 22.08.2019
6487 Clouds 14 1027 77 16093 2.1 210 11:55 22.08.2019
6488 Clouds 14 1027 77 16093 2.1 210 11:36 22.08.2019
6489 Clouds 14 1027 77 16093 2.1 210 11:18 22.08.2019
6490 Clouds 15 1027 72 16093 1.5 240 10:57 22.08.2019
6491 Clouds 15 1027 72 16093 1.5 240 10:36 22.08.2019
6492 Clouds 15 1027 72 16093 1.5 240 10:18 22.08.2019
6493 Rain 18 1027 63 0 2.24 270 09:40 22.08.2019
6494 Clouds 16 1028 63 19312 2.6 270 09:21 22.08.2019
6495 Clouds 16 1028 63 19312 2.6 270 08:59 22.08.2019
6496 Clouds 16 1028 63 19312 2.6 270 08:40 22.08.2019
6497 Clouds 16 1028 63 19312 2.6 270 08:21 22.08.2019
6498 Clouds 17 1028 59 19312 3.1 130 07:43 22.08.2019
6499 Clouds 17 1028 59 19312 3.1 130 07:24 22.08.2019
6500 Clouds 16 1027 55 19312 5.7 130 06:58 22.08.2019
6501 Clouds 16 1027 55 19312 5.7 130 06:40 22.08.2019
6502 Clouds 17 1027 55 19312 5.7 130 06:19 22.08.2019
6503 Clouds 18 1026 49 16093 6.2 150 04:42 22.08.2019
6504 Clouds 23 1025 43 12874 4.6 120 02:56 22.08.2019
6505 Clouds 22 1025 43 12874 4.6 120 02:34 22.08.2019
6506 Clouds 23 1025 43 12874 4.6 180 01:26 22.08.2019
6507 Clouds 23 1025 43 12874 5.7 90 00:48 22.08.2019
6508 Clouds 23 1025 43 12874 5.7 90 00:30 22.08.2019
6509 Clouds 23 1025 46 12874 4.6 50 23:58 21.08.2019
6510 Clouds 23 1025 46 12874 4.6 50 23:39 21.08.2019
6511 Clouds 23 1025 46 12874 4.6 50 23:19 21.08.2019
6512 Clouds 23 1026 40 12874 4.1 120 22:55 21.08.2019
6513 Clouds 23 1026 40 12874 4.1 120 22:37 21.08.2019
6514 Clouds 23 1026 40 12874 4.1 120 22:19 21.08.2019
6515 Clouds 23 1026 40 11265 3.1 40 21:55 21.08.2019
6516 Clouds 23 1026 40 11265 3.1 40 21:36 21.08.2019
6517 Clouds 22 1026 40 11265 3.1 40 21:18 21.08.2019
6518 Clear 22 1027 37 11265 2.1 190 20:43 21.08.2019
6519 Clear 22 1027 37 11265 2.1 190 20:24 21.08.2019
6520 Clear 21 1028 49 9656 2.6 80 19:57 21.08.2019
6521 Clear 21 1028 49 9656 2.6 80 19:39 21.08.2019
6522 Clear 21 1028 49 9656 2.6 80 19:20 21.08.2019
6523 Clear 20 1028 49 9656 2.2 66.89 18:55 21.08.2019
6524 Clear 19 1029 55 11265 1 190 18:37 21.08.2019
6525 Smoke 18 1029 63 12874 2.1 70 18:19 21.08.2019
6526 Smoke 17 1029 63 12874 2.1 70 17:42 21.08.2019
6527 Smoke 17 1029 63 12874 2.1 70 17:20 21.08.2019
6528 Smoke 16 1029 67 12874 2.1 100 16:54 21.08.2019
6529 Smoke 15 1028 76 16093 3.1 110 16:36 21.08.2019
6530 Smoke 15 1028 76 16093 3.1 110 16:18 21.08.2019
6531 Clouds 12 1028 76 16093 2.1 90 15:42 21.08.2019
6532 Clouds 12 1028 76 16093 2.1 90 15:22 21.08.2019
6533 Clouds 13 1028 76 12874 1 30 14:59 21.08.2019
6534 Clouds 13 1028 76 12874 1 30 14:39 21.08.2019
6535 Clouds 13 1028 76 12874 1 30 14:21 21.08.2019
6536 Clouds 13 1028 76 12874 1 30 14:21 21.08.2019
6537 Clouds 12 1027 67 16093 2.1 290 13:58 21.08.2019
6538 Clouds 12 1027 67 16093 2.1 290 13:40 21.08.2019
6539 Clouds 12 1027 67 16093 2.1 290 13:19 21.08.2019
6540 Clouds 13 1027 71 19312 3.6 290 12:44 21.08.2019
6541 Clouds 13 1027 71 19312 3.6 290 12:25 21.08.2019
6542 Clouds 13 1027 71 19312 3.6 300 11:59 21.08.2019
6543 Clouds 14 1027 71 19312 3.6 300 11:41 21.08.2019
6544 Clouds 14 1027 71 19312 3.6 300 11:22 21.08.2019
6545 Clouds 15 1027 67 12874 3.1 280 10:57 21.08.2019
6546 Clouds 15 1027 67 12874 3.1 280 10:38 21.08.2019
6547 Clouds 13 1027 67 12874 3.1 280 10:20 21.08.2019
6548 Clouds 14 1027 67 14484 3.6 300 09:57 21.08.2019
6549 Clouds 14 1027 67 14484 3.6 300 09:37 21.08.2019
6550 Clouds 14 1027 67 14484 3.6 300 09:37 21.08.2019
6551 Clouds 14 1027 67 14484 3.6 300 09:18 21.08.2019
6552 Clouds 14 1028 63 16093 2.6 360 08:44 21.08.2019
6553 Clouds 14 1028 63 16093 2.6 360 08:44 21.08.2019
6554 Clouds 14 1028 63 16093 2.6 360 08:24 21.08.2019
6555 Clouds 15 1028 59 16093 3.1 20 07:43 21.08.2019
6556 Clouds 15 1028 59 16093 3.1 20 07:24 21.08.2019
6557 Clouds 16 1028 59 16093 4.1 360 06:50 21.08.2019
6558 Clouds 16 1028 59 16093 4.1 360 06:28 21.08.2019
6559 Clouds 17 1027 55 16093 6.2 40 05:47 21.08.2019
6560 Clouds 17 1027 55 16093 6.2 40 05:25 21.08.2019
6561 Clouds 19 1025 46 16093 8.7 40 03:56 21.08.2019
6562 Clouds 24 1023 38 16093 5.7 90 01:52 21.08.2019
6563 Clouds 24 1023 38 16093 5.7 90 01:23 21.08.2019
6564 Clouds 25 1024 36 16093 5.7 60 00:38 21.08.2019
6565 Clouds 25 1024 36 16093 5.7 60 00:18 21.08.2019
6566 Clouds 25 1024 33 16093 3.1 40 23:43 20.08.2019
6567 Clouds 25 1024 33 16093 3.1 40 23:19 20.08.2019
6568 Clouds 25 1024 33 16093 4.1 50 22:58 20.08.2019
6569 Clouds 25 1024 33 16093 4.1 50 22:39 20.08.2019
6570 Clouds 24 1025 33 16093 2.6 50 22:21 20.08.2019
6571 Clouds 23 1026 35 16093 2.6 280 21:57 20.08.2019
6572 -273 0 0 0 0 0 21:57 20.08.2019
6573 Clouds 23 1026 35 16093 2.6 280 21:38 20.08.2019
6574 Clouds 23 1026 35 16093 2.6 280 21:19 20.08.2019
6575 Clouds 22 1026 35 16093 2.1 110 20:56 20.08.2019
6576 Clouds 22 1026 35 16093 2.1 110 20:56 20.08.2019
6577 Clouds 22 1027 37 16093 3.6 360 20:36 20.08.2019
6578 Clouds 21 1027 37 16093 3.6 360 20:36 20.08.2019
6579 Clouds 21 1027 37 16093 3.6 360 20:18 20.08.2019
6580 Clouds 20 1028 39 19312 2.6 50 19:39 20.08.2019
6581 Clouds 20 1028 39 19312 2.6 50 19:20 20.08.2019
6582 Clouds 19 1028 45 19312 2.6 360 18:56 20.08.2019
6583 Clouds 18 1028 45 0 2.24 360 18:38 20.08.2019
6584 Clouds 18 1028 51 19312 2.1 270 18:19 20.08.2019
6585 Clouds 17 1028 51 19312 2.1 270 17:55 20.08.2019
6586 Clouds 17 1028 51 19312 2.1 270 17:37 20.08.2019
6587 Clouds 16 1028 55 19312 2.6 280 17:18 20.08.2019
6588 Clouds 16 1028 55 19312 2.6 280 16:42 20.08.2019
6589 Clouds 16 1028 55 19312 2.6 280 16:23 20.08.2019
6590 Clouds 14 1028 62 19312 2.6 320 15:42 20.08.2019
6591 Clouds 13 1027 62 19312 1.95 45.477 15:19 20.08.2019
6592 Clouds 13 1027 62 19312 1.95 45.477 14:57 20.08.2019
6593 Clouds 13 1027 62 19312 1.95 45.477 14:39 20.08.2019
6594 Clouds 11 1027 66 24140 2.1 270 14:20 20.08.2019
6595 Clouds 11 1027 66 24140 2.1 270 13:56 20.08.2019
6596 Clouds 11 1027 66 24140 2.1 270 13:56 20.08.2019
6597 Clouds 11 1027 66 24140 2.1 270 13:37 20.08.2019
6598 Clouds 11 1026 66 24140 3.6 310 13:18 20.08.2019
6599 Clouds 12 1026 66 24140 3.6 310 12:50 20.08.2019
6600 Clouds 11 1027 76 11265 3.1 50 12:25 20.08.2019
6601 Clouds 12 1026 71 24140 4.1 300 11:56 20.08.2019
6602 Clouds 12 1026 71 24140 4.1 300 11:38 20.08.2019
6603 Clouds 13 1027 62 19312 3.6 20 11:18 20.08.2019
6604 Clouds 13 1027 62 19312 3.6 20 10:56 20.08.2019
6605 Clouds 13 1027 62 19312 3.6 20 10:37 20.08.2019
6606 Clouds 13 1027 62 19312 5.1 350 10:19 20.08.2019
6607 Clouds 14 1027 62 19312 5.1 350 09:42 20.08.2019
6608 Clouds 14 1027 63 19312 6.2 40 09:24 20.08.2019
6609 Clouds 14 1027 63 19312 6.2 40 08:43 20.08.2019
6610 Clouds 14 1027 63 19312 6.2 40 08:25 20.08.2019
6611 Clouds 15 1026 63 19312 6.2 20 07:59 20.08.2019
6612 Clouds 15 1026 63 19312 6.2 20 07:41 20.08.2019
6613 Clouds 15 1028 71 11265 4.1 50 07:22 20.08.2019
6614 Clouds 16 1026 63 19312 5.1 30 06:56 20.08.2019
6615 Clouds 18 1027 71 11265 2.86 50.3 06:24 20.08.2019
6616 Clouds 18 1026 59 19312 9.3 50 05:49 20.08.2019
6617 Clouds 19 1025 55 16093 6.2 30 04:56 20.08.2019
6618 Clouds 20 1025 49 16093 7.2 60 03:37 20.08.2019
6619 Clouds 22 1024 46 16093 10.3 50 02:34 20.08.2019
6620 Clouds 23 1024 43 16093 7.2 30 01:36 20.08.2019
6621 Clouds 24 1023 36 14484 6.2 360 00:50 20.08.2019
6622 Clouds 24 1023 36 14484 6.2 360 00:31 20.08.2019
6623 Clouds 23 1024 38 12874 7.7 60 23:56 19.08.2019
6624 Clouds 23 1024 38 12874 7.7 60 23:37 19.08.2019
6625 Clouds 23 1025 40 14484 8.7 60 23:18 19.08.2019
6626 Clouds 23 1025 40 14484 8.7 60 22:41 19.08.2019
6627 Clouds 23 1026 43 14484 5.7 360 22:21 19.08.2019
6628 Clouds 22 1026 43 14484 5.7 360 21:58 19.08.2019
6629 Clouds 22 1026 43 14484 5.7 360 21:39 19.08.2019
6630 Clouds 22 1026 43 14484 5.7 360 21:20 19.08.2019
6631 Clouds 22 1026 43 14484 5.7 360 21:20 19.08.2019
6632 Clouds 22 1026 40 16093 5.1 30 20:59 19.08.2019
6633 Clouds 22 1026 40 16093 5.1 30 20:38 19.08.2019
6634 Clouds 22 1027 40 14484 4.6 20 20:20 19.08.2019
6635 Clouds 22 1027 40 14484 4.6 20 19:55 19.08.2019
6636 Clouds 22 1027 40 14484 4.6 20 19:55 19.08.2019
6637 Clouds 21 1027 52 14484 3.6 70 19:37 19.08.2019
6638 Clouds 21 1027 52 14484 3.6 70 19:18 19.08.2019
6639 Clouds 21 1027 52 14484 3.6 70 19:18 19.08.2019
6640 Clouds 20 1027 55 12874 4.6 40 18:44 19.08.2019
6641 Clouds 20 1027 55 12874 4.6 40 18:26 19.08.2019
6642 Haze 18 1027 55 11265 4.6 10 17:58 19.08.2019
6643 Haze 18 1027 55 11265 4.6 10 17:40 19.08.2019
6644 Mist 18 1029 93 3219 2.1 280 17:19 19.08.2019
6645 Mist 17 1029 93 3219 2.1 280 16:58 19.08.2019
6646 Fog 17 1027 63 9656 2.6 360 16:37 19.08.2019
6647 Fog 17 1027 63 9656 2.6 360 16:18 19.08.2019
6648 Fog 15 1026 77 9656 1.5 330 15:45 19.08.2019
6649 Fog 15 1026 77 9656 1.5 330 15:20 19.08.2019
6650 Fog 15 1026 77 9656 2.6 300 14:57 19.08.2019
6651 Fog 14 1026 77 9656 2.6 300 14:37 19.08.2019
6652 Fog 14 1026 77 9656 2.6 300 14:19 19.08.2019
6653 Mist 14 1026 72 9656 2.6 60 13:56 19.08.2019
6654 Mist 14 1026 72 9656 2.6 60 13:36 19.08.2019
6655 Mist 14 1026 72 9656 2.6 60 13:18 19.08.2019
6656 Clouds 14 1026 72 11265 2.6 320 12:43 19.08.2019
6657 Clouds 14 1026 72 11265 2.6 320 12:43 19.08.2019
6658 Clouds 14 1026 72 11265 2.6 320 12:23 19.08.2019
6659 Clouds 15 1026 67 11265 3.1 290 11:56 19.08.2019
6660 Clouds 15 1026 67 11265 3.1 290 11:36 19.08.2019
6661 Clouds 15 1026 67 11265 3.1 290 11:18 19.08.2019
6662 Clouds 15 1026 67 11265 2.6 280 10:40 19.08.2019
6663 Clouds 15 1026 67 11265 2.6 280 10:19 19.08.2019
6664 Clear 15 1026 63 12874 3.6 310 09:56 19.08.2019
6665 Clear 15 1026 63 12874 3.6 310 09:38 19.08.2019
6666 Clear 16 1026 63 12874 3.6 310 09:20 19.08.2019
6667 Clouds 16 1027 68 12874 3.6 360 08:45 19.08.2019
6668 Clouds 16 1027 68 12874 3.6 360 08:25 19.08.2019
6669 Clear 17 1026 63 12874 3.1 10 07:57 19.08.2019
6670 Clear 17 1026 63 12874 3.1 10 07:39 19.08.2019
6671 Clear 17 1026 63 12874 3.1 10 07:19 19.08.2019
6672 Clear 17 1026 63 12874 3.1 10 07:19 19.08.2019
6673 Clear 17 1026 63 16093 3.6 80 06:36 19.08.2019
6674 Clouds 18 1025 52 16093 3.1 290 05:28 19.08.2019
6675 Thunderstorm 18 1025 49 11265 2.1 320 04:34 19.08.2019
6676 Thunderstorm 18 1025 52 11265 3.1 360 03:58 19.08.2019
6677 Thunderstorm 21 1025 52 11265 3.1 360 03:18 19.08.2019
6678 Rain 22 1024 52 11265 7.2 90 01:45 19.08.2019
6679 Rain 23 1023 36 11265 5.1 20 00:59 19.08.2019
6680 Thunderstorm 24 1023 31 11265 4.1 30 00:37 19.08.2019
6681 Thunderstorm 24 1023 31 11265 4.1 30 00:18 19.08.2019
6682 Thunderstorm 25 1024 32 9656 2.1 220 23:39 18.08.2019
6683 Thunderstorm 25 1024 32 9656 2.1 220 23:20 18.08.2019
6684 Clouds 25 1025 36 9656 5.1 70 22:40 18.08.2019
6685 Clouds 25 1025 36 9656 5.1 70 22:21 18.08.2019
6686 Haze 24 1026 41 8047 4.1 60 21:57 18.08.2019
6687 Haze 24 1026